<?xml version="1.0" encoding="UTF-8" standalone="no" ?>
<gpx xmlns="http://www.topografix.com/GPX/1/1" xmlns:xsi="http://www.w3.org/2001/XMLSchema-instance" xsi:schemaLocation="http://www.topografix.com/GPX/1/1 http://www.topografix.com/GPX/1/1/gpx.xsd" version="1.1" creator="VisuGPX - https://www.visugpx.com">
  <metadata>
    <name>Trail per AG-- UTAG 2013</name>
    <desc><![CDATA[TRAIL PER L`ALTA GARROTXA- SORTIDA SADERNES I ARRIBADA A BESALU.]]></desc>
  </metadata>
  <trk>
    <name><![CDATA[UTAG 2013]]></name>
    <trkseg>
      <trkpt lat="42.26966" lon="2.59413">
        <ele>304.417</ele>
        <time>2013-04-20T03:02:57Z</time>
      </trkpt>
      <trkpt lat="42.26966" lon="2.59415">
        <ele>303.487</ele>
        <time>2013-04-20T03:03:21Z</time>
      </trkpt>
      <trkpt lat="42.26965" lon="2.59413">
        <ele>304.415</ele>
        <time>2013-04-20T03:03:42Z</time>
      </trkpt>
      <trkpt lat="42.26965" lon="2.59415">
        <ele>304.407</ele>
        <time>2013-04-20T03:03:47Z</time>
      </trkpt>
      <trkpt lat="42.26965" lon="2.59417">
        <ele>304.465</ele>
        <time>2013-04-20T03:04:22Z</time>
      </trkpt>
      <trkpt lat="42.26968" lon="2.59409">
        <ele>302.034</ele>
        <time>2013-04-20T03:04:48Z</time>
      </trkpt>
      <trkpt lat="42.26967" lon="2.59408">
        <ele>295.348</ele>
        <time>2013-04-20T03:05:20Z</time>
      </trkpt>
      <trkpt lat="42.26965" lon="2.5941">
        <ele>299.615</ele>
        <time>2013-04-20T03:05:35Z</time>
      </trkpt>
      <trkpt lat="42.26966" lon="2.5941">
        <ele>299.676</ele>
        <time>2013-04-20T03:05:57Z</time>
      </trkpt>
      <trkpt lat="42.26965" lon="2.5941">
        <ele>301.039</ele>
        <time>2013-04-20T03:06:16Z</time>
      </trkpt>
      <trkpt lat="42.26965" lon="2.5941">
        <ele>299.612</ele>
        <time>2013-04-20T03:06:34Z</time>
      </trkpt>
      <trkpt lat="42.26965" lon="2.59409">
        <ele>298.635</ele>
        <time>2013-04-20T03:06:57Z</time>
      </trkpt>
      <trkpt lat="42.26966" lon="2.59409">
        <ele>298.286</ele>
        <time>2013-04-20T03:07:20Z</time>
      </trkpt>
      <trkpt lat="42.26966" lon="2.59407">
        <ele>297.714</ele>
        <time>2013-04-20T03:07:36Z</time>
      </trkpt>
      <trkpt lat="42.26965" lon="2.59408">
        <ele>295.707</ele>
        <time>2013-04-20T03:07:52Z</time>
      </trkpt>
      <trkpt lat="42.26965" lon="2.5941">
        <ele>294.827</ele>
        <time>2013-04-20T03:08:20Z</time>
      </trkpt>
      <trkpt lat="42.26964" lon="2.59409">
        <ele>297.796</ele>
        <time>2013-04-20T03:08:44Z</time>
      </trkpt>
      <trkpt lat="42.26963" lon="2.59408">
        <ele>297.26</ele>
        <time>2013-04-20T03:08:46Z</time>
      </trkpt>
      <trkpt lat="42.2696" lon="2.59403">
        <ele>297.227</ele>
        <time>2013-04-20T03:08:50Z</time>
      </trkpt>
      <trkpt lat="42.26951" lon="2.59389">
        <ele>296.218</ele>
        <time>2013-04-20T03:09:00Z</time>
      </trkpt>
      <trkpt lat="42.2695" lon="2.59392">
        <ele>293.831</ele>
        <time>2013-04-20T03:09:13Z</time>
      </trkpt>
      <trkpt lat="42.26962" lon="2.59401">
        <ele>293.364</ele>
        <time>2013-04-20T03:09:25Z</time>
      </trkpt>
      <trkpt lat="42.26969" lon="2.59407">
        <ele>295.358</ele>
        <time>2013-04-20T03:09:39Z</time>
      </trkpt>
      <trkpt lat="42.26969" lon="2.59406">
        <ele>298.652</ele>
        <time>2013-04-20T03:09:54Z</time>
      </trkpt>
      <trkpt lat="42.26968" lon="2.59405">
        <ele>298.617</ele>
        <time>2013-04-20T03:09:55Z</time>
      </trkpt>
      <trkpt lat="42.2696" lon="2.59398">
        <ele>298.607</ele>
        <time>2013-04-20T03:10:02Z</time>
      </trkpt>
      <trkpt lat="42.26936" lon="2.59383">
        <ele>295.729</ele>
        <time>2013-04-20T03:10:14Z</time>
      </trkpt>
      <trkpt lat="42.26922" lon="2.59355">
        <ele>291.918</ele>
        <time>2013-04-20T03:10:25Z</time>
      </trkpt>
      <trkpt lat="42.26914" lon="2.59349">
        <ele>289.532</ele>
        <time>2013-04-20T03:10:33Z</time>
      </trkpt>
      <trkpt lat="42.26903" lon="2.59335">
        <ele>285.729</ele>
        <time>2013-04-20T03:10:44Z</time>
      </trkpt>
      <trkpt lat="42.26903" lon="2.59334">
        <ele>285.76</ele>
        <time>2013-04-20T03:10:45Z</time>
      </trkpt>
      <trkpt lat="42.26898" lon="2.59338">
        <ele>283.793</ele>
        <time>2013-04-20T03:10:51Z</time>
      </trkpt>
      <trkpt lat="42.26899" lon="2.59343">
        <ele>281.366</ele>
        <time>2013-04-20T03:10:56Z</time>
      </trkpt>
      <trkpt lat="42.26894" lon="2.59342">
        <ele>278.933</ele>
        <time>2013-04-20T03:11:01Z</time>
      </trkpt>
      <trkpt lat="42.26888" lon="2.59346">
        <ele>275.623</ele>
        <time>2013-04-20T03:11:11Z</time>
      </trkpt>
      <trkpt lat="42.26875" lon="2.59326">
        <ele>271.715</ele>
        <time>2013-04-20T03:11:23Z</time>
      </trkpt>
      <trkpt lat="42.26869" lon="2.59314">
        <ele>269.307</ele>
        <time>2013-04-20T03:11:33Z</time>
      </trkpt>
      <trkpt lat="42.26866" lon="2.59321">
        <ele>263.157</ele>
        <time>2013-04-20T03:11:47Z</time>
      </trkpt>
      <trkpt lat="42.2686" lon="2.59336">
        <ele>259.296</ele>
        <time>2013-04-20T03:12:00Z</time>
      </trkpt>
      <trkpt lat="42.26858" lon="2.59341">
        <ele>258.36</ele>
        <time>2013-04-20T03:12:04Z</time>
      </trkpt>
      <trkpt lat="42.26849" lon="2.59356">
        <ele>258.777</ele>
        <time>2013-04-20T03:12:14Z</time>
      </trkpt>
      <trkpt lat="42.26842" lon="2.59356">
        <ele>259.238</ele>
        <time>2013-04-20T03:12:18Z</time>
      </trkpt>
      <trkpt lat="42.26823" lon="2.59323">
        <ele>255.971</ele>
        <time>2013-04-20T03:12:30Z</time>
      </trkpt>
      <trkpt lat="42.26805" lon="2.59293">
        <ele>255.424</ele>
        <time>2013-04-20T03:12:41Z</time>
      </trkpt>
      <trkpt lat="42.26795" lon="2.59264">
        <ele>253.943</ele>
        <time>2013-04-20T03:12:51Z</time>
      </trkpt>
      <trkpt lat="42.26782" lon="2.59232">
        <ele>250.164</ele>
        <time>2013-04-20T03:13:04Z</time>
      </trkpt>
      <trkpt lat="42.2678" lon="2.59224">
        <ele>249.61</ele>
        <time>2013-04-20T03:13:07Z</time>
      </trkpt>
      <trkpt lat="42.26769" lon="2.59197">
        <ele>245.307</ele>
        <time>2013-04-20T03:13:18Z</time>
      </trkpt>
      <trkpt lat="42.26767" lon="2.59183">
        <ele>242.448</ele>
        <time>2013-04-20T03:13:24Z</time>
      </trkpt>
      <trkpt lat="42.26766" lon="2.59179">
        <ele>241.497</ele>
        <time>2013-04-20T03:13:26Z</time>
      </trkpt>
      <trkpt lat="42.26765" lon="2.59171">
        <ele>240.051</ele>
        <time>2013-04-20T03:13:31Z</time>
      </trkpt>
      <trkpt lat="42.2677" lon="2.59147">
        <ele>240.018</ele>
        <time>2013-04-20T03:13:40Z</time>
      </trkpt>
      <trkpt lat="42.2677" lon="2.59144">
        <ele>240.069</ele>
        <time>2013-04-20T03:13:41Z</time>
      </trkpt>
      <trkpt lat="42.26771" lon="2.59134">
        <ele>239.522</ele>
        <time>2013-04-20T03:13:44Z</time>
      </trkpt>
      <trkpt lat="42.26769" lon="2.59125">
        <ele>239.075</ele>
        <time>2013-04-20T03:13:47Z</time>
      </trkpt>
      <trkpt lat="42.26766" lon="2.59119">
        <ele>239.081</ele>
        <time>2013-04-20T03:13:50Z</time>
      </trkpt>
      <trkpt lat="42.2677" lon="2.59108">
        <ele>238.161</ele>
        <time>2013-04-20T03:13:54Z</time>
      </trkpt>
      <trkpt lat="42.26793" lon="2.59086">
        <ele>240.517</ele>
        <time>2013-04-20T03:14:05Z</time>
      </trkpt>
      <trkpt lat="42.26815" lon="2.59071">
        <ele>247.207</ele>
        <time>2013-04-20T03:14:16Z</time>
      </trkpt>
      <trkpt lat="42.26844" lon="2.59059">
        <ele>250.192</ele>
        <time>2013-04-20T03:14:28Z</time>
      </trkpt>
      <trkpt lat="42.2685" lon="2.59057">
        <ele>251.051</ele>
        <time>2013-04-20T03:14:30Z</time>
      </trkpt>
      <trkpt lat="42.2688" lon="2.59056">
        <ele>250.615</ele>
        <time>2013-04-20T03:14:43Z</time>
      </trkpt>
      <trkpt lat="42.26882" lon="2.59056">
        <ele>250.122</ele>
        <time>2013-04-20T03:14:44Z</time>
      </trkpt>
      <trkpt lat="42.26891" lon="2.59055">
        <ele>250.183</ele>
        <time>2013-04-20T03:14:48Z</time>
      </trkpt>
      <trkpt lat="42.26907" lon="2.59058">
        <ele>248.686</ele>
        <time>2013-04-20T03:14:55Z</time>
      </trkpt>
      <trkpt lat="42.26939" lon="2.59066">
        <ele>245.829</ele>
        <time>2013-04-20T03:15:09Z</time>
      </trkpt>
      <trkpt lat="42.26966" lon="2.59074">
        <ele>247.736</ele>
        <time>2013-04-20T03:15:20Z</time>
      </trkpt>
      <trkpt lat="42.2697" lon="2.59075">
        <ele>247.717</ele>
        <time>2013-04-20T03:15:22Z</time>
      </trkpt>
      <trkpt lat="42.26997" lon="2.59088">
        <ele>247.718</ele>
        <time>2013-04-20T03:15:34Z</time>
      </trkpt>
      <trkpt lat="42.27005" lon="2.59091">
        <ele>248.207</ele>
        <time>2013-04-20T03:15:39Z</time>
      </trkpt>
      <trkpt lat="42.27026" lon="2.59085">
        <ele>247.747</ele>
        <time>2013-04-20T03:15:51Z</time>
      </trkpt>
      <trkpt lat="42.27033" lon="2.59082">
        <ele>246.256</ele>
        <time>2013-04-20T03:15:55Z</time>
      </trkpt>
      <trkpt lat="42.27057" lon="2.59074">
        <ele>244.35</ele>
        <time>2013-04-20T03:16:07Z</time>
      </trkpt>
      <trkpt lat="42.27081" lon="2.59064">
        <ele>241.977</ele>
        <time>2013-04-20T03:16:22Z</time>
      </trkpt>
      <trkpt lat="42.27088" lon="2.59058">
        <ele>243.458</ele>
        <time>2013-04-20T03:16:35Z</time>
      </trkpt>
      <trkpt lat="42.2709" lon="2.59058">
        <ele>243.831</ele>
        <time>2013-04-20T03:16:37Z</time>
      </trkpt>
      <trkpt lat="42.27101" lon="2.59046">
        <ele>252.514</ele>
        <time>2013-04-20T03:16:52Z</time>
      </trkpt>
      <trkpt lat="42.27103" lon="2.59036">
        <ele>260.241</ele>
        <time>2013-04-20T03:17:06Z</time>
      </trkpt>
      <trkpt lat="42.27115" lon="2.59034">
        <ele>264.581</ele>
        <time>2013-04-20T03:17:22Z</time>
      </trkpt>
      <trkpt lat="42.27123" lon="2.59033">
        <ele>270.309</ele>
        <time>2013-04-20T03:17:36Z</time>
      </trkpt>
      <trkpt lat="42.27126" lon="2.59032">
        <ele>272.207</ele>
        <time>2013-04-20T03:17:43Z</time>
      </trkpt>
      <trkpt lat="42.27139" lon="2.59043">
        <ele>275.688</ele>
        <time>2013-04-20T03:17:57Z</time>
      </trkpt>
      <trkpt lat="42.27147" lon="2.59043">
        <ele>277.537</ele>
        <time>2013-04-20T03:18:08Z</time>
      </trkpt>
      <trkpt lat="42.2715" lon="2.59038">
        <ele>278.961</ele>
        <time>2013-04-20T03:18:14Z</time>
      </trkpt>
      <trkpt lat="42.27156" lon="2.59024">
        <ele>284.248</ele>
        <time>2013-04-20T03:18:29Z</time>
      </trkpt>
      <trkpt lat="42.27157" lon="2.59022">
        <ele>284.249</ele>
        <time>2013-04-20T03:18:30Z</time>
      </trkpt>
      <trkpt lat="42.27166" lon="2.59013">
        <ele>286.142</ele>
        <time>2013-04-20T03:18:40Z</time>
      </trkpt>
      <trkpt lat="42.27172" lon="2.59007">
        <ele>286.185</ele>
        <time>2013-04-20T03:18:44Z</time>
      </trkpt>
      <trkpt lat="42.27186" lon="2.59">
        <ele>285.256</ele>
        <time>2013-04-20T03:19:00Z</time>
      </trkpt>
      <trkpt lat="42.27196" lon="2.59005">
        <ele>290.059</ele>
        <time>2013-04-20T03:19:13Z</time>
      </trkpt>
      <trkpt lat="42.27206" lon="2.59004">
        <ele>293.314</ele>
        <time>2013-04-20T03:19:27Z</time>
      </trkpt>
      <trkpt lat="42.27209" lon="2.59004">
        <ele>293.807</ele>
        <time>2013-04-20T03:19:30Z</time>
      </trkpt>
      <trkpt lat="42.27223" lon="2.59006">
        <ele>295.399</ele>
        <time>2013-04-20T03:19:44Z</time>
      </trkpt>
      <trkpt lat="42.27233" lon="2.59005">
        <ele>296.298</ele>
        <time>2013-04-20T03:19:56Z</time>
      </trkpt>
      <trkpt lat="42.27234" lon="2.59005">
        <ele>296.742</ele>
        <time>2013-04-20T03:19:57Z</time>
      </trkpt>
      <trkpt lat="42.27246" lon="2.58999">
        <ele>301.019</ele>
        <time>2013-04-20T03:20:13Z</time>
      </trkpt>
      <trkpt lat="42.27247" lon="2.58993">
        <ele>303.08</ele>
        <time>2013-04-20T03:20:25Z</time>
      </trkpt>
      <trkpt lat="42.27252" lon="2.58986">
        <ele>304.953</ele>
        <time>2013-04-20T03:20:37Z</time>
      </trkpt>
      <trkpt lat="42.27268" lon="2.58975">
        <ele>309.776</ele>
        <time>2013-04-20T03:20:55Z</time>
      </trkpt>
      <trkpt lat="42.27281" lon="2.58969">
        <ele>313.585</ele>
        <time>2013-04-20T03:21:09Z</time>
      </trkpt>
      <trkpt lat="42.2729" lon="2.58965">
        <ele>315.089</ele>
        <time>2013-04-20T03:21:19Z</time>
      </trkpt>
      <trkpt lat="42.273" lon="2.58959">
        <ele>318.317</ele>
        <time>2013-04-20T03:21:32Z</time>
      </trkpt>
      <trkpt lat="42.27307" lon="2.58952">
        <ele>321.707</ele>
        <time>2013-04-20T03:21:43Z</time>
      </trkpt>
      <trkpt lat="42.27312" lon="2.5895">
        <ele>324.652</ele>
        <time>2013-04-20T03:21:58Z</time>
      </trkpt>
      <trkpt lat="42.27321" lon="2.58944">
        <ele>326.541</ele>
        <time>2013-04-20T03:22:10Z</time>
      </trkpt>
      <trkpt lat="42.2733" lon="2.58935">
        <ele>328.975</ele>
        <time>2013-04-20T03:22:20Z</time>
      </trkpt>
      <trkpt lat="42.27344" lon="2.58923">
        <ele>331.832</ele>
        <time>2013-04-20T03:22:35Z</time>
      </trkpt>
      <trkpt lat="42.27357" lon="2.58913">
        <ele>336.123</ele>
        <time>2013-04-20T03:22:50Z</time>
      </trkpt>
      <trkpt lat="42.27376" lon="2.58905">
        <ele>337.196</ele>
        <time>2013-04-20T03:23:05Z</time>
      </trkpt>
      <trkpt lat="42.2738" lon="2.58903">
        <ele>338.039</ele>
        <time>2013-04-20T03:23:08Z</time>
      </trkpt>
      <trkpt lat="42.27393" lon="2.5889">
        <ele>339.523</ele>
        <time>2013-04-20T03:23:22Z</time>
      </trkpt>
      <trkpt lat="42.27394" lon="2.58889">
        <ele>339.583</ele>
        <time>2013-04-20T03:23:23Z</time>
      </trkpt>
      <trkpt lat="42.27405" lon="2.58879">
        <ele>343.811</ele>
        <time>2013-04-20T03:23:38Z</time>
      </trkpt>
      <trkpt lat="42.27413" lon="2.58874">
        <ele>345.707</ele>
        <time>2013-04-20T03:23:48Z</time>
      </trkpt>
      <trkpt lat="42.27416" lon="2.58868">
        <ele>348.626</ele>
        <time>2013-04-20T03:23:55Z</time>
      </trkpt>
      <trkpt lat="42.27423" lon="2.58854">
        <ele>351.555</ele>
        <time>2013-04-20T03:24:08Z</time>
      </trkpt>
      <trkpt lat="42.27427" lon="2.58842">
        <ele>352.589</ele>
        <time>2013-04-20T03:24:20Z</time>
      </trkpt>
      <trkpt lat="42.2743" lon="2.58836">
        <ele>352.046</ele>
        <time>2013-04-20T03:24:25Z</time>
      </trkpt>
      <trkpt lat="42.27434" lon="2.58827">
        <ele>355.397</ele>
        <time>2013-04-20T03:24:34Z</time>
      </trkpt>
      <trkpt lat="42.27437" lon="2.58822">
        <ele>356.83</ele>
        <time>2013-04-20T03:24:39Z</time>
      </trkpt>
      <trkpt lat="42.2745" lon="2.58807">
        <ele>358.783</ele>
        <time>2013-04-20T03:24:54Z</time>
      </trkpt>
      <trkpt lat="42.27457" lon="2.58793">
        <ele>358.716</ele>
        <time>2013-04-20T03:25:04Z</time>
      </trkpt>
      <trkpt lat="42.27459" lon="2.5877">
        <ele>360.276</ele>
        <time>2013-04-20T03:25:18Z</time>
      </trkpt>
      <trkpt lat="42.2746" lon="2.58764">
        <ele>360.213</ele>
        <time>2013-04-20T03:25:22Z</time>
      </trkpt>
      <trkpt lat="42.27464" lon="2.58754">
        <ele>359.707</ele>
        <time>2013-04-20T03:25:29Z</time>
      </trkpt>
      <trkpt lat="42.27467" lon="2.58752">
        <ele>359.245</ele>
        <time>2013-04-20T03:25:32Z</time>
      </trkpt>
      <trkpt lat="42.27472" lon="2.58734">
        <ele>359.784</ele>
        <time>2013-04-20T03:25:45Z</time>
      </trkpt>
      <trkpt lat="42.27473" lon="2.58716">
        <ele>363.538</ele>
        <time>2013-04-20T03:25:59Z</time>
      </trkpt>
      <trkpt lat="42.27483" lon="2.58695">
        <ele>362.675</ele>
        <time>2013-04-20T03:26:14Z</time>
      </trkpt>
      <trkpt lat="42.27486" lon="2.58685">
        <ele>361.676</ele>
        <time>2013-04-20T03:26:20Z</time>
      </trkpt>
      <trkpt lat="42.2749" lon="2.58667">
        <ele>360.229</ele>
        <time>2013-04-20T03:26:34Z</time>
      </trkpt>
      <trkpt lat="42.27488" lon="2.58651">
        <ele>363.522</ele>
        <time>2013-04-20T03:26:47Z</time>
      </trkpt>
      <trkpt lat="42.2749" lon="2.58646">
        <ele>364.542</ele>
        <time>2013-04-20T03:26:51Z</time>
      </trkpt>
      <trkpt lat="42.27494" lon="2.58622">
        <ele>367.422</ele>
        <time>2013-04-20T03:27:05Z</time>
      </trkpt>
      <trkpt lat="42.27496" lon="2.58616">
        <ele>367.414</ele>
        <time>2013-04-20T03:27:10Z</time>
      </trkpt>
      <trkpt lat="42.27498" lon="2.58611">
        <ele>367.807</ele>
        <time>2013-04-20T03:27:13Z</time>
      </trkpt>
      <trkpt lat="42.27498" lon="2.58602">
        <ele>367.428</ele>
        <time>2013-04-20T03:27:18Z</time>
      </trkpt>
      <trkpt lat="42.275" lon="2.58597">
        <ele>367.477</ele>
        <time>2013-04-20T03:27:22Z</time>
      </trkpt>
      <trkpt lat="42.27506" lon="2.58567">
        <ele>365.491</ele>
        <time>2013-04-20T03:27:38Z</time>
      </trkpt>
      <trkpt lat="42.27507" lon="2.58559">
        <ele>365.498</ele>
        <time>2013-04-20T03:27:42Z</time>
      </trkpt>
      <trkpt lat="42.27508" lon="2.58556">
        <ele>365.019</ele>
        <time>2013-04-20T03:27:44Z</time>
      </trkpt>
      <trkpt lat="42.27507" lon="2.58542">
        <ele>365.092</ele>
        <time>2013-04-20T03:27:51Z</time>
      </trkpt>
      <trkpt lat="42.27509" lon="2.58532">
        <ele>365.015</ele>
        <time>2013-04-20T03:27:56Z</time>
      </trkpt>
      <trkpt lat="42.27508" lon="2.58509">
        <ele>370.788</ele>
        <time>2013-04-20T03:28:07Z</time>
      </trkpt>
      <trkpt lat="42.27513" lon="2.58505">
        <ele>373.624</ele>
        <time>2013-04-20T03:28:15Z</time>
      </trkpt>
      <trkpt lat="42.27521" lon="2.58506">
        <ele>374.626</ele>
        <time>2013-04-20T03:28:20Z</time>
      </trkpt>
      <trkpt lat="42.27527" lon="2.58509">
        <ele>376.007</ele>
        <time>2013-04-20T03:28:25Z</time>
      </trkpt>
      <trkpt lat="42.27529" lon="2.58509">
        <ele>377.082</ele>
        <time>2013-04-20T03:28:27Z</time>
      </trkpt>
      <trkpt lat="42.27532" lon="2.58506">
        <ele>378.961</ele>
        <time>2013-04-20T03:28:31Z</time>
      </trkpt>
      <trkpt lat="42.27544" lon="2.5851">
        <ele>380.825</ele>
        <time>2013-04-20T03:28:43Z</time>
      </trkpt>
      <trkpt lat="42.27551" lon="2.58508">
        <ele>384.772</ele>
        <time>2013-04-20T03:28:57Z</time>
      </trkpt>
      <trkpt lat="42.27563" lon="2.5851">
        <ele>386.613</ele>
        <time>2013-04-20T03:29:10Z</time>
      </trkpt>
      <trkpt lat="42.27567" lon="2.58503">
        <ele>392.436</ele>
        <time>2013-04-20T03:29:27Z</time>
      </trkpt>
      <trkpt lat="42.27565" lon="2.58491">
        <ele>397.689</ele>
        <time>2013-04-20T03:29:41Z</time>
      </trkpt>
      <trkpt lat="42.27565" lon="2.58489">
        <ele>398.665</ele>
        <time>2013-04-20T03:29:43Z</time>
      </trkpt>
      <trkpt lat="42.27573" lon="2.5848">
        <ele>403.468</ele>
        <time>2013-04-20T03:29:55Z</time>
      </trkpt>
      <trkpt lat="42.27579" lon="2.58469">
        <ele>406.814</ele>
        <time>2013-04-20T03:30:10Z</time>
      </trkpt>
      <trkpt lat="42.27579" lon="2.58467">
        <ele>407.307</ele>
        <time>2013-04-20T03:30:11Z</time>
      </trkpt>
      <trkpt lat="42.27588" lon="2.58461">
        <ele>408.72</ele>
        <time>2013-04-20T03:30:23Z</time>
      </trkpt>
      <trkpt lat="42.27599" lon="2.58457">
        <ele>411.129</ele>
        <time>2013-04-20T03:30:37Z</time>
      </trkpt>
      <trkpt lat="42.27611" lon="2.58461">
        <ele>413.523</ele>
        <time>2013-04-20T03:30:52Z</time>
      </trkpt>
      <trkpt lat="42.27613" lon="2.58443">
        <ele>416.96</ele>
        <time>2013-04-20T03:31:05Z</time>
      </trkpt>
      <trkpt lat="42.27617" lon="2.5843">
        <ele>417.891</ele>
        <time>2013-04-20T03:31:14Z</time>
      </trkpt>
      <trkpt lat="42.27623" lon="2.58418">
        <ele>421.754</ele>
        <time>2013-04-20T03:31:27Z</time>
      </trkpt>
      <trkpt lat="42.27623" lon="2.58418">
        <ele>422.227</ele>
        <time>2013-04-20T03:31:28Z</time>
      </trkpt>
      <trkpt lat="42.27624" lon="2.58411">
        <ele>423.113</ele>
        <time>2013-04-20T03:31:34Z</time>
      </trkpt>
      <trkpt lat="42.27625" lon="2.58393">
        <ele>427.043</ele>
        <time>2013-04-20T03:31:48Z</time>
      </trkpt>
      <trkpt lat="42.27624" lon="2.58376">
        <ele>429.407</ele>
        <time>2013-04-20T03:32:01Z</time>
      </trkpt>
      <trkpt lat="42.27624" lon="2.58351">
        <ele>428.907</ele>
        <time>2013-04-20T03:32:14Z</time>
      </trkpt>
      <trkpt lat="42.27621" lon="2.58345">
        <ele>429.455</ele>
        <time>2013-04-20T03:32:18Z</time>
      </trkpt>
      <trkpt lat="42.2762" lon="2.58326">
        <ele>427.954</ele>
        <time>2013-04-20T03:32:31Z</time>
      </trkpt>
      <trkpt lat="42.27621" lon="2.58307">
        <ele>431.868</ele>
        <time>2013-04-20T03:32:45Z</time>
      </trkpt>
      <trkpt lat="42.27621" lon="2.58292">
        <ele>434.795</ele>
        <time>2013-04-20T03:32:59Z</time>
      </trkpt>
      <trkpt lat="42.27622" lon="2.58286">
        <ele>437.176</ele>
        <time>2013-04-20T03:33:07Z</time>
      </trkpt>
      <trkpt lat="42.27628" lon="2.58273">
        <ele>440.929</ele>
        <time>2013-04-20T03:33:22Z</time>
      </trkpt>
      <trkpt lat="42.27633" lon="2.58266">
        <ele>441.942</ele>
        <time>2013-04-20T03:33:35Z</time>
      </trkpt>
      <trkpt lat="42.27637" lon="2.58266">
        <ele>442.877</ele>
        <time>2013-04-20T03:33:43Z</time>
      </trkpt>
      <trkpt lat="42.27637" lon="2.58248">
        <ele>447.261</ele>
        <time>2013-04-20T03:33:57Z</time>
      </trkpt>
      <trkpt lat="42.27638" lon="2.58241">
        <ele>447.627</ele>
        <time>2013-04-20T03:34:01Z</time>
      </trkpt>
      <trkpt lat="42.27639" lon="2.58229">
        <ele>448.607</ele>
        <time>2013-04-20T03:34:08Z</time>
      </trkpt>
      <trkpt lat="42.27647" lon="2.58206">
        <ele>451.011</ele>
        <time>2013-04-20T03:34:22Z</time>
      </trkpt>
      <trkpt lat="42.27648" lon="2.58195">
        <ele>452.42</ele>
        <time>2013-04-20T03:34:31Z</time>
      </trkpt>
      <trkpt lat="42.27647" lon="2.58181">
        <ele>456.394</ele>
        <time>2013-04-20T03:34:43Z</time>
      </trkpt>
      <trkpt lat="42.27648" lon="2.58169">
        <ele>459.781</ele>
        <time>2013-04-20T03:34:57Z</time>
      </trkpt>
      <trkpt lat="42.27649" lon="2.58161">
        <ele>459.792</ele>
        <time>2013-04-20T03:35:03Z</time>
      </trkpt>
      <trkpt lat="42.27655" lon="2.58139">
        <ele>462.555</ele>
        <time>2013-04-20T03:35:18Z</time>
      </trkpt>
      <trkpt lat="42.27657" lon="2.5813">
        <ele>465.498</ele>
        <time>2013-04-20T03:35:28Z</time>
      </trkpt>
      <trkpt lat="42.27663" lon="2.58131">
        <ele>466.923</ele>
        <time>2013-04-20T03:35:38Z</time>
      </trkpt>
      <trkpt lat="42.2766" lon="2.5811">
        <ele>469.783</ele>
        <time>2013-04-20T03:35:52Z</time>
      </trkpt>
      <trkpt lat="42.27661" lon="2.58105">
        <ele>469.711</ele>
        <time>2013-04-20T03:35:55Z</time>
      </trkpt>
      <trkpt lat="42.27667" lon="2.58096">
        <ele>468.807</ele>
        <time>2013-04-20T03:36:02Z</time>
      </trkpt>
      <trkpt lat="42.27671" lon="2.58096">
        <ele>468.376</ele>
        <time>2013-04-20T03:36:06Z</time>
      </trkpt>
      <trkpt lat="42.27675" lon="2.58097">
        <ele>468.885</ele>
        <time>2013-04-20T03:36:10Z</time>
      </trkpt>
      <trkpt lat="42.27677" lon="2.58091">
        <ele>468.819</ele>
        <time>2013-04-20T03:36:14Z</time>
      </trkpt>
      <trkpt lat="42.27685" lon="2.58078">
        <ele>472.696</ele>
        <time>2013-04-20T03:36:29Z</time>
      </trkpt>
      <trkpt lat="42.27685" lon="2.58069">
        <ele>473.117</ele>
        <time>2013-04-20T03:36:35Z</time>
      </trkpt>
      <trkpt lat="42.27688" lon="2.58061">
        <ele>472.62</ele>
        <time>2013-04-20T03:36:39Z</time>
      </trkpt>
      <trkpt lat="42.27691" lon="2.58055">
        <ele>473.183</ele>
        <time>2013-04-20T03:36:43Z</time>
      </trkpt>
      <trkpt lat="42.27697" lon="2.58039">
        <ele>477.043</ele>
        <time>2013-04-20T03:36:55Z</time>
      </trkpt>
      <trkpt lat="42.277" lon="2.58026">
        <ele>482.764</ele>
        <time>2013-04-20T03:37:06Z</time>
      </trkpt>
      <trkpt lat="42.27705" lon="2.58009">
        <ele>482.71</ele>
        <time>2013-04-20T03:37:15Z</time>
      </trkpt>
      <trkpt lat="42.27706" lon="2.57994">
        <ele>480.807</ele>
        <time>2013-04-20T03:37:24Z</time>
      </trkpt>
      <trkpt lat="42.2771" lon="2.5799">
        <ele>480.378</ele>
        <time>2013-04-20T03:37:28Z</time>
      </trkpt>
      <trkpt lat="42.27712" lon="2.57971">
        <ele>483.297</ele>
        <time>2013-04-20T03:37:40Z</time>
      </trkpt>
      <trkpt lat="42.2771" lon="2.57947">
        <ele>486.191</ele>
        <time>2013-04-20T03:37:54Z</time>
      </trkpt>
      <trkpt lat="42.27711" lon="2.57928">
        <ele>488.028</ele>
        <time>2013-04-20T03:38:05Z</time>
      </trkpt>
      <trkpt lat="42.27702" lon="2.57905">
        <ele>491.999</ele>
        <time>2013-04-20T03:38:19Z</time>
      </trkpt>
      <trkpt lat="42.27702" lon="2.57904">
        <ele>491.922</ele>
        <time>2013-04-20T03:38:20Z</time>
      </trkpt>
      <trkpt lat="42.27688" lon="2.57885">
        <ele>491.975</ele>
        <time>2013-04-20T03:38:33Z</time>
      </trkpt>
      <trkpt lat="42.27682" lon="2.57871">
        <ele>492.876</ele>
        <time>2013-04-20T03:38:42Z</time>
      </trkpt>
      <trkpt lat="42.2768" lon="2.57859">
        <ele>492.39</ele>
        <time>2013-04-20T03:38:50Z</time>
      </trkpt>
      <trkpt lat="42.27669" lon="2.57861">
        <ele>491.919</ele>
        <time>2013-04-20T03:38:58Z</time>
      </trkpt>
      <trkpt lat="42.27665" lon="2.57836">
        <ele>489.507</ele>
        <time>2013-04-20T03:39:12Z</time>
      </trkpt>
      <trkpt lat="42.27665" lon="2.57814">
        <ele>488.011</ele>
        <time>2013-04-20T03:39:24Z</time>
      </trkpt>
      <trkpt lat="42.27667" lon="2.57801">
        <ele>486.12</ele>
        <time>2013-04-20T03:39:31Z</time>
      </trkpt>
      <trkpt lat="42.27661" lon="2.57774">
        <ele>485.144</ele>
        <time>2013-04-20T03:39:47Z</time>
      </trkpt>
      <trkpt lat="42.27656" lon="2.57751">
        <ele>486.171</ele>
        <time>2013-04-20T03:40:01Z</time>
      </trkpt>
      <trkpt lat="42.27654" lon="2.57744">
        <ele>485.692</ele>
        <time>2013-04-20T03:40:05Z</time>
      </trkpt>
      <trkpt lat="42.27645" lon="2.57725">
        <ele>485.185</ele>
        <time>2013-04-20T03:40:19Z</time>
      </trkpt>
      <trkpt lat="42.2764" lon="2.57713">
        <ele>484.688</ele>
        <time>2013-04-20T03:40:32Z</time>
      </trkpt>
      <trkpt lat="42.27636" lon="2.57696">
        <ele>481.867</ele>
        <time>2013-04-20T03:40:48Z</time>
      </trkpt>
      <trkpt lat="42.27629" lon="2.57689">
        <ele>481.881</ele>
        <time>2013-04-20T03:41:01Z</time>
      </trkpt>
      <trkpt lat="42.27628" lon="2.57685">
        <ele>482.719</ele>
        <time>2013-04-20T03:41:06Z</time>
      </trkpt>
      <trkpt lat="42.27627" lon="2.57683">
        <ele>482.707</ele>
        <time>2013-04-20T03:41:08Z</time>
      </trkpt>
      <trkpt lat="42.27627" lon="2.57662">
        <ele>482.75</ele>
        <time>2013-04-20T03:41:21Z</time>
      </trkpt>
      <trkpt lat="42.27624" lon="2.57658">
        <ele>483.729</ele>
        <time>2013-04-20T03:41:35Z</time>
      </trkpt>
      <trkpt lat="42.27627" lon="2.57645">
        <ele>486.123</ele>
        <time>2013-04-20T03:41:48Z</time>
      </trkpt>
      <trkpt lat="42.27631" lon="2.57648">
        <ele>484.27</ele>
        <time>2013-04-20T03:41:56Z</time>
      </trkpt>
      <trkpt lat="42.27637" lon="2.57656">
        <ele>483.741</ele>
        <time>2013-04-20T03:42:04Z</time>
      </trkpt>
      <trkpt lat="42.27642" lon="2.5766">
        <ele>482.794</ele>
        <time>2013-04-20T03:42:08Z</time>
      </trkpt>
      <trkpt lat="42.27649" lon="2.57676">
        <ele>480.377</ele>
        <time>2013-04-20T03:42:19Z</time>
      </trkpt>
      <trkpt lat="42.2765" lon="2.57676">
        <ele>480.313</ele>
        <time>2013-04-20T03:42:20Z</time>
      </trkpt>
      <trkpt lat="42.27656" lon="2.57672">
        <ele>478.943</ele>
        <time>2013-04-20T03:42:27Z</time>
      </trkpt>
      <trkpt lat="42.27659" lon="2.57663">
        <ele>478.407</ele>
        <time>2013-04-20T03:42:33Z</time>
      </trkpt>
      <trkpt lat="42.27661" lon="2.57656">
        <ele>473.607</ele>
        <time>2013-04-20T03:42:47Z</time>
      </trkpt>
      <trkpt lat="42.27662" lon="2.57658">
        <ele>473.155</ele>
        <time>2013-04-20T03:42:49Z</time>
      </trkpt>
      <trkpt lat="42.27668" lon="2.57672">
        <ele>469.724</ele>
        <time>2013-04-20T03:42:59Z</time>
      </trkpt>
      <trkpt lat="42.2767" lon="2.57679">
        <ele>469.348</ele>
        <time>2013-04-20T03:43:04Z</time>
      </trkpt>
      <trkpt lat="42.27673" lon="2.57686">
        <ele>469.385</ele>
        <time>2013-04-20T03:43:08Z</time>
      </trkpt>
      <trkpt lat="42.27681" lon="2.57699">
        <ele>469.336</ele>
        <time>2013-04-20T03:43:19Z</time>
      </trkpt>
      <trkpt lat="42.27685" lon="2.57697">
        <ele>469.769</ele>
        <time>2013-04-20T03:43:23Z</time>
      </trkpt>
      <trkpt lat="42.27684" lon="2.57696">
        <ele>469.332</ele>
        <time>2013-04-20T03:43:25Z</time>
      </trkpt>
      <trkpt lat="42.27682" lon="2.57693">
        <ele>468.342</ele>
        <time>2013-04-20T03:43:28Z</time>
      </trkpt>
      <trkpt lat="42.27681" lon="2.5769">
        <ele>467.822</ele>
        <time>2013-04-20T03:43:31Z</time>
      </trkpt>
      <trkpt lat="42.2768" lon="2.57685">
        <ele>466.414</ele>
        <time>2013-04-20T03:43:35Z</time>
      </trkpt>
      <trkpt lat="42.27681" lon="2.57672">
        <ele>464.507</ele>
        <time>2013-04-20T03:43:45Z</time>
      </trkpt>
      <trkpt lat="42.27682" lon="2.57669">
        <ele>464.048</ele>
        <time>2013-04-20T03:43:47Z</time>
      </trkpt>
      <trkpt lat="42.27678" lon="2.57652">
        <ele>461.667</ele>
        <time>2013-04-20T03:44:01Z</time>
      </trkpt>
      <trkpt lat="42.27676" lon="2.57631">
        <ele>458.271</ele>
        <time>2013-04-20T03:44:13Z</time>
      </trkpt>
      <trkpt lat="42.27676" lon="2.57628">
        <ele>457.778</ele>
        <time>2013-04-20T03:44:15Z</time>
      </trkpt>
      <trkpt lat="42.27675" lon="2.57619">
        <ele>458.719</ele>
        <time>2013-04-20T03:44:20Z</time>
      </trkpt>
      <trkpt lat="42.27674" lon="2.57605">
        <ele>458.742</ele>
        <time>2013-04-20T03:44:33Z</time>
      </trkpt>
      <trkpt lat="42.27675" lon="2.57604">
        <ele>458.755</ele>
        <time>2013-04-20T03:44:35Z</time>
      </trkpt>
      <trkpt lat="42.27677" lon="2.57591">
        <ele>455.861</ele>
        <time>2013-04-20T03:44:46Z</time>
      </trkpt>
      <trkpt lat="42.27678" lon="2.57579">
        <ele>451.521</ele>
        <time>2013-04-20T03:44:57Z</time>
      </trkpt>
      <trkpt lat="42.27676" lon="2.57563">
        <ele>449.113</ele>
        <time>2013-04-20T03:45:10Z</time>
      </trkpt>
      <trkpt lat="42.27676" lon="2.57557">
        <ele>448.107</ele>
        <time>2013-04-20T03:45:14Z</time>
      </trkpt>
      <trkpt lat="42.27676" lon="2.57549">
        <ele>449.11</ele>
        <time>2013-04-20T03:45:26Z</time>
      </trkpt>
      <trkpt lat="42.27675" lon="2.57541">
        <ele>449.159</ele>
        <time>2013-04-20T03:45:38Z</time>
      </trkpt>
      <trkpt lat="42.27677" lon="2.57537">
        <ele>448.113</ele>
        <time>2013-04-20T03:45:41Z</time>
      </trkpt>
      <trkpt lat="42.27675" lon="2.57516">
        <ele>445.26</ele>
        <time>2013-04-20T03:45:54Z</time>
      </trkpt>
      <trkpt lat="42.27673" lon="2.57498">
        <ele>444.351</ele>
        <time>2013-04-20T03:46:05Z</time>
      </trkpt>
      <trkpt lat="42.27674" lon="2.57492">
        <ele>442.854</ele>
        <time>2013-04-20T03:46:16Z</time>
      </trkpt>
      <trkpt lat="42.27675" lon="2.57488">
        <ele>441.937</ele>
        <time>2013-04-20T03:46:29Z</time>
      </trkpt>
      <trkpt lat="42.27677" lon="2.57487">
        <ele>440.412</ele>
        <time>2013-04-20T03:46:33Z</time>
      </trkpt>
      <trkpt lat="42.27681" lon="2.5748">
        <ele>435.632</ele>
        <time>2013-04-20T03:46:43Z</time>
      </trkpt>
      <trkpt lat="42.27687" lon="2.57472">
        <ele>431.805</ele>
        <time>2013-04-20T03:46:58Z</time>
      </trkpt>
      <trkpt lat="42.27694" lon="2.57464">
        <ele>428.907</ele>
        <time>2013-04-20T03:47:10Z</time>
      </trkpt>
      <trkpt lat="42.27699" lon="2.57453">
        <ele>427.085</ele>
        <time>2013-04-20T03:47:21Z</time>
      </trkpt>
      <trkpt lat="42.27707" lon="2.57441">
        <ele>424.694</ele>
        <time>2013-04-20T03:47:33Z</time>
      </trkpt>
      <trkpt lat="42.27714" lon="2.57429">
        <ele>422.288</ele>
        <time>2013-04-20T03:47:43Z</time>
      </trkpt>
      <trkpt lat="42.27716" lon="2.57421">
        <ele>421.795</ele>
        <time>2013-04-20T03:47:48Z</time>
      </trkpt>
      <trkpt lat="42.27723" lon="2.57403">
        <ele>419.366</ele>
        <time>2013-04-20T03:48:01Z</time>
      </trkpt>
      <trkpt lat="42.27727" lon="2.57391">
        <ele>417.839</ele>
        <time>2013-04-20T03:48:11Z</time>
      </trkpt>
      <trkpt lat="42.27731" lon="2.57383">
        <ele>415.442</ele>
        <time>2013-04-20T03:48:24Z</time>
      </trkpt>
      <trkpt lat="42.27737" lon="2.57369">
        <ele>411.136</ele>
        <time>2013-04-20T03:48:34Z</time>
      </trkpt>
      <trkpt lat="42.27744" lon="2.57352">
        <ele>406.817</ele>
        <time>2013-04-20T03:48:45Z</time>
      </trkpt>
      <trkpt lat="42.27748" lon="2.57341">
        <ele>406.818</ele>
        <time>2013-04-20T03:48:52Z</time>
      </trkpt>
      <trkpt lat="42.27751" lon="2.57335">
        <ele>406.307</ele>
        <time>2013-04-20T03:48:56Z</time>
      </trkpt>
      <trkpt lat="42.27755" lon="2.57314">
        <ele>403.967</ele>
        <time>2013-04-20T03:49:08Z</time>
      </trkpt>
      <trkpt lat="42.27756" lon="2.57317">
        <ele>402.076</ele>
        <time>2013-04-20T03:49:10Z</time>
      </trkpt>
      <trkpt lat="42.2776" lon="2.57318">
        <ele>397.23</ele>
        <time>2013-04-20T03:49:19Z</time>
      </trkpt>
      <trkpt lat="42.27761" lon="2.57311">
        <ele>392.497</ele>
        <time>2013-04-20T03:49:25Z</time>
      </trkpt>
      <trkpt lat="42.27759" lon="2.573">
        <ele>382.728</ele>
        <time>2013-04-20T03:49:37Z</time>
      </trkpt>
      <trkpt lat="42.27762" lon="2.57298">
        <ele>380.361</ele>
        <time>2013-04-20T03:49:42Z</time>
      </trkpt>
      <trkpt lat="42.27766" lon="2.57301">
        <ele>379.964</ele>
        <time>2013-04-20T03:49:48Z</time>
      </trkpt>
      <trkpt lat="42.27766" lon="2.57304">
        <ele>378.963</ele>
        <time>2013-04-20T03:49:51Z</time>
      </trkpt>
      <trkpt lat="42.27766" lon="2.57306">
        <ele>378.944</ele>
        <time>2013-04-20T03:49:52Z</time>
      </trkpt>
      <trkpt lat="42.27772" lon="2.57312">
        <ele>378.418</ele>
        <time>2013-04-20T03:49:59Z</time>
      </trkpt>
      <trkpt lat="42.27775" lon="2.57314">
        <ele>378.407</ele>
        <time>2013-04-20T03:50:02Z</time>
      </trkpt>
      <trkpt lat="42.27781" lon="2.57324">
        <ele>376.54</ele>
        <time>2013-04-20T03:50:10Z</time>
      </trkpt>
      <trkpt lat="42.27783" lon="2.57327">
        <ele>376.579</ele>
        <time>2013-04-20T03:50:12Z</time>
      </trkpt>
      <trkpt lat="42.27786" lon="2.57348">
        <ele>376.023</ele>
        <time>2013-04-20T03:50:23Z</time>
      </trkpt>
      <trkpt lat="42.27787" lon="2.57349">
        <ele>375.57</ele>
        <time>2013-04-20T03:50:26Z</time>
      </trkpt>
      <trkpt lat="42.27794" lon="2.57325">
        <ele>376.011</ele>
        <time>2013-04-20T03:50:36Z</time>
      </trkpt>
      <trkpt lat="42.27797" lon="2.57316">
        <ele>376.044</ele>
        <time>2013-04-20T03:50:41Z</time>
      </trkpt>
      <trkpt lat="42.27797" lon="2.573">
        <ele>374.137</ele>
        <time>2013-04-20T03:50:54Z</time>
      </trkpt>
      <trkpt lat="42.27802" lon="2.57302">
        <ele>371.748</ele>
        <time>2013-04-20T03:50:58Z</time>
      </trkpt>
      <trkpt lat="42.27814" lon="2.57306">
        <ele>362.161</ele>
        <time>2013-04-20T03:51:13Z</time>
      </trkpt>
      <trkpt lat="42.27816" lon="2.57305">
        <ele>361.617</ele>
        <time>2013-04-20T03:51:15Z</time>
      </trkpt>
      <trkpt lat="42.27829" lon="2.573">
        <ele>357.807</ele>
        <time>2013-04-20T03:51:27Z</time>
      </trkpt>
      <trkpt lat="42.27834" lon="2.57298">
        <ele>353.428</ele>
        <time>2013-04-20T03:51:37Z</time>
      </trkpt>
      <trkpt lat="42.27835" lon="2.57299">
        <ele>352.557</ele>
        <time>2013-04-20T03:51:38Z</time>
      </trkpt>
      <trkpt lat="42.27838" lon="2.57301">
        <ele>349.611</ele>
        <time>2013-04-20T03:51:40Z</time>
      </trkpt>
      <trkpt lat="42.27841" lon="2.57318">
        <ele>341.478</ele>
        <time>2013-04-20T03:51:51Z</time>
      </trkpt>
      <trkpt lat="42.27842" lon="2.57324">
        <ele>341.479</ele>
        <time>2013-04-20T03:51:55Z</time>
      </trkpt>
      <trkpt lat="42.27839" lon="2.57333">
        <ele>341.952</ele>
        <time>2013-04-20T03:52:02Z</time>
      </trkpt>
      <trkpt lat="42.27841" lon="2.57349">
        <ele>342.975</ele>
        <time>2013-04-20T03:52:14Z</time>
      </trkpt>
      <trkpt lat="42.2784" lon="2.57358">
        <ele>340.092</ele>
        <time>2013-04-20T03:52:27Z</time>
      </trkpt>
      <trkpt lat="42.27841" lon="2.57362">
        <ele>339.573</ele>
        <time>2013-04-20T03:52:34Z</time>
      </trkpt>
      <trkpt lat="42.27847" lon="2.57367">
        <ele>337.62</ele>
        <time>2013-04-20T03:52:45Z</time>
      </trkpt>
      <trkpt lat="42.27849" lon="2.57362">
        <ele>335.207</ele>
        <time>2013-04-20T03:52:54Z</time>
      </trkpt>
      <trkpt lat="42.2785" lon="2.57358">
        <ele>333.793</ele>
        <time>2013-04-20T03:52:57Z</time>
      </trkpt>
      <trkpt lat="42.27853" lon="2.57345">
        <ele>327.042</ele>
        <time>2013-04-20T03:53:07Z</time>
      </trkpt>
      <trkpt lat="42.27855" lon="2.57343">
        <ele>327.526</ele>
        <time>2013-04-20T03:53:11Z</time>
      </trkpt>
      <trkpt lat="42.27856" lon="2.57352">
        <ele>328.453</ele>
        <time>2013-04-20T03:53:21Z</time>
      </trkpt>
      <trkpt lat="42.27856" lon="2.57361">
        <ele>328.474</ele>
        <time>2013-04-20T03:53:33Z</time>
      </trkpt>
      <trkpt lat="42.27856" lon="2.57364">
        <ele>327.577</ele>
        <time>2013-04-20T03:53:40Z</time>
      </trkpt>
      <trkpt lat="42.27855" lon="2.57372">
        <ele>325.52</ele>
        <time>2013-04-20T03:53:46Z</time>
      </trkpt>
      <trkpt lat="42.27855" lon="2.57375">
        <ele>324.165</ele>
        <time>2013-04-20T03:53:48Z</time>
      </trkpt>
      <trkpt lat="42.27851" lon="2.57384">
        <ele>315.068</ele>
        <time>2013-04-20T03:54:01Z</time>
      </trkpt>
      <trkpt lat="42.27852" lon="2.57385">
        <ele>315.014</ele>
        <time>2013-04-20T03:54:03Z</time>
      </trkpt>
      <trkpt lat="42.27853" lon="2.57389">
        <ele>314.507</ele>
        <time>2013-04-20T03:54:06Z</time>
      </trkpt>
      <trkpt lat="42.27851" lon="2.57404">
        <ele>313.12</ele>
        <time>2013-04-20T03:54:16Z</time>
      </trkpt>
      <trkpt lat="42.2785" lon="2.57424">
        <ele>311.159</ele>
        <time>2013-04-20T03:54:27Z</time>
      </trkpt>
      <trkpt lat="42.27851" lon="2.57434">
        <ele>310.243</ele>
        <time>2013-04-20T03:54:36Z</time>
      </trkpt>
      <trkpt lat="42.27856" lon="2.57441">
        <ele>308.75</ele>
        <time>2013-04-20T03:54:48Z</time>
      </trkpt>
      <trkpt lat="42.2786" lon="2.57434">
        <ele>308.731</ele>
        <time>2013-04-20T03:55:01Z</time>
      </trkpt>
      <trkpt lat="42.27875" lon="2.57423">
        <ele>312.124</ele>
        <time>2013-04-20T03:55:24Z</time>
      </trkpt>
      <trkpt lat="42.27873" lon="2.5742">
        <ele>315.027</ele>
        <time>2013-04-20T03:55:40Z</time>
      </trkpt>
      <trkpt lat="42.27875" lon="2.57414">
        <ele>312.195</ele>
        <time>2013-04-20T03:55:53Z</time>
      </trkpt>
      <trkpt lat="42.27878" lon="2.57407">
        <ele>309.749</ele>
        <time>2013-04-20T03:56:04Z</time>
      </trkpt>
      <trkpt lat="42.27877" lon="2.57404">
        <ele>307.323</ele>
        <time>2013-04-20T03:56:17Z</time>
      </trkpt>
      <trkpt lat="42.2788" lon="2.574">
        <ele>305.407</ele>
        <time>2013-04-20T03:56:30Z</time>
      </trkpt>
      <trkpt lat="42.2788" lon="2.57392">
        <ele>302.573</ele>
        <time>2013-04-20T03:56:43Z</time>
      </trkpt>
      <trkpt lat="42.27882" lon="2.57391">
        <ele>302.522</ele>
        <time>2013-04-20T03:56:56Z</time>
      </trkpt>
      <trkpt lat="42.27884" lon="2.57389">
        <ele>302.516</ele>
        <time>2013-04-20T03:57:10Z</time>
      </trkpt>
      <trkpt lat="42.27885" lon="2.5739">
        <ele>302.593</ele>
        <time>2013-04-20T03:57:14Z</time>
      </trkpt>
      <trkpt lat="42.2789" lon="2.5739">
        <ele>304.974</ele>
        <time>2013-04-20T03:57:26Z</time>
      </trkpt>
      <trkpt lat="42.27887" lon="2.57382">
        <ele>304.937</ele>
        <time>2013-04-20T03:57:34Z</time>
      </trkpt>
      <trkpt lat="42.27886" lon="2.57379">
        <ele>304.97</ele>
        <time>2013-04-20T03:57:36Z</time>
      </trkpt>
      <trkpt lat="42.2789" lon="2.57369">
        <ele>305.827</ele>
        <time>2013-04-20T03:57:43Z</time>
      </trkpt>
      <trkpt lat="42.27893" lon="2.57364">
        <ele>307.868</ele>
        <time>2013-04-20T03:57:57Z</time>
      </trkpt>
      <trkpt lat="42.27896" lon="2.5736">
        <ele>310.214</ele>
        <time>2013-04-20T03:58:09Z</time>
      </trkpt>
      <trkpt lat="42.27898" lon="2.57354">
        <ele>310.607</ele>
        <time>2013-04-20T03:58:21Z</time>
      </trkpt>
      <trkpt lat="42.27901" lon="2.57351">
        <ele>309.756</ele>
        <time>2013-04-20T03:58:32Z</time>
      </trkpt>
      <trkpt lat="42.27906" lon="2.57349">
        <ele>309.295</ele>
        <time>2013-04-20T03:58:45Z</time>
      </trkpt>
      <trkpt lat="42.27908" lon="2.57348">
        <ele>308.769</ele>
        <time>2013-04-20T03:58:52Z</time>
      </trkpt>
      <trkpt lat="42.27912" lon="2.5734">
        <ele>308.756</ele>
        <time>2013-04-20T03:59:05Z</time>
      </trkpt>
      <trkpt lat="42.27916" lon="2.57335">
        <ele>309.257</ele>
        <time>2013-04-20T03:59:18Z</time>
      </trkpt>
      <trkpt lat="42.27922" lon="2.5733">
        <ele>311.69</ele>
        <time>2013-04-20T03:59:33Z</time>
      </trkpt>
      <trkpt lat="42.27923" lon="2.57326">
        <ele>312.143</ele>
        <time>2013-04-20T03:59:44Z</time>
      </trkpt>
      <trkpt lat="42.27925" lon="2.57318">
        <ele>312.187</ele>
        <time>2013-04-20T03:59:59Z</time>
      </trkpt>
      <trkpt lat="42.2793" lon="2.5731">
        <ele>315.042</ele>
        <time>2013-04-20T04:00:10Z</time>
      </trkpt>
      <trkpt lat="42.27937" lon="2.57299">
        <ele>317.926</ele>
        <time>2013-04-20T04:00:23Z</time>
      </trkpt>
      <trkpt lat="42.27945" lon="2.5729">
        <ele>320.707</ele>
        <time>2013-04-20T04:00:37Z</time>
      </trkpt>
      <trkpt lat="42.27946" lon="2.57288">
        <ele>321.242</ele>
        <time>2013-04-20T04:00:40Z</time>
      </trkpt>
      <trkpt lat="42.27948" lon="2.57276">
        <ele>321.251</ele>
        <time>2013-04-20T04:00:53Z</time>
      </trkpt>
      <trkpt lat="42.27955" lon="2.57267">
        <ele>323.685</ele>
        <time>2013-04-20T04:01:05Z</time>
      </trkpt>
      <trkpt lat="42.27961" lon="2.5726">
        <ele>324.672</ele>
        <time>2013-04-20T04:01:16Z</time>
      </trkpt>
      <trkpt lat="42.27961" lon="2.57259">
        <ele>324.633</ele>
        <time>2013-04-20T04:01:17Z</time>
      </trkpt>
      <trkpt lat="42.27962" lon="2.57257">
        <ele>324.696</ele>
        <time>2013-04-20T04:01:18Z</time>
      </trkpt>
      <trkpt lat="42.27971" lon="2.5725">
        <ele>325.579</ele>
        <time>2013-04-20T04:01:30Z</time>
      </trkpt>
      <trkpt lat="42.27974" lon="2.57249">
        <ele>326.085</ele>
        <time>2013-04-20T04:01:34Z</time>
      </trkpt>
      <trkpt lat="42.27983" lon="2.57254">
        <ele>325.589</ele>
        <time>2013-04-20T04:01:46Z</time>
      </trkpt>
      <trkpt lat="42.27986" lon="2.57254">
        <ele>325.517</ele>
        <time>2013-04-20T04:01:50Z</time>
      </trkpt>
      <trkpt lat="42.27988" lon="2.57254">
        <ele>325.507</ele>
        <time>2013-04-20T04:01:51Z</time>
      </trkpt>
      <trkpt lat="42.27995" lon="2.57252">
        <ele>325.182</ele>
        <time>2013-04-20T04:01:59Z</time>
      </trkpt>
      <trkpt lat="42.27999" lon="2.57251">
        <ele>325.181</ele>
        <time>2013-04-20T04:02:02Z</time>
      </trkpt>
      <trkpt lat="42.28006" lon="2.57254">
        <ele>324.635</ele>
        <time>2013-04-20T04:02:12Z</time>
      </trkpt>
      <trkpt lat="42.28014" lon="2.57259">
        <ele>324.192</ele>
        <time>2013-04-20T04:02:21Z</time>
      </trkpt>
      <trkpt lat="42.28015" lon="2.5726">
        <ele>324.143</ele>
        <time>2013-04-20T04:02:23Z</time>
      </trkpt>
      <trkpt lat="42.28021" lon="2.57263">
        <ele>324.156</ele>
        <time>2013-04-20T04:02:28Z</time>
      </trkpt>
      <trkpt lat="42.28028" lon="2.57272">
        <ele>324.139</ele>
        <time>2013-04-20T04:02:38Z</time>
      </trkpt>
      <trkpt lat="42.28033" lon="2.57278">
        <ele>324.113</ele>
        <time>2013-04-20T04:02:46Z</time>
      </trkpt>
      <trkpt lat="42.28039" lon="2.57289">
        <ele>324.143</ele>
        <time>2013-04-20T04:02:57Z</time>
      </trkpt>
      <trkpt lat="42.2804" lon="2.5729">
        <ele>324.107</ele>
        <time>2013-04-20T04:02:58Z</time>
      </trkpt>
      <trkpt lat="42.28042" lon="2.5729">
        <ele>324.107</ele>
        <time>2013-04-20T04:02:59Z</time>
      </trkpt>
      <trkpt lat="42.28045" lon="2.5729">
        <ele>324.145</ele>
        <time>2013-04-20T04:03:02Z</time>
      </trkpt>
      <trkpt lat="42.28049" lon="2.57292">
        <ele>324.184</ele>
        <time>2013-04-20T04:03:06Z</time>
      </trkpt>
      <trkpt lat="42.2806" lon="2.57292">
        <ele>324.198</ele>
        <time>2013-04-20T04:03:16Z</time>
      </trkpt>
      <trkpt lat="42.28065" lon="2.57296">
        <ele>324.135</ele>
        <time>2013-04-20T04:03:21Z</time>
      </trkpt>
      <trkpt lat="42.28073" lon="2.57301">
        <ele>330.866</ele>
        <time>2013-04-20T04:03:24Z</time>
      </trkpt>
      <trkpt lat="42.28087" lon="2.57292">
        <ele>361.619</ele>
        <time>2013-04-20T04:03:34Z</time>
      </trkpt>
      <trkpt lat="42.28087" lon="2.5729">
        <ele>379.972</ele>
        <time>2013-04-20T04:03:49Z</time>
      </trkpt>
      <trkpt lat="42.2809" lon="2.57292">
        <ele>381.884</ele>
        <time>2013-04-20T04:04:04Z</time>
      </trkpt>
      <trkpt lat="42.28096" lon="2.57291">
        <ele>385.607</ele>
        <time>2013-04-20T04:04:09Z</time>
      </trkpt>
      <trkpt lat="42.28098" lon="2.57292">
        <ele>385.617</ele>
        <time>2013-04-20T04:04:11Z</time>
      </trkpt>
      <trkpt lat="42.28108" lon="2.57296">
        <ele>385.607</ele>
        <time>2013-04-20T04:04:20Z</time>
      </trkpt>
      <trkpt lat="42.28117" lon="2.57301">
        <ele>388.062</ele>
        <time>2013-04-20T04:04:31Z</time>
      </trkpt>
      <trkpt lat="42.28123" lon="2.57313">
        <ele>387.611</ele>
        <time>2013-04-20T04:04:43Z</time>
      </trkpt>
      <trkpt lat="42.28127" lon="2.57323">
        <ele>387.175</ele>
        <time>2013-04-20T04:04:55Z</time>
      </trkpt>
      <trkpt lat="42.28133" lon="2.57333">
        <ele>387.132</ele>
        <time>2013-04-20T04:05:10Z</time>
      </trkpt>
      <trkpt lat="42.28135" lon="2.57337">
        <ele>386.673</ele>
        <time>2013-04-20T04:05:23Z</time>
      </trkpt>
      <trkpt lat="42.28136" lon="2.57337">
        <ele>386.696</ele>
        <time>2013-04-20T04:05:25Z</time>
      </trkpt>
      <trkpt lat="42.28143" lon="2.57338">
        <ele>386.639</ele>
        <time>2013-04-20T04:05:37Z</time>
      </trkpt>
      <trkpt lat="42.28149" lon="2.57339">
        <ele>386.158</ele>
        <time>2013-04-20T04:05:48Z</time>
      </trkpt>
      <trkpt lat="42.28152" lon="2.57342">
        <ele>386.152</ele>
        <time>2013-04-20T04:06:00Z</time>
      </trkpt>
      <trkpt lat="42.28152" lon="2.57346">
        <ele>386.117</ele>
        <time>2013-04-20T04:06:14Z</time>
      </trkpt>
      <trkpt lat="42.28165" lon="2.57336">
        <ele>390.907</ele>
        <time>2013-04-20T04:06:28Z</time>
      </trkpt>
      <trkpt lat="42.28175" lon="2.57338">
        <ele>387.189</ele>
        <time>2013-04-20T04:06:37Z</time>
      </trkpt>
      <trkpt lat="42.28184" lon="2.57343">
        <ele>378.928</ele>
        <time>2013-04-20T04:06:50Z</time>
      </trkpt>
      <trkpt lat="42.2819" lon="2.57348">
        <ele>376.042</ele>
        <time>2013-04-20T04:07:04Z</time>
      </trkpt>
      <trkpt lat="42.28193" lon="2.57351">
        <ele>373.659</ele>
        <time>2013-04-20T04:07:16Z</time>
      </trkpt>
      <trkpt lat="42.28197" lon="2.57351">
        <ele>374.13</ele>
        <time>2013-04-20T04:07:30Z</time>
      </trkpt>
      <trkpt lat="42.28202" lon="2.57353">
        <ele>374.643</ele>
        <time>2013-04-20T04:07:41Z</time>
      </trkpt>
      <trkpt lat="42.28211" lon="2.57355">
        <ele>379.486</ele>
        <time>2013-04-20T04:07:58Z</time>
      </trkpt>
      <trkpt lat="42.28208" lon="2.57362">
        <ele>380.367</ele>
        <time>2013-04-20T04:08:08Z</time>
      </trkpt>
      <trkpt lat="42.28205" lon="2.57364">
        <ele>380.881</ele>
        <time>2013-04-20T04:08:11Z</time>
      </trkpt>
      <trkpt lat="42.28203" lon="2.57368">
        <ele>380.319</ele>
        <time>2013-04-20T04:08:14Z</time>
      </trkpt>
      <trkpt lat="42.28196" lon="2.5738">
        <ele>379.907</ele>
        <time>2013-04-20T04:08:28Z</time>
      </trkpt>
      <trkpt lat="42.28199" lon="2.57384">
        <ele>381.84</ele>
        <time>2013-04-20T04:08:41Z</time>
      </trkpt>
      <trkpt lat="42.28208" lon="2.5738">
        <ele>384.219</ele>
        <time>2013-04-20T04:08:55Z</time>
      </trkpt>
      <trkpt lat="42.2822" lon="2.57381">
        <ele>388.573</ele>
        <time>2013-04-20T04:09:09Z</time>
      </trkpt>
      <trkpt lat="42.28219" lon="2.57388">
        <ele>392.43</ele>
        <time>2013-04-20T04:09:22Z</time>
      </trkpt>
      <trkpt lat="42.28215" lon="2.57397">
        <ele>395.281</ele>
        <time>2013-04-20T04:09:33Z</time>
      </trkpt>
      <trkpt lat="42.28207" lon="2.57406">
        <ele>396.794</ele>
        <time>2013-04-20T04:09:47Z</time>
      </trkpt>
      <trkpt lat="42.28208" lon="2.5741">
        <ele>398.177</ele>
        <time>2013-04-20T04:09:59Z</time>
      </trkpt>
      <trkpt lat="42.28217" lon="2.57407">
        <ele>402.554</ele>
        <time>2013-04-20T04:10:13Z</time>
      </trkpt>
      <trkpt lat="42.28223" lon="2.57408">
        <ele>402.956</ele>
        <time>2013-04-20T04:10:19Z</time>
      </trkpt>
      <trkpt lat="42.28227" lon="2.57407">
        <ele>402.911</ele>
        <time>2013-04-20T04:10:24Z</time>
      </trkpt>
      <trkpt lat="42.2823" lon="2.57411">
        <ele>405.307</ele>
        <time>2013-04-20T04:10:36Z</time>
      </trkpt>
      <trkpt lat="42.28228" lon="2.57414">
        <ele>405.899</ele>
        <time>2013-04-20T04:10:40Z</time>
      </trkpt>
      <trkpt lat="42.28218" lon="2.57427">
        <ele>406.868</ele>
        <time>2013-04-20T04:10:55Z</time>
      </trkpt>
      <trkpt lat="42.28208" lon="2.57433">
        <ele>407.772</ele>
        <time>2013-04-20T04:11:07Z</time>
      </trkpt>
      <trkpt lat="42.28211" lon="2.57437">
        <ele>408.749</ele>
        <time>2013-04-20T04:11:19Z</time>
      </trkpt>
      <trkpt lat="42.28208" lon="2.57446">
        <ele>409.77</ele>
        <time>2013-04-20T04:11:32Z</time>
      </trkpt>
      <trkpt lat="42.2821" lon="2.57445">
        <ele>409.783</ele>
        <time>2013-04-20T04:11:35Z</time>
      </trkpt>
      <trkpt lat="42.28215" lon="2.57446">
        <ele>410.146</ele>
        <time>2013-04-20T04:11:42Z</time>
      </trkpt>
      <trkpt lat="42.28224" lon="2.57446">
        <ele>411.177</ele>
        <time>2013-04-20T04:11:56Z</time>
      </trkpt>
      <trkpt lat="42.28228" lon="2.57448">
        <ele>417.861</ele>
        <time>2013-04-20T04:12:07Z</time>
      </trkpt>
      <trkpt lat="42.28224" lon="2.57459">
        <ele>420.727</ele>
        <time>2013-04-20T04:12:19Z</time>
      </trkpt>
      <trkpt lat="42.28228" lon="2.57461">
        <ele>423.107</ele>
        <time>2013-04-20T04:12:31Z</time>
      </trkpt>
      <trkpt lat="42.28234" lon="2.57464">
        <ele>425.551</ele>
        <time>2013-04-20T04:12:44Z</time>
      </trkpt>
      <trkpt lat="42.28241" lon="2.57463">
        <ele>430.38</ele>
        <time>2013-04-20T04:12:57Z</time>
      </trkpt>
      <trkpt lat="42.28239" lon="2.5747">
        <ele>431.834</ele>
        <time>2013-04-20T04:13:06Z</time>
      </trkpt>
      <trkpt lat="42.28237" lon="2.57474">
        <ele>432.371</ele>
        <time>2013-04-20T04:13:10Z</time>
      </trkpt>
      <trkpt lat="42.28229" lon="2.57488">
        <ele>434.732</ele>
        <time>2013-04-20T04:13:24Z</time>
      </trkpt>
      <trkpt lat="42.28221" lon="2.57493">
        <ele>436.685</ele>
        <time>2013-04-20T04:13:39Z</time>
      </trkpt>
      <trkpt lat="42.28223" lon="2.57498">
        <ele>437.598</ele>
        <time>2013-04-20T04:13:52Z</time>
      </trkpt>
      <trkpt lat="42.28231" lon="2.57505">
        <ele>439.039</ele>
        <time>2013-04-20T04:14:05Z</time>
      </trkpt>
      <trkpt lat="42.28231" lon="2.57508">
        <ele>439.901</ele>
        <time>2013-04-20T04:14:09Z</time>
      </trkpt>
      <trkpt lat="42.28227" lon="2.57514">
        <ele>444.821</ele>
        <time>2013-04-20T04:14:23Z</time>
      </trkpt>
      <trkpt lat="42.28228" lon="2.57521">
        <ele>448.107</ele>
        <time>2013-04-20T04:14:35Z</time>
      </trkpt>
      <trkpt lat="42.28236" lon="2.57523">
        <ele>451.597</ele>
        <time>2013-04-20T04:14:46Z</time>
      </trkpt>
      <trkpt lat="42.28248" lon="2.57523">
        <ele>453.926</ele>
        <time>2013-04-20T04:14:59Z</time>
      </trkpt>
      <trkpt lat="42.28256" lon="2.57513">
        <ele>454.87</ele>
        <time>2013-04-20T04:15:13Z</time>
      </trkpt>
      <trkpt lat="42.2826" lon="2.57508">
        <ele>456.377</ele>
        <time>2013-04-20T04:15:27Z</time>
      </trkpt>
      <trkpt lat="42.28262" lon="2.57518">
        <ele>458.798</ele>
        <time>2013-04-20T04:15:40Z</time>
      </trkpt>
      <trkpt lat="42.28264" lon="2.57517">
        <ele>459.731</ele>
        <time>2013-04-20T04:15:45Z</time>
      </trkpt>
      <trkpt lat="42.28268" lon="2.57512">
        <ele>461.144</ele>
        <time>2013-04-20T04:15:50Z</time>
      </trkpt>
      <trkpt lat="42.28275" lon="2.57515">
        <ele>463.539</ele>
        <time>2013-04-20T04:16:05Z</time>
      </trkpt>
      <trkpt lat="42.28281" lon="2.57526">
        <ele>465.901</ele>
        <time>2013-04-20T04:16:19Z</time>
      </trkpt>
      <trkpt lat="42.28289" lon="2.57535">
        <ele>468.321</ele>
        <time>2013-04-20T04:16:33Z</time>
      </trkpt>
      <trkpt lat="42.28295" lon="2.57527">
        <ele>472.607</ele>
        <time>2013-04-20T04:16:48Z</time>
      </trkpt>
      <trkpt lat="42.28299" lon="2.57523">
        <ele>475.037</ele>
        <time>2013-04-20T04:17:01Z</time>
      </trkpt>
      <trkpt lat="42.28302" lon="2.57525">
        <ele>476.036</ele>
        <time>2013-04-20T04:17:07Z</time>
      </trkpt>
      <trkpt lat="42.2831" lon="2.5752">
        <ele>478.42</ele>
        <time>2013-04-20T04:17:20Z</time>
      </trkpt>
      <trkpt lat="42.28318" lon="2.57515">
        <ele>480.887</ele>
        <time>2013-04-20T04:17:34Z</time>
      </trkpt>
      <trkpt lat="42.28326" lon="2.57518">
        <ele>481.368</ele>
        <time>2013-04-20T04:17:47Z</time>
      </trkpt>
      <trkpt lat="42.28327" lon="2.57518">
        <ele>481.361</ele>
        <time>2013-04-20T04:17:48Z</time>
      </trkpt>
      <trkpt lat="42.28335" lon="2.57527">
        <ele>480.854</ele>
        <time>2013-04-20T04:18:00Z</time>
      </trkpt>
      <trkpt lat="42.28345" lon="2.57527">
        <ele>480.842</ele>
        <time>2013-04-20T04:18:12Z</time>
      </trkpt>
      <trkpt lat="42.28353" lon="2.57524">
        <ele>481.322</ele>
        <time>2013-04-20T04:18:24Z</time>
      </trkpt>
      <trkpt lat="42.28363" lon="2.57524">
        <ele>481.314</ele>
        <time>2013-04-20T04:18:36Z</time>
      </trkpt>
      <trkpt lat="42.2837" lon="2.57526">
        <ele>481.307</ele>
        <time>2013-04-20T04:18:48Z</time>
      </trkpt>
      <trkpt lat="42.2838" lon="2.57532">
        <ele>481.888</ele>
        <time>2013-04-20T04:19:01Z</time>
      </trkpt>
      <trkpt lat="42.28388" lon="2.57536">
        <ele>481.817</ele>
        <time>2013-04-20T04:19:13Z</time>
      </trkpt>
      <trkpt lat="42.28396" lon="2.57539">
        <ele>481.821</ele>
        <time>2013-04-20T04:19:26Z</time>
      </trkpt>
      <trkpt lat="42.28405" lon="2.57543">
        <ele>482.258</ele>
        <time>2013-04-20T04:19:39Z</time>
      </trkpt>
      <trkpt lat="42.28415" lon="2.57546">
        <ele>482.779</ele>
        <time>2013-04-20T04:19:53Z</time>
      </trkpt>
      <trkpt lat="42.28423" lon="2.57552">
        <ele>483.282</ele>
        <time>2013-04-20T04:20:06Z</time>
      </trkpt>
      <trkpt lat="42.28435" lon="2.57557">
        <ele>483.255</ele>
        <time>2013-04-20T04:20:19Z</time>
      </trkpt>
      <trkpt lat="42.28445" lon="2.5756">
        <ele>483.773</ele>
        <time>2013-04-20T04:20:31Z</time>
      </trkpt>
      <trkpt lat="42.28455" lon="2.57561">
        <ele>483.785</ele>
        <time>2013-04-20T04:20:43Z</time>
      </trkpt>
      <trkpt lat="42.28465" lon="2.57563">
        <ele>484.213</ele>
        <time>2013-04-20T04:20:55Z</time>
      </trkpt>
      <trkpt lat="42.28474" lon="2.57568">
        <ele>484.207</ele>
        <time>2013-04-20T04:21:05Z</time>
      </trkpt>
      <trkpt lat="42.28481" lon="2.57569">
        <ele>484.611</ele>
        <time>2013-04-20T04:21:17Z</time>
      </trkpt>
      <trkpt lat="42.28491" lon="2.57569">
        <ele>485.11</ele>
        <time>2013-04-20T04:21:33Z</time>
      </trkpt>
      <trkpt lat="42.285" lon="2.5757">
        <ele>485.124</ele>
        <time>2013-04-20T04:21:44Z</time>
      </trkpt>
      <trkpt lat="42.28505" lon="2.57567">
        <ele>485.151</ele>
        <time>2013-04-20T04:21:55Z</time>
      </trkpt>
      <trkpt lat="42.2851" lon="2.57569">
        <ele>485.662</ele>
        <time>2013-04-20T04:22:07Z</time>
      </trkpt>
      <trkpt lat="42.28511" lon="2.57566">
        <ele>486.175</ele>
        <time>2013-04-20T04:22:22Z</time>
      </trkpt>
      <trkpt lat="42.2851" lon="2.57566">
        <ele>486.178</ele>
        <time>2013-04-20T04:22:39Z</time>
      </trkpt>
      <trkpt lat="42.2851" lon="2.57566">
        <ele>486.153</ele>
        <time>2013-04-20T04:22:54Z</time>
      </trkpt>
      <trkpt lat="42.28497" lon="2.57573">
        <ele>514.904</ele>
        <time>2013-04-20T04:23:12Z</time>
      </trkpt>
      <trkpt lat="42.28493" lon="2.57575">
        <ele>522.114</ele>
        <time>2013-04-20T04:23:30Z</time>
      </trkpt>
      <trkpt lat="42.28491" lon="2.57574">
        <ele>523.107</ele>
        <time>2013-04-20T04:23:45Z</time>
      </trkpt>
      <trkpt lat="42.28491" lon="2.5757">
        <ele>523.149</ele>
        <time>2013-04-20T04:24:14Z</time>
      </trkpt>
      <trkpt lat="42.28493" lon="2.5757">
        <ele>521.238</ele>
        <time>2013-04-20T04:24:26Z</time>
      </trkpt>
      <trkpt lat="42.28491" lon="2.57569">
        <ele>522.142</ele>
        <time>2013-04-20T04:24:41Z</time>
      </trkpt>
      <trkpt lat="42.28486" lon="2.5756">
        <ele>520.749</ele>
        <time>2013-04-20T04:24:54Z</time>
      </trkpt>
      <trkpt lat="42.28484" lon="2.57558">
        <ele>522.11</ele>
        <time>2013-04-20T04:25:06Z</time>
      </trkpt>
      <trkpt lat="42.28483" lon="2.57556">
        <ele>522.673</ele>
        <time>2013-04-20T04:25:11Z</time>
      </trkpt>
      <trkpt lat="42.2848" lon="2.57549">
        <ele>525.066</ele>
        <time>2013-04-20T04:25:25Z</time>
      </trkpt>
      <trkpt lat="42.28476" lon="2.57544">
        <ele>527.474</ele>
        <time>2013-04-20T04:25:36Z</time>
      </trkpt>
      <trkpt lat="42.28474" lon="2.57541">
        <ele>528.956</ele>
        <time>2013-04-20T04:25:47Z</time>
      </trkpt>
      <trkpt lat="42.28476" lon="2.57536">
        <ele>530.821</ele>
        <time>2013-04-20T04:26:00Z</time>
      </trkpt>
      <trkpt lat="42.28476" lon="2.57529">
        <ele>533.207</ele>
        <time>2013-04-20T04:26:13Z</time>
      </trkpt>
      <trkpt lat="42.28478" lon="2.57524">
        <ele>537.521</ele>
        <time>2013-04-20T04:26:28Z</time>
      </trkpt>
      <trkpt lat="42.2847" lon="2.57518">
        <ele>539.06</ele>
        <time>2013-04-20T04:26:40Z</time>
      </trkpt>
      <trkpt lat="42.28468" lon="2.57515">
        <ele>543.364</ele>
        <time>2013-04-20T04:26:53Z</time>
      </trkpt>
      <trkpt lat="42.28469" lon="2.57509">
        <ele>547.691</ele>
        <time>2013-04-20T04:27:08Z</time>
      </trkpt>
      <trkpt lat="42.2847" lon="2.575">
        <ele>552.422</ele>
        <time>2013-04-20T04:27:20Z</time>
      </trkpt>
      <trkpt lat="42.2847" lon="2.57499">
        <ele>553.465</ele>
        <time>2013-04-20T04:27:22Z</time>
      </trkpt>
      <trkpt lat="42.28475" lon="2.57494">
        <ele>559.698</ele>
        <time>2013-04-20T04:27:35Z</time>
      </trkpt>
      <trkpt lat="42.28476" lon="2.57494">
        <ele>560.654</ele>
        <time>2013-04-20T04:27:37Z</time>
      </trkpt>
      <trkpt lat="42.28476" lon="2.57492">
        <ele>561.656</ele>
        <time>2013-04-20T04:27:39Z</time>
      </trkpt>
      <trkpt lat="42.28476" lon="2.57487">
        <ele>563.511</ele>
        <time>2013-04-20T04:27:43Z</time>
      </trkpt>
      <trkpt lat="42.28479" lon="2.57479">
        <ele>565.407</ele>
        <time>2013-04-20T04:27:50Z</time>
      </trkpt>
      <trkpt lat="42.28483" lon="2.5746">
        <ele>569.289</ele>
        <time>2013-04-20T04:28:06Z</time>
      </trkpt>
      <trkpt lat="42.28493" lon="2.57453">
        <ele>570.238</ele>
        <time>2013-04-20T04:28:19Z</time>
      </trkpt>
      <trkpt lat="42.285" lon="2.57447">
        <ele>571.282</ele>
        <time>2013-04-20T04:28:32Z</time>
      </trkpt>
      <trkpt lat="42.28508" lon="2.57438">
        <ele>572.699</ele>
        <time>2013-04-20T04:28:46Z</time>
      </trkpt>
      <trkpt lat="42.28515" lon="2.57436">
        <ele>574.51</ele>
        <time>2013-04-20T04:28:58Z</time>
      </trkpt>
      <trkpt lat="42.28519" lon="2.5744">
        <ele>577.973</ele>
        <time>2013-04-20T04:29:13Z</time>
      </trkpt>
      <trkpt lat="42.28518" lon="2.57444">
        <ele>578.436</ele>
        <time>2013-04-20T04:29:17Z</time>
      </trkpt>
      <trkpt lat="42.28517" lon="2.57464">
        <ele>579.826</ele>
        <time>2013-04-20T04:29:31Z</time>
      </trkpt>
      <trkpt lat="42.28522" lon="2.57475">
        <ele>579.847</ele>
        <time>2013-04-20T04:29:42Z</time>
      </trkpt>
      <trkpt lat="42.28531" lon="2.57488">
        <ele>582.211</ele>
        <time>2013-04-20T04:29:57Z</time>
      </trkpt>
      <trkpt lat="42.28534" lon="2.57488">
        <ele>586.107</ele>
        <time>2013-04-20T04:30:11Z</time>
      </trkpt>
      <trkpt lat="42.28539" lon="2.57491">
        <ele>589.096</ele>
        <time>2013-04-20T04:30:22Z</time>
      </trkpt>
      <trkpt lat="42.28546" lon="2.5749">
        <ele>590.455</ele>
        <time>2013-04-20T04:30:37Z</time>
      </trkpt>
      <trkpt lat="42.28555" lon="2.57493">
        <ele>590.949</ele>
        <time>2013-04-20T04:30:50Z</time>
      </trkpt>
      <trkpt lat="42.28559" lon="2.57495">
        <ele>590.916</ele>
        <time>2013-04-20T04:30:55Z</time>
      </trkpt>
      <trkpt lat="42.28568" lon="2.57498">
        <ele>592.367</ele>
        <time>2013-04-20T04:31:08Z</time>
      </trkpt>
      <trkpt lat="42.28571" lon="2.57496">
        <ele>594.24</ele>
        <time>2013-04-20T04:31:19Z</time>
      </trkpt>
      <trkpt lat="42.28565" lon="2.57484">
        <ele>596.693</ele>
        <time>2013-04-20T04:31:33Z</time>
      </trkpt>
      <trkpt lat="42.28567" lon="2.57478">
        <ele>598.145</ele>
        <time>2013-04-20T04:31:44Z</time>
      </trkpt>
      <trkpt lat="42.28575" lon="2.57482">
        <ele>600.047</ele>
        <time>2013-04-20T04:31:58Z</time>
      </trkpt>
      <trkpt lat="42.28579" lon="2.57483">
        <ele>601.011</ele>
        <time>2013-04-20T04:32:05Z</time>
      </trkpt>
      <trkpt lat="42.28582" lon="2.57485">
        <ele>601.907</ele>
        <time>2013-04-20T04:32:09Z</time>
      </trkpt>
      <trkpt lat="42.28592" lon="2.5749">
        <ele>603.458</ele>
        <time>2013-04-20T04:32:23Z</time>
      </trkpt>
      <trkpt lat="42.28594" lon="2.57488">
        <ele>603.987</ele>
        <time>2013-04-20T04:32:27Z</time>
      </trkpt>
      <trkpt lat="42.2859" lon="2.57478">
        <ele>607.231</ele>
        <time>2013-04-20T04:32:38Z</time>
      </trkpt>
      <trkpt lat="42.28591" lon="2.57472">
        <ele>607.728</ele>
        <time>2013-04-20T04:32:49Z</time>
      </trkpt>
      <trkpt lat="42.286" lon="2.57478">
        <ele>609.149</ele>
        <time>2013-04-20T04:33:03Z</time>
      </trkpt>
      <trkpt lat="42.28597" lon="2.57469">
        <ele>611.542</ele>
        <time>2013-04-20T04:33:16Z</time>
      </trkpt>
      <trkpt lat="42.28592" lon="2.57456">
        <ele>613.975</ele>
        <time>2013-04-20T04:33:31Z</time>
      </trkpt>
      <trkpt lat="42.28597" lon="2.57451">
        <ele>616.394</ele>
        <time>2013-04-20T04:33:44Z</time>
      </trkpt>
      <trkpt lat="42.28594" lon="2.57446">
        <ele>618.857</ele>
        <time>2013-04-20T04:33:53Z</time>
      </trkpt>
      <trkpt lat="42.28595" lon="2.57442">
        <ele>619.722</ele>
        <time>2013-04-20T04:34:01Z</time>
      </trkpt>
      <trkpt lat="42.28592" lon="2.57436">
        <ele>620.207</ele>
        <time>2013-04-20T04:34:06Z</time>
      </trkpt>
      <trkpt lat="42.28589" lon="2.57433">
        <ele>620.743</ele>
        <time>2013-04-20T04:34:09Z</time>
      </trkpt>
      <trkpt lat="42.28584" lon="2.57428">
        <ele>621.282</ele>
        <time>2013-04-20T04:34:14Z</time>
      </trkpt>
      <trkpt lat="42.28575" lon="2.57404">
        <ele>625.556</ele>
        <time>2013-04-20T04:34:30Z</time>
      </trkpt>
      <trkpt lat="42.28575" lon="2.5739">
        <ele>624.553</ele>
        <time>2013-04-20T04:34:39Z</time>
      </trkpt>
      <trkpt lat="42.28582" lon="2.57376">
        <ele>626.044</ele>
        <time>2013-04-20T04:34:49Z</time>
      </trkpt>
      <trkpt lat="42.28583" lon="2.57372">
        <ele>626.497</ele>
        <time>2013-04-20T04:34:51Z</time>
      </trkpt>
      <trkpt lat="42.28582" lon="2.57362">
        <ele>627.97</ele>
        <time>2013-04-20T04:34:56Z</time>
      </trkpt>
      <trkpt lat="42.28586" lon="2.57344">
        <ele>626.917</ele>
        <time>2013-04-20T04:35:10Z</time>
      </trkpt>
      <trkpt lat="42.28586" lon="2.57341">
        <ele>626.487</ele>
        <time>2013-04-20T04:35:12Z</time>
      </trkpt>
      <trkpt lat="42.28587" lon="2.57339">
        <ele>626.015</ele>
        <time>2013-04-20T04:35:14Z</time>
      </trkpt>
      <trkpt lat="42.28588" lon="2.57339">
        <ele>626.007</ele>
        <time>2013-04-20T04:35:16Z</time>
      </trkpt>
      <trkpt lat="42.28597" lon="2.57332">
        <ele>624.575</ele>
        <time>2013-04-20T04:35:28Z</time>
      </trkpt>
      <trkpt lat="42.28603" lon="2.57327">
        <ele>622.634</ele>
        <time>2013-04-20T04:35:40Z</time>
      </trkpt>
      <trkpt lat="42.28604" lon="2.57318">
        <ele>621.288</ele>
        <time>2013-04-20T04:35:45Z</time>
      </trkpt>
      <trkpt lat="42.28612" lon="2.57303">
        <ele>619.715</ele>
        <time>2013-04-20T04:35:56Z</time>
      </trkpt>
      <trkpt lat="42.28613" lon="2.573">
        <ele>620.296</ele>
        <time>2013-04-20T04:35:59Z</time>
      </trkpt>
      <trkpt lat="42.28609" lon="2.57283">
        <ele>620.799</ele>
        <time>2013-04-20T04:36:10Z</time>
      </trkpt>
      <trkpt lat="42.28608" lon="2.57274">
        <ele>621.642</ele>
        <time>2013-04-20T04:36:15Z</time>
      </trkpt>
      <trkpt lat="42.28609" lon="2.5727">
        <ele>621.247</ele>
        <time>2013-04-20T04:36:18Z</time>
      </trkpt>
      <trkpt lat="42.2861" lon="2.57262">
        <ele>624.029</ele>
        <time>2013-04-20T04:36:31Z</time>
      </trkpt>
      <trkpt lat="42.28611" lon="2.57261">
        <ele>626.021</ele>
        <time>2013-04-20T04:36:54Z</time>
      </trkpt>
      <trkpt lat="42.28609" lon="2.57261">
        <ele>626.007</ele>
        <time>2013-04-20T04:37:12Z</time>
      </trkpt>
      <trkpt lat="42.28614" lon="2.5725">
        <ele>625.088</ele>
        <time>2013-04-20T04:37:26Z</time>
      </trkpt>
      <trkpt lat="42.28617" lon="2.5725">
        <ele>626.997</ele>
        <time>2013-04-20T04:37:38Z</time>
      </trkpt>
      <trkpt lat="42.28612" lon="2.57256">
        <ele>628.871</ele>
        <time>2013-04-20T04:38:02Z</time>
      </trkpt>
      <trkpt lat="42.28612" lon="2.5726">
        <ele>628.428</ele>
        <time>2013-04-20T04:38:17Z</time>
      </trkpt>
      <trkpt lat="42.28611" lon="2.57258">
        <ele>630.859</ele>
        <time>2013-04-20T04:38:31Z</time>
      </trkpt>
      <trkpt lat="42.28614" lon="2.57258">
        <ele>630.832</ele>
        <time>2013-04-20T04:38:45Z</time>
      </trkpt>
      <trkpt lat="42.2862" lon="2.57265">
        <ele>632.785</ele>
        <time>2013-04-20T04:38:58Z</time>
      </trkpt>
      <trkpt lat="42.28622" lon="2.57274">
        <ele>634.683</ele>
        <time>2013-04-20T04:39:15Z</time>
      </trkpt>
      <trkpt lat="42.28626" lon="2.57285">
        <ele>636.525</ele>
        <time>2013-04-20T04:39:30Z</time>
      </trkpt>
      <trkpt lat="42.2863" lon="2.57296">
        <ele>638.517</ele>
        <time>2013-04-20T04:39:43Z</time>
      </trkpt>
      <trkpt lat="42.28631" lon="2.57309">
        <ele>640.407</ele>
        <time>2013-04-20T04:39:57Z</time>
      </trkpt>
      <trkpt lat="42.28632" lon="2.57317">
        <ele>642.882</ele>
        <time>2013-04-20T04:40:11Z</time>
      </trkpt>
      <trkpt lat="42.28625" lon="2.57326">
        <ele>647.641</ele>
        <time>2013-04-20T04:40:24Z</time>
      </trkpt>
      <trkpt lat="42.28625" lon="2.57337">
        <ele>651.015</ele>
        <time>2013-04-20T04:40:39Z</time>
      </trkpt>
      <trkpt lat="42.28624" lon="2.57347">
        <ele>653.862</ele>
        <time>2013-04-20T04:40:52Z</time>
      </trkpt>
      <trkpt lat="42.28619" lon="2.57359">
        <ele>656.263</ele>
        <time>2013-04-20T04:41:05Z</time>
      </trkpt>
      <trkpt lat="42.28619" lon="2.57365">
        <ele>657.286</ele>
        <time>2013-04-20T04:41:13Z</time>
      </trkpt>
      <trkpt lat="42.28622" lon="2.57372">
        <ele>658.699</ele>
        <time>2013-04-20T04:41:21Z</time>
      </trkpt>
      <trkpt lat="42.28627" lon="2.57387">
        <ele>661.589</ele>
        <time>2013-04-20T04:41:34Z</time>
      </trkpt>
      <trkpt lat="42.28639" lon="2.574">
        <ele>663.506</ele>
        <time>2013-04-20T04:41:50Z</time>
      </trkpt>
      <trkpt lat="42.28649" lon="2.57409">
        <ele>666.326</ele>
        <time>2013-04-20T04:42:04Z</time>
      </trkpt>
      <trkpt lat="42.28654" lon="2.57413">
        <ele>667.307</ele>
        <time>2013-04-20T04:42:09Z</time>
      </trkpt>
      <trkpt lat="42.28665" lon="2.57429">
        <ele>670.212</ele>
        <time>2013-04-20T04:42:22Z</time>
      </trkpt>
      <trkpt lat="42.28679" lon="2.57441">
        <ele>671.161</ele>
        <time>2013-04-20T04:42:34Z</time>
      </trkpt>
      <trkpt lat="42.2868" lon="2.57443">
        <ele>671.165</ele>
        <time>2013-04-20T04:42:36Z</time>
      </trkpt>
      <trkpt lat="42.2869" lon="2.57456">
        <ele>672.662</ele>
        <time>2013-04-20T04:42:48Z</time>
      </trkpt>
      <trkpt lat="42.28699" lon="2.57464">
        <ele>674.573</ele>
        <time>2013-04-20T04:43:02Z</time>
      </trkpt>
      <trkpt lat="42.28707" lon="2.57467">
        <ele>676.486</ele>
        <time>2013-04-20T04:43:14Z</time>
      </trkpt>
      <trkpt lat="42.28713" lon="2.57469">
        <ele>679.359</ele>
        <time>2013-04-20T04:43:25Z</time>
      </trkpt>
      <trkpt lat="42.2872" lon="2.57481">
        <ele>681.233</ele>
        <time>2013-04-20T04:43:37Z</time>
      </trkpt>
      <trkpt lat="42.28724" lon="2.57489">
        <ele>682.223</ele>
        <time>2013-04-20T04:43:43Z</time>
      </trkpt>
      <trkpt lat="42.28726" lon="2.57501">
        <ele>683.615</ele>
        <time>2013-04-20T04:43:51Z</time>
      </trkpt>
      <trkpt lat="42.28732" lon="2.57516">
        <ele>684.107</ele>
        <time>2013-04-20T04:44:05Z</time>
      </trkpt>
      <trkpt lat="42.28738" lon="2.57532">
        <ele>686.047</ele>
        <time>2013-04-20T04:44:17Z</time>
      </trkpt>
      <trkpt lat="42.2874" lon="2.57542">
        <ele>688.916</ele>
        <time>2013-04-20T04:44:29Z</time>
      </trkpt>
      <trkpt lat="42.28744" lon="2.57563">
        <ele>691.37</ele>
        <time>2013-04-20T04:44:42Z</time>
      </trkpt>
      <trkpt lat="42.28747" lon="2.57581">
        <ele>694.777</ele>
        <time>2013-04-20T04:44:56Z</time>
      </trkpt>
      <trkpt lat="42.28747" lon="2.57599">
        <ele>697.148</ele>
        <time>2013-04-20T04:45:10Z</time>
      </trkpt>
      <trkpt lat="42.28747" lon="2.5761">
        <ele>699.011</ele>
        <time>2013-04-20T04:45:20Z</time>
      </trkpt>
      <trkpt lat="42.28751" lon="2.57617">
        <ele>701.454</ele>
        <time>2013-04-20T04:45:27Z</time>
      </trkpt>
      <trkpt lat="42.28759" lon="2.57633">
        <ele>704.393</ele>
        <time>2013-04-20T04:45:42Z</time>
      </trkpt>
      <trkpt lat="42.28769" lon="2.57644">
        <ele>708.265</ele>
        <time>2013-04-20T04:46:00Z</time>
      </trkpt>
      <trkpt lat="42.28771" lon="2.5765">
        <ele>709.621</ele>
        <time>2013-04-20T04:46:05Z</time>
      </trkpt>
      <trkpt lat="42.28782" lon="2.57662">
        <ele>713.007</ele>
        <time>2013-04-20T04:46:22Z</time>
      </trkpt>
      <trkpt lat="42.28788" lon="2.57669">
        <ele>714.973</ele>
        <time>2013-04-20T04:46:34Z</time>
      </trkpt>
      <trkpt lat="42.28795" lon="2.57679">
        <ele>717.312</ele>
        <time>2013-04-20T04:46:47Z</time>
      </trkpt>
      <trkpt lat="42.28802" lon="2.57696">
        <ele>720.296</ele>
        <time>2013-04-20T04:47:02Z</time>
      </trkpt>
      <trkpt lat="42.28813" lon="2.57713">
        <ele>721.633</ele>
        <time>2013-04-20T04:47:17Z</time>
      </trkpt>
      <trkpt lat="42.28821" lon="2.57728">
        <ele>721.114</ele>
        <time>2013-04-20T04:47:32Z</time>
      </trkpt>
      <trkpt lat="42.28823" lon="2.57732">
        <ele>721.147</ele>
        <time>2013-04-20T04:47:35Z</time>
      </trkpt>
      <trkpt lat="42.28825" lon="2.57734">
        <ele>721.67</ele>
        <time>2013-04-20T04:47:37Z</time>
      </trkpt>
      <trkpt lat="42.28831" lon="2.57748">
        <ele>724.086</ele>
        <time>2013-04-20T04:47:51Z</time>
      </trkpt>
      <trkpt lat="42.28833" lon="2.57753">
        <ele>728.86</ele>
        <time>2013-04-20T04:48:04Z</time>
      </trkpt>
      <trkpt lat="42.28836" lon="2.57766">
        <ele>734.126</ele>
        <time>2013-04-20T04:48:16Z</time>
      </trkpt>
      <trkpt lat="42.2884" lon="2.57773">
        <ele>736.507</ele>
        <time>2013-04-20T04:48:29Z</time>
      </trkpt>
      <trkpt lat="42.28842" lon="2.5778">
        <ele>736.022</ele>
        <time>2013-04-20T04:48:37Z</time>
      </trkpt>
      <trkpt lat="42.28845" lon="2.578">
        <ele>738.011</ele>
        <time>2013-04-20T04:48:53Z</time>
      </trkpt>
      <trkpt lat="42.28848" lon="2.57813">
        <ele>742.845</ele>
        <time>2013-04-20T04:49:06Z</time>
      </trkpt>
      <trkpt lat="42.2885" lon="2.57823">
        <ele>747.162</ele>
        <time>2013-04-20T04:49:20Z</time>
      </trkpt>
      <trkpt lat="42.28851" lon="2.57834">
        <ele>750.523</ele>
        <time>2013-04-20T04:49:30Z</time>
      </trkpt>
      <trkpt lat="42.2885" lon="2.5785">
        <ele>753.366</ele>
        <time>2013-04-20T04:49:44Z</time>
      </trkpt>
      <trkpt lat="42.28853" lon="2.57862">
        <ele>756.259</ele>
        <time>2013-04-20T04:49:57Z</time>
      </trkpt>
      <trkpt lat="42.28848" lon="2.57882">
        <ele>760.514</ele>
        <time>2013-04-20T04:50:12Z</time>
      </trkpt>
      <trkpt lat="42.28847" lon="2.57885">
        <ele>761.054</ele>
        <time>2013-04-20T04:50:15Z</time>
      </trkpt>
      <trkpt lat="42.28849" lon="2.57897">
        <ele>763.909</ele>
        <time>2013-04-20T04:50:26Z</time>
      </trkpt>
      <trkpt lat="42.28847" lon="2.57908">
        <ele>764.907</ele>
        <time>2013-04-20T04:50:34Z</time>
      </trkpt>
      <trkpt lat="42.28849" lon="2.57919">
        <ele>766.885</ele>
        <time>2013-04-20T04:50:41Z</time>
      </trkpt>
      <trkpt lat="42.2885" lon="2.57921">
        <ele>767.394</ele>
        <time>2013-04-20T04:50:43Z</time>
      </trkpt>
      <trkpt lat="42.28854" lon="2.57935">
        <ele>768.748</ele>
        <time>2013-04-20T04:50:55Z</time>
      </trkpt>
      <trkpt lat="42.28851" lon="2.5794">
        <ele>768.215</ele>
        <time>2013-04-20T04:50:58Z</time>
      </trkpt>
      <trkpt lat="42.28846" lon="2.57957">
        <ele>768.746</ele>
        <time>2013-04-20T04:51:09Z</time>
      </trkpt>
      <trkpt lat="42.28846" lon="2.57966">
        <ele>770.219</ele>
        <time>2013-04-20T04:51:14Z</time>
      </trkpt>
      <trkpt lat="42.28846" lon="2.57976">
        <ele>772.192</ele>
        <time>2013-04-20T04:51:20Z</time>
      </trkpt>
      <trkpt lat="42.28848" lon="2.57981">
        <ele>772.699</ele>
        <time>2013-04-20T04:51:23Z</time>
      </trkpt>
      <trkpt lat="42.28856" lon="2.58">
        <ele>773.507</ele>
        <time>2013-04-20T04:51:36Z</time>
      </trkpt>
      <trkpt lat="42.28857" lon="2.58007">
        <ele>774.027</ele>
        <time>2013-04-20T04:51:41Z</time>
      </trkpt>
      <trkpt lat="42.28863" lon="2.58025">
        <ele>773.007</ele>
        <time>2013-04-20T04:51:55Z</time>
      </trkpt>
      <trkpt lat="42.28868" lon="2.58039">
        <ele>772.183</ele>
        <time>2013-04-20T04:52:04Z</time>
      </trkpt>
      <trkpt lat="42.28886" lon="2.58058">
        <ele>769.262</ele>
        <time>2013-04-20T04:52:19Z</time>
      </trkpt>
      <trkpt lat="42.28889" lon="2.58069">
        <ele>767.836</ele>
        <time>2013-04-20T04:52:25Z</time>
      </trkpt>
      <trkpt lat="42.28903" lon="2.58078">
        <ele>765.463</ele>
        <time>2013-04-20T04:52:37Z</time>
      </trkpt>
      <trkpt lat="42.28906" lon="2.58078">
        <ele>765.464</ele>
        <time>2013-04-20T04:52:39Z</time>
      </trkpt>
      <trkpt lat="42.28916" lon="2.58069">
        <ele>762.997</ele>
        <time>2013-04-20T04:52:48Z</time>
      </trkpt>
      <trkpt lat="42.28922" lon="2.58064">
        <ele>760.16</ele>
        <time>2013-04-20T04:52:53Z</time>
      </trkpt>
      <trkpt lat="42.28932" lon="2.58056">
        <ele>756.216</ele>
        <time>2013-04-20T04:53:03Z</time>
      </trkpt>
      <trkpt lat="42.28939" lon="2.58051">
        <ele>753.876</ele>
        <time>2013-04-20T04:53:08Z</time>
      </trkpt>
      <trkpt lat="42.28945" lon="2.58039">
        <ele>752.913</ele>
        <time>2013-04-20T04:53:15Z</time>
      </trkpt>
      <trkpt lat="42.28946" lon="2.58032">
        <ele>753.307</ele>
        <time>2013-04-20T04:53:18Z</time>
      </trkpt>
      <trkpt lat="42.28957" lon="2.5801">
        <ele>750.575</ele>
        <time>2013-04-20T04:53:29Z</time>
      </trkpt>
      <trkpt lat="42.28963" lon="2.57997">
        <ele>747.124</ele>
        <time>2013-04-20T04:53:41Z</time>
      </trkpt>
      <trkpt lat="42.28963" lon="2.5799">
        <ele>745.668</ele>
        <time>2013-04-20T04:53:47Z</time>
      </trkpt>
      <trkpt lat="42.28969" lon="2.5797">
        <ele>740.865</ele>
        <time>2013-04-20T04:54:00Z</time>
      </trkpt>
      <trkpt lat="42.2897" lon="2.57968">
        <ele>740.476</ele>
        <time>2013-04-20T04:54:02Z</time>
      </trkpt>
      <trkpt lat="42.28975" lon="2.57962">
        <ele>738.959</ele>
        <time>2013-04-20T04:54:09Z</time>
      </trkpt>
      <trkpt lat="42.28979" lon="2.57959">
        <ele>738.922</ele>
        <time>2013-04-20T04:54:12Z</time>
      </trkpt>
      <trkpt lat="42.28983" lon="2.57954">
        <ele>738.918</ele>
        <time>2013-04-20T04:54:16Z</time>
      </trkpt>
      <trkpt lat="42.29002" lon="2.57942">
        <ele>740.898</ele>
        <time>2013-04-20T04:54:27Z</time>
      </trkpt>
      <trkpt lat="42.29008" lon="2.57938">
        <ele>742.317</ele>
        <time>2013-04-20T04:54:30Z</time>
      </trkpt>
      <trkpt lat="42.29031" lon="2.57923">
        <ele>745.207</ele>
        <time>2013-04-20T04:54:45Z</time>
      </trkpt>
      <trkpt lat="42.29043" lon="2.57907">
        <ele>742.375</ele>
        <time>2013-04-20T04:55:01Z</time>
      </trkpt>
      <trkpt lat="42.29054" lon="2.57893">
        <ele>740.424</ele>
        <time>2013-04-20T04:55:15Z</time>
      </trkpt>
      <trkpt lat="42.29064" lon="2.57881">
        <ele>736.068</ele>
        <time>2013-04-20T04:55:28Z</time>
      </trkpt>
      <trkpt lat="42.2907" lon="2.5787">
        <ele>734.685</ele>
        <time>2013-04-20T04:55:38Z</time>
      </trkpt>
      <trkpt lat="42.29085" lon="2.57846">
        <ele>734.626</ele>
        <time>2013-04-20T04:55:54Z</time>
      </trkpt>
      <trkpt lat="42.29088" lon="2.57838">
        <ele>735.129</ele>
        <time>2013-04-20T04:55:59Z</time>
      </trkpt>
      <trkpt lat="42.29092" lon="2.57834">
        <ele>735.622</ele>
        <time>2013-04-20T04:56:02Z</time>
      </trkpt>
      <trkpt lat="42.29101" lon="2.57822">
        <ele>735.168</ele>
        <time>2013-04-20T04:56:08Z</time>
      </trkpt>
      <trkpt lat="42.29104" lon="2.57816">
        <ele>734.642</ele>
        <time>2013-04-20T04:56:11Z</time>
      </trkpt>
      <trkpt lat="42.29128" lon="2.578">
        <ele>732.726</ele>
        <time>2013-04-20T04:56:27Z</time>
      </trkpt>
      <trkpt lat="42.29136" lon="2.57784">
        <ele>731.707</ele>
        <time>2013-04-20T04:56:38Z</time>
      </trkpt>
      <trkpt lat="42.29143" lon="2.5778">
        <ele>731.77</ele>
        <time>2013-04-20T04:56:46Z</time>
      </trkpt>
      <trkpt lat="42.29149" lon="2.5778">
        <ele>731.789</ele>
        <time>2013-04-20T04:56:51Z</time>
      </trkpt>
      <trkpt lat="42.2916" lon="2.57775">
        <ele>734.673</ele>
        <time>2013-04-20T04:57:01Z</time>
      </trkpt>
      <trkpt lat="42.29167" lon="2.57776">
        <ele>736.59</ele>
        <time>2013-04-20T04:57:07Z</time>
      </trkpt>
      <trkpt lat="42.29177" lon="2.57764">
        <ele>741.821</ele>
        <time>2013-04-20T04:57:23Z</time>
      </trkpt>
      <trkpt lat="42.2918" lon="2.5776">
        <ele>742.864</ele>
        <time>2013-04-20T04:57:27Z</time>
      </trkpt>
      <trkpt lat="42.29188" lon="2.57752">
        <ele>745.687</ele>
        <time>2013-04-20T04:57:40Z</time>
      </trkpt>
      <trkpt lat="42.29194" lon="2.57743">
        <ele>748.074</ele>
        <time>2013-04-20T04:57:52Z</time>
      </trkpt>
      <trkpt lat="42.29201" lon="2.57744">
        <ele>754.356</ele>
        <time>2013-04-20T04:58:06Z</time>
      </trkpt>
      <trkpt lat="42.29206" lon="2.57737">
        <ele>758.121</ele>
        <time>2013-04-20T04:58:20Z</time>
      </trkpt>
      <trkpt lat="42.29213" lon="2.57729">
        <ele>760.107</ele>
        <time>2013-04-20T04:58:34Z</time>
      </trkpt>
      <trkpt lat="42.29215" lon="2.57735">
        <ele>762.941</ele>
        <time>2013-04-20T04:58:42Z</time>
      </trkpt>
      <trkpt lat="42.29217" lon="2.57737">
        <ele>763.45</ele>
        <time>2013-04-20T04:58:45Z</time>
      </trkpt>
      <trkpt lat="42.29218" lon="2.5773">
        <ele>762.924</ele>
        <time>2013-04-20T04:58:56Z</time>
      </trkpt>
      <trkpt lat="42.2922" lon="2.57723">
        <ele>762.921</ele>
        <time>2013-04-20T04:59:01Z</time>
      </trkpt>
      <trkpt lat="42.2922" lon="2.57704">
        <ele>764.442</ele>
        <time>2013-04-20T04:59:17Z</time>
      </trkpt>
      <trkpt lat="42.2922" lon="2.57697">
        <ele>765.895</ele>
        <time>2013-04-20T04:59:23Z</time>
      </trkpt>
      <trkpt lat="42.2922" lon="2.57688">
        <ele>768.278</ele>
        <time>2013-04-20T04:59:29Z</time>
      </trkpt>
      <trkpt lat="42.2922" lon="2.57683">
        <ele>769.717</ele>
        <time>2013-04-20T04:59:33Z</time>
      </trkpt>
      <trkpt lat="42.2922" lon="2.57671">
        <ele>775.087</ele>
        <time>2013-04-20T04:59:49Z</time>
      </trkpt>
      <trkpt lat="42.29222" lon="2.57667">
        <ele>775.015</ele>
        <time>2013-04-20T04:59:53Z</time>
      </trkpt>
      <trkpt lat="42.29223" lon="2.57664">
        <ele>775.407</ele>
        <time>2013-04-20T04:59:56Z</time>
      </trkpt>
      <trkpt lat="42.29221" lon="2.57651">
        <ele>779.395</ele>
        <time>2013-04-20T05:00:06Z</time>
      </trkpt>
      <trkpt lat="42.2922" lon="2.5763">
        <ele>780.364</ele>
        <time>2013-04-20T05:00:20Z</time>
      </trkpt>
      <trkpt lat="42.29222" lon="2.57611">
        <ele>780.768</ele>
        <time>2013-04-20T05:00:34Z</time>
      </trkpt>
      <trkpt lat="42.29222" lon="2.57608">
        <ele>781.295</ele>
        <time>2013-04-20T05:00:36Z</time>
      </trkpt>
      <trkpt lat="42.29223" lon="2.57605">
        <ele>781.276</ele>
        <time>2013-04-20T05:00:38Z</time>
      </trkpt>
      <trkpt lat="42.29233" lon="2.57601">
        <ele>781.219</ele>
        <time>2013-04-20T05:00:52Z</time>
      </trkpt>
      <trkpt lat="42.29235" lon="2.57605">
        <ele>782.772</ele>
        <time>2013-04-20T05:00:57Z</time>
      </trkpt>
      <trkpt lat="42.29237" lon="2.5762">
        <ele>784.183</ele>
        <time>2013-04-20T05:01:10Z</time>
      </trkpt>
      <trkpt lat="42.2924" lon="2.57629">
        <ele>786.525</ele>
        <time>2013-04-20T05:01:24Z</time>
      </trkpt>
      <trkpt lat="42.2924" lon="2.57639">
        <ele>789.417</ele>
        <time>2013-04-20T05:01:35Z</time>
      </trkpt>
      <trkpt lat="42.29244" lon="2.57653">
        <ele>794.207</ele>
        <time>2013-04-20T05:01:49Z</time>
      </trkpt>
      <trkpt lat="42.29247" lon="2.5766">
        <ele>797.612</ele>
        <time>2013-04-20T05:02:01Z</time>
      </trkpt>
      <trkpt lat="42.29251" lon="2.57666">
        <ele>801.411</ele>
        <time>2013-04-20T05:02:14Z</time>
      </trkpt>
      <trkpt lat="42.29253" lon="2.57674">
        <ele>806.795</ele>
        <time>2013-04-20T05:02:28Z</time>
      </trkpt>
      <trkpt lat="42.29256" lon="2.57674">
        <ele>807.632</ele>
        <time>2013-04-20T05:02:32Z</time>
      </trkpt>
      <trkpt lat="42.29259" lon="2.57679">
        <ele>812.523</ele>
        <time>2013-04-20T05:02:45Z</time>
      </trkpt>
      <trkpt lat="42.29262" lon="2.57684">
        <ele>813.976</ele>
        <time>2013-04-20T05:02:50Z</time>
      </trkpt>
      <trkpt lat="42.29266" lon="2.57696">
        <ele>815.369</ele>
        <time>2013-04-20T05:03:04Z</time>
      </trkpt>
      <trkpt lat="42.2927" lon="2.57711">
        <ele>817.333</ele>
        <time>2013-04-20T05:03:17Z</time>
      </trkpt>
      <trkpt lat="42.29269" lon="2.57721">
        <ele>816.823</ele>
        <time>2013-04-20T05:03:23Z</time>
      </trkpt>
      <trkpt lat="42.29271" lon="2.57724">
        <ele>817.315</ele>
        <time>2013-04-20T05:03:26Z</time>
      </trkpt>
      <trkpt lat="42.29275" lon="2.57733">
        <ele>818.707</ele>
        <time>2013-04-20T05:03:32Z</time>
      </trkpt>
      <trkpt lat="42.29275" lon="2.57743">
        <ele>819.727</ele>
        <time>2013-04-20T05:03:38Z</time>
      </trkpt>
      <trkpt lat="42.29275" lon="2.57746">
        <ele>820.686</ele>
        <time>2013-04-20T05:03:40Z</time>
      </trkpt>
      <trkpt lat="42.29285" lon="2.57753">
        <ele>823.52</ele>
        <time>2013-04-20T05:03:56Z</time>
      </trkpt>
      <trkpt lat="42.29287" lon="2.57749">
        <ele>827.417</ele>
        <time>2013-04-20T05:04:09Z</time>
      </trkpt>
      <trkpt lat="42.29293" lon="2.57747">
        <ele>829.828</ele>
        <time>2013-04-20T05:04:22Z</time>
      </trkpt>
      <trkpt lat="42.29302" lon="2.57761">
        <ele>832.241</ele>
        <time>2013-04-20T05:04:37Z</time>
      </trkpt>
      <trkpt lat="42.29308" lon="2.57774">
        <ele>834.614</ele>
        <time>2013-04-20T05:04:52Z</time>
      </trkpt>
      <trkpt lat="42.29317" lon="2.5778">
        <ele>838.439</ele>
        <time>2013-04-20T05:05:06Z</time>
      </trkpt>
      <trkpt lat="42.29324" lon="2.5779">
        <ele>841.801</ele>
        <time>2013-04-20T05:05:22Z</time>
      </trkpt>
      <trkpt lat="42.29331" lon="2.57796">
        <ele>845.121</ele>
        <time>2013-04-20T05:05:34Z</time>
      </trkpt>
      <trkpt lat="42.29339" lon="2.57801">
        <ele>848.507</ele>
        <time>2013-04-20T05:05:49Z</time>
      </trkpt>
      <trkpt lat="42.29346" lon="2.57809">
        <ele>852.487</ele>
        <time>2013-04-20T05:06:02Z</time>
      </trkpt>
      <trkpt lat="42.29354" lon="2.57815">
        <ele>855.786</ele>
        <time>2013-04-20T05:06:15Z</time>
      </trkpt>
      <trkpt lat="42.29361" lon="2.57821">
        <ele>857.66</ele>
        <time>2013-04-20T05:06:28Z</time>
      </trkpt>
      <trkpt lat="42.29369" lon="2.5783">
        <ele>859.647</ele>
        <time>2013-04-20T05:06:41Z</time>
      </trkpt>
      <trkpt lat="42.29373" lon="2.57828">
        <ele>861.068</ele>
        <time>2013-04-20T05:06:54Z</time>
      </trkpt>
      <trkpt lat="42.2938" lon="2.57836">
        <ele>863.491</ele>
        <time>2013-04-20T05:07:06Z</time>
      </trkpt>
      <trkpt lat="42.29388" lon="2.57839">
        <ele>865.364</ele>
        <time>2013-04-20T05:07:19Z</time>
      </trkpt>
      <trkpt lat="42.29397" lon="2.57842">
        <ele>868.213</ele>
        <time>2013-04-20T05:07:33Z</time>
      </trkpt>
      <trkpt lat="42.29405" lon="2.57836">
        <ele>873.543</ele>
        <time>2013-04-20T05:07:49Z</time>
      </trkpt>
      <trkpt lat="42.29409" lon="2.57838">
        <ele>875.407</ele>
        <time>2013-04-20T05:07:55Z</time>
      </trkpt>
      <trkpt lat="42.29414" lon="2.57839">
        <ele>876.407</ele>
        <time>2013-04-20T05:07:59Z</time>
      </trkpt>
      <trkpt lat="42.29426" lon="2.57828">
        <ele>874.975</ele>
        <time>2013-04-20T05:08:14Z</time>
      </trkpt>
      <trkpt lat="42.29428" lon="2.57824">
        <ele>874.564</ele>
        <time>2013-04-20T05:08:18Z</time>
      </trkpt>
      <trkpt lat="42.29429" lon="2.57813">
        <ele>873.518</ele>
        <time>2013-04-20T05:08:27Z</time>
      </trkpt>
      <trkpt lat="42.29421" lon="2.57799">
        <ele>876.435</ele>
        <time>2013-04-20T05:08:41Z</time>
      </trkpt>
      <trkpt lat="42.2942" lon="2.57798">
        <ele>876.996</ele>
        <time>2013-04-20T05:08:42Z</time>
      </trkpt>
      <trkpt lat="42.29417" lon="2.57794">
        <ele>877.349</ele>
        <time>2013-04-20T05:08:45Z</time>
      </trkpt>
      <trkpt lat="42.2942" lon="2.57778">
        <ele>877.852</ele>
        <time>2013-04-20T05:08:57Z</time>
      </trkpt>
      <trkpt lat="42.29422" lon="2.57773">
        <ele>877.819</ele>
        <time>2013-04-20T05:09:01Z</time>
      </trkpt>
      <trkpt lat="42.29427" lon="2.5776">
        <ele>879.309</ele>
        <time>2013-04-20T05:09:12Z</time>
      </trkpt>
      <trkpt lat="42.29428" lon="2.57758">
        <ele>879.319</ele>
        <time>2013-04-20T05:09:14Z</time>
      </trkpt>
      <trkpt lat="42.2943" lon="2.57756">
        <ele>879.707</ele>
        <time>2013-04-20T05:09:16Z</time>
      </trkpt>
      <trkpt lat="42.29433" lon="2.57745">
        <ele>877.895</ele>
        <time>2013-04-20T05:09:28Z</time>
      </trkpt>
      <trkpt lat="42.29436" lon="2.5773">
        <ele>880.714</ele>
        <time>2013-04-20T05:09:40Z</time>
      </trkpt>
      <trkpt lat="42.29439" lon="2.57715">
        <ele>882.688</ele>
        <time>2013-04-20T05:09:53Z</time>
      </trkpt>
      <trkpt lat="42.29432" lon="2.57704">
        <ele>887.075</ele>
        <time>2013-04-20T05:10:06Z</time>
      </trkpt>
      <trkpt lat="42.29434" lon="2.57691">
        <ele>889.866</ele>
        <time>2013-04-20T05:10:18Z</time>
      </trkpt>
      <trkpt lat="42.29435" lon="2.57679">
        <ele>891.849</ele>
        <time>2013-04-20T05:10:30Z</time>
      </trkpt>
      <trkpt lat="42.29442" lon="2.57665">
        <ele>892.222</ele>
        <time>2013-04-20T05:10:46Z</time>
      </trkpt>
      <trkpt lat="42.29443" lon="2.57654">
        <ele>896.148</ele>
        <time>2013-04-20T05:10:57Z</time>
      </trkpt>
      <trkpt lat="42.29439" lon="2.57641">
        <ele>900.461</ele>
        <time>2013-04-20T05:11:10Z</time>
      </trkpt>
      <trkpt lat="42.29439" lon="2.57634">
        <ele>901.917</ele>
        <time>2013-04-20T05:11:18Z</time>
      </trkpt>
      <trkpt lat="42.29447" lon="2.57625">
        <ele>901.407</ele>
        <time>2013-04-20T05:11:31Z</time>
      </trkpt>
      <trkpt lat="42.29451" lon="2.57622">
        <ele>900.418</ele>
        <time>2013-04-20T05:11:35Z</time>
      </trkpt>
      <trkpt lat="42.29458" lon="2.57607">
        <ele>900.977</ele>
        <time>2013-04-20T05:11:48Z</time>
      </trkpt>
      <trkpt lat="42.29463" lon="2.57596">
        <ele>901.451</ele>
        <time>2013-04-20T05:11:59Z</time>
      </trkpt>
      <trkpt lat="42.29466" lon="2.57586">
        <ele>902.828</ele>
        <time>2013-04-20T05:12:10Z</time>
      </trkpt>
      <trkpt lat="42.2947" lon="2.57576">
        <ele>902.869</ele>
        <time>2013-04-20T05:12:22Z</time>
      </trkpt>
      <trkpt lat="42.29476" lon="2.57563">
        <ele>908.652</ele>
        <time>2013-04-20T05:12:36Z</time>
      </trkpt>
      <trkpt lat="42.29483" lon="2.57551">
        <ele>916.355</ele>
        <time>2013-04-20T05:12:47Z</time>
      </trkpt>
      <trkpt lat="42.29486" lon="2.57548">
        <ele>917.761</ele>
        <time>2013-04-20T05:12:50Z</time>
      </trkpt>
      <trkpt lat="42.29498" lon="2.5754">
        <ele>916.321</ele>
        <time>2013-04-20T05:13:02Z</time>
      </trkpt>
      <trkpt lat="42.29509" lon="2.57527">
        <ele>918.713</ele>
        <time>2013-04-20T05:13:17Z</time>
      </trkpt>
      <trkpt lat="42.29515" lon="2.57515">
        <ele>922.007</ele>
        <time>2013-04-20T05:13:29Z</time>
      </trkpt>
      <trkpt lat="42.29517" lon="2.57512">
        <ele>922.54</ele>
        <time>2013-04-20T05:13:31Z</time>
      </trkpt>
      <trkpt lat="42.29522" lon="2.57503">
        <ele>923.529</ele>
        <time>2013-04-20T05:13:41Z</time>
      </trkpt>
      <trkpt lat="42.29525" lon="2.57491">
        <ele>927.813</ele>
        <time>2013-04-20T05:13:55Z</time>
      </trkpt>
      <trkpt lat="42.29526" lon="2.57482">
        <ele>930.71</ele>
        <time>2013-04-20T05:14:07Z</time>
      </trkpt>
      <trkpt lat="42.29526" lon="2.57472">
        <ele>936.051</ele>
        <time>2013-04-20T05:14:23Z</time>
      </trkpt>
      <trkpt lat="42.29529" lon="2.57462">
        <ele>940.814</ele>
        <time>2013-04-20T05:14:35Z</time>
      </trkpt>
      <trkpt lat="42.29526" lon="2.57455">
        <ele>945.687</ele>
        <time>2013-04-20T05:14:48Z</time>
      </trkpt>
      <trkpt lat="42.29518" lon="2.57453">
        <ele>949.991</ele>
        <time>2013-04-20T05:15:01Z</time>
      </trkpt>
      <trkpt lat="42.29515" lon="2.57448">
        <ele>953.381</ele>
        <time>2013-04-20T05:15:15Z</time>
      </trkpt>
      <trkpt lat="42.29511" lon="2.57439">
        <ele>954.319</ele>
        <time>2013-04-20T05:15:29Z</time>
      </trkpt>
      <trkpt lat="42.29511" lon="2.5743">
        <ele>955.207</ele>
        <time>2013-04-20T05:15:41Z</time>
      </trkpt>
      <trkpt lat="42.29512" lon="2.57422">
        <ele>956.273</ele>
        <time>2013-04-20T05:15:54Z</time>
      </trkpt>
      <trkpt lat="42.29507" lon="2.57415">
        <ele>958.122</ele>
        <time>2013-04-20T05:16:06Z</time>
      </trkpt>
      <trkpt lat="42.29506" lon="2.57407">
        <ele>960.076</ele>
        <time>2013-04-20T05:16:20Z</time>
      </trkpt>
      <trkpt lat="42.29502" lon="2.57398">
        <ele>961.913</ele>
        <time>2013-04-20T05:16:32Z</time>
      </trkpt>
      <trkpt lat="42.29501" lon="2.57392">
        <ele>961.984</ele>
        <time>2013-04-20T05:16:43Z</time>
      </trkpt>
      <trkpt lat="42.29501" lon="2.57384">
        <ele>959.537</ele>
        <time>2013-04-20T05:16:54Z</time>
      </trkpt>
      <trkpt lat="42.29498" lon="2.57372">
        <ele>957.64</ele>
        <time>2013-04-20T05:17:05Z</time>
      </trkpt>
      <trkpt lat="42.29501" lon="2.57361">
        <ele>954.719</ele>
        <time>2013-04-20T05:17:18Z</time>
      </trkpt>
      <trkpt lat="42.29499" lon="2.57352">
        <ele>953.309</ele>
        <time>2013-04-20T05:17:29Z</time>
      </trkpt>
      <trkpt lat="42.29498" lon="2.57342">
        <ele>953.319</ele>
        <time>2013-04-20T05:17:40Z</time>
      </trkpt>
      <trkpt lat="42.29501" lon="2.57332">
        <ele>955.707</ele>
        <time>2013-04-20T05:17:54Z</time>
      </trkpt>
      <trkpt lat="42.29499" lon="2.57319">
        <ele>958.665</ele>
        <time>2013-04-20T05:18:07Z</time>
      </trkpt>
      <trkpt lat="42.29498" lon="2.57308">
        <ele>964.884</ele>
        <time>2013-04-20T05:18:19Z</time>
      </trkpt>
      <trkpt lat="42.29501" lon="2.573">
        <ele>967.738</ele>
        <time>2013-04-20T05:18:33Z</time>
      </trkpt>
      <trkpt lat="42.29506" lon="2.57292">
        <ele>968.775</ele>
        <time>2013-04-20T05:18:46Z</time>
      </trkpt>
      <trkpt lat="42.29503" lon="2.57284">
        <ele>972.046</ele>
        <time>2013-04-20T05:19:00Z</time>
      </trkpt>
      <trkpt lat="42.29502" lon="2.57276">
        <ele>972.519</ele>
        <time>2013-04-20T05:19:15Z</time>
      </trkpt>
      <trkpt lat="42.29501" lon="2.57274">
        <ele>973.592</ele>
        <time>2013-04-20T05:19:30Z</time>
      </trkpt>
      <trkpt lat="42.29502" lon="2.57273">
        <ele>978.314</ele>
        <time>2013-04-20T05:19:46Z</time>
      </trkpt>
      <trkpt lat="42.29497" lon="2.57267">
        <ele>979.754</ele>
        <time>2013-04-20T05:19:59Z</time>
      </trkpt>
      <trkpt lat="42.29494" lon="2.57258">
        <ele>982.109</ele>
        <time>2013-04-20T05:20:11Z</time>
      </trkpt>
      <trkpt lat="42.29495" lon="2.57254">
        <ele>982.107</ele>
        <time>2013-04-20T05:20:28Z</time>
      </trkpt>
      <trkpt lat="42.29494" lon="2.57252">
        <ele>982.665</ele>
        <time>2013-04-20T05:20:50Z</time>
      </trkpt>
      <trkpt lat="42.29493" lon="2.57254">
        <ele>983.674</ele>
        <time>2013-04-20T05:21:01Z</time>
      </trkpt>
      <trkpt lat="42.29494" lon="2.57253">
        <ele>983.628</ele>
        <time>2013-04-20T05:21:26Z</time>
      </trkpt>
      <trkpt lat="42.29493" lon="2.57249">
        <ele>984.125</ele>
        <time>2013-04-20T05:21:45Z</time>
      </trkpt>
      <trkpt lat="42.29493" lon="2.57247">
        <ele>984.156</ele>
        <time>2013-04-20T05:22:02Z</time>
      </trkpt>
      <trkpt lat="42.29491" lon="2.57245">
        <ele>983.199</ele>
        <time>2013-04-20T05:22:18Z</time>
      </trkpt>
      <trkpt lat="42.29489" lon="2.57245">
        <ele>984.152</ele>
        <time>2013-04-20T05:22:39Z</time>
      </trkpt>
      <trkpt lat="42.29492" lon="2.57244">
        <ele>984.132</ele>
        <time>2013-04-20T05:23:04Z</time>
      </trkpt>
      <trkpt lat="42.29493" lon="2.57246">
        <ele>984.592</ele>
        <time>2013-04-20T05:23:19Z</time>
      </trkpt>
      <trkpt lat="42.29497" lon="2.57258">
        <ele>985.511</ele>
        <time>2013-04-20T05:23:35Z</time>
      </trkpt>
      <trkpt lat="42.29501" lon="2.57269">
        <ele>981.207</ele>
        <time>2013-04-20T05:23:47Z</time>
      </trkpt>
      <trkpt lat="42.29506" lon="2.5728">
        <ele>978.367</ele>
        <time>2013-04-20T05:24:01Z</time>
      </trkpt>
      <trkpt lat="42.29508" lon="2.57286">
        <ele>977.336</ele>
        <time>2013-04-20T05:24:15Z</time>
      </trkpt>
      <trkpt lat="42.29509" lon="2.57288">
        <ele>976.42</ele>
        <time>2013-04-20T05:24:30Z</time>
      </trkpt>
      <trkpt lat="42.2951" lon="2.57296">
        <ele>974.457</ele>
        <time>2013-04-20T05:24:42Z</time>
      </trkpt>
      <trkpt lat="42.29509" lon="2.57301">
        <ele>970.118</ele>
        <time>2013-04-20T05:24:52Z</time>
      </trkpt>
      <trkpt lat="42.29513" lon="2.57309">
        <ele>966.721</ele>
        <time>2013-04-20T05:25:05Z</time>
      </trkpt>
      <trkpt lat="42.29517" lon="2.57313">
        <ele>964.394</ele>
        <time>2013-04-20T05:25:17Z</time>
      </trkpt>
      <trkpt lat="42.29523" lon="2.57322">
        <ele>962.411</ele>
        <time>2013-04-20T05:25:32Z</time>
      </trkpt>
      <trkpt lat="42.29527" lon="2.57332">
        <ele>959.521</ele>
        <time>2013-04-20T05:25:45Z</time>
      </trkpt>
      <trkpt lat="42.29529" lon="2.57337">
        <ele>957.103</ele>
        <time>2013-04-20T05:25:58Z</time>
      </trkpt>
      <trkpt lat="42.29533" lon="2.57336">
        <ele>955.207</ele>
        <time>2013-04-20T05:26:12Z</time>
      </trkpt>
      <trkpt lat="42.29536" lon="2.57334">
        <ele>952.365</ele>
        <time>2013-04-20T05:26:26Z</time>
      </trkpt>
      <trkpt lat="42.2954" lon="2.57332">
        <ele>948.524</ele>
        <time>2013-04-20T05:26:38Z</time>
      </trkpt>
      <trkpt lat="42.29543" lon="2.57328">
        <ele>944.628</ele>
        <time>2013-04-20T05:26:49Z</time>
      </trkpt>
      <trkpt lat="42.29549" lon="2.57327">
        <ele>939.875</ele>
        <time>2013-04-20T05:27:03Z</time>
      </trkpt>
      <trkpt lat="42.29555" lon="2.57333">
        <ele>938.926</ele>
        <time>2013-04-20T05:27:16Z</time>
      </trkpt>
      <trkpt lat="42.29556" lon="2.5733">
        <ele>936.919</ele>
        <time>2013-04-20T05:27:26Z</time>
      </trkpt>
      <trkpt lat="42.29556" lon="2.57323">
        <ele>934.172</ele>
        <time>2013-04-20T05:27:40Z</time>
      </trkpt>
      <trkpt lat="42.29558" lon="2.57324">
        <ele>933.183</ele>
        <time>2013-04-20T05:27:54Z</time>
      </trkpt>
      <trkpt lat="42.29561" lon="2.57326">
        <ele>934.125</ele>
        <time>2013-04-20T05:28:05Z</time>
      </trkpt>
      <trkpt lat="42.29562" lon="2.57326">
        <ele>932.617</ele>
        <time>2013-04-20T05:28:17Z</time>
      </trkpt>
      <trkpt lat="42.29564" lon="2.5733">
        <ele>930.707</ele>
        <time>2013-04-20T05:28:33Z</time>
      </trkpt>
      <trkpt lat="42.29568" lon="2.57332">
        <ele>929.352</ele>
        <time>2013-04-20T05:28:46Z</time>
      </trkpt>
      <trkpt lat="42.29571" lon="2.57339">
        <ele>929.361</ele>
        <time>2013-04-20T05:29:00Z</time>
      </trkpt>
      <trkpt lat="42.29572" lon="2.57341">
        <ele>926.485</ele>
        <time>2013-04-20T05:29:11Z</time>
      </trkpt>
      <trkpt lat="42.29572" lon="2.57338">
        <ele>924.542</ele>
        <time>2013-04-20T05:29:27Z</time>
      </trkpt>
      <trkpt lat="42.29576" lon="2.57339">
        <ele>922.543</ele>
        <time>2013-04-20T05:29:42Z</time>
      </trkpt>
      <trkpt lat="42.29578" lon="2.57343">
        <ele>921.696</ele>
        <time>2013-04-20T05:29:56Z</time>
      </trkpt>
      <trkpt lat="42.29583" lon="2.57343">
        <ele>917.279</ele>
        <time>2013-04-20T05:30:09Z</time>
      </trkpt>
      <trkpt lat="42.29589" lon="2.57344">
        <ele>911.033</ele>
        <time>2013-04-20T05:30:24Z</time>
      </trkpt>
      <trkpt lat="42.29592" lon="2.57349">
        <ele>906.223</ele>
        <time>2013-04-20T05:30:37Z</time>
      </trkpt>
      <trkpt lat="42.29599" lon="2.57356">
        <ele>903.815</ele>
        <time>2013-04-20T05:30:50Z</time>
      </trkpt>
      <trkpt lat="42.29603" lon="2.57364">
        <ele>901.907</ele>
        <time>2013-04-20T05:30:59Z</time>
      </trkpt>
      <trkpt lat="42.29607" lon="2.57362">
        <ele>900.497</ele>
        <time>2013-04-20T05:31:05Z</time>
      </trkpt>
      <trkpt lat="42.29613" lon="2.57373">
        <ele>893.726</ele>
        <time>2013-04-20T05:31:19Z</time>
      </trkpt>
      <trkpt lat="42.2962" lon="2.57383">
        <ele>888.93</ele>
        <time>2013-04-20T05:31:31Z</time>
      </trkpt>
      <trkpt lat="42.29628" lon="2.57388">
        <ele>885.087</ele>
        <time>2013-04-20T05:31:47Z</time>
      </trkpt>
      <trkpt lat="42.29635" lon="2.57393">
        <ele>880.748</ele>
        <time>2013-04-20T05:32:00Z</time>
      </trkpt>
      <trkpt lat="42.29641" lon="2.57395">
        <ele>875.931</ele>
        <time>2013-04-20T05:32:11Z</time>
      </trkpt>
      <trkpt lat="42.29646" lon="2.57405">
        <ele>873.074</ele>
        <time>2013-04-20T05:32:23Z</time>
      </trkpt>
      <trkpt lat="42.29651" lon="2.57409">
        <ele>868.228</ele>
        <time>2013-04-20T05:32:34Z</time>
      </trkpt>
      <trkpt lat="42.29655" lon="2.57403">
        <ele>862.989</ele>
        <time>2013-04-20T05:32:45Z</time>
      </trkpt>
      <trkpt lat="42.29659" lon="2.57395">
        <ele>860.017</ele>
        <time>2013-04-20T05:33:05Z</time>
      </trkpt>
      <trkpt lat="42.29664" lon="2.57386">
        <ele>854.807</ele>
        <time>2013-04-20T05:33:18Z</time>
      </trkpt>
      <trkpt lat="42.29668" lon="2.57381">
        <ele>849.946</ele>
        <time>2013-04-20T05:33:31Z</time>
      </trkpt>
      <trkpt lat="42.29673" lon="2.57373">
        <ele>845.165</ele>
        <time>2013-04-20T05:33:44Z</time>
      </trkpt>
      <trkpt lat="42.29675" lon="2.57361">
        <ele>838.999</ele>
        <time>2013-04-20T05:33:57Z</time>
      </trkpt>
      <trkpt lat="42.29676" lon="2.5736">
        <ele>838.466</ele>
        <time>2013-04-20T05:33:58Z</time>
      </trkpt>
      <trkpt lat="42.29681" lon="2.57353">
        <ele>830.747</ele>
        <time>2013-04-20T05:34:08Z</time>
      </trkpt>
      <trkpt lat="42.29689" lon="2.57347">
        <ele>825.08</ele>
        <time>2013-04-20T05:34:20Z</time>
      </trkpt>
      <trkpt lat="42.29693" lon="2.57343">
        <ele>821.123</ele>
        <time>2013-04-20T05:34:27Z</time>
      </trkpt>
      <trkpt lat="42.29697" lon="2.57342">
        <ele>819.258</ele>
        <time>2013-04-20T05:34:30Z</time>
      </trkpt>
      <trkpt lat="42.29701" lon="2.57335">
        <ele>816.352</ele>
        <time>2013-04-20T05:34:40Z</time>
      </trkpt>
      <trkpt lat="42.29703" lon="2.57334">
        <ele>816.317</ele>
        <time>2013-04-20T05:34:42Z</time>
      </trkpt>
      <trkpt lat="42.29712" lon="2.5733">
        <ele>813.407</ele>
        <time>2013-04-20T05:34:50Z</time>
      </trkpt>
      <trkpt lat="42.29716" lon="2.57328">
        <ele>812.559</ele>
        <time>2013-04-20T05:34:52Z</time>
      </trkpt>
      <trkpt lat="42.29725" lon="2.57321">
        <ele>813.978</ele>
        <time>2013-04-20T05:34:58Z</time>
      </trkpt>
      <trkpt lat="42.2974" lon="2.57314">
        <ele>811.032</ele>
        <time>2013-04-20T05:35:09Z</time>
      </trkpt>
      <trkpt lat="42.29754" lon="2.57309">
        <ele>809.629</ele>
        <time>2013-04-20T05:35:18Z</time>
      </trkpt>
      <trkpt lat="42.29774" lon="2.57298">
        <ele>807.23</ele>
        <time>2013-04-20T05:35:31Z</time>
      </trkpt>
      <trkpt lat="42.2978" lon="2.57293">
        <ele>806.773</ele>
        <time>2013-04-20T05:35:35Z</time>
      </trkpt>
      <trkpt lat="42.29797" lon="2.57277">
        <ele>802.466</ele>
        <time>2013-04-20T05:35:46Z</time>
      </trkpt>
      <trkpt lat="42.29809" lon="2.57265">
        <ele>800.058</ele>
        <time>2013-04-20T05:35:53Z</time>
      </trkpt>
      <trkpt lat="42.29815" lon="2.57263">
        <ele>798.552</ele>
        <time>2013-04-20T05:35:56Z</time>
      </trkpt>
      <trkpt lat="42.29826" lon="2.57256">
        <ele>796.117</ele>
        <time>2013-04-20T05:36:02Z</time>
      </trkpt>
      <trkpt lat="42.29834" lon="2.57245">
        <ele>794.207</ele>
        <time>2013-04-20T05:36:10Z</time>
      </trkpt>
      <trkpt lat="42.29846" lon="2.57235">
        <ele>791.869</ele>
        <time>2013-04-20T05:36:19Z</time>
      </trkpt>
      <trkpt lat="42.29858" lon="2.57239">
        <ele>783.648</ele>
        <time>2013-04-20T05:36:32Z</time>
      </trkpt>
      <trkpt lat="42.29875" lon="2.57242">
        <ele>776.912</ele>
        <time>2013-04-20T05:36:45Z</time>
      </trkpt>
      <trkpt lat="42.29879" lon="2.57243">
        <ele>773.539</ele>
        <time>2013-04-20T05:36:50Z</time>
      </trkpt>
      <trkpt lat="42.29886" lon="2.57234">
        <ele>765.46</ele>
        <time>2013-04-20T05:37:00Z</time>
      </trkpt>
      <trkpt lat="42.29904" lon="2.57231">
        <ele>756.723</ele>
        <time>2013-04-20T05:37:13Z</time>
      </trkpt>
      <trkpt lat="42.29911" lon="2.5723">
        <ele>749.036</ele>
        <time>2013-04-20T05:37:22Z</time>
      </trkpt>
      <trkpt lat="42.2992" lon="2.57227">
        <ele>749.082</ele>
        <time>2013-04-20T05:37:27Z</time>
      </trkpt>
      <trkpt lat="42.29923" lon="2.57226">
        <ele>748.543</ele>
        <time>2013-04-20T05:37:30Z</time>
      </trkpt>
      <trkpt lat="42.29932" lon="2.57229">
        <ele>752.917</ele>
        <time>2013-04-20T05:37:42Z</time>
      </trkpt>
      <trkpt lat="42.29946" lon="2.57229">
        <ele>756.707</ele>
        <time>2013-04-20T05:37:58Z</time>
      </trkpt>
      <trkpt lat="42.29946" lon="2.57231">
        <ele>759.682</ele>
        <time>2013-04-20T05:38:12Z</time>
      </trkpt>
      <trkpt lat="42.29947" lon="2.57232">
        <ele>760.121</ele>
        <time>2013-04-20T05:38:31Z</time>
      </trkpt>
      <trkpt lat="42.29948" lon="2.5723">
        <ele>760.125</ele>
        <time>2013-04-20T05:38:58Z</time>
      </trkpt>
      <trkpt lat="42.29946" lon="2.57232">
        <ele>761.022</ele>
        <time>2013-04-20T05:39:18Z</time>
      </trkpt>
      <trkpt lat="42.29946" lon="2.57232">
        <ele>761.593</ele>
        <time>2013-04-20T05:39:36Z</time>
      </trkpt>
      <trkpt lat="42.29946" lon="2.5723">
        <ele>759.646</ele>
        <time>2013-04-20T05:39:50Z</time>
      </trkpt>
      <trkpt lat="42.29948" lon="2.57231">
        <ele>760.119</ele>
        <time>2013-04-20T05:40:07Z</time>
      </trkpt>
      <trkpt lat="42.29949" lon="2.57235">
        <ele>758.123</ele>
        <time>2013-04-20T05:40:21Z</time>
      </trkpt>
      <trkpt lat="42.29948" lon="2.57234">
        <ele>761.083</ele>
        <time>2013-04-20T05:40:38Z</time>
      </trkpt>
      <trkpt lat="42.29948" lon="2.57234">
        <ele>760.511</ele>
        <time>2013-04-20T05:40:56Z</time>
      </trkpt>
      <trkpt lat="42.29947" lon="2.57234">
        <ele>759.607</ele>
        <time>2013-04-20T05:41:14Z</time>
      </trkpt>
      <trkpt lat="42.29949" lon="2.57235">
        <ele>758.676</ele>
        <time>2013-04-20T05:41:34Z</time>
      </trkpt>
      <trkpt lat="42.29951" lon="2.57235">
        <ele>760.125</ele>
        <time>2013-04-20T05:41:55Z</time>
      </trkpt>
      <trkpt lat="42.29955" lon="2.57236">
        <ele>759.639</ele>
        <time>2013-04-20T05:42:16Z</time>
      </trkpt>
      <trkpt lat="42.29956" lon="2.57235">
        <ele>758.616</ele>
        <time>2013-04-20T05:42:23Z</time>
      </trkpt>
      <trkpt lat="42.29965" lon="2.57243">
        <ele>757.277</ele>
        <time>2013-04-20T05:42:33Z</time>
      </trkpt>
      <trkpt lat="42.29967" lon="2.5724">
        <ele>755.75</ele>
        <time>2013-04-20T05:42:36Z</time>
      </trkpt>
      <trkpt lat="42.29953" lon="2.57231">
        <ele>754.873</ele>
        <time>2013-04-20T05:42:46Z</time>
      </trkpt>
      <trkpt lat="42.29953" lon="2.57231">
        <ele>754.813</ele>
        <time>2013-04-20T05:42:48Z</time>
      </trkpt>
      <trkpt lat="42.29959" lon="2.57236">
        <ele>754.343</ele>
        <time>2013-04-20T05:42:52Z</time>
      </trkpt>
      <trkpt lat="42.29979" lon="2.57238">
        <ele>751.407</ele>
        <time>2013-04-20T05:43:03Z</time>
      </trkpt>
      <trkpt lat="42.29994" lon="2.57235">
        <ele>753.307</ele>
        <time>2013-04-20T05:43:17Z</time>
      </trkpt>
      <trkpt lat="42.30005" lon="2.57232">
        <ele>757.275</ele>
        <time>2013-04-20T05:43:29Z</time>
      </trkpt>
      <trkpt lat="42.30012" lon="2.5723">
        <ele>760.184</ele>
        <time>2013-04-20T05:43:35Z</time>
      </trkpt>
      <trkpt lat="42.30015" lon="2.57231">
        <ele>760.538</ele>
        <time>2013-04-20T05:43:38Z</time>
      </trkpt>
      <trkpt lat="42.30029" lon="2.57242">
        <ele>762.025</ele>
        <time>2013-04-20T05:43:53Z</time>
      </trkpt>
      <trkpt lat="42.30043" lon="2.57243">
        <ele>762.916</ele>
        <time>2013-04-20T05:44:06Z</time>
      </trkpt>
      <trkpt lat="42.30048" lon="2.57242">
        <ele>763.419</ele>
        <time>2013-04-20T05:44:10Z</time>
      </trkpt>
      <trkpt lat="42.30053" lon="2.5724">
        <ele>764.482</ele>
        <time>2013-04-20T05:44:15Z</time>
      </trkpt>
      <trkpt lat="42.30058" lon="2.5724">
        <ele>765.436</ele>
        <time>2013-04-20T05:44:19Z</time>
      </trkpt>
      <trkpt lat="42.30074" lon="2.57243">
        <ele>768.217</ele>
        <time>2013-04-20T05:44:35Z</time>
      </trkpt>
      <trkpt lat="42.30093" lon="2.57243">
        <ele>768.218</ele>
        <time>2013-04-20T05:44:48Z</time>
      </trkpt>
      <trkpt lat="42.3011" lon="2.57233">
        <ele>769.207</ele>
        <time>2013-04-20T05:45:03Z</time>
      </trkpt>
      <trkpt lat="42.3012" lon="2.57221">
        <ele>770.217</ele>
        <time>2013-04-20T05:45:18Z</time>
      </trkpt>
      <trkpt lat="42.30125" lon="2.57213">
        <ele>772.156</ele>
        <time>2013-04-20T05:45:32Z</time>
      </trkpt>
      <trkpt lat="42.30131" lon="2.57188">
        <ele>775.49</ele>
        <time>2013-04-20T05:45:48Z</time>
      </trkpt>
      <trkpt lat="42.30138" lon="2.57188">
        <ele>779.837</ele>
        <time>2013-04-20T05:46:03Z</time>
      </trkpt>
      <trkpt lat="42.30141" lon="2.57181">
        <ele>782.288</ele>
        <time>2013-04-20T05:46:08Z</time>
      </trkpt>
      <trkpt lat="42.3014" lon="2.57155">
        <ele>783.151</ele>
        <time>2013-04-20T05:46:23Z</time>
      </trkpt>
      <trkpt lat="42.30136" lon="2.57128">
        <ele>780.724</ele>
        <time>2013-04-20T05:46:38Z</time>
      </trkpt>
      <trkpt lat="42.30133" lon="2.57109">
        <ele>780.327</ele>
        <time>2013-04-20T05:46:50Z</time>
      </trkpt>
      <trkpt lat="42.30131" lon="2.57096">
        <ele>780.368</ele>
        <time>2013-04-20T05:46:55Z</time>
      </trkpt>
      <trkpt lat="42.3013" lon="2.57092">
        <ele>780.314</ele>
        <time>2013-04-20T05:46:57Z</time>
      </trkpt>
      <trkpt lat="42.30125" lon="2.57071">
        <ele>777.807</ele>
        <time>2013-04-20T05:47:10Z</time>
      </trkpt>
      <trkpt lat="42.30128" lon="2.57058">
        <ele>779.366</ele>
        <time>2013-04-20T05:47:25Z</time>
      </trkpt>
      <trkpt lat="42.30128" lon="2.57057">
        <ele>779.895</ele>
        <time>2013-04-20T05:47:26Z</time>
      </trkpt>
      <trkpt lat="42.30129" lon="2.57046">
        <ele>782.289</ele>
        <time>2013-04-20T05:47:36Z</time>
      </trkpt>
      <trkpt lat="42.30131" lon="2.5703">
        <ele>785.136</ele>
        <time>2013-04-20T05:47:50Z</time>
      </trkpt>
      <trkpt lat="42.30132" lon="2.57019">
        <ele>786.527</ele>
        <time>2013-04-20T05:48:00Z</time>
      </trkpt>
      <trkpt lat="42.30133" lon="2.57015">
        <ele>787.05</ele>
        <time>2013-04-20T05:48:03Z</time>
      </trkpt>
      <trkpt lat="42.30136" lon="2.56996">
        <ele>789.953</ele>
        <time>2013-04-20T05:48:18Z</time>
      </trkpt>
      <trkpt lat="42.3014" lon="2.56989">
        <ele>790.881</ele>
        <time>2013-04-20T05:48:30Z</time>
      </trkpt>
      <trkpt lat="42.30145" lon="2.56981">
        <ele>793.261</ele>
        <time>2013-04-20T05:48:44Z</time>
      </trkpt>
      <trkpt lat="42.30152" lon="2.56964">
        <ele>795.617</ele>
        <time>2013-04-20T05:49:00Z</time>
      </trkpt>
      <trkpt lat="42.30156" lon="2.56953">
        <ele>797.107</ele>
        <time>2013-04-20T05:49:07Z</time>
      </trkpt>
      <trkpt lat="42.30165" lon="2.56933">
        <ele>801.472</ele>
        <time>2013-04-20T05:49:19Z</time>
      </trkpt>
      <trkpt lat="42.30173" lon="2.56917">
        <ele>807.271</ele>
        <time>2013-04-20T05:49:32Z</time>
      </trkpt>
      <trkpt lat="42.30173" lon="2.56914">
        <ele>807.615</ele>
        <time>2013-04-20T05:49:33Z</time>
      </trkpt>
      <trkpt lat="42.30175" lon="2.56898">
        <ele>812.032</ele>
        <time>2013-04-20T05:49:43Z</time>
      </trkpt>
      <trkpt lat="42.30173" lon="2.56882">
        <ele>815.893</ele>
        <time>2013-04-20T05:49:57Z</time>
      </trkpt>
      <trkpt lat="42.30175" lon="2.56879">
        <ele>816.896</ele>
        <time>2013-04-20T05:50:01Z</time>
      </trkpt>
      <trkpt lat="42.30179" lon="2.56867">
        <ele>819.239</ele>
        <time>2013-04-20T05:50:16Z</time>
      </trkpt>
      <trkpt lat="42.30181" lon="2.56847">
        <ele>821.676</ele>
        <time>2013-04-20T05:50:32Z</time>
      </trkpt>
      <trkpt lat="42.30185" lon="2.56836">
        <ele>825.09</ele>
        <time>2013-04-20T05:50:49Z</time>
      </trkpt>
      <trkpt lat="42.30185" lon="2.56832">
        <ele>825.419</ele>
        <time>2013-04-20T05:50:51Z</time>
      </trkpt>
      <trkpt lat="42.3019" lon="2.56818">
        <ele>825.907</ele>
        <time>2013-04-20T05:50:59Z</time>
      </trkpt>
      <trkpt lat="42.30201" lon="2.56798">
        <ele>827.881</ele>
        <time>2013-04-20T05:51:13Z</time>
      </trkpt>
      <trkpt lat="42.30204" lon="2.56786">
        <ele>828.82</ele>
        <time>2013-04-20T05:51:20Z</time>
      </trkpt>
      <trkpt lat="42.30213" lon="2.56782">
        <ele>829.844</ele>
        <time>2013-04-20T05:51:27Z</time>
      </trkpt>
      <trkpt lat="42.30212" lon="2.56756">
        <ele>831.761</ele>
        <time>2013-04-20T05:51:40Z</time>
      </trkpt>
      <trkpt lat="42.30221" lon="2.56729">
        <ele>834.672</ele>
        <time>2013-04-20T05:51:56Z</time>
      </trkpt>
      <trkpt lat="42.30229" lon="2.56707">
        <ele>836.525</ele>
        <time>2013-04-20T05:52:13Z</time>
      </trkpt>
      <trkpt lat="42.30231" lon="2.56705">
        <ele>837.078</ele>
        <time>2013-04-20T05:52:15Z</time>
      </trkpt>
      <trkpt lat="42.30235" lon="2.56701">
        <ele>837.945</ele>
        <time>2013-04-20T05:52:19Z</time>
      </trkpt>
      <trkpt lat="42.30242" lon="2.567">
        <ele>839.947</ele>
        <time>2013-04-20T05:52:24Z</time>
      </trkpt>
      <trkpt lat="42.30256" lon="2.56678">
        <ele>844.211</ele>
        <time>2013-04-20T05:52:41Z</time>
      </trkpt>
      <trkpt lat="42.30262" lon="2.56655">
        <ele>845.107</ele>
        <time>2013-04-20T05:52:55Z</time>
      </trkpt>
      <trkpt lat="42.30263" lon="2.56652">
        <ele>845.638</ele>
        <time>2013-04-20T05:52:57Z</time>
      </trkpt>
      <trkpt lat="42.30274" lon="2.56647">
        <ele>848.047</ele>
        <time>2013-04-20T05:53:07Z</time>
      </trkpt>
      <trkpt lat="42.30281" lon="2.56648">
        <ele>849.061</ele>
        <time>2013-04-20T05:53:12Z</time>
      </trkpt>
      <trkpt lat="42.30283" lon="2.56654">
        <ele>849.968</ele>
        <time>2013-04-20T05:53:16Z</time>
      </trkpt>
      <trkpt lat="42.30284" lon="2.56658">
        <ele>850.939</ele>
        <time>2013-04-20T05:53:18Z</time>
      </trkpt>
      <trkpt lat="42.30288" lon="2.56666">
        <ele>854.382</ele>
        <time>2013-04-20T05:53:27Z</time>
      </trkpt>
      <trkpt lat="42.30305" lon="2.56647">
        <ele>855.215</ele>
        <time>2013-04-20T05:53:43Z</time>
      </trkpt>
      <trkpt lat="42.30307" lon="2.5665">
        <ele>854.815</ele>
        <time>2013-04-20T05:53:48Z</time>
      </trkpt>
      <trkpt lat="42.30309" lon="2.56662">
        <ele>856.765</ele>
        <time>2013-04-20T05:53:57Z</time>
      </trkpt>
      <trkpt lat="42.30304" lon="2.56691">
        <ele>857.611</ele>
        <time>2013-04-20T05:54:10Z</time>
      </trkpt>
      <trkpt lat="42.30307" lon="2.56721">
        <ele>860.007</ele>
        <time>2013-04-20T05:54:26Z</time>
      </trkpt>
      <trkpt lat="42.30309" lon="2.56732">
        <ele>860.575</ele>
        <time>2013-04-20T05:54:32Z</time>
      </trkpt>
      <trkpt lat="42.30312" lon="2.56738">
        <ele>861.534</ele>
        <time>2013-04-20T05:54:36Z</time>
      </trkpt>
      <trkpt lat="42.30316" lon="2.56739">
        <ele>862.928</ele>
        <time>2013-04-20T05:54:40Z</time>
      </trkpt>
      <trkpt lat="42.30322" lon="2.56733">
        <ele>863.455</ele>
        <time>2013-04-20T05:54:45Z</time>
      </trkpt>
      <trkpt lat="42.30329" lon="2.56721">
        <ele>863.936</ele>
        <time>2013-04-20T05:54:55Z</time>
      </trkpt>
      <trkpt lat="42.30341" lon="2.5671">
        <ele>864.459</ele>
        <time>2013-04-20T05:55:09Z</time>
      </trkpt>
      <trkpt lat="42.30353" lon="2.56694">
        <ele>865.372</ele>
        <time>2013-04-20T05:55:22Z</time>
      </trkpt>
      <trkpt lat="42.30358" lon="2.56687">
        <ele>865.373</ele>
        <time>2013-04-20T05:55:28Z</time>
      </trkpt>
      <trkpt lat="42.30366" lon="2.56676">
        <ele>865.385</ele>
        <time>2013-04-20T05:55:37Z</time>
      </trkpt>
      <trkpt lat="42.30375" lon="2.56657">
        <ele>863.913</ele>
        <time>2013-04-20T05:55:51Z</time>
      </trkpt>
      <trkpt lat="42.30384" lon="2.56637">
        <ele>862.007</ele>
        <time>2013-04-20T05:56:06Z</time>
      </trkpt>
      <trkpt lat="42.30393" lon="2.56619">
        <ele>864.441</ele>
        <time>2013-04-20T05:56:18Z</time>
      </trkpt>
      <trkpt lat="42.30414" lon="2.56596">
        <ele>868.73</ele>
        <time>2013-04-20T05:56:32Z</time>
      </trkpt>
      <trkpt lat="42.3043" lon="2.56585">
        <ele>873.574</ele>
        <time>2013-04-20T05:56:47Z</time>
      </trkpt>
      <trkpt lat="42.30452" lon="2.56564">
        <ele>875.991</ele>
        <time>2013-04-20T05:57:03Z</time>
      </trkpt>
      <trkpt lat="42.30466" lon="2.5655">
        <ele>876.442</ele>
        <time>2013-04-20T05:57:16Z</time>
      </trkpt>
      <trkpt lat="42.30488" lon="2.56526">
        <ele>879.345</ele>
        <time>2013-04-20T05:57:29Z</time>
      </trkpt>
      <trkpt lat="42.30502" lon="2.565">
        <ele>885.598</ele>
        <time>2013-04-20T05:57:42Z</time>
      </trkpt>
      <trkpt lat="42.3051" lon="2.56475">
        <ele>887.956</ele>
        <time>2013-04-20T05:57:55Z</time>
      </trkpt>
      <trkpt lat="42.30518" lon="2.56454">
        <ele>890.859</ele>
        <time>2013-04-20T05:58:05Z</time>
      </trkpt>
      <trkpt lat="42.30527" lon="2.56432">
        <ele>893.214</ele>
        <time>2013-04-20T05:58:17Z</time>
      </trkpt>
      <trkpt lat="42.30533" lon="2.56411">
        <ele>893.707</ele>
        <time>2013-04-20T05:58:25Z</time>
      </trkpt>
      <trkpt lat="42.30542" lon="2.56394">
        <ele>895.199</ele>
        <time>2013-04-20T05:58:33Z</time>
      </trkpt>
      <trkpt lat="42.30551" lon="2.56388">
        <ele>897.178</ele>
        <time>2013-04-20T05:58:40Z</time>
      </trkpt>
      <trkpt lat="42.30554" lon="2.56388">
        <ele>898.512</ele>
        <time>2013-04-20T05:58:42Z</time>
      </trkpt>
      <trkpt lat="42.30556" lon="2.56395">
        <ele>900.469</ele>
        <time>2013-04-20T05:58:47Z</time>
      </trkpt>
      <trkpt lat="42.30549" lon="2.5642">
        <ele>903.82</ele>
        <time>2013-04-20T05:59:02Z</time>
      </trkpt>
      <trkpt lat="42.30545" lon="2.56444">
        <ele>904.313</ele>
        <time>2013-04-20T05:59:11Z</time>
      </trkpt>
      <trkpt lat="42.30542" lon="2.56464">
        <ele>906.726</ele>
        <time>2013-04-20T05:59:23Z</time>
      </trkpt>
      <trkpt lat="42.30542" lon="2.5648">
        <ele>907.623</ele>
        <time>2013-04-20T05:59:37Z</time>
      </trkpt>
      <trkpt lat="42.30541" lon="2.56482">
        <ele>907.683</ele>
        <time>2013-04-20T05:59:39Z</time>
      </trkpt>
      <trkpt lat="42.30538" lon="2.56521">
        <ele>909.511</ele>
        <time>2013-04-20T05:59:53Z</time>
      </trkpt>
      <trkpt lat="42.30537" lon="2.56531">
        <ele>911.007</ele>
        <time>2013-04-20T05:59:58Z</time>
      </trkpt>
      <trkpt lat="42.3053" lon="2.56555">
        <ele>912.416</ele>
        <time>2013-04-20T06:00:10Z</time>
      </trkpt>
      <trkpt lat="42.30528" lon="2.56575">
        <ele>914.875</ele>
        <time>2013-04-20T06:00:26Z</time>
      </trkpt>
      <trkpt lat="42.30519" lon="2.56598">
        <ele>917.279</ele>
        <time>2013-04-20T06:00:39Z</time>
      </trkpt>
      <trkpt lat="42.30497" lon="2.56624">
        <ele>920.136</ele>
        <time>2013-04-20T06:00:51Z</time>
      </trkpt>
      <trkpt lat="42.30484" lon="2.56633">
        <ele>921.137</ele>
        <time>2013-04-20T06:01:02Z</time>
      </trkpt>
      <trkpt lat="42.30475" lon="2.56641">
        <ele>924.99</ele>
        <time>2013-04-20T06:01:11Z</time>
      </trkpt>
      <trkpt lat="42.30469" lon="2.5665">
        <ele>924.573</ele>
        <time>2013-04-20T06:01:21Z</time>
      </trkpt>
      <trkpt lat="42.30468" lon="2.56661">
        <ele>924.964</ele>
        <time>2013-04-20T06:01:29Z</time>
      </trkpt>
      <trkpt lat="42.30471" lon="2.56662">
        <ele>924.906</ele>
        <time>2013-04-20T06:01:32Z</time>
      </trkpt>
      <trkpt lat="42.30476" lon="2.56659">
        <ele>926.416</ele>
        <time>2013-04-20T06:01:40Z</time>
      </trkpt>
      <trkpt lat="42.30487" lon="2.56656">
        <ele>926.907</ele>
        <time>2013-04-20T06:01:54Z</time>
      </trkpt>
      <trkpt lat="42.30498" lon="2.56652">
        <ele>926.49</ele>
        <time>2013-04-20T06:02:11Z</time>
      </trkpt>
      <trkpt lat="42.30509" lon="2.56648">
        <ele>928.349</ele>
        <time>2013-04-20T06:02:25Z</time>
      </trkpt>
      <trkpt lat="42.30526" lon="2.56646">
        <ele>932.683</ele>
        <time>2013-04-20T06:02:41Z</time>
      </trkpt>
      <trkpt lat="42.30531" lon="2.56644">
        <ele>934.55</ele>
        <time>2013-04-20T06:02:45Z</time>
      </trkpt>
      <trkpt lat="42.30533" lon="2.56641">
        <ele>936.091</ele>
        <time>2013-04-20T06:02:48Z</time>
      </trkpt>
      <trkpt lat="42.30538" lon="2.56638">
        <ele>937.974</ele>
        <time>2013-04-20T06:02:53Z</time>
      </trkpt>
      <trkpt lat="42.30545" lon="2.56629">
        <ele>941.387</ele>
        <time>2013-04-20T06:03:02Z</time>
      </trkpt>
      <trkpt lat="42.30556" lon="2.5661">
        <ele>946.129</ele>
        <time>2013-04-20T06:03:17Z</time>
      </trkpt>
      <trkpt lat="42.3056" lon="2.566">
        <ele>949.9</ele>
        <time>2013-04-20T06:03:30Z</time>
      </trkpt>
      <trkpt lat="42.30561" lon="2.56599">
        <ele>952.82</ele>
        <time>2013-04-20T06:03:42Z</time>
      </trkpt>
      <trkpt lat="42.30562" lon="2.56598">
        <ele>955.707</ele>
        <time>2013-04-20T06:03:56Z</time>
      </trkpt>
      <trkpt lat="42.30568" lon="2.56589">
        <ele>956.786</ele>
        <time>2013-04-20T06:04:12Z</time>
      </trkpt>
      <trkpt lat="42.30579" lon="2.56579">
        <ele>959.185</ele>
        <time>2013-04-20T06:04:28Z</time>
      </trkpt>
      <trkpt lat="42.30588" lon="2.56563">
        <ele>961.069</ele>
        <time>2013-04-20T06:04:44Z</time>
      </trkpt>
      <trkpt lat="42.30593" lon="2.56542">
        <ele>961.976</ele>
        <time>2013-04-20T06:04:54Z</time>
      </trkpt>
      <trkpt lat="42.30602" lon="2.56522">
        <ele>963.457</ele>
        <time>2013-04-20T06:05:08Z</time>
      </trkpt>
      <trkpt lat="42.30605" lon="2.56501">
        <ele>966.32</ele>
        <time>2013-04-20T06:05:20Z</time>
      </trkpt>
      <trkpt lat="42.30605" lon="2.56499">
        <ele>966.363</ele>
        <time>2013-04-20T06:05:21Z</time>
      </trkpt>
      <trkpt lat="42.30609" lon="2.56488">
        <ele>964.871</ele>
        <time>2013-04-20T06:05:25Z</time>
      </trkpt>
      <trkpt lat="42.30615" lon="2.56482">
        <ele>963.441</ele>
        <time>2013-04-20T06:05:32Z</time>
      </trkpt>
      <trkpt lat="42.30622" lon="2.56477">
        <ele>961.515</ele>
        <time>2013-04-20T06:05:47Z</time>
      </trkpt>
      <trkpt lat="42.30622" lon="2.56475">
        <ele>960.007</ele>
        <time>2013-04-20T06:06:02Z</time>
      </trkpt>
      <trkpt lat="42.30622" lon="2.56473">
        <ele>960.091</ele>
        <time>2013-04-20T06:06:18Z</time>
      </trkpt>
      <trkpt lat="42.30627" lon="2.56472">
        <ele>960.54</ele>
        <time>2013-04-20T06:06:32Z</time>
      </trkpt>
      <trkpt lat="42.30631" lon="2.5647">
        <ele>960.014</ele>
        <time>2013-04-20T06:06:36Z</time>
      </trkpt>
      <trkpt lat="42.30641" lon="2.56475">
        <ele>959.171</ele>
        <time>2013-04-20T06:06:50Z</time>
      </trkpt>
      <trkpt lat="42.30652" lon="2.56475">
        <ele>958.642</ele>
        <time>2013-04-20T06:07:05Z</time>
      </trkpt>
      <trkpt lat="42.30661" lon="2.56476">
        <ele>959.195</ele>
        <time>2013-04-20T06:07:20Z</time>
      </trkpt>
      <trkpt lat="42.3066" lon="2.56472">
        <ele>958.168</ele>
        <time>2013-04-20T06:07:32Z</time>
      </trkpt>
      <trkpt lat="42.30665" lon="2.56465">
        <ele>955.787</ele>
        <time>2013-04-20T06:07:47Z</time>
      </trkpt>
      <trkpt lat="42.30667" lon="2.56465">
        <ele>953.842</ele>
        <time>2013-04-20T06:08:06Z</time>
      </trkpt>
      <trkpt lat="42.3067" lon="2.56461">
        <ele>956.226</ele>
        <time>2013-04-20T06:08:22Z</time>
      </trkpt>
      <trkpt lat="42.30675" lon="2.56462">
        <ele>957.607</ele>
        <time>2013-04-20T06:08:38Z</time>
      </trkpt>
      <trkpt lat="42.30682" lon="2.56461">
        <ele>956.722</ele>
        <time>2013-04-20T06:08:52Z</time>
      </trkpt>
      <trkpt lat="42.30691" lon="2.56463">
        <ele>955.781</ele>
        <time>2013-04-20T06:09:06Z</time>
      </trkpt>
      <trkpt lat="42.30703" lon="2.56467">
        <ele>953.865</ele>
        <time>2013-04-20T06:09:20Z</time>
      </trkpt>
      <trkpt lat="42.30714" lon="2.56467">
        <ele>952.832</ele>
        <time>2013-04-20T06:09:31Z</time>
      </trkpt>
      <trkpt lat="42.30729" lon="2.56471">
        <ele>953.323</ele>
        <time>2013-04-20T06:09:43Z</time>
      </trkpt>
      <trkpt lat="42.30743" lon="2.56475">
        <ele>951.856</ele>
        <time>2013-04-20T06:09:57Z</time>
      </trkpt>
      <trkpt lat="42.30753" lon="2.56476">
        <ele>949.439</ele>
        <time>2013-04-20T06:10:09Z</time>
      </trkpt>
      <trkpt lat="42.30762" lon="2.56479">
        <ele>950.413</ele>
        <time>2013-04-20T06:10:24Z</time>
      </trkpt>
      <trkpt lat="42.30768" lon="2.5648">
        <ele>954.743</ele>
        <time>2013-04-20T06:10:39Z</time>
      </trkpt>
      <trkpt lat="42.30772" lon="2.56485">
        <ele>957.607</ele>
        <time>2013-04-20T06:10:53Z</time>
      </trkpt>
      <trkpt lat="42.30781" lon="2.5648">
        <ele>959.507</ele>
        <time>2013-04-20T06:11:04Z</time>
      </trkpt>
      <trkpt lat="42.30792" lon="2.56475">
        <ele>959.165</ele>
        <time>2013-04-20T06:11:17Z</time>
      </trkpt>
      <trkpt lat="42.30802" lon="2.56467">
        <ele>954.764</ele>
        <time>2013-04-20T06:11:31Z</time>
      </trkpt>
      <trkpt lat="42.3081" lon="2.56459">
        <ele>954.358</ele>
        <time>2013-04-20T06:11:43Z</time>
      </trkpt>
      <trkpt lat="42.30807" lon="2.56453">
        <ele>953.355</ele>
        <time>2013-04-20T06:11:52Z</time>
      </trkpt>
      <trkpt lat="42.30803" lon="2.56445">
        <ele>952.346</ele>
        <time>2013-04-20T06:12:03Z</time>
      </trkpt>
      <trkpt lat="42.30803" lon="2.56436">
        <ele>949.499</ele>
        <time>2013-04-20T06:12:18Z</time>
      </trkpt>
      <trkpt lat="42.30802" lon="2.56428">
        <ele>949.422</ele>
        <time>2013-04-20T06:12:33Z</time>
      </trkpt>
      <trkpt lat="42.30803" lon="2.56419">
        <ele>949.042</ele>
        <time>2013-04-20T06:12:46Z</time>
      </trkpt>
      <trkpt lat="42.308" lon="2.56415">
        <ele>947.022</ele>
        <time>2013-04-20T06:12:58Z</time>
      </trkpt>
      <trkpt lat="42.30803" lon="2.56409">
        <ele>947.014</ele>
        <time>2013-04-20T06:13:04Z</time>
      </trkpt>
      <trkpt lat="42.30804" lon="2.56397">
        <ele>945.107</ele>
        <time>2013-04-20T06:13:17Z</time>
      </trkpt>
      <trkpt lat="42.30802" lon="2.56384">
        <ele>943.218</ele>
        <time>2013-04-20T06:13:30Z</time>
      </trkpt>
      <trkpt lat="42.308" lon="2.56378">
        <ele>941.867</ele>
        <time>2013-04-20T06:13:43Z</time>
      </trkpt>
      <trkpt lat="42.30799" lon="2.56371">
        <ele>941.841</ele>
        <time>2013-04-20T06:13:54Z</time>
      </trkpt>
      <trkpt lat="42.30797" lon="2.56361">
        <ele>940.888</ele>
        <time>2013-04-20T06:14:05Z</time>
      </trkpt>
      <trkpt lat="42.30795" lon="2.56358">
        <ele>937.939</ele>
        <time>2013-04-20T06:14:19Z</time>
      </trkpt>
      <trkpt lat="42.30789" lon="2.56356">
        <ele>936.012</ele>
        <time>2013-04-20T06:14:34Z</time>
      </trkpt>
      <trkpt lat="42.30788" lon="2.56357">
        <ele>936.085</ele>
        <time>2013-04-20T06:14:35Z</time>
      </trkpt>
      <trkpt lat="42.30781" lon="2.56362">
        <ele>932.684</ele>
        <time>2013-04-20T06:14:47Z</time>
      </trkpt>
      <trkpt lat="42.30778" lon="2.56361">
        <ele>930.707</ele>
        <time>2013-04-20T06:14:53Z</time>
      </trkpt>
      <trkpt lat="42.30785" lon="2.56344">
        <ele>926.917</ele>
        <time>2013-04-20T06:15:05Z</time>
      </trkpt>
      <trkpt lat="42.30788" lon="2.5632">
        <ele>924.507</ele>
        <time>2013-04-20T06:15:16Z</time>
      </trkpt>
      <trkpt lat="42.30789" lon="2.56306">
        <ele>919.662</ele>
        <time>2013-04-20T06:15:25Z</time>
      </trkpt>
      <trkpt lat="42.3079" lon="2.56288">
        <ele>917.231</ele>
        <time>2013-04-20T06:15:34Z</time>
      </trkpt>
      <trkpt lat="42.30792" lon="2.56278">
        <ele>915.815</ele>
        <time>2013-04-20T06:15:39Z</time>
      </trkpt>
      <trkpt lat="42.30795" lon="2.56256">
        <ele>909.522</ele>
        <time>2013-04-20T06:15:50Z</time>
      </trkpt>
      <trkpt lat="42.30796" lon="2.56253">
        <ele>909.193</ele>
        <time>2013-04-20T06:15:51Z</time>
      </trkpt>
      <trkpt lat="42.30795" lon="2.56248">
        <ele>908.146</ele>
        <time>2013-04-20T06:15:53Z</time>
      </trkpt>
      <trkpt lat="42.308" lon="2.56228">
        <ele>903.819</ele>
        <time>2013-04-20T06:16:04Z</time>
      </trkpt>
      <trkpt lat="42.30802" lon="2.56224">
        <ele>903.852</ele>
        <time>2013-04-20T06:16:06Z</time>
      </trkpt>
      <trkpt lat="42.30806" lon="2.56222">
        <ele>904.753</ele>
        <time>2013-04-20T06:16:09Z</time>
      </trkpt>
      <trkpt lat="42.3081" lon="2.56216">
        <ele>904.308</ele>
        <time>2013-04-20T06:16:13Z</time>
      </trkpt>
      <trkpt lat="42.3081" lon="2.56201">
        <ele>903.807</ele>
        <time>2013-04-20T06:16:19Z</time>
      </trkpt>
      <trkpt lat="42.30812" lon="2.56194">
        <ele>903.319</ele>
        <time>2013-04-20T06:16:22Z</time>
      </trkpt>
      <trkpt lat="42.30818" lon="2.56186">
        <ele>898.528</ele>
        <time>2013-04-20T06:16:30Z</time>
      </trkpt>
      <trkpt lat="42.30826" lon="2.56176">
        <ele>894.622</ele>
        <time>2013-04-20T06:16:38Z</time>
      </trkpt>
      <trkpt lat="42.30838" lon="2.56168">
        <ele>889.419</ele>
        <time>2013-04-20T06:16:49Z</time>
      </trkpt>
      <trkpt lat="42.30841" lon="2.56163">
        <ele>887.98</ele>
        <time>2013-04-20T06:16:53Z</time>
      </trkpt>
      <trkpt lat="42.30848" lon="2.56148">
        <ele>888.973</ele>
        <time>2013-04-20T06:17:02Z</time>
      </trkpt>
      <trkpt lat="42.30852" lon="2.56143">
        <ele>887.416</ele>
        <time>2013-04-20T06:17:08Z</time>
      </trkpt>
      <trkpt lat="42.30854" lon="2.5614">
        <ele>887.492</ele>
        <time>2013-04-20T06:17:10Z</time>
      </trkpt>
      <trkpt lat="42.30856" lon="2.56131">
        <ele>887.973</ele>
        <time>2013-04-20T06:17:14Z</time>
      </trkpt>
      <trkpt lat="42.30865" lon="2.56105">
        <ele>887.42</ele>
        <time>2013-04-20T06:17:27Z</time>
      </trkpt>
      <trkpt lat="42.30846" lon="2.56089">
        <ele>894.207</ele>
        <time>2013-04-20T06:17:38Z</time>
      </trkpt>
      <trkpt lat="42.30832" lon="2.56079">
        <ele>896.653</ele>
        <time>2013-04-20T06:17:45Z</time>
      </trkpt>
      <trkpt lat="42.30825" lon="2.56069">
        <ele>898.022</ele>
        <time>2013-04-20T06:17:50Z</time>
      </trkpt>
      <trkpt lat="42.30824" lon="2.56061">
        <ele>897.546</ele>
        <time>2013-04-20T06:17:53Z</time>
      </trkpt>
      <trkpt lat="42.30811" lon="2.56045">
        <ele>898.023</ele>
        <time>2013-04-20T06:18:04Z</time>
      </trkpt>
      <trkpt lat="42.30805" lon="2.56044">
        <ele>899.914</ele>
        <time>2013-04-20T06:18:18Z</time>
      </trkpt>
      <trkpt lat="42.30801" lon="2.5604">
        <ele>899.547</ele>
        <time>2013-04-20T06:18:35Z</time>
      </trkpt>
      <trkpt lat="42.30797" lon="2.56039">
        <ele>898.56</ele>
        <time>2013-04-20T06:18:39Z</time>
      </trkpt>
      <trkpt lat="42.30796" lon="2.56031">
        <ele>896.653</ele>
        <time>2013-04-20T06:18:43Z</time>
      </trkpt>
      <trkpt lat="42.3078" lon="2.56012">
        <ele>892.704</ele>
        <time>2013-04-20T06:18:55Z</time>
      </trkpt>
      <trkpt lat="42.30756" lon="2.55993">
        <ele>893.214</ele>
        <time>2013-04-20T06:19:07Z</time>
      </trkpt>
      <trkpt lat="42.30741" lon="2.55975">
        <ele>892.207</ele>
        <time>2013-04-20T06:19:18Z</time>
      </trkpt>
      <trkpt lat="42.30739" lon="2.55973">
        <ele>892.259</ele>
        <time>2013-04-20T06:19:20Z</time>
      </trkpt>
      <trkpt lat="42.30732" lon="2.55967">
        <ele>892.298</ele>
        <time>2013-04-20T06:19:27Z</time>
      </trkpt>
      <trkpt lat="42.30723" lon="2.55959">
        <ele>891.352</ele>
        <time>2013-04-20T06:19:36Z</time>
      </trkpt>
      <trkpt lat="42.30716" lon="2.55946">
        <ele>890.399</ele>
        <time>2013-04-20T06:19:42Z</time>
      </trkpt>
      <trkpt lat="42.30698" lon="2.55919">
        <ele>887.45</ele>
        <time>2013-04-20T06:19:55Z</time>
      </trkpt>
      <trkpt lat="42.30684" lon="2.55903">
        <ele>888.423</ele>
        <time>2013-04-20T06:20:05Z</time>
      </trkpt>
      <trkpt lat="42.30666" lon="2.55886">
        <ele>893.736</ele>
        <time>2013-04-20T06:20:20Z</time>
      </trkpt>
      <trkpt lat="42.30659" lon="2.55859">
        <ele>894.299</ele>
        <time>2013-04-20T06:20:32Z</time>
      </trkpt>
      <trkpt lat="42.30656" lon="2.5585">
        <ele>892.207</ele>
        <time>2013-04-20T06:20:37Z</time>
      </trkpt>
      <trkpt lat="42.30651" lon="2.55835">
        <ele>890.827</ele>
        <time>2013-04-20T06:20:46Z</time>
      </trkpt>
      <trkpt lat="42.30645" lon="2.5583">
        <ele>889.807</ele>
        <time>2013-04-20T06:20:51Z</time>
      </trkpt>
      <trkpt lat="42.30641" lon="2.55808">
        <ele>887.963</ele>
        <time>2013-04-20T06:21:02Z</time>
      </trkpt>
      <trkpt lat="42.30639" lon="2.55805">
        <ele>888.472</ele>
        <time>2013-04-20T06:21:04Z</time>
      </trkpt>
      <trkpt lat="42.30634" lon="2.55797">
        <ele>887.056</ele>
        <time>2013-04-20T06:21:09Z</time>
      </trkpt>
      <trkpt lat="42.30633" lon="2.5579">
        <ele>886.513</ele>
        <time>2013-04-20T06:21:13Z</time>
      </trkpt>
      <trkpt lat="42.30629" lon="2.55781">
        <ele>886.524</ele>
        <time>2013-04-20T06:21:19Z</time>
      </trkpt>
      <trkpt lat="42.3062" lon="2.55761">
        <ele>888.957</ele>
        <time>2013-04-20T06:21:31Z</time>
      </trkpt>
      <trkpt lat="42.30616" lon="2.55755">
        <ele>889.87</ele>
        <time>2013-04-20T06:21:38Z</time>
      </trkpt>
      <trkpt lat="42.3061" lon="2.55745">
        <ele>889.854</ele>
        <time>2013-04-20T06:21:45Z</time>
      </trkpt>
      <trkpt lat="42.30606" lon="2.55735">
        <ele>889.456</ele>
        <time>2013-04-20T06:21:50Z</time>
      </trkpt>
      <trkpt lat="42.30603" lon="2.55725">
        <ele>889.411</ele>
        <time>2013-04-20T06:21:55Z</time>
      </trkpt>
      <trkpt lat="42.30601" lon="2.55722">
        <ele>888.907</ele>
        <time>2013-04-20T06:21:57Z</time>
      </trkpt>
      <trkpt lat="42.30598" lon="2.55708">
        <ele>887.099</ele>
        <time>2013-04-20T06:22:02Z</time>
      </trkpt>
      <trkpt lat="42.30596" lon="2.55699">
        <ele>887.498</ele>
        <time>2013-04-20T06:22:05Z</time>
      </trkpt>
      <trkpt lat="42.30592" lon="2.55685">
        <ele>887.062</ele>
        <time>2013-04-20T06:22:10Z</time>
      </trkpt>
      <trkpt lat="42.30588" lon="2.55664">
        <ele>886.549</ele>
        <time>2013-04-20T06:22:17Z</time>
      </trkpt>
      <trkpt lat="42.30588" lon="2.5564">
        <ele>885.07</ele>
        <time>2013-04-20T06:22:26Z</time>
      </trkpt>
      <trkpt lat="42.30589" lon="2.55634">
        <ele>884.663</ele>
        <time>2013-04-20T06:22:28Z</time>
      </trkpt>
      <trkpt lat="42.30591" lon="2.55617">
        <ele>883.186</ele>
        <time>2013-04-20T06:22:34Z</time>
      </trkpt>
      <trkpt lat="42.30603" lon="2.55594">
        <ele>879.359</ele>
        <time>2013-04-20T06:22:44Z</time>
      </trkpt>
      <trkpt lat="42.30604" lon="2.55586">
        <ele>878.303</ele>
        <time>2013-04-20T06:22:47Z</time>
      </trkpt>
      <trkpt lat="42.30599" lon="2.55557">
        <ele>874.023</ele>
        <time>2013-04-20T06:22:58Z</time>
      </trkpt>
      <trkpt lat="42.30599" lon="2.55543">
        <ele>873.007</ele>
        <time>2013-04-20T06:23:03Z</time>
      </trkpt>
      <trkpt lat="42.30598" lon="2.55532">
        <ele>872.199</ele>
        <time>2013-04-20T06:23:07Z</time>
      </trkpt>
      <trkpt lat="42.30591" lon="2.55523">
        <ele>873.028</ele>
        <time>2013-04-20T06:23:12Z</time>
      </trkpt>
      <trkpt lat="42.30587" lon="2.55515">
        <ele>874.942</ele>
        <time>2013-04-20T06:23:17Z</time>
      </trkpt>
      <trkpt lat="42.30574" lon="2.5549">
        <ele>881.229</ele>
        <time>2013-04-20T06:23:34Z</time>
      </trkpt>
      <trkpt lat="42.30573" lon="2.55487">
        <ele>881.78</ele>
        <time>2013-04-20T06:23:36Z</time>
      </trkpt>
      <trkpt lat="42.30572" lon="2.55484">
        <ele>882.283</ele>
        <time>2013-04-20T06:23:38Z</time>
      </trkpt>
      <trkpt lat="42.3056" lon="2.55468">
        <ele>884.686</ele>
        <time>2013-04-20T06:23:49Z</time>
      </trkpt>
      <trkpt lat="42.30552" lon="2.55435">
        <ele>887.436</ele>
        <time>2013-04-20T06:24:03Z</time>
      </trkpt>
      <trkpt lat="42.30552" lon="2.55427">
        <ele>887.917</ele>
        <time>2013-04-20T06:24:06Z</time>
      </trkpt>
      <trkpt lat="42.30552" lon="2.55416">
        <ele>887.418</ele>
        <time>2013-04-20T06:24:10Z</time>
      </trkpt>
      <trkpt lat="42.30555" lon="2.55403">
        <ele>886.507</ele>
        <time>2013-04-20T06:24:15Z</time>
      </trkpt>
      <trkpt lat="42.30562" lon="2.55393">
        <ele>885.577</ele>
        <time>2013-04-20T06:24:24Z</time>
      </trkpt>
      <trkpt lat="42.30566" lon="2.55376">
        <ele>882.656</ele>
        <time>2013-04-20T06:24:33Z</time>
      </trkpt>
      <trkpt lat="42.30566" lon="2.55373">
        <ele>881.71</ele>
        <time>2013-04-20T06:24:35Z</time>
      </trkpt>
      <trkpt lat="42.30566" lon="2.55363">
        <ele>880.737</ele>
        <time>2013-04-20T06:24:41Z</time>
      </trkpt>
      <trkpt lat="42.30565" lon="2.55355">
        <ele>882.668</ele>
        <time>2013-04-20T06:24:45Z</time>
      </trkpt>
      <trkpt lat="42.30552" lon="2.55336">
        <ele>884.171</ele>
        <time>2013-04-20T06:24:57Z</time>
      </trkpt>
      <trkpt lat="42.30548" lon="2.5532">
        <ele>885.544</ele>
        <time>2013-04-20T06:25:03Z</time>
      </trkpt>
      <trkpt lat="42.30546" lon="2.55307">
        <ele>886.553</ele>
        <time>2013-04-20T06:25:08Z</time>
      </trkpt>
      <trkpt lat="42.30546" lon="2.55287">
        <ele>888.404</ele>
        <time>2013-04-20T06:25:18Z</time>
      </trkpt>
      <trkpt lat="42.30543" lon="2.55254">
        <ele>885.514</ele>
        <time>2013-04-20T06:25:32Z</time>
      </trkpt>
      <trkpt lat="42.30544" lon="2.5523">
        <ele>885.007</ele>
        <time>2013-04-20T06:25:40Z</time>
      </trkpt>
      <trkpt lat="42.30551" lon="2.55195">
        <ele>884.619</ele>
        <time>2013-04-20T06:25:52Z</time>
      </trkpt>
      <trkpt lat="42.30558" lon="2.55173">
        <ele>886.528</ele>
        <time>2013-04-20T06:26:03Z</time>
      </trkpt>
      <trkpt lat="42.3057" lon="2.55154">
        <ele>886.542</ele>
        <time>2013-04-20T06:26:15Z</time>
      </trkpt>
      <trkpt lat="42.30572" lon="2.55144">
        <ele>885.559</ele>
        <time>2013-04-20T06:26:19Z</time>
      </trkpt>
      <trkpt lat="42.30576" lon="2.55138">
        <ele>884.69</ele>
        <time>2013-04-20T06:26:22Z</time>
      </trkpt>
      <trkpt lat="42.30588" lon="2.55122">
        <ele>883.173</ele>
        <time>2013-04-20T06:26:31Z</time>
      </trkpt>
      <trkpt lat="42.30592" lon="2.55116">
        <ele>881.746</ele>
        <time>2013-04-20T06:26:36Z</time>
      </trkpt>
      <trkpt lat="42.30592" lon="2.55113">
        <ele>881.738</ele>
        <time>2013-04-20T06:26:38Z</time>
      </trkpt>
      <trkpt lat="42.30589" lon="2.55106">
        <ele>880.27</ele>
        <time>2013-04-20T06:26:43Z</time>
      </trkpt>
      <trkpt lat="42.30593" lon="2.55093">
        <ele>876.917</ele>
        <time>2013-04-20T06:26:54Z</time>
      </trkpt>
      <trkpt lat="42.30591" lon="2.55076">
        <ele>879.307</ele>
        <time>2013-04-20T06:27:07Z</time>
      </trkpt>
      <trkpt lat="42.30588" lon="2.55055">
        <ele>883.697</ele>
        <time>2013-04-20T06:27:24Z</time>
      </trkpt>
      <trkpt lat="42.30587" lon="2.55046">
        <ele>886.056</ele>
        <time>2013-04-20T06:27:31Z</time>
      </trkpt>
      <trkpt lat="42.30588" lon="2.5504">
        <ele>887.47</ele>
        <time>2013-04-20T06:27:35Z</time>
      </trkpt>
      <trkpt lat="42.30588" lon="2.55027">
        <ele>887.997</ele>
        <time>2013-04-20T06:27:42Z</time>
      </trkpt>
      <trkpt lat="42.30589" lon="2.55026">
        <ele>889.428</ele>
        <time>2013-04-20T06:27:54Z</time>
      </trkpt>
      <trkpt lat="42.30596" lon="2.55042">
        <ele>892.721</ele>
        <time>2013-04-20T06:28:10Z</time>
      </trkpt>
      <trkpt lat="42.30597" lon="2.55045">
        <ele>897.144</ele>
        <time>2013-04-20T06:28:22Z</time>
      </trkpt>
      <trkpt lat="42.30596" lon="2.55044">
        <ele>902.397</ele>
        <time>2013-04-20T06:28:39Z</time>
      </trkpt>
      <trkpt lat="42.30601" lon="2.5504">
        <ele>905.723</ele>
        <time>2013-04-20T06:28:51Z</time>
      </trkpt>
      <trkpt lat="42.30603" lon="2.55048">
        <ele>907.125</ele>
        <time>2013-04-20T06:29:00Z</time>
      </trkpt>
      <trkpt lat="42.30602" lon="2.55056">
        <ele>907.607</ele>
        <time>2013-04-20T06:29:04Z</time>
      </trkpt>
      <trkpt lat="42.3061" lon="2.55077">
        <ele>904.793</ele>
        <time>2013-04-20T06:29:20Z</time>
      </trkpt>
      <trkpt lat="42.30621" lon="2.55083">
        <ele>903.862</ele>
        <time>2013-04-20T06:29:33Z</time>
      </trkpt>
      <trkpt lat="42.30622" lon="2.55075">
        <ele>906.236</ele>
        <time>2013-04-20T06:29:42Z</time>
      </trkpt>
      <trkpt lat="42.30621" lon="2.55058">
        <ele>909.513</ele>
        <time>2013-04-20T06:29:58Z</time>
      </trkpt>
      <trkpt lat="42.30623" lon="2.55047">
        <ele>913.964</ele>
        <time>2013-04-20T06:30:10Z</time>
      </trkpt>
      <trkpt lat="42.30622" lon="2.55034">
        <ele>916.847</ele>
        <time>2013-04-20T06:30:23Z</time>
      </trkpt>
      <trkpt lat="42.30626" lon="2.55033">
        <ele>919.69</ele>
        <time>2013-04-20T06:30:34Z</time>
      </trkpt>
      <trkpt lat="42.30633" lon="2.55037">
        <ele>923.565</ele>
        <time>2013-04-20T06:30:48Z</time>
      </trkpt>
      <trkpt lat="42.30637" lon="2.55038">
        <ele>927.368</ele>
        <time>2013-04-20T06:31:01Z</time>
      </trkpt>
      <trkpt lat="42.3064" lon="2.55043">
        <ele>927.314</ele>
        <time>2013-04-20T06:31:06Z</time>
      </trkpt>
      <trkpt lat="42.30648" lon="2.55056">
        <ele>930.207</ele>
        <time>2013-04-20T06:31:22Z</time>
      </trkpt>
      <trkpt lat="42.30649" lon="2.55056">
        <ele>931.79</ele>
        <time>2013-04-20T06:31:27Z</time>
      </trkpt>
      <trkpt lat="42.30651" lon="2.55045">
        <ele>934.189</ele>
        <time>2013-04-20T06:31:39Z</time>
      </trkpt>
      <trkpt lat="42.30651" lon="2.55038">
        <ele>935.053</ele>
        <time>2013-04-20T06:31:46Z</time>
      </trkpt>
      <trkpt lat="42.30651" lon="2.55026">
        <ele>937.96</ele>
        <time>2013-04-20T06:32:00Z</time>
      </trkpt>
      <trkpt lat="42.30646" lon="2.55011">
        <ele>940.881</ele>
        <time>2013-04-20T06:32:14Z</time>
      </trkpt>
      <trkpt lat="42.30645" lon="2.5501">
        <ele>941.814</ele>
        <time>2013-04-20T06:32:16Z</time>
      </trkpt>
      <trkpt lat="42.30643" lon="2.54995">
        <ele>946.117</ele>
        <time>2013-04-20T06:32:31Z</time>
      </trkpt>
      <trkpt lat="42.30642" lon="2.54982">
        <ele>949.928</ele>
        <time>2013-04-20T06:32:46Z</time>
      </trkpt>
      <trkpt lat="42.30638" lon="2.54973">
        <ele>953.389</ele>
        <time>2013-04-20T06:32:59Z</time>
      </trkpt>
      <trkpt lat="42.30637" lon="2.54971">
        <ele>954.317</ele>
        <time>2013-04-20T06:33:01Z</time>
      </trkpt>
      <trkpt lat="42.30638" lon="2.54954">
        <ele>957.107</ele>
        <time>2013-04-20T06:33:14Z</time>
      </trkpt>
      <trkpt lat="42.30638" lon="2.5495">
        <ele>957.686</ele>
        <time>2013-04-20T06:33:17Z</time>
      </trkpt>
      <trkpt lat="42.30643" lon="2.54936">
        <ele>960.045</ele>
        <time>2013-04-20T06:33:31Z</time>
      </trkpt>
      <trkpt lat="42.30646" lon="2.54932">
        <ele>961.929</ele>
        <time>2013-04-20T06:33:45Z</time>
      </trkpt>
      <trkpt lat="42.30648" lon="2.5494">
        <ele>961.576</ele>
        <time>2013-04-20T06:33:57Z</time>
      </trkpt>
      <trkpt lat="42.30654" lon="2.54948">
        <ele>963.947</ele>
        <time>2013-04-20T06:34:12Z</time>
      </trkpt>
      <trkpt lat="42.30659" lon="2.5496">
        <ele>964.88</ele>
        <time>2013-04-20T06:34:24Z</time>
      </trkpt>
      <trkpt lat="42.30667" lon="2.54971">
        <ele>962.443</ele>
        <time>2013-04-20T06:34:39Z</time>
      </trkpt>
      <trkpt lat="42.30672" lon="2.5498">
        <ele>962.472</ele>
        <time>2013-04-20T06:34:56Z</time>
      </trkpt>
      <trkpt lat="42.30678" lon="2.54995">
        <ele>961.513</ele>
        <time>2013-04-20T06:35:15Z</time>
      </trkpt>
      <trkpt lat="42.30684" lon="2.55004">
        <ele>962.414</ele>
        <time>2013-04-20T06:35:25Z</time>
      </trkpt>
      <trkpt lat="42.30696" lon="2.55021">
        <ele>962.907</ele>
        <time>2013-04-20T06:35:42Z</time>
      </trkpt>
      <trkpt lat="42.30705" lon="2.5503">
        <ele>964.861</ele>
        <time>2013-04-20T06:35:56Z</time>
      </trkpt>
      <trkpt lat="42.30714" lon="2.55041">
        <ele>967.76</ele>
        <time>2013-04-20T06:36:10Z</time>
      </trkpt>
      <trkpt lat="42.3072" lon="2.55045">
        <ele>967.244</ele>
        <time>2013-04-20T06:36:23Z</time>
      </trkpt>
      <trkpt lat="42.3073" lon="2.5505">
        <ele>968.761</ele>
        <time>2013-04-20T06:36:39Z</time>
      </trkpt>
      <trkpt lat="42.30731" lon="2.55046">
        <ele>970.622</ele>
        <time>2013-04-20T06:36:52Z</time>
      </trkpt>
      <trkpt lat="42.30732" lon="2.55042">
        <ele>973.015</ele>
        <time>2013-04-20T06:37:06Z</time>
      </trkpt>
      <trkpt lat="42.30734" lon="2.55043">
        <ele>978.368</ele>
        <time>2013-04-20T06:37:19Z</time>
      </trkpt>
      <trkpt lat="42.30734" lon="2.55046">
        <ele>982.689</ele>
        <time>2013-04-20T06:37:35Z</time>
      </trkpt>
      <trkpt lat="42.30741" lon="2.55053">
        <ele>984.106</ele>
        <time>2013-04-20T06:37:48Z</time>
      </trkpt>
      <trkpt lat="42.30743" lon="2.55055">
        <ele>986.926</ele>
        <time>2013-04-20T06:38:02Z</time>
      </trkpt>
      <trkpt lat="42.30748" lon="2.55056">
        <ele>989.307</ele>
        <time>2013-04-20T06:38:18Z</time>
      </trkpt>
      <trkpt lat="42.30753" lon="2.55052">
        <ele>992.212</ele>
        <time>2013-04-20T06:38:32Z</time>
      </trkpt>
      <trkpt lat="42.30752" lon="2.55047">
        <ele>993.231</ele>
        <time>2013-04-20T06:38:36Z</time>
      </trkpt>
      <trkpt lat="42.30752" lon="2.55041">
        <ele>994.115</ele>
        <time>2013-04-20T06:38:41Z</time>
      </trkpt>
      <trkpt lat="42.30749" lon="2.55031">
        <ele>995.162</ele>
        <time>2013-04-20T06:38:47Z</time>
      </trkpt>
      <trkpt lat="42.30747" lon="2.55021">
        <ele>995.113</ele>
        <time>2013-04-20T06:38:54Z</time>
      </trkpt>
      <trkpt lat="42.30745" lon="2.55017">
        <ele>995.156</ele>
        <time>2013-04-20T06:38:57Z</time>
      </trkpt>
      <trkpt lat="42.30746" lon="2.55009">
        <ele>995.659</ele>
        <time>2013-04-20T06:39:02Z</time>
      </trkpt>
      <trkpt lat="42.30743" lon="2.54995">
        <ele>996.587</ele>
        <time>2013-04-20T06:39:11Z</time>
      </trkpt>
      <trkpt lat="42.30743" lon="2.5499">
        <ele>997.542</ele>
        <time>2013-04-20T06:39:15Z</time>
      </trkpt>
      <trkpt lat="42.3074" lon="2.54976">
        <ele>998.526</ele>
        <time>2013-04-20T06:39:23Z</time>
      </trkpt>
      <trkpt lat="42.3074" lon="2.54955">
        <ele>999.407</ele>
        <time>2013-04-20T06:39:38Z</time>
      </trkpt>
      <trkpt lat="42.30744" lon="2.54945">
        <ele>997.092</ele>
        <time>2013-04-20T06:39:51Z</time>
      </trkpt>
      <trkpt lat="42.30746" lon="2.54936">
        <ele>999.011</ele>
        <time>2013-04-20T06:40:03Z</time>
      </trkpt>
      <trkpt lat="42.30751" lon="2.54937">
        <ele>1000.985</ele>
        <time>2013-04-20T06:40:19Z</time>
      </trkpt>
      <trkpt lat="42.30758" lon="2.5493">
        <ele>1001.832</ele>
        <time>2013-04-20T06:40:32Z</time>
      </trkpt>
      <trkpt lat="42.30768" lon="2.54921">
        <ele>1000.483</ele>
        <time>2013-04-20T06:40:46Z</time>
      </trkpt>
      <trkpt lat="42.30776" lon="2.54915">
        <ele>999.016</ele>
        <time>2013-04-20T06:40:58Z</time>
      </trkpt>
      <trkpt lat="42.30788" lon="2.54908">
        <ele>999.999</ele>
        <time>2013-04-20T06:41:11Z</time>
      </trkpt>
      <trkpt lat="42.30795" lon="2.54905">
        <ele>1002.324</ele>
        <time>2013-04-20T06:41:19Z</time>
      </trkpt>
      <trkpt lat="42.30801" lon="2.54901">
        <ele>1005.704</ele>
        <time>2013-04-20T06:41:26Z</time>
      </trkpt>
      <trkpt lat="42.30809" lon="2.54898">
        <ele>1008.614</ele>
        <time>2013-04-20T06:41:33Z</time>
      </trkpt>
      <trkpt lat="42.30811" lon="2.54899">
        <ele>1009.007</ele>
        <time>2013-04-20T06:41:35Z</time>
      </trkpt>
      <trkpt lat="42.30825" lon="2.54892">
        <ele>1011.016</ele>
        <time>2013-04-20T06:41:49Z</time>
      </trkpt>
      <trkpt lat="42.30831" lon="2.54891">
        <ele>1011.415</ele>
        <time>2013-04-20T06:41:54Z</time>
      </trkpt>
      <trkpt lat="42.30833" lon="2.54891">
        <ele>1011.969</ele>
        <time>2013-04-20T06:41:56Z</time>
      </trkpt>
      <trkpt lat="42.30841" lon="2.54885">
        <ele>1012.446</ele>
        <time>2013-04-20T06:42:03Z</time>
      </trkpt>
      <trkpt lat="42.30849" lon="2.54879">
        <ele>1012.477</ele>
        <time>2013-04-20T06:42:10Z</time>
      </trkpt>
      <trkpt lat="42.30863" lon="2.54875">
        <ele>1015.83</ele>
        <time>2013-04-20T06:42:24Z</time>
      </trkpt>
      <trkpt lat="42.30869" lon="2.54874">
        <ele>1019.113</ele>
        <time>2013-04-20T06:42:38Z</time>
      </trkpt>
      <trkpt lat="42.30878" lon="2.54876">
        <ele>1021.598</ele>
        <time>2013-04-20T06:42:51Z</time>
      </trkpt>
      <trkpt lat="42.30882" lon="2.54878">
        <ele>1021.515</ele>
        <time>2013-04-20T06:43:02Z</time>
      </trkpt>
      <trkpt lat="42.30883" lon="2.54877">
        <ele>1021.526</ele>
        <time>2013-04-20T06:43:13Z</time>
      </trkpt>
      <trkpt lat="42.30887" lon="2.54876">
        <ele>1021.107</ele>
        <time>2013-04-20T06:43:29Z</time>
      </trkpt>
      <trkpt lat="42.30893" lon="2.54879">
        <ele>1017.253</ele>
        <time>2013-04-20T06:43:40Z</time>
      </trkpt>
      <trkpt lat="42.30898" lon="2.54879">
        <ele>1013.482</ele>
        <time>2013-04-20T06:43:53Z</time>
      </trkpt>
      <trkpt lat="42.30903" lon="2.5488">
        <ele>1008.616</ele>
        <time>2013-04-20T06:44:08Z</time>
      </trkpt>
      <trkpt lat="42.30907" lon="2.54883">
        <ele>1004.743</ele>
        <time>2013-04-20T06:44:24Z</time>
      </trkpt>
      <trkpt lat="42.30914" lon="2.54886">
        <ele>1002.864</ele>
        <time>2013-04-20T06:44:36Z</time>
      </trkpt>
      <trkpt lat="42.30919" lon="2.54891">
        <ele>998.057</ele>
        <time>2013-04-20T06:44:51Z</time>
      </trkpt>
      <trkpt lat="42.3092" lon="2.5489">
        <ele>997.09</ele>
        <time>2013-04-20T06:44:54Z</time>
      </trkpt>
      <trkpt lat="42.3093" lon="2.54888">
        <ele>993.714</ele>
        <time>2013-04-20T06:45:05Z</time>
      </trkpt>
      <trkpt lat="42.30932" lon="2.54886">
        <ele>994.154</ele>
        <time>2013-04-20T06:45:07Z</time>
      </trkpt>
      <trkpt lat="42.30946" lon="2.54886">
        <ele>991.709</ele>
        <time>2013-04-20T06:45:19Z</time>
      </trkpt>
      <trkpt lat="42.30952" lon="2.54884">
        <ele>991.307</ele>
        <time>2013-04-20T06:45:31Z</time>
      </trkpt>
      <trkpt lat="42.30962" lon="2.54878">
        <ele>989.375</ele>
        <time>2013-04-20T06:45:43Z</time>
      </trkpt>
      <trkpt lat="42.30954" lon="2.54873">
        <ele>984.184</ele>
        <time>2013-04-20T06:45:55Z</time>
      </trkpt>
      <trkpt lat="42.30947" lon="2.54864">
        <ele>980.248</ele>
        <time>2013-04-20T06:46:07Z</time>
      </trkpt>
      <trkpt lat="42.30949" lon="2.54859">
        <ele>977.355</ele>
        <time>2013-04-20T06:46:15Z</time>
      </trkpt>
      <trkpt lat="42.30956" lon="2.54858">
        <ele>974.986</ele>
        <time>2013-04-20T06:46:23Z</time>
      </trkpt>
      <trkpt lat="42.30967" lon="2.54858">
        <ele>974.039</ele>
        <time>2013-04-20T06:46:33Z</time>
      </trkpt>
      <trkpt lat="42.30974" lon="2.54859">
        <ele>973.512</ele>
        <time>2013-04-20T06:46:43Z</time>
      </trkpt>
      <trkpt lat="42.30978" lon="2.54858">
        <ele>974.435</ele>
        <time>2013-04-20T06:46:48Z</time>
      </trkpt>
      <trkpt lat="42.30979" lon="2.54851">
        <ele>976.486</ele>
        <time>2013-04-20T06:46:58Z</time>
      </trkpt>
      <trkpt lat="42.30974" lon="2.54844">
        <ele>976.414</ele>
        <time>2013-04-20T06:47:09Z</time>
      </trkpt>
      <trkpt lat="42.30975" lon="2.54838">
        <ele>976.407</ele>
        <time>2013-04-20T06:47:14Z</time>
      </trkpt>
      <trkpt lat="42.3098" lon="2.54839">
        <ele>975.487</ele>
        <time>2013-04-20T06:47:19Z</time>
      </trkpt>
      <trkpt lat="42.30988" lon="2.54842">
        <ele>972.586</ele>
        <time>2013-04-20T06:47:27Z</time>
      </trkpt>
      <trkpt lat="42.30995" lon="2.54845">
        <ele>971.69</ele>
        <time>2013-04-20T06:47:33Z</time>
      </trkpt>
      <trkpt lat="42.31006" lon="2.54848">
        <ele>968.757</ele>
        <time>2013-04-20T06:47:47Z</time>
      </trkpt>
      <trkpt lat="42.31015" lon="2.5485">
        <ele>967.258</ele>
        <time>2013-04-20T06:47:56Z</time>
      </trkpt>
      <trkpt lat="42.31024" lon="2.54856">
        <ele>965.351</ele>
        <time>2013-04-20T06:48:07Z</time>
      </trkpt>
      <trkpt lat="42.31034" lon="2.54862">
        <ele>963.444</ele>
        <time>2013-04-20T06:48:18Z</time>
      </trkpt>
      <trkpt lat="42.31046" lon="2.54869">
        <ele>960.565</ele>
        <time>2013-04-20T06:48:31Z</time>
      </trkpt>
      <trkpt lat="42.31048" lon="2.54869">
        <ele>960.068</ele>
        <time>2013-04-20T06:48:35Z</time>
      </trkpt>
      <trkpt lat="42.3106" lon="2.54868">
        <ele>959.514</ele>
        <time>2013-04-20T06:48:46Z</time>
      </trkpt>
      <trkpt lat="42.31063" lon="2.54866">
        <ele>959.107</ele>
        <time>2013-04-20T06:48:49Z</time>
      </trkpt>
      <trkpt lat="42.31075" lon="2.54865">
        <ele>960.03</ele>
        <time>2013-04-20T06:49:02Z</time>
      </trkpt>
      <trkpt lat="42.31084" lon="2.54864">
        <ele>959.519</ele>
        <time>2013-04-20T06:49:13Z</time>
      </trkpt>
      <trkpt lat="42.31092" lon="2.54863">
        <ele>958.673</ele>
        <time>2013-04-20T06:49:24Z</time>
      </trkpt>
      <trkpt lat="42.31101" lon="2.54853">
        <ele>955.75</ele>
        <time>2013-04-20T06:49:35Z</time>
      </trkpt>
      <trkpt lat="42.31111" lon="2.54835">
        <ele>953.811</ele>
        <time>2013-04-20T06:49:48Z</time>
      </trkpt>
      <trkpt lat="42.31111" lon="2.54834">
        <ele>953.374</ele>
        <time>2013-04-20T06:49:49Z</time>
      </trkpt>
      <trkpt lat="42.31114" lon="2.54827">
        <ele>952.837</ele>
        <time>2013-04-20T06:49:53Z</time>
      </trkpt>
      <trkpt lat="42.31118" lon="2.54821">
        <ele>952.885</ele>
        <time>2013-04-20T06:49:57Z</time>
      </trkpt>
      <trkpt lat="42.31126" lon="2.54812">
        <ele>951.889</ele>
        <time>2013-04-20T06:50:08Z</time>
      </trkpt>
      <trkpt lat="42.31127" lon="2.54811">
        <ele>951.817</ele>
        <time>2013-04-20T06:50:09Z</time>
      </trkpt>
      <trkpt lat="42.3114" lon="2.54796">
        <ele>947.007</ele>
        <time>2013-04-20T06:50:21Z</time>
      </trkpt>
      <trkpt lat="42.3115" lon="2.54795">
        <ele>944.272</ele>
        <time>2013-04-20T06:50:27Z</time>
      </trkpt>
      <trkpt lat="42.31154" lon="2.54794">
        <ele>942.711</ele>
        <time>2013-04-20T06:50:30Z</time>
      </trkpt>
      <trkpt lat="42.31158" lon="2.54792">
        <ele>941.355</ele>
        <time>2013-04-20T06:50:34Z</time>
      </trkpt>
      <trkpt lat="42.31164" lon="2.54791">
        <ele>939.462</ele>
        <time>2013-04-20T06:50:38Z</time>
      </trkpt>
      <trkpt lat="42.31177" lon="2.54788">
        <ele>934.523</ele>
        <time>2013-04-20T06:50:49Z</time>
      </trkpt>
      <trkpt lat="42.31192" lon="2.54788">
        <ele>931.786</ele>
        <time>2013-04-20T06:51:02Z</time>
      </trkpt>
      <trkpt lat="42.312" lon="2.5479">
        <ele>930.749</ele>
        <time>2013-04-20T06:51:09Z</time>
      </trkpt>
      <trkpt lat="42.31213" lon="2.54798">
        <ele>932.661</ele>
        <time>2013-04-20T06:51:23Z</time>
      </trkpt>
      <trkpt lat="42.31225" lon="2.548">
        <ele>937.921</ele>
        <time>2013-04-20T06:51:36Z</time>
      </trkpt>
      <trkpt lat="42.31238" lon="2.54797">
        <ele>942.713</ele>
        <time>2013-04-20T06:51:47Z</time>
      </trkpt>
      <trkpt lat="42.31239" lon="2.54797">
        <ele>942.707</ele>
        <time>2013-04-20T06:51:48Z</time>
      </trkpt>
      <trkpt lat="42.31249" lon="2.548">
        <ele>944.28</ele>
        <time>2013-04-20T06:51:55Z</time>
      </trkpt>
      <trkpt lat="42.3126" lon="2.54807">
        <ele>946.669</ele>
        <time>2013-04-20T06:52:04Z</time>
      </trkpt>
      <trkpt lat="42.31263" lon="2.54807">
        <ele>947.063</ele>
        <time>2013-04-20T06:52:06Z</time>
      </trkpt>
      <trkpt lat="42.31273" lon="2.5481">
        <ele>946.67</ele>
        <time>2013-04-20T06:52:13Z</time>
      </trkpt>
      <trkpt lat="42.31289" lon="2.54819">
        <ele>944.211</ele>
        <time>2013-04-20T06:52:26Z</time>
      </trkpt>
      <trkpt lat="42.31304" lon="2.54831">
        <ele>943.224</ele>
        <time>2013-04-20T06:52:39Z</time>
      </trkpt>
      <trkpt lat="42.31316" lon="2.54844">
        <ele>942.287</ele>
        <time>2013-04-20T06:52:50Z</time>
      </trkpt>
      <trkpt lat="42.3132" lon="2.54848">
        <ele>943.267</ele>
        <time>2013-04-20T06:52:54Z</time>
      </trkpt>
      <trkpt lat="42.31339" lon="2.54857">
        <ele>945.681</ele>
        <time>2013-04-20T06:53:09Z</time>
      </trkpt>
      <trkpt lat="42.3135" lon="2.54867">
        <ele>943.719</ele>
        <time>2013-04-20T06:53:20Z</time>
      </trkpt>
      <trkpt lat="42.31364" lon="2.54884">
        <ele>939.407</ele>
        <time>2013-04-20T06:53:32Z</time>
      </trkpt>
      <trkpt lat="42.31374" lon="2.54892">
        <ele>935.05</ele>
        <time>2013-04-20T06:53:40Z</time>
      </trkpt>
      <trkpt lat="42.31384" lon="2.54912">
        <ele>929.729</ele>
        <time>2013-04-20T06:53:52Z</time>
      </trkpt>
      <trkpt lat="42.31388" lon="2.54916">
        <ele>929.373</ele>
        <time>2013-04-20T06:53:55Z</time>
      </trkpt>
      <trkpt lat="42.31397" lon="2.54932">
        <ele>924.58</ele>
        <time>2013-04-20T06:54:07Z</time>
      </trkpt>
      <trkpt lat="42.31395" lon="2.54939">
        <ele>920.621</ele>
        <time>2013-04-20T06:54:12Z</time>
      </trkpt>
      <trkpt lat="42.31397" lon="2.54944">
        <ele>918.714</ele>
        <time>2013-04-20T06:54:15Z</time>
      </trkpt>
      <trkpt lat="42.31403" lon="2.54952">
        <ele>917.257</ele>
        <time>2013-04-20T06:54:22Z</time>
      </trkpt>
      <trkpt lat="42.31406" lon="2.5497">
        <ele>917.778</ele>
        <time>2013-04-20T06:54:31Z</time>
      </trkpt>
      <trkpt lat="42.31409" lon="2.54973">
        <ele>918.733</ele>
        <time>2013-04-20T06:54:36Z</time>
      </trkpt>
      <trkpt lat="42.31425" lon="2.54971">
        <ele>920.626</ele>
        <time>2013-04-20T06:54:50Z</time>
      </trkpt>
      <trkpt lat="42.31443" lon="2.54969">
        <ele>920.607</ele>
        <time>2013-04-20T06:55:04Z</time>
      </trkpt>
      <trkpt lat="42.31444" lon="2.5497">
        <ele>920.621</ele>
        <time>2013-04-20T06:55:05Z</time>
      </trkpt>
      <trkpt lat="42.31459" lon="2.54979">
        <ele>921.17</ele>
        <time>2013-04-20T06:55:16Z</time>
      </trkpt>
      <trkpt lat="42.31476" lon="2.54989">
        <ele>919.284</ele>
        <time>2013-04-20T06:55:29Z</time>
      </trkpt>
      <trkpt lat="42.31478" lon="2.5499">
        <ele>918.791</ele>
        <time>2013-04-20T06:55:30Z</time>
      </trkpt>
      <trkpt lat="42.31481" lon="2.54991">
        <ele>918.232</ele>
        <time>2013-04-20T06:55:33Z</time>
      </trkpt>
      <trkpt lat="42.31496" lon="2.55001">
        <ele>918.785</ele>
        <time>2013-04-20T06:55:44Z</time>
      </trkpt>
      <trkpt lat="42.31512" lon="2.5501">
        <ele>917.238</ele>
        <time>2013-04-20T06:55:57Z</time>
      </trkpt>
      <trkpt lat="42.31522" lon="2.55013">
        <ele>916.899</ele>
        <time>2013-04-20T06:56:07Z</time>
      </trkpt>
      <trkpt lat="42.31532" lon="2.55022">
        <ele>916.807</ele>
        <time>2013-04-20T06:56:19Z</time>
      </trkpt>
      <trkpt lat="42.31534" lon="2.55022">
        <ele>917.227</ele>
        <time>2013-04-20T06:56:20Z</time>
      </trkpt>
      <trkpt lat="42.31549" lon="2.55035">
        <ele>916.307</ele>
        <time>2013-04-20T06:56:32Z</time>
      </trkpt>
      <trkpt lat="42.31553" lon="2.55038">
        <ele>916.353</ele>
        <time>2013-04-20T06:56:36Z</time>
      </trkpt>
      <trkpt lat="42.31569" lon="2.55043">
        <ele>917.262</ele>
        <time>2013-04-20T06:56:50Z</time>
      </trkpt>
      <trkpt lat="42.31573" lon="2.55043">
        <ele>917.796</ele>
        <time>2013-04-20T06:57:02Z</time>
      </trkpt>
      <trkpt lat="42.31571" lon="2.55048">
        <ele>918.793</ele>
        <time>2013-04-20T06:57:18Z</time>
      </trkpt>
      <trkpt lat="42.31572" lon="2.55048">
        <ele>918.774</ele>
        <time>2013-04-20T06:57:30Z</time>
      </trkpt>
      <trkpt lat="42.31565" lon="2.55051">
        <ele>918.267</ele>
        <time>2013-04-20T06:57:45Z</time>
      </trkpt>
      <trkpt lat="42.31568" lon="2.55049">
        <ele>916.86</ele>
        <time>2013-04-20T06:58:04Z</time>
      </trkpt>
      <trkpt lat="42.31566" lon="2.55043">
        <ele>916.394</ele>
        <time>2013-04-20T06:58:17Z</time>
      </trkpt>
      <trkpt lat="42.31566" lon="2.55041">
        <ele>915.857</ele>
        <time>2013-04-20T06:58:19Z</time>
      </trkpt>
      <trkpt lat="42.31563" lon="2.55039">
        <ele>915.322</ele>
        <time>2013-04-20T06:58:22Z</time>
      </trkpt>
      <trkpt lat="42.31557" lon="2.55025">
        <ele>910.007</ele>
        <time>2013-04-20T06:58:34Z</time>
      </trkpt>
      <trkpt lat="42.31556" lon="2.55022">
        <ele>908.683</ele>
        <time>2013-04-20T06:58:39Z</time>
      </trkpt>
      <trkpt lat="42.31553" lon="2.55018">
        <ele>908.622</ele>
        <time>2013-04-20T06:58:42Z</time>
      </trkpt>
      <trkpt lat="42.3155" lon="2.55006">
        <ele>908.626</ele>
        <time>2013-04-20T06:58:49Z</time>
      </trkpt>
      <trkpt lat="42.31546" lon="2.54994">
        <ele>907.183</ele>
        <time>2013-04-20T06:58:55Z</time>
      </trkpt>
      <trkpt lat="42.31541" lon="2.54984">
        <ele>907.144</ele>
        <time>2013-04-20T06:59:00Z</time>
      </trkpt>
      <trkpt lat="42.3153" lon="2.54962">
        <ele>907.687</ele>
        <time>2013-04-20T06:59:09Z</time>
      </trkpt>
      <trkpt lat="42.3152" lon="2.54942">
        <ele>902.86</ele>
        <time>2013-04-20T06:59:19Z</time>
      </trkpt>
      <trkpt lat="42.31516" lon="2.54927">
        <ele>900.471</ele>
        <time>2013-04-20T06:59:25Z</time>
      </trkpt>
      <trkpt lat="42.31512" lon="2.54919">
        <ele>898.041</ele>
        <time>2013-04-20T06:59:30Z</time>
      </trkpt>
      <trkpt lat="42.31505" lon="2.54897">
        <ele>899.515</ele>
        <time>2013-04-20T06:59:42Z</time>
      </trkpt>
      <trkpt lat="42.315" lon="2.54882">
        <ele>899.007</ele>
        <time>2013-04-20T06:59:48Z</time>
      </trkpt>
      <trkpt lat="42.31498" lon="2.54874">
        <ele>899.071</ele>
        <time>2013-04-20T06:59:52Z</time>
      </trkpt>
      <trkpt lat="42.31497" lon="2.54869">
        <ele>898.08</ele>
        <time>2013-04-20T06:59:56Z</time>
      </trkpt>
      <trkpt lat="42.31485" lon="2.54847">
        <ele>897.114</ele>
        <time>2013-04-20T07:00:07Z</time>
      </trkpt>
      <trkpt lat="42.31485" lon="2.54844">
        <ele>896.671</ele>
        <time>2013-04-20T07:00:08Z</time>
      </trkpt>
      <trkpt lat="42.31469" lon="2.54824">
        <ele>896.122</ele>
        <time>2013-04-20T07:00:18Z</time>
      </trkpt>
      <trkpt lat="42.31467" lon="2.54818">
        <ele>896.175</ele>
        <time>2013-04-20T07:00:21Z</time>
      </trkpt>
      <trkpt lat="42.31465" lon="2.54811">
        <ele>895.628</ele>
        <time>2013-04-20T07:00:25Z</time>
      </trkpt>
      <trkpt lat="42.31456" lon="2.54782">
        <ele>896.142</ele>
        <time>2013-04-20T07:00:38Z</time>
      </trkpt>
      <trkpt lat="42.31452" lon="2.54768">
        <ele>897.122</ele>
        <time>2013-04-20T07:00:45Z</time>
      </trkpt>
      <trkpt lat="42.31448" lon="2.54755">
        <ele>898.514</ele>
        <time>2013-04-20T07:00:53Z</time>
      </trkpt>
      <trkpt lat="42.31441" lon="2.5473">
        <ele>898.507</ele>
        <time>2013-04-20T07:01:06Z</time>
      </trkpt>
      <trkpt lat="42.31443" lon="2.54723">
        <ele>897.568</ele>
        <time>2013-04-20T07:01:11Z</time>
      </trkpt>
      <trkpt lat="42.31446" lon="2.54716">
        <ele>896.657</ele>
        <time>2013-04-20T07:01:18Z</time>
      </trkpt>
      <trkpt lat="42.31446" lon="2.54684">
        <ele>897.131</ele>
        <time>2013-04-20T07:01:35Z</time>
      </trkpt>
      <trkpt lat="42.3144" lon="2.5466">
        <ele>896.648</ele>
        <time>2013-04-20T07:01:49Z</time>
      </trkpt>
      <trkpt lat="42.31435" lon="2.54655">
        <ele>895.699</ele>
        <time>2013-04-20T07:01:56Z</time>
      </trkpt>
      <trkpt lat="42.31427" lon="2.54646">
        <ele>896.632</ele>
        <time>2013-04-20T07:02:02Z</time>
      </trkpt>
      <trkpt lat="42.31419" lon="2.54643">
        <ele>898.095</ele>
        <time>2013-04-20T07:02:06Z</time>
      </trkpt>
      <trkpt lat="42.31415" lon="2.54637">
        <ele>898.047</ele>
        <time>2013-04-20T07:02:09Z</time>
      </trkpt>
      <trkpt lat="42.3141" lon="2.54629">
        <ele>899.929</ele>
        <time>2013-04-20T07:02:13Z</time>
      </trkpt>
      <trkpt lat="42.31403" lon="2.54604">
        <ele>903.321</ele>
        <time>2013-04-20T07:02:25Z</time>
      </trkpt>
      <trkpt lat="42.31403" lon="2.54583">
        <ele>902.307</ele>
        <time>2013-04-20T07:02:33Z</time>
      </trkpt>
      <trkpt lat="42.31404" lon="2.54557">
        <ele>899.538</ele>
        <time>2013-04-20T07:02:44Z</time>
      </trkpt>
      <trkpt lat="42.31404" lon="2.54552">
        <ele>899.917</ele>
        <time>2013-04-20T07:02:46Z</time>
      </trkpt>
      <trkpt lat="42.31398" lon="2.54532">
        <ele>900.451</ele>
        <time>2013-04-20T07:02:57Z</time>
      </trkpt>
      <trkpt lat="42.31395" lon="2.54525">
        <ele>900.498</ele>
        <time>2013-04-20T07:03:01Z</time>
      </trkpt>
      <trkpt lat="42.31385" lon="2.54498">
        <ele>904.369</ele>
        <time>2013-04-20T07:03:16Z</time>
      </trkpt>
      <trkpt lat="42.31385" lon="2.54496">
        <ele>904.332</ele>
        <time>2013-04-20T07:03:17Z</time>
      </trkpt>
      <trkpt lat="42.31391" lon="2.54487">
        <ele>903.385</ele>
        <time>2013-04-20T07:03:24Z</time>
      </trkpt>
      <trkpt lat="42.31398" lon="2.54474">
        <ele>899.579</ele>
        <time>2013-04-20T07:03:34Z</time>
      </trkpt>
      <trkpt lat="42.314" lon="2.54473">
        <ele>898.005</ele>
        <time>2013-04-20T07:03:36Z</time>
      </trkpt>
      <trkpt lat="42.31405" lon="2.54465">
        <ele>893.225</ele>
        <time>2013-04-20T07:03:43Z</time>
      </trkpt>
      <trkpt lat="42.3141" lon="2.54457">
        <ele>892.207</ele>
        <time>2013-04-20T07:03:49Z</time>
      </trkpt>
      <trkpt lat="42.31418" lon="2.54445">
        <ele>888.471</ele>
        <time>2013-04-20T07:04:00Z</time>
      </trkpt>
      <trkpt lat="42.31421" lon="2.54436">
        <ele>886.01</ele>
        <time>2013-04-20T07:04:04Z</time>
      </trkpt>
      <trkpt lat="42.31429" lon="2.54421">
        <ele>884.134</ele>
        <time>2013-04-20T07:04:14Z</time>
      </trkpt>
      <trkpt lat="42.31431" lon="2.54408">
        <ele>884.131</ele>
        <time>2013-04-20T07:04:22Z</time>
      </trkpt>
      <trkpt lat="42.31432" lon="2.54397">
        <ele>883.122</ele>
        <time>2013-04-20T07:04:28Z</time>
      </trkpt>
      <trkpt lat="42.3143" lon="2.54361">
        <ele>892.215</ele>
        <time>2013-04-20T07:04:42Z</time>
      </trkpt>
      <trkpt lat="42.31429" lon="2.54359">
        <ele>893.748</ele>
        <time>2013-04-20T07:04:44Z</time>
      </trkpt>
      <trkpt lat="42.31417" lon="2.54345">
        <ele>892.248</ele>
        <time>2013-04-20T07:04:53Z</time>
      </trkpt>
      <trkpt lat="42.31399" lon="2.54334">
        <ele>889.861</ele>
        <time>2013-04-20T07:05:05Z</time>
      </trkpt>
      <trkpt lat="42.31382" lon="2.54326">
        <ele>890.317</ele>
        <time>2013-04-20T07:05:17Z</time>
      </trkpt>
      <trkpt lat="42.31373" lon="2.5432">
        <ele>891.807</ele>
        <time>2013-04-20T07:05:24Z</time>
      </trkpt>
      <trkpt lat="42.31357" lon="2.54308">
        <ele>895.638</ele>
        <time>2013-04-20T07:05:37Z</time>
      </trkpt>
      <trkpt lat="42.31349" lon="2.54295">
        <ele>896.657</ele>
        <time>2013-04-20T07:05:45Z</time>
      </trkpt>
      <trkpt lat="42.31344" lon="2.54271">
        <ele>898.551</ele>
        <time>2013-04-20T07:05:59Z</time>
      </trkpt>
      <trkpt lat="42.31341" lon="2.54255">
        <ele>898.058</ele>
        <time>2013-04-20T07:06:06Z</time>
      </trkpt>
      <trkpt lat="42.31336" lon="2.5424">
        <ele>897.169</ele>
        <time>2013-04-20T07:06:13Z</time>
      </trkpt>
      <trkpt lat="42.31329" lon="2.54225">
        <ele>894.662</ele>
        <time>2013-04-20T07:06:20Z</time>
      </trkpt>
      <trkpt lat="42.31328" lon="2.54221">
        <ele>893.775</ele>
        <time>2013-04-20T07:06:22Z</time>
      </trkpt>
      <trkpt lat="42.31322" lon="2.5421">
        <ele>891.822</ele>
        <time>2013-04-20T07:06:31Z</time>
      </trkpt>
      <trkpt lat="42.31315" lon="2.54203">
        <ele>892.762</ele>
        <time>2013-04-20T07:06:36Z</time>
      </trkpt>
      <trkpt lat="42.31302" lon="2.54171">
        <ele>893.208</ele>
        <time>2013-04-20T07:06:48Z</time>
      </trkpt>
      <trkpt lat="42.31294" lon="2.54154">
        <ele>892.207</ele>
        <time>2013-04-20T07:06:55Z</time>
      </trkpt>
      <trkpt lat="42.31279" lon="2.54127">
        <ele>892.256</ele>
        <time>2013-04-20T07:07:08Z</time>
      </trkpt>
      <trkpt lat="42.31273" lon="2.54107">
        <ele>892.255</ele>
        <time>2013-04-20T07:07:16Z</time>
      </trkpt>
      <trkpt lat="42.31271" lon="2.54094">
        <ele>890.349</ele>
        <time>2013-04-20T07:07:22Z</time>
      </trkpt>
      <trkpt lat="42.31274" lon="2.5407">
        <ele>888.436</ele>
        <time>2013-04-20T07:07:31Z</time>
      </trkpt>
      <trkpt lat="42.3128" lon="2.54058">
        <ele>886.587</ele>
        <time>2013-04-20T07:07:37Z</time>
      </trkpt>
      <trkpt lat="42.31281" lon="2.54053">
        <ele>886.07</ele>
        <time>2013-04-20T07:07:39Z</time>
      </trkpt>
      <trkpt lat="42.31287" lon="2.54026">
        <ele>885.563</ele>
        <time>2013-04-20T07:07:50Z</time>
      </trkpt>
      <trkpt lat="42.31291" lon="2.54011">
        <ele>887.443</ele>
        <time>2013-04-20T07:08:05Z</time>
      </trkpt>
      <trkpt lat="42.31292" lon="2.54007">
        <ele>890.864</ele>
        <time>2013-04-20T07:08:20Z</time>
      </trkpt>
      <trkpt lat="42.31293" lon="2.54009">
        <ele>891.31</ele>
        <time>2013-04-20T07:08:34Z</time>
      </trkpt>
      <trkpt lat="42.31291" lon="2.54008">
        <ele>891.807</ele>
        <time>2013-04-20T07:08:51Z</time>
      </trkpt>
      <trkpt lat="42.31291" lon="2.54007">
        <ele>894.218</ele>
        <time>2013-04-20T07:09:04Z</time>
      </trkpt>
      <trkpt lat="42.31289" lon="2.54008">
        <ele>893.767</ele>
        <time>2013-04-20T07:09:33Z</time>
      </trkpt>
      <trkpt lat="42.3129" lon="2.54007">
        <ele>894.691</ele>
        <time>2013-04-20T07:09:54Z</time>
      </trkpt>
      <trkpt lat="42.3129" lon="2.54007">
        <ele>894.288</ele>
        <time>2013-04-20T07:10:19Z</time>
      </trkpt>
      <trkpt lat="42.3129" lon="2.54007">
        <ele>894.259</ele>
        <time>2013-04-20T07:10:33Z</time>
      </trkpt>
      <trkpt lat="42.3129" lon="2.54006">
        <ele>892.752</ele>
        <time>2013-04-20T07:10:51Z</time>
      </trkpt>
      <trkpt lat="42.31291" lon="2.54005">
        <ele>892.755</ele>
        <time>2013-04-20T07:11:05Z</time>
      </trkpt>
      <trkpt lat="42.31292" lon="2.53997">
        <ele>893.265</ele>
        <time>2013-04-20T07:11:33Z</time>
      </trkpt>
      <trkpt lat="42.31289" lon="2.53974">
        <ele>892.268</ele>
        <time>2013-04-20T07:11:46Z</time>
      </trkpt>
      <trkpt lat="42.31288" lon="2.53972">
        <ele>892.714</ele>
        <time>2013-04-20T07:11:48Z</time>
      </trkpt>
      <trkpt lat="42.31286" lon="2.53966">
        <ele>893.207</ele>
        <time>2013-04-20T07:11:52Z</time>
      </trkpt>
      <trkpt lat="42.31286" lon="2.5396">
        <ele>893.27</ele>
        <time>2013-04-20T07:12:00Z</time>
      </trkpt>
      <trkpt lat="42.31291" lon="2.53953">
        <ele>894.629</ele>
        <time>2013-04-20T07:12:17Z</time>
      </trkpt>
      <trkpt lat="42.31296" lon="2.53948">
        <ele>894.673</ele>
        <time>2013-04-20T07:12:30Z</time>
      </trkpt>
      <trkpt lat="42.31297" lon="2.53949">
        <ele>893.25</ele>
        <time>2013-04-20T07:12:41Z</time>
      </trkpt>
      <trkpt lat="42.31298" lon="2.53951">
        <ele>893.221</ele>
        <time>2013-04-20T07:12:53Z</time>
      </trkpt>
      <trkpt lat="42.31296" lon="2.53951">
        <ele>891.884</ele>
        <time>2013-04-20T07:13:11Z</time>
      </trkpt>
      <trkpt lat="42.31297" lon="2.53949">
        <ele>893.297</ele>
        <time>2013-04-20T07:13:28Z</time>
      </trkpt>
      <trkpt lat="42.31299" lon="2.53949">
        <ele>894.284</ele>
        <time>2013-04-20T07:13:52Z</time>
      </trkpt>
      <trkpt lat="42.313" lon="2.53949">
        <ele>892.207</ele>
        <time>2013-04-20T07:14:21Z</time>
      </trkpt>
      <trkpt lat="42.31302" lon="2.5395">
        <ele>893.217</ele>
        <time>2013-04-20T07:14:51Z</time>
      </trkpt>
      <trkpt lat="42.313" lon="2.53951">
        <ele>892.707</ele>
        <time>2013-04-20T07:15:19Z</time>
      </trkpt>
      <trkpt lat="42.313" lon="2.53949">
        <ele>890.842</ele>
        <time>2013-04-20T07:15:50Z</time>
      </trkpt>
      <trkpt lat="42.31303" lon="2.5395">
        <ele>891.831</ele>
        <time>2013-04-20T07:16:18Z</time>
      </trkpt>
      <trkpt lat="42.31299" lon="2.5395">
        <ele>892.725</ele>
        <time>2013-04-20T07:16:42Z</time>
      </trkpt>
      <trkpt lat="42.31298" lon="2.5395">
        <ele>893.252</ele>
        <time>2013-04-20T07:17:11Z</time>
      </trkpt>
      <trkpt lat="42.31294" lon="2.53949">
        <ele>894.683</ele>
        <time>2013-04-20T07:17:29Z</time>
      </trkpt>
      <trkpt lat="42.31295" lon="2.53951">
        <ele>895.156</ele>
        <time>2013-04-20T07:17:35Z</time>
      </trkpt>
      <trkpt lat="42.31294" lon="2.53952">
        <ele>894.619</ele>
        <time>2013-04-20T07:17:49Z</time>
      </trkpt>
      <trkpt lat="42.31295" lon="2.53949">
        <ele>893.217</ele>
        <time>2013-04-20T07:18:03Z</time>
      </trkpt>
      <trkpt lat="42.31297" lon="2.5395">
        <ele>892.787</ele>
        <time>2013-04-20T07:18:17Z</time>
      </trkpt>
      <trkpt lat="42.31295" lon="2.53951">
        <ele>893.715</ele>
        <time>2013-04-20T07:18:34Z</time>
      </trkpt>
      <trkpt lat="42.31292" lon="2.53955">
        <ele>891.807</ele>
        <time>2013-04-20T07:18:45Z</time>
      </trkpt>
      <trkpt lat="42.3129" lon="2.53955">
        <ele>892.275</ele>
        <time>2013-04-20T07:18:57Z</time>
      </trkpt>
      <trkpt lat="42.3129" lon="2.53958">
        <ele>893.294</ele>
        <time>2013-04-20T07:19:16Z</time>
      </trkpt>
      <trkpt lat="42.31292" lon="2.53964">
        <ele>891.878</ele>
        <time>2013-04-20T07:19:29Z</time>
      </trkpt>
      <trkpt lat="42.31301" lon="2.53976">
        <ele>892.265</ele>
        <time>2013-04-20T07:19:43Z</time>
      </trkpt>
      <trkpt lat="42.31302" lon="2.53977">
        <ele>892.246</ele>
        <time>2013-04-20T07:19:44Z</time>
      </trkpt>
      <trkpt lat="42.31313" lon="2.53993">
        <ele>893.289</ele>
        <time>2013-04-20T07:19:58Z</time>
      </trkpt>
      <trkpt lat="42.31325" lon="2.54002">
        <ele>892.242</ele>
        <time>2013-04-20T07:20:09Z</time>
      </trkpt>
      <trkpt lat="42.31333" lon="2.54009">
        <ele>891.364</ele>
        <time>2013-04-20T07:20:17Z</time>
      </trkpt>
      <trkpt lat="42.31354" lon="2.5402">
        <ele>892.206</ele>
        <time>2013-04-20T07:20:31Z</time>
      </trkpt>
      <trkpt lat="42.31357" lon="2.54021">
        <ele>892.216</ele>
        <time>2013-04-20T07:20:33Z</time>
      </trkpt>
      <trkpt lat="42.31372" lon="2.54019">
        <ele>893.207</ele>
        <time>2013-04-20T07:20:42Z</time>
      </trkpt>
      <trkpt lat="42.31378" lon="2.54016">
        <ele>893.72</ele>
        <time>2013-04-20T07:20:47Z</time>
      </trkpt>
      <trkpt lat="42.31391" lon="2.54011">
        <ele>893.719</ele>
        <time>2013-04-20T07:20:57Z</time>
      </trkpt>
      <trkpt lat="42.31398" lon="2.54006">
        <ele>893.733</ele>
        <time>2013-04-20T07:21:03Z</time>
      </trkpt>
      <trkpt lat="42.31407" lon="2.54001">
        <ele>895.11</ele>
        <time>2013-04-20T07:21:09Z</time>
      </trkpt>
      <trkpt lat="42.31422" lon="2.53996">
        <ele>895.141</ele>
        <time>2013-04-20T07:21:20Z</time>
      </trkpt>
      <trkpt lat="42.31425" lon="2.53996">
        <ele>895.634</ele>
        <time>2013-04-20T07:21:22Z</time>
      </trkpt>
      <trkpt lat="42.31442" lon="2.54005">
        <ele>896.177</ele>
        <time>2013-04-20T07:21:34Z</time>
      </trkpt>
      <trkpt lat="42.31451" lon="2.5401">
        <ele>896.621</ele>
        <time>2013-04-20T07:21:40Z</time>
      </trkpt>
      <trkpt lat="42.31462" lon="2.5401">
        <ele>897.141</ele>
        <time>2013-04-20T07:21:47Z</time>
      </trkpt>
      <trkpt lat="42.31468" lon="2.54012">
        <ele>896.605</ele>
        <time>2013-04-20T07:21:50Z</time>
      </trkpt>
      <trkpt lat="42.31486" lon="2.54013">
        <ele>896.107</ele>
        <time>2013-04-20T07:22:02Z</time>
      </trkpt>
      <trkpt lat="42.31487" lon="2.54012">
        <ele>896.146</ele>
        <time>2013-04-20T07:22:03Z</time>
      </trkpt>
      <trkpt lat="42.31502" lon="2.54013">
        <ele>896.185</ele>
        <time>2013-04-20T07:22:13Z</time>
      </trkpt>
      <trkpt lat="42.31516" lon="2.54013">
        <ele>895.139</ele>
        <time>2013-04-20T07:22:24Z</time>
      </trkpt>
      <trkpt lat="42.31518" lon="2.54013">
        <ele>896.196</ele>
        <time>2013-04-20T07:22:26Z</time>
      </trkpt>
      <trkpt lat="42.31525" lon="2.5401">
        <ele>897.557</ele>
        <time>2013-04-20T07:22:31Z</time>
      </trkpt>
      <trkpt lat="42.31528" lon="2.54009">
        <ele>898.53</ele>
        <time>2013-04-20T07:22:33Z</time>
      </trkpt>
      <trkpt lat="42.31531" lon="2.54007">
        <ele>899.573</ele>
        <time>2013-04-20T07:22:36Z</time>
      </trkpt>
      <trkpt lat="42.31544" lon="2.54004">
        <ele>901.968</ele>
        <time>2013-04-20T07:22:46Z</time>
      </trkpt>
      <trkpt lat="42.31554" lon="2.53994">
        <ele>901.442</ele>
        <time>2013-04-20T07:22:56Z</time>
      </trkpt>
      <trkpt lat="42.31562" lon="2.53988">
        <ele>901.926</ele>
        <time>2013-04-20T07:23:03Z</time>
      </trkpt>
      <trkpt lat="42.31574" lon="2.54003">
        <ele>899.007</ele>
        <time>2013-04-20T07:23:16Z</time>
      </trkpt>
      <trkpt lat="42.31584" lon="2.54022">
        <ele>896.17</ele>
        <time>2013-04-20T07:23:27Z</time>
      </trkpt>
      <trkpt lat="42.31585" lon="2.54024">
        <ele>895.699</ele>
        <time>2013-04-20T07:23:28Z</time>
      </trkpt>
      <trkpt lat="42.316" lon="2.54042">
        <ele>895.643</ele>
        <time>2013-04-20T07:23:40Z</time>
      </trkpt>
      <trkpt lat="42.31605" lon="2.54046">
        <ele>895.14</ele>
        <time>2013-04-20T07:23:44Z</time>
      </trkpt>
      <trkpt lat="42.31617" lon="2.54059">
        <ele>892.751</ele>
        <time>2013-04-20T07:23:54Z</time>
      </trkpt>
      <trkpt lat="42.31622" lon="2.54066">
        <ele>891.314</ele>
        <time>2013-04-20T07:24:00Z</time>
      </trkpt>
      <trkpt lat="42.3163" lon="2.54079">
        <ele>887.437</ele>
        <time>2013-04-20T07:24:11Z</time>
      </trkpt>
      <trkpt lat="42.31633" lon="2.5408">
        <ele>887.464</ele>
        <time>2013-04-20T07:24:13Z</time>
      </trkpt>
      <trkpt lat="42.31639" lon="2.54081">
        <ele>886.006</ele>
        <time>2013-04-20T07:24:17Z</time>
      </trkpt>
      <trkpt lat="42.31647" lon="2.54084">
        <ele>881.716</ele>
        <time>2013-04-20T07:24:27Z</time>
      </trkpt>
      <trkpt lat="42.31652" lon="2.54088">
        <ele>880.207</ele>
        <time>2013-04-20T07:24:37Z</time>
      </trkpt>
      <trkpt lat="42.31661" lon="2.5409">
        <ele>880.23</ele>
        <time>2013-04-20T07:24:42Z</time>
      </trkpt>
      <trkpt lat="42.31678" lon="2.54096">
        <ele>880.749</ele>
        <time>2013-04-20T07:24:54Z</time>
      </trkpt>
      <trkpt lat="42.31698" lon="2.54106">
        <ele>881.733</ele>
        <time>2013-04-20T07:25:09Z</time>
      </trkpt>
      <trkpt lat="42.31708" lon="2.54111">
        <ele>882.68</ele>
        <time>2013-04-20T07:25:16Z</time>
      </trkpt>
      <trkpt lat="42.31712" lon="2.54115">
        <ele>880.781</ele>
        <time>2013-04-20T07:25:20Z</time>
      </trkpt>
      <trkpt lat="42.31714" lon="2.54115">
        <ele>880.764</ele>
        <time>2013-04-20T07:25:21Z</time>
      </trkpt>
      <trkpt lat="42.31727" lon="2.5412">
        <ele>880.787</ele>
        <time>2013-04-20T07:25:28Z</time>
      </trkpt>
      <trkpt lat="42.31739" lon="2.54125">
        <ele>884.633</ele>
        <time>2013-04-20T07:25:33Z</time>
      </trkpt>
      <trkpt lat="42.31746" lon="2.54123">
        <ele>887.923</ele>
        <time>2013-04-20T07:25:37Z</time>
      </trkpt>
      <trkpt lat="42.31762" lon="2.54113">
        <ele>888.915</ele>
        <time>2013-04-20T07:25:47Z</time>
      </trkpt>
      <trkpt lat="42.31765" lon="2.54111">
        <ele>888.907</ele>
        <time>2013-04-20T07:25:49Z</time>
      </trkpt>
      <trkpt lat="42.31772" lon="2.54108">
        <ele>887.417</ele>
        <time>2013-04-20T07:25:54Z</time>
      </trkpt>
      <trkpt lat="42.3178" lon="2.54109">
        <ele>885.566</ele>
        <time>2013-04-20T07:25:58Z</time>
      </trkpt>
      <trkpt lat="42.31786" lon="2.54109">
        <ele>884.63</ele>
        <time>2013-04-20T07:26:01Z</time>
      </trkpt>
      <trkpt lat="42.31797" lon="2.5411">
        <ele>878.897</ele>
        <time>2013-04-20T07:26:09Z</time>
      </trkpt>
      <trkpt lat="42.31801" lon="2.54111">
        <ele>874.928</ele>
        <time>2013-04-20T07:26:13Z</time>
      </trkpt>
      <trkpt lat="42.31809" lon="2.54112">
        <ele>869.231</ele>
        <time>2013-04-20T07:26:19Z</time>
      </trkpt>
      <trkpt lat="42.31815" lon="2.54112">
        <ele>866.364</ele>
        <time>2013-04-20T07:26:23Z</time>
      </trkpt>
      <trkpt lat="42.31819" lon="2.54107">
        <ele>865.382</ele>
        <time>2013-04-20T07:26:27Z</time>
      </trkpt>
      <trkpt lat="42.31822" lon="2.54106">
        <ele>865.343</ele>
        <time>2013-04-20T07:26:29Z</time>
      </trkpt>
      <trkpt lat="42.31836" lon="2.54103">
        <ele>870.617</ele>
        <time>2013-04-20T07:26:33Z</time>
      </trkpt>
      <trkpt lat="42.31848" lon="2.54096">
        <ele>870.107</ele>
        <time>2013-04-20T07:26:41Z</time>
      </trkpt>
      <trkpt lat="42.31859" lon="2.54094">
        <ele>867.722</ele>
        <time>2013-04-20T07:26:48Z</time>
      </trkpt>
      <trkpt lat="42.31863" lon="2.54089">
        <ele>868.231</ele>
        <time>2013-04-20T07:26:52Z</time>
      </trkpt>
      <trkpt lat="42.31876" lon="2.54077">
        <ele>866.375</ele>
        <time>2013-04-20T07:27:01Z</time>
      </trkpt>
      <trkpt lat="42.31895" lon="2.5406">
        <ele>861.592</ele>
        <time>2013-04-20T07:27:13Z</time>
      </trkpt>
      <trkpt lat="42.31903" lon="2.54054">
        <ele>857.653</ele>
        <time>2013-04-20T07:27:19Z</time>
      </trkpt>
      <trkpt lat="42.31903" lon="2.54051">
        <ele>856.216</ele>
        <time>2013-04-20T07:27:21Z</time>
      </trkpt>
      <trkpt lat="42.31906" lon="2.5405">
        <ele>854.319</ele>
        <time>2013-04-20T07:27:23Z</time>
      </trkpt>
      <trkpt lat="42.31921" lon="2.54043">
        <ele>853.329</ele>
        <time>2013-04-20T07:27:30Z</time>
      </trkpt>
      <trkpt lat="42.31936" lon="2.54044">
        <ele>850.4</ele>
        <time>2013-04-20T07:27:37Z</time>
      </trkpt>
      <trkpt lat="42.3194" lon="2.54043">
        <ele>849.92</ele>
        <time>2013-04-20T07:27:39Z</time>
      </trkpt>
      <trkpt lat="42.31961" lon="2.54056">
        <ele>849.007</ele>
        <time>2013-04-20T07:27:50Z</time>
      </trkpt>
      <trkpt lat="42.31964" lon="2.54058">
        <ele>848.516</ele>
        <time>2013-04-20T07:27:51Z</time>
      </trkpt>
      <trkpt lat="42.31969" lon="2.54061">
        <ele>847.175</ele>
        <time>2013-04-20T07:27:55Z</time>
      </trkpt>
      <trkpt lat="42.31976" lon="2.54063">
        <ele>845.649</ele>
        <time>2013-04-20T07:27:59Z</time>
      </trkpt>
      <trkpt lat="42.32" lon="2.54069">
        <ele>842.376</ele>
        <time>2013-04-20T07:28:09Z</time>
      </trkpt>
      <trkpt lat="42.32025" lon="2.54082">
        <ele>837.957</ele>
        <time>2013-04-20T07:28:22Z</time>
      </trkpt>
      <trkpt lat="42.32037" lon="2.54082">
        <ele>838.47</ele>
        <time>2013-04-20T07:28:32Z</time>
      </trkpt>
      <trkpt lat="42.32037" lon="2.5409">
        <ele>838.943</ele>
        <time>2013-04-20T07:28:38Z</time>
      </trkpt>
      <trkpt lat="42.32036" lon="2.54097">
        <ele>839.919</ele>
        <time>2013-04-20T07:28:42Z</time>
      </trkpt>
      <trkpt lat="42.32042" lon="2.54106">
        <ele>841.309</ele>
        <time>2013-04-20T07:28:48Z</time>
      </trkpt>
      <trkpt lat="42.32049" lon="2.54111">
        <ele>842.319</ele>
        <time>2013-04-20T07:28:54Z</time>
      </trkpt>
      <trkpt lat="42.32058" lon="2.54127">
        <ele>845.607</ele>
        <time>2013-04-20T07:29:06Z</time>
      </trkpt>
      <trkpt lat="42.32065" lon="2.54146">
        <ele>849.575</ele>
        <time>2013-04-20T07:29:17Z</time>
      </trkpt>
      <trkpt lat="42.32074" lon="2.54159">
        <ele>853.364</ele>
        <time>2013-04-20T07:29:25Z</time>
      </trkpt>
      <trkpt lat="42.32079" lon="2.54164">
        <ele>855.738</ele>
        <time>2013-04-20T07:29:30Z</time>
      </trkpt>
      <trkpt lat="42.32081" lon="2.54168">
        <ele>856.725</ele>
        <time>2013-04-20T07:29:33Z</time>
      </trkpt>
      <trkpt lat="42.32085" lon="2.54171">
        <ele>857.656</ele>
        <time>2013-04-20T07:29:37Z</time>
      </trkpt>
      <trkpt lat="42.32094" lon="2.54185">
        <ele>855.719</ele>
        <time>2013-04-20T07:29:47Z</time>
      </trkpt>
      <trkpt lat="42.3211" lon="2.54199">
        <ele>855.792</ele>
        <time>2013-04-20T07:29:57Z</time>
      </trkpt>
      <trkpt lat="42.32111" lon="2.54201">
        <ele>855.781</ele>
        <time>2013-04-20T07:29:58Z</time>
      </trkpt>
      <trkpt lat="42.32119" lon="2.54209">
        <ele>855.761</ele>
        <time>2013-04-20T07:30:03Z</time>
      </trkpt>
      <trkpt lat="42.32145" lon="2.54227">
        <ele>858.617</ele>
        <time>2013-04-20T07:30:15Z</time>
      </trkpt>
      <trkpt lat="42.32154" lon="2.54238">
        <ele>860.507</ele>
        <time>2013-04-20T07:30:21Z</time>
      </trkpt>
      <trkpt lat="42.32167" lon="2.54248">
        <ele>860.572</ele>
        <time>2013-04-20T07:30:29Z</time>
      </trkpt>
      <trkpt lat="42.32177" lon="2.54261">
        <ele>861.561</ele>
        <time>2013-04-20T07:30:40Z</time>
      </trkpt>
      <trkpt lat="42.32196" lon="2.54273">
        <ele>864.465</ele>
        <time>2013-04-20T07:30:51Z</time>
      </trkpt>
      <trkpt lat="42.32208" lon="2.5427">
        <ele>868.722</ele>
        <time>2013-04-20T07:31:01Z</time>
      </trkpt>
      <trkpt lat="42.32211" lon="2.54269">
        <ele>869.283</ele>
        <time>2013-04-20T07:31:03Z</time>
      </trkpt>
      <trkpt lat="42.32229" lon="2.54268">
        <ele>874.516</ele>
        <time>2013-04-20T07:31:17Z</time>
      </trkpt>
      <trkpt lat="42.32244" lon="2.54261">
        <ele>874.069</ele>
        <time>2013-04-20T07:31:31Z</time>
      </trkpt>
      <trkpt lat="42.32256" lon="2.54252">
        <ele>877.338</ele>
        <time>2013-04-20T07:31:43Z</time>
      </trkpt>
      <trkpt lat="42.32259" lon="2.54244">
        <ele>877.87</ele>
        <time>2013-04-20T07:31:46Z</time>
      </trkpt>
      <trkpt lat="42.32262" lon="2.54243">
        <ele>877.317</ele>
        <time>2013-04-20T07:31:50Z</time>
      </trkpt>
      <trkpt lat="42.32265" lon="2.5424">
        <ele>877.307</ele>
        <time>2013-04-20T07:31:53Z</time>
      </trkpt>
      <trkpt lat="42.32274" lon="2.54234">
        <ele>878.357</ele>
        <time>2013-04-20T07:32:06Z</time>
      </trkpt>
      <trkpt lat="42.32277" lon="2.54238">
        <ele>880.266</ele>
        <time>2013-04-20T07:32:21Z</time>
      </trkpt>
      <trkpt lat="42.32282" lon="2.54231">
        <ele>882.27</ele>
        <time>2013-04-20T07:32:33Z</time>
      </trkpt>
      <trkpt lat="42.32283" lon="2.54228">
        <ele>883.667</ele>
        <time>2013-04-20T07:32:37Z</time>
      </trkpt>
      <trkpt lat="42.32286" lon="2.54225">
        <ele>884.618</ele>
        <time>2013-04-20T07:32:40Z</time>
      </trkpt>
      <trkpt lat="42.32288" lon="2.54224">
        <ele>885.531</ele>
        <time>2013-04-20T07:32:42Z</time>
      </trkpt>
      <trkpt lat="42.32289" lon="2.5422">
        <ele>886.574</ele>
        <time>2013-04-20T07:32:45Z</time>
      </trkpt>
      <trkpt lat="42.32299" lon="2.54208">
        <ele>885.086</ele>
        <time>2013-04-20T07:32:57Z</time>
      </trkpt>
      <trkpt lat="42.32301" lon="2.54206">
        <ele>886.56</ele>
        <time>2013-04-20T07:33:00Z</time>
      </trkpt>
      <trkpt lat="42.32303" lon="2.54199">
        <ele>887.926</ele>
        <time>2013-04-20T07:33:04Z</time>
      </trkpt>
      <trkpt lat="42.32314" lon="2.54199">
        <ele>886.507</ele>
        <time>2013-04-20T07:33:13Z</time>
      </trkpt>
      <trkpt lat="42.32317" lon="2.54197">
        <ele>886.522</ele>
        <time>2013-04-20T07:33:16Z</time>
      </trkpt>
      <trkpt lat="42.32319" lon="2.54205">
        <ele>885.021</ele>
        <time>2013-04-20T07:33:28Z</time>
      </trkpt>
      <trkpt lat="42.3232" lon="2.54211">
        <ele>885.075</ele>
        <time>2013-04-20T07:33:35Z</time>
      </trkpt>
      <trkpt lat="42.32329" lon="2.54208">
        <ele>887.412</ele>
        <time>2013-04-20T07:33:44Z</time>
      </trkpt>
      <trkpt lat="42.32332" lon="2.5421">
        <ele>887.013</ele>
        <time>2013-04-20T07:33:47Z</time>
      </trkpt>
      <trkpt lat="42.32346" lon="2.54236">
        <ele>884.626</ele>
        <time>2013-04-20T07:34:00Z</time>
      </trkpt>
      <trkpt lat="42.32347" lon="2.54237">
        <ele>884.659</ele>
        <time>2013-04-20T07:34:01Z</time>
      </trkpt>
      <trkpt lat="42.32354" lon="2.54249">
        <ele>883.687</ele>
        <time>2013-04-20T07:34:08Z</time>
      </trkpt>
      <trkpt lat="42.32366" lon="2.54274">
        <ele>883.642</ele>
        <time>2013-04-20T07:34:18Z</time>
      </trkpt>
      <trkpt lat="42.32371" lon="2.54295">
        <ele>884.126</ele>
        <time>2013-04-20T07:34:27Z</time>
      </trkpt>
      <trkpt lat="42.32372" lon="2.54298">
        <ele>883.607</ele>
        <time>2013-04-20T07:34:29Z</time>
      </trkpt>
      <trkpt lat="42.32376" lon="2.54313">
        <ele>883.682</ele>
        <time>2013-04-20T07:34:37Z</time>
      </trkpt>
      <trkpt lat="42.32379" lon="2.54327">
        <ele>883.151</ele>
        <time>2013-04-20T07:34:46Z</time>
      </trkpt>
      <trkpt lat="42.32394" lon="2.54352">
        <ele>885.035</ele>
        <time>2013-04-20T07:34:59Z</time>
      </trkpt>
      <trkpt lat="42.32396" lon="2.54355">
        <ele>885.532</ele>
        <time>2013-04-20T07:35:01Z</time>
      </trkpt>
      <trkpt lat="42.32398" lon="2.54372">
        <ele>886.073</ele>
        <time>2013-04-20T07:35:11Z</time>
      </trkpt>
      <trkpt lat="42.32404" lon="2.54387">
        <ele>887.436</ele>
        <time>2013-04-20T07:35:21Z</time>
      </trkpt>
      <trkpt lat="42.32405" lon="2.54409">
        <ele>887.919</ele>
        <time>2013-04-20T07:35:34Z</time>
      </trkpt>
      <trkpt lat="42.32404" lon="2.54411">
        <ele>888.427</ele>
        <time>2013-04-20T07:35:35Z</time>
      </trkpt>
      <trkpt lat="42.32409" lon="2.54414">
        <ele>890.368</ele>
        <time>2013-04-20T07:35:42Z</time>
      </trkpt>
      <trkpt lat="42.32411" lon="2.54413">
        <ele>890.814</ele>
        <time>2013-04-20T07:35:44Z</time>
      </trkpt>
      <trkpt lat="42.32415" lon="2.54413">
        <ele>890.307</ele>
        <time>2013-04-20T07:35:48Z</time>
      </trkpt>
      <trkpt lat="42.32423" lon="2.54405">
        <ele>892.716</ele>
        <time>2013-04-20T07:36:00Z</time>
      </trkpt>
      <trkpt lat="42.32427" lon="2.54394">
        <ele>896.175</ele>
        <time>2013-04-20T07:36:11Z</time>
      </trkpt>
      <trkpt lat="42.32435" lon="2.54374">
        <ele>899.049</ele>
        <time>2013-04-20T07:36:23Z</time>
      </trkpt>
      <trkpt lat="42.32439" lon="2.54357">
        <ele>900.476</ele>
        <time>2013-04-20T07:36:32Z</time>
      </trkpt>
      <trkpt lat="42.32446" lon="2.54347">
        <ele>901.427</ele>
        <time>2013-04-20T07:36:44Z</time>
      </trkpt>
      <trkpt lat="42.32449" lon="2.54334">
        <ele>903.38</ele>
        <time>2013-04-20T07:36:57Z</time>
      </trkpt>
      <trkpt lat="42.32454" lon="2.54336">
        <ele>906.793</ele>
        <time>2013-04-20T07:37:07Z</time>
      </trkpt>
      <trkpt lat="42.32457" lon="2.54328">
        <ele>908.666</ele>
        <time>2013-04-20T07:37:19Z</time>
      </trkpt>
      <trkpt lat="42.3246" lon="2.54313">
        <ele>908.129</ele>
        <time>2013-04-20T07:37:31Z</time>
      </trkpt>
      <trkpt lat="42.32462" lon="2.54307">
        <ele>908.121</ele>
        <time>2013-04-20T07:37:35Z</time>
      </trkpt>
      <trkpt lat="42.32462" lon="2.54301">
        <ele>907.607</ele>
        <time>2013-04-20T07:37:38Z</time>
      </trkpt>
      <trkpt lat="42.32463" lon="2.54292">
        <ele>906.26</ele>
        <time>2013-04-20T07:37:42Z</time>
      </trkpt>
      <trkpt lat="42.32465" lon="2.54289">
        <ele>906.279</ele>
        <time>2013-04-20T07:37:44Z</time>
      </trkpt>
      <trkpt lat="42.32466" lon="2.54283">
        <ele>905.723</ele>
        <time>2013-04-20T07:37:48Z</time>
      </trkpt>
      <trkpt lat="42.32464" lon="2.54268">
        <ele>904.72</ele>
        <time>2013-04-20T07:37:54Z</time>
      </trkpt>
      <trkpt lat="42.32464" lon="2.54261">
        <ele>902.891</ele>
        <time>2013-04-20T07:37:58Z</time>
      </trkpt>
      <trkpt lat="42.32463" lon="2.54248">
        <ele>901.484</ele>
        <time>2013-04-20T07:38:04Z</time>
      </trkpt>
      <trkpt lat="42.32464" lon="2.54227">
        <ele>903.397</ele>
        <time>2013-04-20T07:38:15Z</time>
      </trkpt>
      <trkpt lat="42.32463" lon="2.54218">
        <ele>905.237</ele>
        <time>2013-04-20T07:38:19Z</time>
      </trkpt>
      <trkpt lat="42.32465" lon="2.54196">
        <ele>906.749</ele>
        <time>2013-04-20T07:38:32Z</time>
      </trkpt>
      <trkpt lat="42.32473" lon="2.54197">
        <ele>907.613</ele>
        <time>2013-04-20T07:38:45Z</time>
      </trkpt>
      <trkpt lat="42.32476" lon="2.542">
        <ele>908.107</ele>
        <time>2013-04-20T07:38:53Z</time>
      </trkpt>
      <trkpt lat="42.32477" lon="2.54192">
        <ele>908.157</ele>
        <time>2013-04-20T07:38:58Z</time>
      </trkpt>
      <trkpt lat="42.32485" lon="2.54177">
        <ele>907.186</ele>
        <time>2013-04-20T07:39:11Z</time>
      </trkpt>
      <trkpt lat="42.32493" lon="2.54169">
        <ele>907.11</ele>
        <time>2013-04-20T07:39:21Z</time>
      </trkpt>
      <trkpt lat="42.325" lon="2.54162">
        <ele>906.797</ele>
        <time>2013-04-20T07:39:28Z</time>
      </trkpt>
      <trkpt lat="42.32507" lon="2.54155">
        <ele>906.798</ele>
        <time>2013-04-20T07:39:34Z</time>
      </trkpt>
      <trkpt lat="42.32524" lon="2.5415">
        <ele>906.731</ele>
        <time>2013-04-20T07:39:48Z</time>
      </trkpt>
      <trkpt lat="42.32532" lon="2.54148">
        <ele>906.754</ele>
        <time>2013-04-20T07:39:58Z</time>
      </trkpt>
      <trkpt lat="42.32539" lon="2.54146">
        <ele>906.742</ele>
        <time>2013-04-20T07:40:04Z</time>
      </trkpt>
      <trkpt lat="42.32546" lon="2.54141">
        <ele>907.122</ele>
        <time>2013-04-20T07:40:10Z</time>
      </trkpt>
      <trkpt lat="42.32549" lon="2.54134">
        <ele>907.114</ele>
        <time>2013-04-20T07:40:15Z</time>
      </trkpt>
      <trkpt lat="42.32559" lon="2.54123">
        <ele>908.107</ele>
        <time>2013-04-20T07:40:27Z</time>
      </trkpt>
      <trkpt lat="42.3257" lon="2.54108">
        <ele>909.568</ele>
        <time>2013-04-20T07:40:39Z</time>
      </trkpt>
      <trkpt lat="42.32575" lon="2.54098">
        <ele>910.537</ele>
        <time>2013-04-20T07:40:53Z</time>
      </trkpt>
      <trkpt lat="42.32575" lon="2.54094">
        <ele>910.051</ele>
        <time>2013-04-20T07:40:57Z</time>
      </trkpt>
      <trkpt lat="42.32575" lon="2.54092">
        <ele>910.038</ele>
        <time>2013-04-20T07:40:58Z</time>
      </trkpt>
      <trkpt lat="42.32581" lon="2.54084">
        <ele>910.519</ele>
        <time>2013-04-20T07:41:03Z</time>
      </trkpt>
      <trkpt lat="42.32582" lon="2.54081">
        <ele>910.552</ele>
        <time>2013-04-20T07:41:04Z</time>
      </trkpt>
      <trkpt lat="42.32598" lon="2.54052">
        <ele>910.035</ele>
        <time>2013-04-20T07:41:15Z</time>
      </trkpt>
      <trkpt lat="42.32606" lon="2.54048">
        <ele>910.029</ele>
        <time>2013-04-20T07:41:19Z</time>
      </trkpt>
      <trkpt lat="42.32625" lon="2.54045">
        <ele>910.5</ele>
        <time>2013-04-20T07:41:30Z</time>
      </trkpt>
      <trkpt lat="42.32633" lon="2.54042">
        <ele>911.02</ele>
        <time>2013-04-20T07:41:35Z</time>
      </trkpt>
      <trkpt lat="42.3265" lon="2.54018">
        <ele>911.007</ele>
        <time>2013-04-20T07:41:45Z</time>
      </trkpt>
      <trkpt lat="42.32657" lon="2.54012">
        <ele>911.596</ele>
        <time>2013-04-20T07:41:50Z</time>
      </trkpt>
      <trkpt lat="42.32658" lon="2.5401">
        <ele>911.575</ele>
        <time>2013-04-20T07:41:52Z</time>
      </trkpt>
      <trkpt lat="42.32679" lon="2.53994">
        <ele>912.049</ele>
        <time>2013-04-20T07:42:04Z</time>
      </trkpt>
      <trkpt lat="42.32683" lon="2.53991">
        <ele>912.086</ele>
        <time>2013-04-20T07:42:06Z</time>
      </trkpt>
      <trkpt lat="42.32685" lon="2.53988">
        <ele>912.037</ele>
        <time>2013-04-20T07:42:07Z</time>
      </trkpt>
      <trkpt lat="42.32701" lon="2.5397">
        <ele>912.04</ele>
        <time>2013-04-20T07:42:22Z</time>
      </trkpt>
      <trkpt lat="42.327" lon="2.53968">
        <ele>912.013</ele>
        <time>2013-04-20T07:42:23Z</time>
      </trkpt>
      <trkpt lat="42.32699" lon="2.5396">
        <ele>911.053</ele>
        <time>2013-04-20T07:42:31Z</time>
      </trkpt>
      <trkpt lat="42.32698" lon="2.53958">
        <ele>911.004</ele>
        <time>2013-04-20T07:42:33Z</time>
      </trkpt>
      <trkpt lat="42.32699" lon="2.53952">
        <ele>910.514</ele>
        <time>2013-04-20T07:42:37Z</time>
      </trkpt>
      <trkpt lat="42.32701" lon="2.53949">
        <ele>910.507</ele>
        <time>2013-04-20T07:42:39Z</time>
      </trkpt>
      <trkpt lat="42.32689" lon="2.53925">
        <ele>909.119</ele>
        <time>2013-04-20T07:42:54Z</time>
      </trkpt>
      <trkpt lat="42.32678" lon="2.53909">
        <ele>908.618</ele>
        <time>2013-04-20T07:43:04Z</time>
      </trkpt>
      <trkpt lat="42.32676" lon="2.53906">
        <ele>908.182</ele>
        <time>2013-04-20T07:43:06Z</time>
      </trkpt>
      <trkpt lat="42.32669" lon="2.539">
        <ele>907.159</ele>
        <time>2013-04-20T07:43:10Z</time>
      </trkpt>
      <trkpt lat="42.32655" lon="2.53883">
        <ele>907.13</ele>
        <time>2013-04-20T07:43:19Z</time>
      </trkpt>
      <trkpt lat="42.32639" lon="2.53869">
        <ele>906.273</ele>
        <time>2013-04-20T07:43:31Z</time>
      </trkpt>
      <trkpt lat="42.32636" lon="2.53867">
        <ele>906.296</ele>
        <time>2013-04-20T07:43:34Z</time>
      </trkpt>
      <trkpt lat="42.32634" lon="2.53867">
        <ele>906.247</ele>
        <time>2013-04-20T07:43:35Z</time>
      </trkpt>
      <trkpt lat="42.32628" lon="2.53863">
        <ele>906.229</ele>
        <time>2013-04-20T07:43:39Z</time>
      </trkpt>
      <trkpt lat="42.32618" lon="2.53855">
        <ele>907.121</ele>
        <time>2013-04-20T07:43:52Z</time>
      </trkpt>
      <trkpt lat="42.32612" lon="2.53847">
        <ele>907.607</ele>
        <time>2013-04-20T07:44:00Z</time>
      </trkpt>
      <trkpt lat="42.32607" lon="2.53832">
        <ele>906.748</ele>
        <time>2013-04-20T07:44:11Z</time>
      </trkpt>
      <trkpt lat="42.32599" lon="2.53816">
        <ele>905.717</ele>
        <time>2013-04-20T07:44:24Z</time>
      </trkpt>
      <trkpt lat="42.32599" lon="2.53805">
        <ele>906.761</ele>
        <time>2013-04-20T07:44:36Z</time>
      </trkpt>
      <trkpt lat="42.32598" lon="2.53789">
        <ele>907.168</ele>
        <time>2013-04-20T07:44:49Z</time>
      </trkpt>
      <trkpt lat="42.32597" lon="2.53772">
        <ele>908.679</ele>
        <time>2013-04-20T07:45:03Z</time>
      </trkpt>
      <trkpt lat="42.32598" lon="2.53761">
        <ele>909.182</ele>
        <time>2013-04-20T07:45:16Z</time>
      </trkpt>
      <trkpt lat="42.32587" lon="2.5374">
        <ele>910.025</ele>
        <time>2013-04-20T07:45:27Z</time>
      </trkpt>
      <trkpt lat="42.32569" lon="2.53719">
        <ele>912.099</ele>
        <time>2013-04-20T07:45:43Z</time>
      </trkpt>
      <trkpt lat="42.32568" lon="2.53718">
        <ele>912.407</ele>
        <time>2013-04-20T07:45:44Z</time>
      </trkpt>
      <trkpt lat="42.32561" lon="2.53706">
        <ele>914.827</ele>
        <time>2013-04-20T07:45:55Z</time>
      </trkpt>
      <trkpt lat="42.32558" lon="2.53702">
        <ele>917.707</ele>
        <time>2013-04-20T07:45:59Z</time>
      </trkpt>
      <trkpt lat="42.32552" lon="2.53695">
        <ele>920.633</ele>
        <time>2013-04-20T07:46:07Z</time>
      </trkpt>
      <trkpt lat="42.3255" lon="2.5369">
        <ele>922.512</ele>
        <time>2013-04-20T07:46:11Z</time>
      </trkpt>
      <trkpt lat="42.32551" lon="2.53681">
        <ele>925.966</ele>
        <time>2013-04-20T07:46:18Z</time>
      </trkpt>
      <trkpt lat="42.32545" lon="2.53668">
        <ele>931.233</ele>
        <time>2013-04-20T07:46:31Z</time>
      </trkpt>
      <trkpt lat="42.32536" lon="2.53652">
        <ele>936.524</ele>
        <time>2013-04-20T07:46:43Z</time>
      </trkpt>
      <trkpt lat="42.32526" lon="2.53646">
        <ele>936.957</ele>
        <time>2013-04-20T07:46:55Z</time>
      </trkpt>
      <trkpt lat="42.32515" lon="2.53639">
        <ele>938.46</ele>
        <time>2013-04-20T07:47:08Z</time>
      </trkpt>
      <trkpt lat="42.3251" lon="2.53634">
        <ele>939.446</ele>
        <time>2013-04-20T07:47:15Z</time>
      </trkpt>
      <trkpt lat="42.32496" lon="2.53622">
        <ele>940.388</ele>
        <time>2013-04-20T07:47:29Z</time>
      </trkpt>
      <trkpt lat="42.32492" lon="2.53618">
        <ele>940.816</ele>
        <time>2013-04-20T07:47:35Z</time>
      </trkpt>
      <trkpt lat="42.3249" lon="2.53605">
        <ele>943.707</ele>
        <time>2013-04-20T07:47:46Z</time>
      </trkpt>
      <trkpt lat="42.32481" lon="2.53593">
        <ele>946.148</ele>
        <time>2013-04-20T07:48:00Z</time>
      </trkpt>
      <trkpt lat="42.32479" lon="2.53588">
        <ele>947.547</ele>
        <time>2013-04-20T07:48:05Z</time>
      </trkpt>
      <trkpt lat="42.32474" lon="2.53577">
        <ele>952.351</ele>
        <time>2013-04-20T07:48:19Z</time>
      </trkpt>
      <trkpt lat="42.32472" lon="2.53578">
        <ele>951.418</ele>
        <time>2013-04-20T07:48:25Z</time>
      </trkpt>
      <trkpt lat="42.32466" lon="2.53583">
        <ele>954.739</ele>
        <time>2013-04-20T07:48:36Z</time>
      </trkpt>
      <trkpt lat="42.32466" lon="2.53573">
        <ele>958.142</ele>
        <time>2013-04-20T07:48:43Z</time>
      </trkpt>
      <trkpt lat="42.32467" lon="2.5356">
        <ele>961.975</ele>
        <time>2013-04-20T07:48:53Z</time>
      </trkpt>
      <trkpt lat="42.32468" lon="2.53552">
        <ele>961.924</ele>
        <time>2013-04-20T07:49:03Z</time>
      </trkpt>
      <trkpt lat="42.32469" lon="2.53545">
        <ele>964.304</ele>
        <time>2013-04-20T07:49:17Z</time>
      </trkpt>
      <trkpt lat="42.32471" lon="2.53546">
        <ele>965.814</ele>
        <time>2013-04-20T07:49:34Z</time>
      </trkpt>
      <trkpt lat="42.32472" lon="2.53544">
        <ele>966.307</ele>
        <time>2013-04-20T07:49:52Z</time>
      </trkpt>
      <trkpt lat="42.32474" lon="2.53546">
        <ele>966.786</ele>
        <time>2013-04-20T07:50:01Z</time>
      </trkpt>
      <trkpt lat="42.32474" lon="2.53548">
        <ele>967.295</ele>
        <time>2013-04-20T07:50:19Z</time>
      </trkpt>
      <trkpt lat="42.32475" lon="2.53549">
        <ele>967.769</ele>
        <time>2013-04-20T07:50:33Z</time>
      </trkpt>
      <trkpt lat="42.32477" lon="2.53548">
        <ele>968.276</ele>
        <time>2013-04-20T07:50:49Z</time>
      </trkpt>
      <trkpt lat="42.32478" lon="2.53547">
        <ele>969.257</ele>
        <time>2013-04-20T07:51:07Z</time>
      </trkpt>
      <trkpt lat="42.32479" lon="2.53549">
        <ele>971.16</ele>
        <time>2013-04-20T07:51:24Z</time>
      </trkpt>
      <trkpt lat="42.32482" lon="2.53542">
        <ele>975.463</ele>
        <time>2013-04-20T07:51:44Z</time>
      </trkpt>
      <trkpt lat="42.32479" lon="2.53545">
        <ele>973.518</ele>
        <time>2013-04-20T07:52:05Z</time>
      </trkpt>
      <trkpt lat="42.32478" lon="2.53535">
        <ele>972.598</ele>
        <time>2013-04-20T07:52:21Z</time>
      </trkpt>
      <trkpt lat="42.32477" lon="2.53522">
        <ele>974.417</ele>
        <time>2013-04-20T07:52:33Z</time>
      </trkpt>
      <trkpt lat="42.32476" lon="2.53507">
        <ele>974.907</ele>
        <time>2013-04-20T07:52:46Z</time>
      </trkpt>
      <trkpt lat="42.32476" lon="2.53503">
        <ele>975.985</ele>
        <time>2013-04-20T07:52:50Z</time>
      </trkpt>
      <trkpt lat="42.32474" lon="2.53492">
        <ele>977.884</ele>
        <time>2013-04-20T07:53:02Z</time>
      </trkpt>
      <trkpt lat="42.32474" lon="2.53487">
        <ele>979.778</ele>
        <time>2013-04-20T07:53:07Z</time>
      </trkpt>
      <trkpt lat="42.32479" lon="2.53472">
        <ele>984.515</ele>
        <time>2013-04-20T07:53:20Z</time>
      </trkpt>
      <trkpt lat="42.32482" lon="2.53463">
        <ele>988.996</ele>
        <time>2013-04-20T07:53:30Z</time>
      </trkpt>
      <trkpt lat="42.32484" lon="2.5345">
        <ele>990.829</ele>
        <time>2013-04-20T07:53:43Z</time>
      </trkpt>
      <trkpt lat="42.32478" lon="2.53446">
        <ele>990.832</ele>
        <time>2013-04-20T07:53:56Z</time>
      </trkpt>
      <trkpt lat="42.32472" lon="2.5344">
        <ele>990.885</ele>
        <time>2013-04-20T07:54:06Z</time>
      </trkpt>
      <trkpt lat="42.32468" lon="2.53436">
        <ele>991.389</ele>
        <time>2013-04-20T07:54:12Z</time>
      </trkpt>
      <trkpt lat="42.3247" lon="2.5343">
        <ele>991.317</ele>
        <time>2013-04-20T07:54:16Z</time>
      </trkpt>
      <trkpt lat="42.32475" lon="2.53424">
        <ele>992.207</ele>
        <time>2013-04-20T07:54:24Z</time>
      </trkpt>
      <trkpt lat="42.32476" lon="2.53417">
        <ele>992.212</ele>
        <time>2013-04-20T07:54:28Z</time>
      </trkpt>
      <trkpt lat="42.32486" lon="2.53399">
        <ele>996.571</ele>
        <time>2013-04-20T07:54:41Z</time>
      </trkpt>
      <trkpt lat="42.32494" lon="2.53383">
        <ele>997.085</ele>
        <time>2013-04-20T07:54:53Z</time>
      </trkpt>
      <trkpt lat="42.32495" lon="2.53382">
        <ele>997.592</ele>
        <time>2013-04-20T07:54:54Z</time>
      </trkpt>
      <trkpt lat="42.32498" lon="2.5338">
        <ele>998.573</ele>
        <time>2013-04-20T07:54:58Z</time>
      </trkpt>
      <trkpt lat="42.32502" lon="2.53373">
        <ele>999.976</ele>
        <time>2013-04-20T07:55:04Z</time>
      </trkpt>
      <trkpt lat="42.32507" lon="2.53371">
        <ele>1001.439</ele>
        <time>2013-04-20T07:55:09Z</time>
      </trkpt>
      <trkpt lat="42.32512" lon="2.53366">
        <ele>1003.332</ele>
        <time>2013-04-20T07:55:15Z</time>
      </trkpt>
      <trkpt lat="42.32522" lon="2.53367">
        <ele>1005.792</ele>
        <time>2013-04-20T07:55:28Z</time>
      </trkpt>
      <trkpt lat="42.32531" lon="2.53373">
        <ele>1009.511</ele>
        <time>2013-04-20T07:55:41Z</time>
      </trkpt>
      <trkpt lat="42.32534" lon="2.53376">
        <ele>1011.007</ele>
        <time>2013-04-20T07:55:47Z</time>
      </trkpt>
      <trkpt lat="42.32542" lon="2.53378">
        <ele>1012.917</ele>
        <time>2013-04-20T07:56:00Z</time>
      </trkpt>
      <trkpt lat="42.32548" lon="2.53377">
        <ele>1013.486</ele>
        <time>2013-04-20T07:56:12Z</time>
      </trkpt>
      <trkpt lat="42.32551" lon="2.53377">
        <ele>1015.85</ele>
        <time>2013-04-20T07:56:23Z</time>
      </trkpt>
      <trkpt lat="42.32558" lon="2.53375">
        <ele>1019.677</ele>
        <time>2013-04-20T07:56:35Z</time>
      </trkpt>
      <trkpt lat="42.32566" lon="2.53371">
        <ele>1023.558</ele>
        <time>2013-04-20T07:56:49Z</time>
      </trkpt>
      <trkpt lat="42.32571" lon="2.53367">
        <ele>1026.371</ele>
        <time>2013-04-20T07:56:59Z</time>
      </trkpt>
      <trkpt lat="42.32579" lon="2.53369">
        <ele>1029.244</ele>
        <time>2013-04-20T07:57:13Z</time>
      </trkpt>
      <trkpt lat="42.32586" lon="2.53364">
        <ele>1033.197</ele>
        <time>2013-04-20T07:57:29Z</time>
      </trkpt>
      <trkpt lat="42.3259" lon="2.5336">
        <ele>1037.923</ele>
        <time>2013-04-20T07:57:43Z</time>
      </trkpt>
      <trkpt lat="42.32596" lon="2.53368">
        <ele>1040.325</ele>
        <time>2013-04-20T07:57:58Z</time>
      </trkpt>
      <trkpt lat="42.32598" lon="2.5337">
        <ele>1041.307</ele>
        <time>2013-04-20T07:58:01Z</time>
      </trkpt>
      <trkpt lat="42.32604" lon="2.53367">
        <ele>1040.853</ele>
        <time>2013-04-20T07:58:07Z</time>
      </trkpt>
      <trkpt lat="42.32616" lon="2.53364">
        <ele>1043.242</ele>
        <time>2013-04-20T07:58:22Z</time>
      </trkpt>
      <trkpt lat="42.32622" lon="2.5336">
        <ele>1045.636</ele>
        <time>2013-04-20T07:58:34Z</time>
      </trkpt>
      <trkpt lat="42.32626" lon="2.53357">
        <ele>1046.573</ele>
        <time>2013-04-20T07:58:39Z</time>
      </trkpt>
      <trkpt lat="42.32633" lon="2.53351">
        <ele>1046.164</ele>
        <time>2013-04-20T07:58:50Z</time>
      </trkpt>
      <trkpt lat="42.32642" lon="2.53339">
        <ele>1050.967</ele>
        <time>2013-04-20T07:59:04Z</time>
      </trkpt>
      <trkpt lat="42.3265" lon="2.53332">
        <ele>1054.23</ele>
        <time>2013-04-20T07:59:18Z</time>
      </trkpt>
      <trkpt lat="42.32658" lon="2.53332">
        <ele>1057.685</ele>
        <time>2013-04-20T07:59:30Z</time>
      </trkpt>
      <trkpt lat="42.32667" lon="2.53332">
        <ele>1059.089</ele>
        <time>2013-04-20T07:59:44Z</time>
      </trkpt>
      <trkpt lat="42.32673" lon="2.53333">
        <ele>1062.417</ele>
        <time>2013-04-20T07:59:56Z</time>
      </trkpt>
      <trkpt lat="42.32679" lon="2.53322">
        <ele>1065.307</ele>
        <time>2013-04-20T08:00:10Z</time>
      </trkpt>
      <trkpt lat="42.32687" lon="2.53315">
        <ele>1066.772</ele>
        <time>2013-04-20T08:00:23Z</time>
      </trkpt>
      <trkpt lat="42.32693" lon="2.53309">
        <ele>1069.111</ele>
        <time>2013-04-20T08:00:33Z</time>
      </trkpt>
      <trkpt lat="42.32698" lon="2.53299">
        <ele>1071.555</ele>
        <time>2013-04-20T08:00:44Z</time>
      </trkpt>
      <trkpt lat="42.32707" lon="2.53288">
        <ele>1074.912</ele>
        <time>2013-04-20T08:00:58Z</time>
      </trkpt>
      <trkpt lat="42.32712" lon="2.53277">
        <ele>1078.763</ele>
        <time>2013-04-20T08:01:09Z</time>
      </trkpt>
      <trkpt lat="42.32719" lon="2.53268">
        <ele>1080.786</ele>
        <time>2013-04-20T08:01:22Z</time>
      </trkpt>
      <trkpt lat="42.32726" lon="2.53261">
        <ele>1082.129</ele>
        <time>2013-04-20T08:01:35Z</time>
      </trkpt>
      <trkpt lat="42.32733" lon="2.53248">
        <ele>1084.529</ele>
        <time>2013-04-20T08:01:49Z</time>
      </trkpt>
      <trkpt lat="42.32739" lon="2.53238">
        <ele>1086</ele>
        <time>2013-04-20T08:02:00Z</time>
      </trkpt>
      <trkpt lat="42.32739" lon="2.53236">
        <ele>1086.02</ele>
        <time>2013-04-20T08:02:02Z</time>
      </trkpt>
      <trkpt lat="42.32747" lon="2.53216">
        <ele>1087.907</ele>
        <time>2013-04-20T08:02:17Z</time>
      </trkpt>
      <trkpt lat="42.32753" lon="2.532">
        <ele>1089.356</ele>
        <time>2013-04-20T08:02:30Z</time>
      </trkpt>
      <trkpt lat="42.32758" lon="2.53181">
        <ele>1092.275</ele>
        <time>2013-04-20T08:02:42Z</time>
      </trkpt>
      <trkpt lat="42.32762" lon="2.53164">
        <ele>1091.259</ele>
        <time>2013-04-20T08:02:54Z</time>
      </trkpt>
      <trkpt lat="42.32764" lon="2.53153">
        <ele>1090.396</ele>
        <time>2013-04-20T08:03:00Z</time>
      </trkpt>
      <trkpt lat="42.32765" lon="2.53149">
        <ele>1090.387</ele>
        <time>2013-04-20T08:03:03Z</time>
      </trkpt>
      <trkpt lat="42.32778" lon="2.53128">
        <ele>1090.87</ele>
        <time>2013-04-20T08:03:17Z</time>
      </trkpt>
      <trkpt lat="42.32779" lon="2.53122">
        <ele>1091.233</ele>
        <time>2013-04-20T08:03:23Z</time>
      </trkpt>
      <trkpt lat="42.32784" lon="2.53099">
        <ele>1092.791</ele>
        <time>2013-04-20T08:03:37Z</time>
      </trkpt>
      <trkpt lat="42.32786" lon="2.53083">
        <ele>1094.181</ele>
        <time>2013-04-20T08:03:48Z</time>
      </trkpt>
      <trkpt lat="42.32783" lon="2.53077">
        <ele>1094.619</ele>
        <time>2013-04-20T08:03:55Z</time>
      </trkpt>
      <trkpt lat="42.32773" lon="2.53067">
        <ele>1095.107</ele>
        <time>2013-04-20T08:04:09Z</time>
      </trkpt>
      <trkpt lat="42.32762" lon="2.53054">
        <ele>1098.013</ele>
        <time>2013-04-20T08:04:24Z</time>
      </trkpt>
      <trkpt lat="42.32748" lon="2.53034">
        <ele>1101.362</ele>
        <time>2013-04-20T08:04:40Z</time>
      </trkpt>
      <trkpt lat="42.32745" lon="2.53032">
        <ele>1102.366</ele>
        <time>2013-04-20T08:04:43Z</time>
      </trkpt>
      <trkpt lat="42.32743" lon="2.53028">
        <ele>1102.833</ele>
        <time>2013-04-20T08:04:46Z</time>
      </trkpt>
      <trkpt lat="42.32739" lon="2.5302">
        <ele>1103.724</ele>
        <time>2013-04-20T08:04:53Z</time>
      </trkpt>
      <trkpt lat="42.32737" lon="2.53005">
        <ele>1107.127</ele>
        <time>2013-04-20T08:05:06Z</time>
      </trkpt>
      <trkpt lat="42.32733" lon="2.52992">
        <ele>1111.99</ele>
        <time>2013-04-20T08:05:19Z</time>
      </trkpt>
      <trkpt lat="42.32728" lon="2.52977">
        <ele>1114.836</ele>
        <time>2013-04-20T08:05:30Z</time>
      </trkpt>
      <trkpt lat="42.32729" lon="2.52975">
        <ele>1114.817</ele>
        <time>2013-04-20T08:05:32Z</time>
      </trkpt>
      <trkpt lat="42.32732" lon="2.52967">
        <ele>1118.218</ele>
        <time>2013-04-20T08:05:41Z</time>
      </trkpt>
      <trkpt lat="42.32732" lon="2.52954">
        <ele>1121.507</ele>
        <time>2013-04-20T08:05:51Z</time>
      </trkpt>
      <trkpt lat="42.32734" lon="2.5293">
        <ele>1123.937</ele>
        <time>2013-04-20T08:06:07Z</time>
      </trkpt>
      <trkpt lat="42.32735" lon="2.52911">
        <ele>1129.756</ele>
        <time>2013-04-20T08:06:22Z</time>
      </trkpt>
      <trkpt lat="42.32737" lon="2.52889">
        <ele>1133.11</ele>
        <time>2013-04-20T08:06:37Z</time>
      </trkpt>
      <trkpt lat="42.32737" lon="2.52888">
        <ele>1132.637</ele>
        <time>2013-04-20T08:06:38Z</time>
      </trkpt>
      <trkpt lat="42.32739" lon="2.52878">
        <ele>1135.078</ele>
        <time>2013-04-20T08:06:46Z</time>
      </trkpt>
      <trkpt lat="42.32741" lon="2.52865">
        <ele>1132.121</ele>
        <time>2013-04-20T08:06:54Z</time>
      </trkpt>
      <trkpt lat="42.32743" lon="2.52848">
        <ele>1131.664</ele>
        <time>2013-04-20T08:07:04Z</time>
      </trkpt>
      <trkpt lat="42.32744" lon="2.52845">
        <ele>1131.178</ele>
        <time>2013-04-20T08:07:06Z</time>
      </trkpt>
      <trkpt lat="42.3274" lon="2.52824">
        <ele>1133.533</ele>
        <time>2013-04-20T08:07:19Z</time>
      </trkpt>
      <trkpt lat="42.32739" lon="2.52809">
        <ele>1135.926</ele>
        <time>2013-04-20T08:07:32Z</time>
      </trkpt>
      <trkpt lat="42.32737" lon="2.528">
        <ele>1139.307</ele>
        <time>2013-04-20T08:07:44Z</time>
      </trkpt>
      <trkpt lat="42.32738" lon="2.52792">
        <ele>1142.791</ele>
        <time>2013-04-20T08:07:56Z</time>
      </trkpt>
      <trkpt lat="42.32735" lon="2.52786">
        <ele>1144.66</ele>
        <time>2013-04-20T08:08:10Z</time>
      </trkpt>
      <trkpt lat="42.32741" lon="2.52788">
        <ele>1141.224</ele>
        <time>2013-04-20T08:08:23Z</time>
      </trkpt>
      <trkpt lat="42.32746" lon="2.52787">
        <ele>1139.341</ele>
        <time>2013-04-20T08:08:38Z</time>
      </trkpt>
      <trkpt lat="42.32741" lon="2.52778">
        <ele>1143.662</ele>
        <time>2013-04-20T08:08:50Z</time>
      </trkpt>
      <trkpt lat="42.32735" lon="2.52767">
        <ele>1148.445</ele>
        <time>2013-04-20T08:09:01Z</time>
      </trkpt>
      <trkpt lat="42.32733" lon="2.5276">
        <ele>1154.278</ele>
        <time>2013-04-20T08:09:13Z</time>
      </trkpt>
      <trkpt lat="42.32731" lon="2.5276">
        <ele>1156.167</ele>
        <time>2013-04-20T08:09:16Z</time>
      </trkpt>
      <trkpt lat="42.32719" lon="2.52766">
        <ele>1162.481</ele>
        <time>2013-04-20T08:09:29Z</time>
      </trkpt>
      <trkpt lat="42.32708" lon="2.52772">
        <ele>1165.319</ele>
        <time>2013-04-20T08:09:42Z</time>
      </trkpt>
      <trkpt lat="42.32703" lon="2.52766">
        <ele>1166.207</ele>
        <time>2013-04-20T08:09:53Z</time>
      </trkpt>
      <trkpt lat="42.32699" lon="2.52763">
        <ele>1167.26</ele>
        <time>2013-04-20T08:09:58Z</time>
      </trkpt>
      <trkpt lat="42.32696" lon="2.52746">
        <ele>1168.139</ele>
        <time>2013-04-20T08:10:12Z</time>
      </trkpt>
      <trkpt lat="42.32694" lon="2.52739">
        <ele>1169.133</ele>
        <time>2013-04-20T08:10:19Z</time>
      </trkpt>
      <trkpt lat="42.3269" lon="2.52734">
        <ele>1170.16</ele>
        <time>2013-04-20T08:10:25Z</time>
      </trkpt>
      <trkpt lat="42.32684" lon="2.52716">
        <ele>1173.431</ele>
        <time>2013-04-20T08:10:41Z</time>
      </trkpt>
      <trkpt lat="42.32676" lon="2.52707">
        <ele>1177.354</ele>
        <time>2013-04-20T08:10:56Z</time>
      </trkpt>
      <trkpt lat="42.32672" lon="2.52696">
        <ele>1179.757</ele>
        <time>2013-04-20T08:11:09Z</time>
      </trkpt>
      <trkpt lat="42.32671" lon="2.52691">
        <ele>1180.651</ele>
        <time>2013-04-20T08:11:22Z</time>
      </trkpt>
      <trkpt lat="42.32664" lon="2.52677">
        <ele>1181.101</ele>
        <time>2013-04-20T08:11:35Z</time>
      </trkpt>
      <trkpt lat="42.32662" lon="2.52657">
        <ele>1182.111</ele>
        <time>2013-04-20T08:11:49Z</time>
      </trkpt>
      <trkpt lat="42.32662" lon="2.52646">
        <ele>1186.907</ele>
        <time>2013-04-20T08:12:03Z</time>
      </trkpt>
      <trkpt lat="42.32661" lon="2.52639">
        <ele>1190.759</ele>
        <time>2013-04-20T08:12:17Z</time>
      </trkpt>
      <trkpt lat="42.32659" lon="2.52639">
        <ele>1191.778</ele>
        <time>2013-04-20T08:12:19Z</time>
      </trkpt>
      <trkpt lat="42.32652" lon="2.52621">
        <ele>1193.632</ele>
        <time>2013-04-20T08:12:34Z</time>
      </trkpt>
      <trkpt lat="42.32651" lon="2.52611">
        <ele>1194.639</ele>
        <time>2013-04-20T08:12:42Z</time>
      </trkpt>
      <trkpt lat="42.32652" lon="2.52598">
        <ele>1196.04</ele>
        <time>2013-04-20T08:12:51Z</time>
      </trkpt>
      <trkpt lat="42.32654" lon="2.52594">
        <ele>1196.553</ele>
        <time>2013-04-20T08:12:55Z</time>
      </trkpt>
      <trkpt lat="42.32656" lon="2.52577">
        <ele>1198.976</ele>
        <time>2013-04-20T08:13:07Z</time>
      </trkpt>
      <trkpt lat="42.32663" lon="2.52571">
        <ele>1201.825</ele>
        <time>2013-04-20T08:13:20Z</time>
      </trkpt>
      <trkpt lat="42.3267" lon="2.52564">
        <ele>1204.726</ele>
        <time>2013-04-20T08:13:33Z</time>
      </trkpt>
      <trkpt lat="42.32679" lon="2.52551">
        <ele>1208.508</ele>
        <time>2013-04-20T08:13:46Z</time>
      </trkpt>
      <trkpt lat="42.32684" lon="2.52532">
        <ele>1213.307</ele>
        <time>2013-04-20T08:14:00Z</time>
      </trkpt>
      <trkpt lat="42.32691" lon="2.52529">
        <ele>1215.716</ele>
        <time>2013-04-20T08:14:12Z</time>
      </trkpt>
      <trkpt lat="42.32693" lon="2.5252">
        <ele>1220.175</ele>
        <time>2013-04-20T08:14:24Z</time>
      </trkpt>
      <trkpt lat="42.32692" lon="2.52518">
        <ele>1220.579</ele>
        <time>2013-04-20T08:14:26Z</time>
      </trkpt>
      <trkpt lat="42.32695" lon="2.52505">
        <ele>1221.576</ele>
        <time>2013-04-20T08:14:34Z</time>
      </trkpt>
      <trkpt lat="42.32695" lon="2.525">
        <ele>1221.517</ele>
        <time>2013-04-20T08:14:37Z</time>
      </trkpt>
      <trkpt lat="42.32699" lon="2.52483">
        <ele>1224.91</ele>
        <time>2013-04-20T08:14:50Z</time>
      </trkpt>
      <trkpt lat="42.32704" lon="2.52475">
        <ele>1227.713</ele>
        <time>2013-04-20T08:15:00Z</time>
      </trkpt>
      <trkpt lat="42.32708" lon="2.52459">
        <ele>1230.619</ele>
        <time>2013-04-20T08:15:14Z</time>
      </trkpt>
      <trkpt lat="42.3271" lon="2.52445">
        <ele>1232.609</ele>
        <time>2013-04-20T08:15:27Z</time>
      </trkpt>
      <trkpt lat="42.32714" lon="2.52436">
        <ele>1234.519</ele>
        <time>2013-04-20T08:15:36Z</time>
      </trkpt>
      <trkpt lat="42.32716" lon="2.52425">
        <ele>1236.907</ele>
        <time>2013-04-20T08:15:48Z</time>
      </trkpt>
      <trkpt lat="42.32717" lon="2.52415">
        <ele>1241.215</ele>
        <time>2013-04-20T08:16:01Z</time>
      </trkpt>
      <trkpt lat="42.32718" lon="2.52412">
        <ele>1242.234</ele>
        <time>2013-04-20T08:16:05Z</time>
      </trkpt>
      <trkpt lat="42.32718" lon="2.5241">
        <ele>1243.158</ele>
        <time>2013-04-20T08:16:07Z</time>
      </trkpt>
      <trkpt lat="42.32722" lon="2.524">
        <ele>1246.055</ele>
        <time>2013-04-20T08:16:20Z</time>
      </trkpt>
      <trkpt lat="42.32725" lon="2.52393">
        <ele>1247.596</ele>
        <time>2013-04-20T08:16:31Z</time>
      </trkpt>
      <trkpt lat="42.32728" lon="2.52381">
        <ele>1248.979</ele>
        <time>2013-04-20T08:16:43Z</time>
      </trkpt>
      <trkpt lat="42.32729" lon="2.52374">
        <ele>1250.342</ele>
        <time>2013-04-20T08:16:50Z</time>
      </trkpt>
      <trkpt lat="42.32731" lon="2.52361">
        <ele>1251.386</ele>
        <time>2013-04-20T08:17:00Z</time>
      </trkpt>
      <trkpt lat="42.32732" lon="2.52353">
        <ele>1253.26</ele>
        <time>2013-04-20T08:17:08Z</time>
      </trkpt>
      <trkpt lat="42.32732" lon="2.52349">
        <ele>1253.726</ele>
        <time>2013-04-20T08:17:11Z</time>
      </trkpt>
      <trkpt lat="42.32733" lon="2.52346">
        <ele>1253.707</ele>
        <time>2013-04-20T08:17:13Z</time>
      </trkpt>
      <trkpt lat="42.32734" lon="2.52344">
        <ele>1253.742</ele>
        <time>2013-04-20T08:17:15Z</time>
      </trkpt>
      <trkpt lat="42.32735" lon="2.52341">
        <ele>1253.791</ele>
        <time>2013-04-20T08:17:17Z</time>
      </trkpt>
      <trkpt lat="42.3274" lon="2.52324">
        <ele>1257.175</ele>
        <time>2013-04-20T08:17:32Z</time>
      </trkpt>
      <trkpt lat="42.32743" lon="2.52311">
        <ele>1259.982</ele>
        <time>2013-04-20T08:17:43Z</time>
      </trkpt>
      <trkpt lat="42.32746" lon="2.52302">
        <ele>1261.943</ele>
        <time>2013-04-20T08:17:50Z</time>
      </trkpt>
      <trkpt lat="42.32747" lon="2.52293">
        <ele>1263.336</ele>
        <time>2013-04-20T08:17:57Z</time>
      </trkpt>
      <trkpt lat="42.32751" lon="2.52285">
        <ele>1265.739</ele>
        <time>2013-04-20T08:18:05Z</time>
      </trkpt>
      <trkpt lat="42.32754" lon="2.52273">
        <ele>1269.122</ele>
        <time>2013-04-20T08:18:18Z</time>
      </trkpt>
      <trkpt lat="42.32758" lon="2.52269">
        <ele>1271.562</ele>
        <time>2013-04-20T08:18:27Z</time>
      </trkpt>
      <trkpt lat="42.32759" lon="2.52267">
        <ele>1272.008</ele>
        <time>2013-04-20T08:18:29Z</time>
      </trkpt>
      <trkpt lat="42.32761" lon="2.52263">
        <ele>1272.907</ele>
        <time>2013-04-20T08:18:33Z</time>
      </trkpt>
      <trkpt lat="42.32764" lon="2.52256">
        <ele>1274.466</ele>
        <time>2013-04-20T08:18:43Z</time>
      </trkpt>
      <trkpt lat="42.3277" lon="2.52244">
        <ele>1274.455</ele>
        <time>2013-04-20T08:18:53Z</time>
      </trkpt>
      <trkpt lat="42.32771" lon="2.5224">
        <ele>1275.379</ele>
        <time>2013-04-20T08:18:56Z</time>
      </trkpt>
      <trkpt lat="42.32776" lon="2.52235">
        <ele>1276.376</ele>
        <time>2013-04-20T08:19:02Z</time>
      </trkpt>
      <trkpt lat="42.32779" lon="2.52231">
        <ele>1277.327</ele>
        <time>2013-04-20T08:19:06Z</time>
      </trkpt>
      <trkpt lat="42.32786" lon="2.52221">
        <ele>1278.22</ele>
        <time>2013-04-20T08:19:14Z</time>
      </trkpt>
      <trkpt lat="42.3279" lon="2.52215">
        <ele>1278.273</ele>
        <time>2013-04-20T08:19:19Z</time>
      </trkpt>
      <trkpt lat="42.32798" lon="2.52197">
        <ele>1281.617</ele>
        <time>2013-04-20T08:19:33Z</time>
      </trkpt>
      <trkpt lat="42.32798" lon="2.5219">
        <ele>1281.687</ele>
        <time>2013-04-20T08:19:37Z</time>
      </trkpt>
      <trkpt lat="42.32801" lon="2.52178">
        <ele>1280.615</ele>
        <time>2013-04-20T08:19:44Z</time>
      </trkpt>
      <trkpt lat="42.32815" lon="2.52165">
        <ele>1279.207</ele>
        <time>2013-04-20T08:19:57Z</time>
      </trkpt>
      <trkpt lat="42.32819" lon="2.52164">
        <ele>1279.755</ele>
        <time>2013-04-20T08:20:01Z</time>
      </trkpt>
      <trkpt lat="42.32828" lon="2.5216">
        <ele>1280.674</ele>
        <time>2013-04-20T08:20:08Z</time>
      </trkpt>
      <trkpt lat="42.32831" lon="2.52152">
        <ele>1282.178</ele>
        <time>2013-04-20T08:20:18Z</time>
      </trkpt>
      <trkpt lat="42.32832" lon="2.52152">
        <ele>1282.185</ele>
        <time>2013-04-20T08:20:20Z</time>
      </trkpt>
      <trkpt lat="42.32836" lon="2.52155">
        <ele>1282.146</ele>
        <time>2013-04-20T08:20:28Z</time>
      </trkpt>
      <trkpt lat="42.32841" lon="2.52157">
        <ele>1282.119</ele>
        <time>2013-04-20T08:20:32Z</time>
      </trkpt>
      <trkpt lat="42.32843" lon="2.52157">
        <ele>1282.532</ele>
        <time>2013-04-20T08:20:34Z</time>
      </trkpt>
      <trkpt lat="42.32849" lon="2.52158">
        <ele>1283.586</ele>
        <time>2013-04-20T08:20:41Z</time>
      </trkpt>
      <trkpt lat="42.32859" lon="2.52157">
        <ele>1284.06</ele>
        <time>2013-04-20T08:20:50Z</time>
      </trkpt>
      <trkpt lat="42.32872" lon="2.52158">
        <ele>1285.926</ele>
        <time>2013-04-20T08:21:01Z</time>
      </trkpt>
      <trkpt lat="42.32874" lon="2.52158">
        <ele>1286.907</ele>
        <time>2013-04-20T08:21:03Z</time>
      </trkpt>
      <trkpt lat="42.32882" lon="2.52152">
        <ele>1289.892</ele>
        <time>2013-04-20T08:21:15Z</time>
      </trkpt>
      <trkpt lat="42.32886" lon="2.5215">
        <ele>1290.261</ele>
        <time>2013-04-20T08:21:19Z</time>
      </trkpt>
      <trkpt lat="42.3289" lon="2.52149">
        <ele>1290.235</ele>
        <time>2013-04-20T08:21:24Z</time>
      </trkpt>
      <trkpt lat="42.32894" lon="2.52147">
        <ele>1290.762</ele>
        <time>2013-04-20T08:21:28Z</time>
      </trkpt>
      <trkpt lat="42.32898" lon="2.52142">
        <ele>1292.293</ele>
        <time>2013-04-20T08:21:33Z</time>
      </trkpt>
      <trkpt lat="42.32906" lon="2.52137">
        <ele>1293.166</ele>
        <time>2013-04-20T08:21:44Z</time>
      </trkpt>
      <trkpt lat="42.32911" lon="2.52132">
        <ele>1296.019</ele>
        <time>2013-04-20T08:21:54Z</time>
      </trkpt>
      <trkpt lat="42.32913" lon="2.52127">
        <ele>1296.553</ele>
        <time>2013-04-20T08:21:59Z</time>
      </trkpt>
      <trkpt lat="42.3292" lon="2.5212">
        <ele>1298.904</ele>
        <time>2013-04-20T08:22:11Z</time>
      </trkpt>
      <trkpt lat="42.32929" lon="2.52117">
        <ele>1300.814</ele>
        <time>2013-04-20T08:22:24Z</time>
      </trkpt>
      <trkpt lat="42.3293" lon="2.52121">
        <ele>1301.307</ele>
        <time>2013-04-20T08:22:37Z</time>
      </trkpt>
      <trkpt lat="42.3293" lon="2.52127">
        <ele>1302.219</ele>
        <time>2013-04-20T08:22:51Z</time>
      </trkpt>
      <trkpt lat="42.3293" lon="2.52128">
        <ele>1303.218</ele>
        <time>2013-04-20T08:22:59Z</time>
      </trkpt>
      <trkpt lat="42.32935" lon="2.52133">
        <ele>1303.792</ele>
        <time>2013-04-20T08:23:07Z</time>
      </trkpt>
      <trkpt lat="42.32939" lon="2.52144">
        <ele>1305.169</ele>
        <time>2013-04-20T08:23:19Z</time>
      </trkpt>
      <trkpt lat="42.32942" lon="2.5216">
        <ele>1306.16</ele>
        <time>2013-04-20T08:23:33Z</time>
      </trkpt>
      <trkpt lat="42.32944" lon="2.5217">
        <ele>1308.553</ele>
        <time>2013-04-20T08:23:42Z</time>
      </trkpt>
      <trkpt lat="42.32943" lon="2.52178">
        <ele>1308.546</ele>
        <time>2013-04-20T08:23:48Z</time>
      </trkpt>
      <trkpt lat="42.32943" lon="2.52194">
        <ele>1310.492</ele>
        <time>2013-04-20T08:24:02Z</time>
      </trkpt>
      <trkpt lat="42.32947" lon="2.52208">
        <ele>1313.373</ele>
        <time>2013-04-20T08:24:17Z</time>
      </trkpt>
      <trkpt lat="42.32948" lon="2.52213">
        <ele>1313.82</ele>
        <time>2013-04-20T08:24:22Z</time>
      </trkpt>
      <trkpt lat="42.32955" lon="2.52228">
        <ele>1318.607</ele>
        <time>2013-04-20T08:24:39Z</time>
      </trkpt>
      <trkpt lat="42.32957" lon="2.52231">
        <ele>1319.153</ele>
        <time>2013-04-20T08:24:42Z</time>
      </trkpt>
      <trkpt lat="42.32963" lon="2.52245">
        <ele>1321.052</ele>
        <time>2013-04-20T08:24:55Z</time>
      </trkpt>
      <trkpt lat="42.3297" lon="2.52271">
        <ele>1323.426</ele>
        <time>2013-04-20T08:25:12Z</time>
      </trkpt>
      <trkpt lat="42.32978" lon="2.52285">
        <ele>1325.333</ele>
        <time>2013-04-20T08:25:24Z</time>
      </trkpt>
      <trkpt lat="42.32994" lon="2.52299">
        <ele>1327.754</ele>
        <time>2013-04-20T08:25:41Z</time>
      </trkpt>
      <trkpt lat="42.33006" lon="2.52309">
        <ele>1328.717</ele>
        <time>2013-04-20T08:25:55Z</time>
      </trkpt>
      <trkpt lat="42.33018" lon="2.52313">
        <ele>1332.51</ele>
        <time>2013-04-20T08:26:09Z</time>
      </trkpt>
      <trkpt lat="42.3302" lon="2.52317">
        <ele>1334.057</ele>
        <time>2013-04-20T08:26:12Z</time>
      </trkpt>
      <trkpt lat="42.3302" lon="2.5232">
        <ele>1334.5</ele>
        <time>2013-04-20T08:26:14Z</time>
      </trkpt>
      <trkpt lat="42.33031" lon="2.52329">
        <ele>1336.42</ele>
        <time>2013-04-20T08:26:28Z</time>
      </trkpt>
      <trkpt lat="42.3304" lon="2.52342">
        <ele>1339.307</ele>
        <time>2013-04-20T08:26:43Z</time>
      </trkpt>
      <trkpt lat="42.33046" lon="2.52353">
        <ele>1343.199</ele>
        <time>2013-04-20T08:26:56Z</time>
      </trkpt>
      <trkpt lat="42.3305" lon="2.52367">
        <ele>1346.548</ele>
        <time>2013-04-20T08:27:11Z</time>
      </trkpt>
      <trkpt lat="42.33054" lon="2.52372">
        <ele>1348.432</ele>
        <time>2013-04-20T08:27:25Z</time>
      </trkpt>
      <trkpt lat="42.33055" lon="2.52379">
        <ele>1349.489</ele>
        <time>2013-04-20T08:27:31Z</time>
      </trkpt>
      <trkpt lat="42.3306" lon="2.52395">
        <ele>1352.71</ele>
        <time>2013-04-20T08:27:46Z</time>
      </trkpt>
      <trkpt lat="42.33063" lon="2.52405">
        <ele>1355.143</ele>
        <time>2013-04-20T08:27:54Z</time>
      </trkpt>
      <trkpt lat="42.33066" lon="2.52417">
        <ele>1357.546</ele>
        <time>2013-04-20T08:28:06Z</time>
      </trkpt>
      <trkpt lat="42.33069" lon="2.52437">
        <ele>1361.481</ele>
        <time>2013-04-20T08:28:22Z</time>
      </trkpt>
      <trkpt lat="42.33071" lon="2.52448">
        <ele>1363.361</ele>
        <time>2013-04-20T08:28:30Z</time>
      </trkpt>
      <trkpt lat="42.33076" lon="2.5246">
        <ele>1365.217</ele>
        <time>2013-04-20T08:28:44Z</time>
      </trkpt>
      <trkpt lat="42.33076" lon="2.52461">
        <ele>1365.207</ele>
        <time>2013-04-20T08:28:45Z</time>
      </trkpt>
      <trkpt lat="42.33075" lon="2.5248">
        <ele>1367.642</ele>
        <time>2013-04-20T08:29:00Z</time>
      </trkpt>
      <trkpt lat="42.33076" lon="2.52495">
        <ele>1372.471</ele>
        <time>2013-04-20T08:29:15Z</time>
      </trkpt>
      <trkpt lat="42.33075" lon="2.52503">
        <ele>1373.485</ele>
        <time>2013-04-20T08:29:22Z</time>
      </trkpt>
      <trkpt lat="42.33075" lon="2.52505">
        <ele>1373.982</ele>
        <time>2013-04-20T08:29:24Z</time>
      </trkpt>
      <trkpt lat="42.33073" lon="2.52531">
        <ele>1375.873</ele>
        <time>2013-04-20T08:29:39Z</time>
      </trkpt>
      <trkpt lat="42.33075" lon="2.5255">
        <ele>1377.776</ele>
        <time>2013-04-20T08:29:52Z</time>
      </trkpt>
      <trkpt lat="42.33077" lon="2.52565">
        <ele>1381.169</ele>
        <time>2013-04-20T08:30:06Z</time>
      </trkpt>
      <trkpt lat="42.33078" lon="2.52573">
        <ele>1382.532</ele>
        <time>2013-04-20T08:30:13Z</time>
      </trkpt>
      <trkpt lat="42.33077" lon="2.5259">
        <ele>1385.992</ele>
        <time>2013-04-20T08:30:27Z</time>
      </trkpt>
      <trkpt lat="42.33077" lon="2.52594">
        <ele>1387.311</ele>
        <time>2013-04-20T08:30:31Z</time>
      </trkpt>
      <trkpt lat="42.3307" lon="2.5261">
        <ele>1388.307</ele>
        <time>2013-04-20T08:30:45Z</time>
      </trkpt>
      <trkpt lat="42.33069" lon="2.52637">
        <ele>1388.327</ele>
        <time>2013-04-20T08:30:59Z</time>
      </trkpt>
      <trkpt lat="42.33067" lon="2.52663">
        <ele>1387.316</ele>
        <time>2013-04-20T08:31:09Z</time>
      </trkpt>
      <trkpt lat="42.33067" lon="2.52676">
        <ele>1386.88</ele>
        <time>2013-04-20T08:31:14Z</time>
      </trkpt>
      <trkpt lat="42.33073" lon="2.52699">
        <ele>1387.897</ele>
        <time>2013-04-20T08:31:29Z</time>
      </trkpt>
      <trkpt lat="42.33076" lon="2.52706">
        <ele>1389.248</ele>
        <time>2013-04-20T08:31:42Z</time>
      </trkpt>
      <trkpt lat="42.33088" lon="2.52722">
        <ele>1391.731</ele>
        <time>2013-04-20T08:31:57Z</time>
      </trkpt>
      <trkpt lat="42.33096" lon="2.52737">
        <ele>1394.554</ele>
        <time>2013-04-20T08:32:11Z</time>
      </trkpt>
      <trkpt lat="42.33103" lon="2.52748">
        <ele>1396.973</ele>
        <time>2013-04-20T08:32:26Z</time>
      </trkpt>
      <trkpt lat="42.33105" lon="2.52753">
        <ele>1398.985</ele>
        <time>2013-04-20T08:32:45Z</time>
      </trkpt>
      <trkpt lat="42.3311" lon="2.52763">
        <ele>1400.313</ele>
        <time>2013-04-20T08:33:01Z</time>
      </trkpt>
      <trkpt lat="42.33117" lon="2.52765">
        <ele>1401.707</ele>
        <time>2013-04-20T08:33:14Z</time>
      </trkpt>
      <trkpt lat="42.33128" lon="2.5277">
        <ele>1405.621</ele>
        <time>2013-04-20T08:33:29Z</time>
      </trkpt>
      <trkpt lat="42.33135" lon="2.52768">
        <ele>1409.45</ele>
        <time>2013-04-20T08:33:45Z</time>
      </trkpt>
      <trkpt lat="42.33143" lon="2.52769">
        <ele>1412.394</ele>
        <time>2013-04-20T08:33:58Z</time>
      </trkpt>
      <trkpt lat="42.33146" lon="2.52769">
        <ele>1413.321</ele>
        <time>2013-04-20T08:34:04Z</time>
      </trkpt>
      <trkpt lat="42.33152" lon="2.52769">
        <ele>1415.712</ele>
        <time>2013-04-20T08:34:17Z</time>
      </trkpt>
      <trkpt lat="42.33159" lon="2.5277">
        <ele>1417.625</ele>
        <time>2013-04-20T08:34:33Z</time>
      </trkpt>
      <trkpt lat="42.33166" lon="2.52769">
        <ele>1421.938</ele>
        <time>2013-04-20T08:34:47Z</time>
      </trkpt>
      <trkpt lat="42.33172" lon="2.52766">
        <ele>1429.119</ele>
        <time>2013-04-20T08:35:04Z</time>
      </trkpt>
      <trkpt lat="42.33174" lon="2.52757">
        <ele>1432.509</ele>
        <time>2013-04-20T08:35:20Z</time>
      </trkpt>
      <trkpt lat="42.33171" lon="2.52748">
        <ele>1436.419</ele>
        <time>2013-04-20T08:35:34Z</time>
      </trkpt>
      <trkpt lat="42.33176" lon="2.52742">
        <ele>1438.307</ele>
        <time>2013-04-20T08:35:48Z</time>
      </trkpt>
      <trkpt lat="42.33181" lon="2.52739">
        <ele>1441.275</ele>
        <time>2013-04-20T08:36:05Z</time>
      </trkpt>
      <trkpt lat="42.33187" lon="2.52744">
        <ele>1444.524</ele>
        <time>2013-04-20T08:36:20Z</time>
      </trkpt>
      <trkpt lat="42.33191" lon="2.52742">
        <ele>1447.948</ele>
        <time>2013-04-20T08:36:34Z</time>
      </trkpt>
      <trkpt lat="42.33198" lon="2.52741">
        <ele>1450.325</ele>
        <time>2013-04-20T08:36:50Z</time>
      </trkpt>
      <trkpt lat="42.33203" lon="2.52736">
        <ele>1453.216</ele>
        <time>2013-04-20T08:37:07Z</time>
      </trkpt>
      <trkpt lat="42.33207" lon="2.52732">
        <ele>1454.629</ele>
        <time>2013-04-20T08:37:22Z</time>
      </trkpt>
      <trkpt lat="42.33214" lon="2.52734">
        <ele>1460.982</ele>
        <time>2013-04-20T08:37:40Z</time>
      </trkpt>
      <trkpt lat="42.33221" lon="2.52736">
        <ele>1465.211</ele>
        <time>2013-04-20T08:37:53Z</time>
      </trkpt>
      <trkpt lat="42.33227" lon="2.5274">
        <ele>1469.521</ele>
        <time>2013-04-20T08:38:06Z</time>
      </trkpt>
      <trkpt lat="42.33232" lon="2.52738">
        <ele>1471.403</ele>
        <time>2013-04-20T08:38:20Z</time>
      </trkpt>
      <trkpt lat="42.33239" lon="2.52735">
        <ele>1473.807</ele>
        <time>2013-04-20T08:38:37Z</time>
      </trkpt>
      <trkpt lat="42.33244" lon="2.52738">
        <ele>1476.275</ele>
        <time>2013-04-20T08:38:52Z</time>
      </trkpt>
      <trkpt lat="42.33246" lon="2.52738">
        <ele>1477.264</ele>
        <time>2013-04-20T08:38:56Z</time>
      </trkpt>
      <trkpt lat="42.3325" lon="2.52747">
        <ele>1479.648</ele>
        <time>2013-04-20T08:39:10Z</time>
      </trkpt>
      <trkpt lat="42.33252" lon="2.52756">
        <ele>1484.425</ele>
        <time>2013-04-20T08:39:22Z</time>
      </trkpt>
      <trkpt lat="42.33254" lon="2.5275">
        <ele>1488.756</ele>
        <time>2013-04-20T08:39:37Z</time>
      </trkpt>
      <trkpt lat="42.33257" lon="2.52744">
        <ele>1491.169</ele>
        <time>2013-04-20T08:39:48Z</time>
      </trkpt>
      <trkpt lat="42.3326" lon="2.52741">
        <ele>1493.622</ele>
        <time>2013-04-20T08:40:01Z</time>
      </trkpt>
      <trkpt lat="42.33265" lon="2.52741">
        <ele>1496.053</ele>
        <time>2013-04-20T08:40:18Z</time>
      </trkpt>
      <trkpt lat="42.33269" lon="2.52733">
        <ele>1497.904</ele>
        <time>2013-04-20T08:40:31Z</time>
      </trkpt>
      <trkpt lat="42.33275" lon="2.52726">
        <ele>1501.214</ele>
        <time>2013-04-20T08:40:49Z</time>
      </trkpt>
      <trkpt lat="42.33279" lon="2.52721">
        <ele>1503.607</ele>
        <time>2013-04-20T08:41:04Z</time>
      </trkpt>
      <trkpt lat="42.33283" lon="2.52714">
        <ele>1508.529</ele>
        <time>2013-04-20T08:41:20Z</time>
      </trkpt>
      <trkpt lat="42.33287" lon="2.52708">
        <ele>1513.788</ele>
        <time>2013-04-20T08:41:38Z</time>
      </trkpt>
      <trkpt lat="42.33292" lon="2.52702">
        <ele>1516.152</ele>
        <time>2013-04-20T08:41:53Z</time>
      </trkpt>
      <trkpt lat="42.33297" lon="2.527">
        <ele>1519.569</ele>
        <time>2013-04-20T08:42:10Z</time>
      </trkpt>
      <trkpt lat="42.33302" lon="2.52694">
        <ele>1521.91</ele>
        <time>2013-04-20T08:42:23Z</time>
      </trkpt>
      <trkpt lat="42.33306" lon="2.52701">
        <ele>1523.873</ele>
        <time>2013-04-20T08:42:38Z</time>
      </trkpt>
      <trkpt lat="42.33309" lon="2.527">
        <ele>1527.716</ele>
        <time>2013-04-20T08:42:52Z</time>
      </trkpt>
      <trkpt lat="42.33313" lon="2.52693">
        <ele>1530.154</ele>
        <time>2013-04-20T08:43:05Z</time>
      </trkpt>
      <trkpt lat="42.33318" lon="2.52693">
        <ele>1532.056</ele>
        <time>2013-04-20T08:43:18Z</time>
      </trkpt>
      <trkpt lat="42.3332" lon="2.527">
        <ele>1534.411</ele>
        <time>2013-04-20T08:43:31Z</time>
      </trkpt>
      <trkpt lat="42.33322" lon="2.52711">
        <ele>1538.307</ele>
        <time>2013-04-20T08:43:45Z</time>
      </trkpt>
      <trkpt lat="42.33324" lon="2.52721">
        <ele>1542.149</ele>
        <time>2013-04-20T08:44:00Z</time>
      </trkpt>
      <trkpt lat="42.33326" lon="2.52733">
        <ele>1545.018</ele>
        <time>2013-04-20T08:44:14Z</time>
      </trkpt>
      <trkpt lat="42.33328" lon="2.52738">
        <ele>1546.472</ele>
        <time>2013-04-20T08:44:20Z</time>
      </trkpt>
      <trkpt lat="42.33327" lon="2.52741">
        <ele>1546.429</ele>
        <time>2013-04-20T08:44:22Z</time>
      </trkpt>
      <trkpt lat="42.33331" lon="2.52751">
        <ele>1549.33</ele>
        <time>2013-04-20T08:44:37Z</time>
      </trkpt>
      <trkpt lat="42.33337" lon="2.52766">
        <ele>1551.283</ele>
        <time>2013-04-20T08:44:52Z</time>
      </trkpt>
      <trkpt lat="42.33335" lon="2.52777">
        <ele>1550.346</ele>
        <time>2013-04-20T08:45:06Z</time>
      </trkpt>
      <trkpt lat="42.33333" lon="2.5278">
        <ele>1553.285</ele>
        <time>2013-04-20T08:45:20Z</time>
      </trkpt>
      <trkpt lat="42.33331" lon="2.5278">
        <ele>1554.189</ele>
        <time>2013-04-20T08:45:36Z</time>
      </trkpt>
      <trkpt lat="42.33331" lon="2.5278">
        <ele>1556.517</ele>
        <time>2013-04-20T08:45:54Z</time>
      </trkpt>
      <trkpt lat="42.3333" lon="2.52783">
        <ele>1555.107</ele>
        <time>2013-04-20T08:46:11Z</time>
      </trkpt>
      <trkpt lat="42.33329" lon="2.52781">
        <ele>1555.622</ele>
        <time>2013-04-20T08:46:26Z</time>
      </trkpt>
      <trkpt lat="42.33332" lon="2.52782">
        <ele>1555.191</ele>
        <time>2013-04-20T08:46:44Z</time>
      </trkpt>
      <trkpt lat="42.33333" lon="2.52781">
        <ele>1555.195</ele>
        <time>2013-04-20T08:46:57Z</time>
      </trkpt>
      <trkpt lat="42.33332" lon="2.52781">
        <ele>1555.682</ele>
        <time>2013-04-20T08:47:15Z</time>
      </trkpt>
      <trkpt lat="42.33331" lon="2.52778">
        <ele>1557.533</ele>
        <time>2013-04-20T08:47:34Z</time>
      </trkpt>
      <trkpt lat="42.33333" lon="2.52783">
        <ele>1556.086</ele>
        <time>2013-04-20T08:47:59Z</time>
      </trkpt>
      <trkpt lat="42.33332" lon="2.52785">
        <ele>1555.129</ele>
        <time>2013-04-20T08:48:15Z</time>
      </trkpt>
      <trkpt lat="42.33332" lon="2.5279">
        <ele>1554.672</ele>
        <time>2013-04-20T08:48:34Z</time>
      </trkpt>
      <trkpt lat="42.33331" lon="2.52804">
        <ele>1549.813</ele>
        <time>2013-04-20T08:48:48Z</time>
      </trkpt>
      <trkpt lat="42.33333" lon="2.52818">
        <ele>1545.014</ele>
        <time>2013-04-20T08:49:01Z</time>
      </trkpt>
      <trkpt lat="42.33332" lon="2.5282">
        <ele>1544.007</ele>
        <time>2013-04-20T08:49:03Z</time>
      </trkpt>
      <trkpt lat="42.3333" lon="2.52832">
        <ele>1538.751</ele>
        <time>2013-04-20T08:49:13Z</time>
      </trkpt>
      <trkpt lat="42.33327" lon="2.52853">
        <ele>1532.04</ele>
        <time>2013-04-20T08:49:25Z</time>
      </trkpt>
      <trkpt lat="42.33326" lon="2.52879">
        <ele>1528.234</ele>
        <time>2013-04-20T08:49:37Z</time>
      </trkpt>
      <trkpt lat="42.33323" lon="2.52892">
        <ele>1526.771</ele>
        <time>2013-04-20T08:49:44Z</time>
      </trkpt>
      <trkpt lat="42.33323" lon="2.52897">
        <ele>1526.272</ele>
        <time>2013-04-20T08:49:46Z</time>
      </trkpt>
      <trkpt lat="42.33323" lon="2.52929">
        <ele>1522.915</ele>
        <time>2013-04-20T08:49:59Z</time>
      </trkpt>
      <trkpt lat="42.33323" lon="2.52929">
        <ele>1522.948</ele>
        <time>2013-04-20T08:50:00Z</time>
      </trkpt>
      <trkpt lat="42.33324" lon="2.52946">
        <ele>1521.959</ele>
        <time>2013-04-20T08:50:09Z</time>
      </trkpt>
      <trkpt lat="42.33323" lon="2.5296">
        <ele>1520.903</ele>
        <time>2013-04-20T08:50:20Z</time>
      </trkpt>
      <trkpt lat="42.33323" lon="2.52974">
        <ele>1519.523</ele>
        <time>2013-04-20T08:50:29Z</time>
      </trkpt>
      <trkpt lat="42.33321" lon="2.5299">
        <ele>1519.007</ele>
        <time>2013-04-20T08:50:40Z</time>
      </trkpt>
      <trkpt lat="42.33321" lon="2.52992">
        <ele>1519.599</ele>
        <time>2013-04-20T08:50:41Z</time>
      </trkpt>
      <trkpt lat="42.3332" lon="2.53013">
        <ele>1517.658</ele>
        <time>2013-04-20T08:50:52Z</time>
      </trkpt>
      <trkpt lat="42.33319" lon="2.53027">
        <ele>1513.382</ele>
        <time>2013-04-20T08:50:59Z</time>
      </trkpt>
      <trkpt lat="42.33318" lon="2.53058">
        <ele>1506.569</ele>
        <time>2013-04-20T08:51:10Z</time>
      </trkpt>
      <trkpt lat="42.33319" lon="2.53077">
        <ele>1502.21</ele>
        <time>2013-04-20T08:51:17Z</time>
      </trkpt>
      <trkpt lat="42.3332" lon="2.53082">
        <ele>1501.223</ele>
        <time>2013-04-20T08:51:19Z</time>
      </trkpt>
      <trkpt lat="42.33323" lon="2.53099">
        <ele>1497.426</ele>
        <time>2013-04-20T08:51:25Z</time>
      </trkpt>
      <trkpt lat="42.3332" lon="2.53112">
        <ele>1493.172</ele>
        <time>2013-04-20T08:51:30Z</time>
      </trkpt>
      <trkpt lat="42.33317" lon="2.53132">
        <ele>1490.213</ele>
        <time>2013-04-20T08:51:37Z</time>
      </trkpt>
      <trkpt lat="42.33316" lon="2.53143">
        <ele>1489.214</ele>
        <time>2013-04-20T08:51:42Z</time>
      </trkpt>
      <trkpt lat="42.33315" lon="2.53165">
        <ele>1492.607</ele>
        <time>2013-04-20T08:51:55Z</time>
      </trkpt>
      <trkpt lat="42.33315" lon="2.53184">
        <ele>1491.141</ele>
        <time>2013-04-20T08:52:05Z</time>
      </trkpt>
      <trkpt lat="42.33314" lon="2.53194">
        <ele>1489.77</ele>
        <time>2013-04-20T08:52:09Z</time>
      </trkpt>
      <trkpt lat="42.33311" lon="2.53206">
        <ele>1489.214</ele>
        <time>2013-04-20T08:52:13Z</time>
      </trkpt>
      <trkpt lat="42.33307" lon="2.53241">
        <ele>1486.871</ele>
        <time>2013-04-20T08:52:23Z</time>
      </trkpt>
      <trkpt lat="42.33304" lon="2.53263">
        <ele>1485.472</ele>
        <time>2013-04-20T08:52:32Z</time>
      </trkpt>
      <trkpt lat="42.33305" lon="2.53268">
        <ele>1485.485</ele>
        <time>2013-04-20T08:52:34Z</time>
      </trkpt>
      <trkpt lat="42.33305" lon="2.53296">
        <ele>1485.418</ele>
        <time>2013-04-20T08:52:45Z</time>
      </trkpt>
      <trkpt lat="42.33306" lon="2.53319">
        <ele>1483.044</ele>
        <time>2013-04-20T08:52:56Z</time>
      </trkpt>
      <trkpt lat="42.33307" lon="2.53324">
        <ele>1483.505</ele>
        <time>2013-04-20T08:52:58Z</time>
      </trkpt>
      <trkpt lat="42.33311" lon="2.53332">
        <ele>1483.915</ele>
        <time>2013-04-20T08:53:03Z</time>
      </trkpt>
      <trkpt lat="42.33324" lon="2.53348">
        <ele>1477.207</ele>
        <time>2013-04-20T08:53:15Z</time>
      </trkpt>
      <trkpt lat="42.3333" lon="2.53359">
        <ele>1473.848</ele>
        <time>2013-04-20T08:53:22Z</time>
      </trkpt>
      <trkpt lat="42.33339" lon="2.53369">
        <ele>1468.627</ele>
        <time>2013-04-20T08:53:36Z</time>
      </trkpt>
      <trkpt lat="42.33342" lon="2.53374">
        <ele>1462.881</ele>
        <time>2013-04-20T08:53:47Z</time>
      </trkpt>
      <trkpt lat="42.33347" lon="2.53389">
        <ele>1458.978</ele>
        <time>2013-04-20T08:54:01Z</time>
      </trkpt>
      <trkpt lat="42.33351" lon="2.53391">
        <ele>1455.189</ele>
        <time>2013-04-20T08:54:13Z</time>
      </trkpt>
      <trkpt lat="42.33355" lon="2.5339">
        <ele>1450.382</ele>
        <time>2013-04-20T08:54:23Z</time>
      </trkpt>
      <trkpt lat="42.33359" lon="2.53389">
        <ele>1446.925</ele>
        <time>2013-04-20T08:54:32Z</time>
      </trkpt>
      <trkpt lat="42.3336" lon="2.53394">
        <ele>1445.095</ele>
        <time>2013-04-20T08:54:35Z</time>
      </trkpt>
      <trkpt lat="42.33367" lon="2.53394">
        <ele>1439.249</ele>
        <time>2013-04-20T08:54:46Z</time>
      </trkpt>
      <trkpt lat="42.33373" lon="2.534">
        <ele>1434.423</ele>
        <time>2013-04-20T08:54:57Z</time>
      </trkpt>
      <trkpt lat="42.33373" lon="2.53401">
        <ele>1434.407</ele>
        <time>2013-04-20T08:54:58Z</time>
      </trkpt>
      <trkpt lat="42.33378" lon="2.53412">
        <ele>1431.143</ele>
        <time>2013-04-20T08:55:05Z</time>
      </trkpt>
      <trkpt lat="42.33381" lon="2.53421">
        <ele>1427.792</ele>
        <time>2013-04-20T08:55:10Z</time>
      </trkpt>
      <trkpt lat="42.33383" lon="2.53427">
        <ele>1425.846</ele>
        <time>2013-04-20T08:55:24Z</time>
      </trkpt>
      <trkpt lat="42.33386" lon="2.53435">
        <ele>1425.353</ele>
        <time>2013-04-20T08:55:37Z</time>
      </trkpt>
      <trkpt lat="42.33386" lon="2.53437">
        <ele>1424.834</ele>
        <time>2013-04-20T08:55:38Z</time>
      </trkpt>
      <trkpt lat="42.3339" lon="2.53463">
        <ele>1421.577</ele>
        <time>2013-04-20T08:55:53Z</time>
      </trkpt>
      <trkpt lat="42.3339" lon="2.53469">
        <ele>1421.03</ele>
        <time>2013-04-20T08:55:56Z</time>
      </trkpt>
      <trkpt lat="42.33386" lon="2.53505">
        <ele>1416.267</ele>
        <time>2013-04-20T08:56:09Z</time>
      </trkpt>
      <trkpt lat="42.33388" lon="2.53514">
        <ele>1412.881</ele>
        <time>2013-04-20T08:56:13Z</time>
      </trkpt>
      <trkpt lat="42.33388" lon="2.53547">
        <ele>1407.019</ele>
        <time>2013-04-20T08:56:24Z</time>
      </trkpt>
      <trkpt lat="42.33395" lon="2.53586">
        <ele>1401.307</ele>
        <time>2013-04-20T08:56:37Z</time>
      </trkpt>
      <trkpt lat="42.33396" lon="2.53626">
        <ele>1394.15</ele>
        <time>2013-04-20T08:56:49Z</time>
      </trkpt>
      <trkpt lat="42.33392" lon="2.53651">
        <ele>1393.669</ele>
        <time>2013-04-20T08:56:57Z</time>
      </trkpt>
      <trkpt lat="42.33387" lon="2.53671">
        <ele>1394.183</ele>
        <time>2013-04-20T08:57:05Z</time>
      </trkpt>
      <trkpt lat="42.33383" lon="2.53706">
        <ele>1395.52</ele>
        <time>2013-04-20T08:57:17Z</time>
      </trkpt>
      <trkpt lat="42.33382" lon="2.53736">
        <ele>1395.041</ele>
        <time>2013-04-20T08:57:28Z</time>
      </trkpt>
      <trkpt lat="42.33384" lon="2.53762">
        <ele>1396.594</ele>
        <time>2013-04-20T08:57:38Z</time>
      </trkpt>
      <trkpt lat="42.33388" lon="2.53792">
        <ele>1395.047</ele>
        <time>2013-04-20T08:57:49Z</time>
      </trkpt>
      <trkpt lat="42.33388" lon="2.53805">
        <ele>1395.049</ele>
        <time>2013-04-20T08:57:54Z</time>
      </trkpt>
      <trkpt lat="42.33389" lon="2.53819">
        <ele>1394.102</ele>
        <time>2013-04-20T08:57:59Z</time>
      </trkpt>
      <trkpt lat="42.33386" lon="2.53843">
        <ele>1390.722</ele>
        <time>2013-04-20T08:58:12Z</time>
      </trkpt>
      <trkpt lat="42.33384" lon="2.53876">
        <ele>1387.307</ele>
        <time>2013-04-20T08:58:23Z</time>
      </trkpt>
      <trkpt lat="42.33378" lon="2.53907">
        <ele>1383.568</ele>
        <time>2013-04-20T08:58:33Z</time>
      </trkpt>
      <trkpt lat="42.33376" lon="2.53942">
        <ele>1384.977</ele>
        <time>2013-04-20T08:58:45Z</time>
      </trkpt>
      <trkpt lat="42.33377" lon="2.53954">
        <ele>1385.991</ele>
        <time>2013-04-20T08:58:54Z</time>
      </trkpt>
      <trkpt lat="42.33377" lon="2.53967">
        <ele>1384.028</ele>
        <time>2013-04-20T08:59:00Z</time>
      </trkpt>
      <trkpt lat="42.33376" lon="2.53973">
        <ele>1384.459</ele>
        <time>2013-04-20T08:59:02Z</time>
      </trkpt>
      <trkpt lat="42.33372" lon="2.54006">
        <ele>1383.592</ele>
        <time>2013-04-20T08:59:13Z</time>
      </trkpt>
      <trkpt lat="42.33372" lon="2.54034">
        <ele>1384.085</ele>
        <time>2013-04-20T08:59:23Z</time>
      </trkpt>
      <trkpt lat="42.33367" lon="2.54072">
        <ele>1384.433</ele>
        <time>2013-04-20T08:59:36Z</time>
      </trkpt>
      <trkpt lat="42.33363" lon="2.54094">
        <ele>1384.423</ele>
        <time>2013-04-20T08:59:43Z</time>
      </trkpt>
      <trkpt lat="42.33359" lon="2.54124">
        <ele>1384.415</ele>
        <time>2013-04-20T08:59:53Z</time>
      </trkpt>
      <trkpt lat="42.33354" lon="2.54146">
        <ele>1382.007</ele>
        <time>2013-04-20T09:00:01Z</time>
      </trkpt>
      <trkpt lat="42.33341" lon="2.54176">
        <ele>1377.787</ele>
        <time>2013-04-20T09:00:14Z</time>
      </trkpt>
      <trkpt lat="42.33337" lon="2.54199">
        <ele>1372.426</ele>
        <time>2013-04-20T09:00:23Z</time>
      </trkpt>
      <trkpt lat="42.33335" lon="2.54225">
        <ele>1365.21</ele>
        <time>2013-04-20T09:00:33Z</time>
      </trkpt>
      <trkpt lat="42.33334" lon="2.54231">
        <ele>1364.717</ele>
        <time>2013-04-20T09:00:35Z</time>
      </trkpt>
      <trkpt lat="42.3333" lon="2.54251">
        <ele>1363.348</ele>
        <time>2013-04-20T09:00:43Z</time>
      </trkpt>
      <trkpt lat="42.33314" lon="2.54283">
        <ele>1361.481</ele>
        <time>2013-04-20T09:00:55Z</time>
      </trkpt>
      <trkpt lat="42.33297" lon="2.54311">
        <ele>1360.994</ele>
        <time>2013-04-20T09:01:06Z</time>
      </trkpt>
      <trkpt lat="42.33281" lon="2.54345">
        <ele>1359.441</ele>
        <time>2013-04-20T09:01:18Z</time>
      </trkpt>
      <trkpt lat="42.33271" lon="2.5437">
        <ele>1361.881</ele>
        <time>2013-04-20T09:01:28Z</time>
      </trkpt>
      <trkpt lat="42.3326" lon="2.54397">
        <ele>1362.309</ele>
        <time>2013-04-20T09:01:39Z</time>
      </trkpt>
      <trkpt lat="42.33249" lon="2.54427">
        <ele>1359.907</ele>
        <time>2013-04-20T09:01:51Z</time>
      </trkpt>
      <trkpt lat="42.33244" lon="2.54438">
        <ele>1359.098</ele>
        <time>2013-04-20T09:01:56Z</time>
      </trkpt>
      <trkpt lat="42.33241" lon="2.54442">
        <ele>1358.027</ele>
        <time>2013-04-20T09:01:59Z</time>
      </trkpt>
      <trkpt lat="42.3323" lon="2.54453">
        <ele>1359.411</ele>
        <time>2013-04-20T09:02:09Z</time>
      </trkpt>
      <trkpt lat="42.33223" lon="2.54461">
        <ele>1361.858</ele>
        <time>2013-04-20T09:02:16Z</time>
      </trkpt>
      <trkpt lat="42.33213" lon="2.54469">
        <ele>1359.069</ele>
        <time>2013-04-20T09:02:29Z</time>
      </trkpt>
      <trkpt lat="42.33211" lon="2.54472">
        <ele>1358.012</ele>
        <time>2013-04-20T09:02:31Z</time>
      </trkpt>
      <trkpt lat="42.33204" lon="2.54485">
        <ele>1356.175</ele>
        <time>2013-04-20T09:02:37Z</time>
      </trkpt>
      <trkpt lat="42.33199" lon="2.54494">
        <ele>1355.616</ele>
        <time>2013-04-20T09:02:43Z</time>
      </trkpt>
      <trkpt lat="42.33193" lon="2.54504">
        <ele>1355.676</ele>
        <time>2013-04-20T09:02:55Z</time>
      </trkpt>
      <trkpt lat="42.33191" lon="2.54508">
        <ele>1354.613</ele>
        <time>2013-04-20T09:02:58Z</time>
      </trkpt>
      <trkpt lat="42.33181" lon="2.54518">
        <ele>1349.807</ele>
        <time>2013-04-20T09:03:09Z</time>
      </trkpt>
      <trkpt lat="42.33179" lon="2.5452">
        <ele>1348.935</ele>
        <time>2013-04-20T09:03:12Z</time>
      </trkpt>
      <trkpt lat="42.3317" lon="2.5453">
        <ele>1346.514</ele>
        <time>2013-04-20T09:03:21Z</time>
      </trkpt>
      <trkpt lat="42.33157" lon="2.54538">
        <ele>1342.618</ele>
        <time>2013-04-20T09:03:33Z</time>
      </trkpt>
      <trkpt lat="42.33156" lon="2.54539">
        <ele>1341.775</ele>
        <time>2013-04-20T09:03:35Z</time>
      </trkpt>
      <trkpt lat="42.3315" lon="2.54548">
        <ele>1340.236</ele>
        <time>2013-04-20T09:03:40Z</time>
      </trkpt>
      <trkpt lat="42.33136" lon="2.5457">
        <ele>1338.339</ele>
        <time>2013-04-20T09:03:52Z</time>
      </trkpt>
      <trkpt lat="42.33134" lon="2.54572">
        <ele>1337.892</ele>
        <time>2013-04-20T09:03:55Z</time>
      </trkpt>
      <trkpt lat="42.33122" lon="2.54588">
        <ele>1327.259</ele>
        <time>2013-04-20T09:04:06Z</time>
      </trkpt>
      <trkpt lat="42.33103" lon="2.54615">
        <ele>1325.303</ele>
        <time>2013-04-20T09:04:17Z</time>
      </trkpt>
      <trkpt lat="42.33085" lon="2.54641">
        <ele>1327.723</ele>
        <time>2013-04-20T09:04:29Z</time>
      </trkpt>
      <trkpt lat="42.33084" lon="2.54643">
        <ele>1328.207</ele>
        <time>2013-04-20T09:04:30Z</time>
      </trkpt>
      <trkpt lat="42.33077" lon="2.54654">
        <ele>1330.149</ele>
        <time>2013-04-20T09:04:35Z</time>
      </trkpt>
      <trkpt lat="42.3307" lon="2.54674">
        <ele>1332.088</ele>
        <time>2013-04-20T09:04:45Z</time>
      </trkpt>
      <trkpt lat="42.33058" lon="2.54698">
        <ele>1332.012</ele>
        <time>2013-04-20T09:04:57Z</time>
      </trkpt>
      <trkpt lat="42.33048" lon="2.54714">
        <ele>1334.069</ele>
        <time>2013-04-20T09:05:09Z</time>
      </trkpt>
      <trkpt lat="42.33043" lon="2.54743">
        <ele>1335.99</ele>
        <time>2013-04-20T09:05:22Z</time>
      </trkpt>
      <trkpt lat="42.33037" lon="2.54772">
        <ele>1338.383</ele>
        <time>2013-04-20T09:05:38Z</time>
      </trkpt>
      <trkpt lat="42.33028" lon="2.54792">
        <ele>1338.376</ele>
        <time>2013-04-20T09:05:50Z</time>
      </trkpt>
      <trkpt lat="42.33026" lon="2.54797">
        <ele>1338.842</ele>
        <time>2013-04-20T09:05:54Z</time>
      </trkpt>
      <trkpt lat="42.33022" lon="2.54821">
        <ele>1342.122</ele>
        <time>2013-04-20T09:06:08Z</time>
      </trkpt>
      <trkpt lat="42.33022" lon="2.54823">
        <ele>1342.114</ele>
        <time>2013-04-20T09:06:09Z</time>
      </trkpt>
      <trkpt lat="42.33015" lon="2.54839">
        <ele>1335.907</ele>
        <time>2013-04-20T09:06:15Z</time>
      </trkpt>
      <trkpt lat="42.33003" lon="2.54865">
        <ele>1329.218</ele>
        <time>2013-04-20T09:06:28Z</time>
      </trkpt>
      <trkpt lat="42.32997" lon="2.54871">
        <ele>1329.647</ele>
        <time>2013-04-20T09:06:34Z</time>
      </trkpt>
      <trkpt lat="42.32993" lon="2.5488">
        <ele>1332.051</ele>
        <time>2013-04-20T09:06:41Z</time>
      </trkpt>
      <trkpt lat="42.32988" lon="2.54896">
        <ele>1331.138</ele>
        <time>2013-04-20T09:06:47Z</time>
      </trkpt>
      <trkpt lat="42.32984" lon="2.54916">
        <ele>1328.269</ele>
        <time>2013-04-20T09:06:57Z</time>
      </trkpt>
      <trkpt lat="42.32977" lon="2.54937">
        <ele>1323.932</ele>
        <time>2013-04-20T09:07:06Z</time>
      </trkpt>
      <trkpt lat="42.32973" lon="2.5495">
        <ele>1320.065</ele>
        <time>2013-04-20T09:07:18Z</time>
      </trkpt>
      <trkpt lat="42.32963" lon="2.54965">
        <ele>1318.137</ele>
        <time>2013-04-20T09:07:29Z</time>
      </trkpt>
      <trkpt lat="42.32956" lon="2.5498">
        <ele>1314.349</ele>
        <time>2013-04-20T09:07:39Z</time>
      </trkpt>
      <trkpt lat="42.32946" lon="2.54997">
        <ele>1309.513</ele>
        <time>2013-04-20T09:07:49Z</time>
      </trkpt>
      <trkpt lat="42.32942" lon="2.5501">
        <ele>1307.507</ele>
        <time>2013-04-20T09:07:59Z</time>
      </trkpt>
      <trkpt lat="42.32941" lon="2.55011">
        <ele>1307.597</ele>
        <time>2013-04-20T09:08:00Z</time>
      </trkpt>
      <trkpt lat="42.32939" lon="2.5502">
        <ele>1305.696</ele>
        <time>2013-04-20T09:08:05Z</time>
      </trkpt>
      <trkpt lat="42.32929" lon="2.55038">
        <ele>1301.33</ele>
        <time>2013-04-20T09:08:14Z</time>
      </trkpt>
      <trkpt lat="42.32921" lon="2.5505">
        <ele>1304.267</ele>
        <time>2013-04-20T09:08:27Z</time>
      </trkpt>
      <trkpt lat="42.32914" lon="2.55047">
        <ele>1309.588</ele>
        <time>2013-04-20T09:08:40Z</time>
      </trkpt>
      <trkpt lat="42.32912" lon="2.55048">
        <ele>1309.931</ele>
        <time>2013-04-20T09:08:42Z</time>
      </trkpt>
      <trkpt lat="42.32906" lon="2.55048">
        <ele>1314.764</ele>
        <time>2013-04-20T09:08:54Z</time>
      </trkpt>
      <trkpt lat="42.32899" lon="2.55052">
        <ele>1319.186</ele>
        <time>2013-04-20T09:09:06Z</time>
      </trkpt>
      <trkpt lat="42.32894" lon="2.55059">
        <ele>1319.16</ele>
        <time>2013-04-20T09:09:10Z</time>
      </trkpt>
      <trkpt lat="42.32879" lon="2.55079">
        <ele>1320.526</ele>
        <time>2013-04-20T09:09:25Z</time>
      </trkpt>
      <trkpt lat="42.32863" lon="2.55092">
        <ele>1317.107</ele>
        <time>2013-04-20T09:09:37Z</time>
      </trkpt>
      <trkpt lat="42.32847" lon="2.55102">
        <ele>1314.782</ele>
        <time>2013-04-20T09:09:46Z</time>
      </trkpt>
      <trkpt lat="42.32837" lon="2.5511">
        <ele>1316.261</ele>
        <time>2013-04-20T09:09:58Z</time>
      </trkpt>
      <trkpt lat="42.3283" lon="2.55119">
        <ele>1318.675</ele>
        <time>2013-04-20T09:10:12Z</time>
      </trkpt>
      <trkpt lat="42.32821" lon="2.55125">
        <ele>1322.062</ele>
        <time>2013-04-20T09:10:25Z</time>
      </trkpt>
      <trkpt lat="42.32814" lon="2.55124">
        <ele>1326.393</ele>
        <time>2013-04-20T09:10:38Z</time>
      </trkpt>
      <trkpt lat="42.32805" lon="2.55125">
        <ele>1328.746</ele>
        <time>2013-04-20T09:10:50Z</time>
      </trkpt>
      <trkpt lat="42.32796" lon="2.55125">
        <ele>1332.529</ele>
        <time>2013-04-20T09:11:03Z</time>
      </trkpt>
      <trkpt lat="42.32789" lon="2.55121">
        <ele>1336.963</ele>
        <time>2013-04-20T09:11:17Z</time>
      </trkpt>
      <trkpt lat="42.32778" lon="2.55131">
        <ele>1338.844</ele>
        <time>2013-04-20T09:11:30Z</time>
      </trkpt>
      <trkpt lat="42.32768" lon="2.55144">
        <ele>1341.218</ele>
        <time>2013-04-20T09:11:41Z</time>
      </trkpt>
      <trkpt lat="42.32758" lon="2.55159">
        <ele>1340.707</ele>
        <time>2013-04-20T09:11:51Z</time>
      </trkpt>
      <trkpt lat="42.32751" lon="2.55171">
        <ele>1338.36</ele>
        <time>2013-04-20T09:12:00Z</time>
      </trkpt>
      <trkpt lat="42.3274" lon="2.55187">
        <ele>1334.049</ele>
        <time>2013-04-20T09:12:11Z</time>
      </trkpt>
      <trkpt lat="42.32736" lon="2.55189">
        <ele>1334.593</ele>
        <time>2013-04-20T09:12:15Z</time>
      </trkpt>
      <trkpt lat="42.32729" lon="2.55195">
        <ele>1333.08</ele>
        <time>2013-04-20T09:12:20Z</time>
      </trkpt>
      <trkpt lat="42.32714" lon="2.55221">
        <ele>1333.091</ele>
        <time>2013-04-20T09:12:31Z</time>
      </trkpt>
      <trkpt lat="42.32699" lon="2.55244">
        <ele>1331.644</ele>
        <time>2013-04-20T09:12:41Z</time>
      </trkpt>
      <trkpt lat="42.32681" lon="2.55256">
        <ele>1331.677</ele>
        <time>2013-04-20T09:12:49Z</time>
      </trkpt>
      <trkpt lat="42.32679" lon="2.55259">
        <ele>1331.674</ele>
        <time>2013-04-20T09:12:51Z</time>
      </trkpt>
      <trkpt lat="42.32674" lon="2.55265">
        <ele>1331.156</ele>
        <time>2013-04-20T09:12:56Z</time>
      </trkpt>
      <trkpt lat="42.32661" lon="2.55283">
        <ele>1332.021</ele>
        <time>2013-04-20T09:13:06Z</time>
      </trkpt>
      <trkpt lat="42.32642" lon="2.55302">
        <ele>1329.207</ele>
        <time>2013-04-20T09:13:16Z</time>
      </trkpt>
      <trkpt lat="42.32628" lon="2.55318">
        <ele>1327.781</ele>
        <time>2013-04-20T09:13:25Z</time>
      </trkpt>
      <trkpt lat="42.32617" lon="2.55338">
        <ele>1330.66</ele>
        <time>2013-04-20T09:13:39Z</time>
      </trkpt>
      <trkpt lat="42.32614" lon="2.55342">
        <ele>1331.154</ele>
        <time>2013-04-20T09:13:42Z</time>
      </trkpt>
      <trkpt lat="42.32612" lon="2.55348">
        <ele>1333.041</ele>
        <time>2013-04-20T09:13:47Z</time>
      </trkpt>
      <trkpt lat="42.32606" lon="2.55366">
        <ele>1337.322</ele>
        <time>2013-04-20T09:14:00Z</time>
      </trkpt>
      <trkpt lat="42.326" lon="2.55383">
        <ele>1341.785</ele>
        <time>2013-04-20T09:14:14Z</time>
      </trkpt>
      <trkpt lat="42.32599" lon="2.55393">
        <ele>1346.078</ele>
        <time>2013-04-20T09:14:25Z</time>
      </trkpt>
      <trkpt lat="42.32595" lon="2.55403">
        <ele>1347.414</ele>
        <time>2013-04-20T09:14:38Z</time>
      </trkpt>
      <trkpt lat="42.3259" lon="2.55415">
        <ele>1351.854</ele>
        <time>2013-04-20T09:14:54Z</time>
      </trkpt>
      <trkpt lat="42.32588" lon="2.55429">
        <ele>1354.209</ele>
        <time>2013-04-20T09:15:06Z</time>
      </trkpt>
      <trkpt lat="42.3258" lon="2.5544">
        <ele>1357.007</ele>
        <time>2013-04-20T09:15:21Z</time>
      </trkpt>
      <trkpt lat="42.32575" lon="2.55446">
        <ele>1359.485</ele>
        <time>2013-04-20T09:15:29Z</time>
      </trkpt>
      <trkpt lat="42.3257" lon="2.55451">
        <ele>1360.454</ele>
        <time>2013-04-20T09:15:34Z</time>
      </trkpt>
      <trkpt lat="42.3256" lon="2.55464">
        <ele>1362.328</ele>
        <time>2013-04-20T09:15:48Z</time>
      </trkpt>
      <trkpt lat="42.3255" lon="2.55477">
        <ele>1366.295</ele>
        <time>2013-04-20T09:16:01Z</time>
      </trkpt>
      <trkpt lat="42.32549" lon="2.5548">
        <ele>1366.276</ele>
        <time>2013-04-20T09:16:03Z</time>
      </trkpt>
      <trkpt lat="42.32539" lon="2.55496">
        <ele>1367.619</ele>
        <time>2013-04-20T09:16:17Z</time>
      </trkpt>
      <trkpt lat="42.32529" lon="2.55511">
        <ele>1367.642</ele>
        <time>2013-04-20T09:16:29Z</time>
      </trkpt>
      <trkpt lat="42.32518" lon="2.55525">
        <ele>1371.571</ele>
        <time>2013-04-20T09:16:44Z</time>
      </trkpt>
      <trkpt lat="42.32508" lon="2.55534">
        <ele>1376.341</ele>
        <time>2013-04-20T09:17:00Z</time>
      </trkpt>
      <trkpt lat="42.32502" lon="2.55539">
        <ele>1380.115</ele>
        <time>2013-04-20T09:17:11Z</time>
      </trkpt>
      <trkpt lat="42.32495" lon="2.55542">
        <ele>1383.007</ele>
        <time>2013-04-20T09:17:24Z</time>
      </trkpt>
      <trkpt lat="42.3248" lon="2.55545">
        <ele>1384.011</ele>
        <time>2013-04-20T09:17:35Z</time>
      </trkpt>
      <trkpt lat="42.32473" lon="2.55544">
        <ele>1383.58</ele>
        <time>2013-04-20T09:17:41Z</time>
      </trkpt>
      <trkpt lat="42.3246" lon="2.55549">
        <ele>1385.934</ele>
        <time>2013-04-20T09:17:52Z</time>
      </trkpt>
      <trkpt lat="42.32455" lon="2.55549">
        <ele>1387.371</ele>
        <time>2013-04-20T09:18:06Z</time>
      </trkpt>
      <trkpt lat="42.32455" lon="2.55551">
        <ele>1389.272</ele>
        <time>2013-04-20T09:18:30Z</time>
      </trkpt>
      <trkpt lat="42.32455" lon="2.5555">
        <ele>1388.875</ele>
        <time>2013-04-20T09:18:53Z</time>
      </trkpt>
      <trkpt lat="42.32454" lon="2.55551">
        <ele>1389.728</ele>
        <time>2013-04-20T09:19:11Z</time>
      </trkpt>
      <trkpt lat="42.32452" lon="2.55551">
        <ele>1391.214</ele>
        <time>2013-04-20T09:19:29Z</time>
      </trkpt>
      <trkpt lat="42.32448" lon="2.55554">
        <ele>1390.754</ele>
        <time>2013-04-20T09:19:45Z</time>
      </trkpt>
      <trkpt lat="42.32444" lon="2.55555">
        <ele>1389.709</ele>
        <time>2013-04-20T09:19:58Z</time>
      </trkpt>
      <trkpt lat="42.3244" lon="2.55555">
        <ele>1387.807</ele>
        <time>2013-04-20T09:20:10Z</time>
      </trkpt>
      <trkpt lat="42.32434" lon="2.55554">
        <ele>1383.535</ele>
        <time>2013-04-20T09:20:24Z</time>
      </trkpt>
      <trkpt lat="42.32432" lon="2.55554">
        <ele>1380.634</ele>
        <time>2013-04-20T09:20:39Z</time>
      </trkpt>
      <trkpt lat="42.3243" lon="2.55559">
        <ele>1376.838</ele>
        <time>2013-04-20T09:20:51Z</time>
      </trkpt>
      <trkpt lat="42.32422" lon="2.55559">
        <ele>1371.535</ele>
        <time>2013-04-20T09:21:02Z</time>
      </trkpt>
      <trkpt lat="42.32415" lon="2.55564">
        <ele>1366.246</ele>
        <time>2013-04-20T09:21:12Z</time>
      </trkpt>
      <trkpt lat="42.32405" lon="2.55568">
        <ele>1359.439</ele>
        <time>2013-04-20T09:21:26Z</time>
      </trkpt>
      <trkpt lat="42.32392" lon="2.55577">
        <ele>1353.782</ele>
        <time>2013-04-20T09:21:38Z</time>
      </trkpt>
      <trkpt lat="42.32388" lon="2.5558">
        <ele>1352.286</ele>
        <time>2013-04-20T09:21:41Z</time>
      </trkpt>
      <trkpt lat="42.3237" lon="2.55587">
        <ele>1347.46</ele>
        <time>2013-04-20T09:21:54Z</time>
      </trkpt>
      <trkpt lat="42.32362" lon="2.55591">
        <ele>1344.526</ele>
        <time>2013-04-20T09:22:00Z</time>
      </trkpt>
      <trkpt lat="42.32353" lon="2.55594">
        <ele>1340.707</ele>
        <time>2013-04-20T09:22:06Z</time>
      </trkpt>
      <trkpt lat="42.32345" lon="2.55596">
        <ele>1337.372</ele>
        <time>2013-04-20T09:22:11Z</time>
      </trkpt>
      <trkpt lat="42.32325" lon="2.55608">
        <ele>1332.551</ele>
        <time>2013-04-20T09:22:22Z</time>
      </trkpt>
      <trkpt lat="42.32306" lon="2.55611">
        <ele>1333.055</ele>
        <time>2013-04-20T09:22:34Z</time>
      </trkpt>
      <trkpt lat="42.32304" lon="2.55613">
        <ele>1334.082</ele>
        <time>2013-04-20T09:22:36Z</time>
      </trkpt>
      <trkpt lat="42.32291" lon="2.55635">
        <ele>1330.613</ele>
        <time>2013-04-20T09:22:48Z</time>
      </trkpt>
      <trkpt lat="42.32285" lon="2.55649">
        <ele>1324.446</ele>
        <time>2013-04-20T09:23:00Z</time>
      </trkpt>
      <trkpt lat="42.32277" lon="2.5566">
        <ele>1320.039</ele>
        <time>2013-04-20T09:23:10Z</time>
      </trkpt>
      <trkpt lat="42.32262" lon="2.5568">
        <ele>1315.739</ele>
        <time>2013-04-20T09:23:20Z</time>
      </trkpt>
      <trkpt lat="42.32251" lon="2.55701">
        <ele>1315.701</ele>
        <time>2013-04-20T09:23:33Z</time>
      </trkpt>
      <trkpt lat="42.32248" lon="2.55708">
        <ele>1316.221</ele>
        <time>2013-04-20T09:23:37Z</time>
      </trkpt>
      <trkpt lat="42.32248" lon="2.55717">
        <ele>1318.107</ele>
        <time>2013-04-20T09:23:42Z</time>
      </trkpt>
      <trkpt lat="42.32247" lon="2.55731">
        <ele>1319.127</ele>
        <time>2013-04-20T09:23:57Z</time>
      </trkpt>
      <trkpt lat="42.32248" lon="2.55732">
        <ele>1320.516</ele>
        <time>2013-04-20T09:24:12Z</time>
      </trkpt>
      <trkpt lat="42.32248" lon="2.55734">
        <ele>1322.09</ele>
        <time>2013-04-20T09:24:25Z</time>
      </trkpt>
      <trkpt lat="42.32248" lon="2.55737">
        <ele>1321.097</ele>
        <time>2013-04-20T09:24:35Z</time>
      </trkpt>
      <trkpt lat="42.32243" lon="2.55739">
        <ele>1320.598</ele>
        <time>2013-04-20T09:24:50Z</time>
      </trkpt>
      <trkpt lat="42.32242" lon="2.55741">
        <ele>1319.171</ele>
        <time>2013-04-20T09:24:55Z</time>
      </trkpt>
      <trkpt lat="42.32238" lon="2.55744">
        <ele>1316.784</ele>
        <time>2013-04-20T09:25:01Z</time>
      </trkpt>
      <trkpt lat="42.32235" lon="2.55748">
        <ele>1314.745</ele>
        <time>2013-04-20T09:25:05Z</time>
      </trkpt>
      <trkpt lat="42.32234" lon="2.55749">
        <ele>1313.847</ele>
        <time>2013-04-20T09:25:07Z</time>
      </trkpt>
      <trkpt lat="42.32233" lon="2.55753">
        <ele>1312.311</ele>
        <time>2013-04-20T09:25:09Z</time>
      </trkpt>
      <trkpt lat="42.32225" lon="2.55754">
        <ele>1307.107</ele>
        <time>2013-04-20T09:25:17Z</time>
      </trkpt>
      <trkpt lat="42.32217" lon="2.55735">
        <ele>1305.138</ele>
        <time>2013-04-20T09:25:30Z</time>
      </trkpt>
      <trkpt lat="42.32218" lon="2.55722">
        <ele>1303.737</ele>
        <time>2013-04-20T09:25:35Z</time>
      </trkpt>
      <trkpt lat="42.32218" lon="2.55712">
        <ele>1301.891</ele>
        <time>2013-04-20T09:25:40Z</time>
      </trkpt>
      <trkpt lat="42.32217" lon="2.55709">
        <ele>1300.888</ele>
        <time>2013-04-20T09:25:42Z</time>
      </trkpt>
      <trkpt lat="42.32212" lon="2.5572">
        <ele>1298.489</ele>
        <time>2013-04-20T09:25:50Z</time>
      </trkpt>
      <trkpt lat="42.32208" lon="2.55737">
        <ele>1297.482</ele>
        <time>2013-04-20T09:25:59Z</time>
      </trkpt>
      <trkpt lat="42.32206" lon="2.55742">
        <ele>1297.055</ele>
        <time>2013-04-20T09:26:02Z</time>
      </trkpt>
      <trkpt lat="42.32201" lon="2.55747">
        <ele>1295.083</ele>
        <time>2013-04-20T09:26:07Z</time>
      </trkpt>
      <trkpt lat="42.32189" lon="2.55755">
        <ele>1292.225</ele>
        <time>2013-04-20T09:26:17Z</time>
      </trkpt>
      <trkpt lat="42.32183" lon="2.55762">
        <ele>1290.717</ele>
        <time>2013-04-20T09:26:21Z</time>
      </trkpt>
      <trkpt lat="42.32169" lon="2.55773">
        <ele>1289.807</ele>
        <time>2013-04-20T09:26:29Z</time>
      </trkpt>
      <trkpt lat="42.32163" lon="2.5578">
        <ele>1288.392</ele>
        <time>2013-04-20T09:26:34Z</time>
      </trkpt>
      <trkpt lat="42.3216" lon="2.55782">
        <ele>1287.891</ele>
        <time>2013-04-20T09:26:36Z</time>
      </trkpt>
      <trkpt lat="42.32147" lon="2.55795">
        <ele>1284.515</ele>
        <time>2013-04-20T09:26:45Z</time>
      </trkpt>
      <trkpt lat="42.32141" lon="2.55801">
        <ele>1279.782</ele>
        <time>2013-04-20T09:26:55Z</time>
      </trkpt>
      <trkpt lat="42.3214" lon="2.55813">
        <ele>1275.373</ele>
        <time>2013-04-20T09:27:01Z</time>
      </trkpt>
      <trkpt lat="42.32136" lon="2.55831">
        <ele>1268.116</ele>
        <time>2013-04-20T09:27:14Z</time>
      </trkpt>
      <trkpt lat="42.32134" lon="2.55844">
        <ele>1261.999</ele>
        <time>2013-04-20T09:27:25Z</time>
      </trkpt>
      <trkpt lat="42.3213" lon="2.55851">
        <ele>1262.457</ele>
        <time>2013-04-20T09:27:34Z</time>
      </trkpt>
      <trkpt lat="42.32129" lon="2.55848">
        <ele>1263.8</ele>
        <time>2013-04-20T09:27:42Z</time>
      </trkpt>
      <trkpt lat="42.32126" lon="2.55848">
        <ele>1260.92</ele>
        <time>2013-04-20T09:27:47Z</time>
      </trkpt>
      <trkpt lat="42.32124" lon="2.55872">
        <ele>1255.607</ele>
        <time>2013-04-20T09:27:58Z</time>
      </trkpt>
      <trkpt lat="42.32121" lon="2.55885">
        <ele>1252.769</ele>
        <time>2013-04-20T09:28:11Z</time>
      </trkpt>
      <trkpt lat="42.32115" lon="2.55902">
        <ele>1251.358</ele>
        <time>2013-04-20T09:28:25Z</time>
      </trkpt>
      <trkpt lat="42.32112" lon="2.55907">
        <ele>1249.412</ele>
        <time>2013-04-20T09:28:31Z</time>
      </trkpt>
      <trkpt lat="42.32107" lon="2.5591">
        <ele>1249.489</ele>
        <time>2013-04-20T09:28:35Z</time>
      </trkpt>
      <trkpt lat="42.32099" lon="2.5592">
        <ele>1247.03</ele>
        <time>2013-04-20T09:28:44Z</time>
      </trkpt>
      <trkpt lat="42.32094" lon="2.55928">
        <ele>1248.483</ele>
        <time>2013-04-20T09:28:50Z</time>
      </trkpt>
      <trkpt lat="42.32094" lon="2.55931">
        <ele>1248.976</ele>
        <time>2013-04-20T09:28:52Z</time>
      </trkpt>
      <trkpt lat="42.32091" lon="2.55936">
        <ele>1249.464</ele>
        <time>2013-04-20T09:28:56Z</time>
      </trkpt>
      <trkpt lat="42.32089" lon="2.5594">
        <ele>1249.906</ele>
        <time>2013-04-20T09:28:59Z</time>
      </trkpt>
      <trkpt lat="42.32087" lon="2.5595">
        <ele>1250.316</ele>
        <time>2013-04-20T09:29:06Z</time>
      </trkpt>
      <trkpt lat="42.32082" lon="2.55955">
        <ele>1251.307</ele>
        <time>2013-04-20T09:29:10Z</time>
      </trkpt>
      <trkpt lat="42.32078" lon="2.55963">
        <ele>1253.75</ele>
        <time>2013-04-20T09:29:16Z</time>
      </trkpt>
      <trkpt lat="42.32072" lon="2.55981">
        <ele>1253.239</ele>
        <time>2013-04-20T09:29:32Z</time>
      </trkpt>
      <trkpt lat="42.32072" lon="2.55984">
        <ele>1255.113</ele>
        <time>2013-04-20T09:29:46Z</time>
      </trkpt>
      <trkpt lat="42.32071" lon="2.55989">
        <ele>1252.73</ele>
        <time>2013-04-20T09:29:56Z</time>
      </trkpt>
      <trkpt lat="42.32064" lon="2.56004">
        <ele>1248.481</ele>
        <time>2013-04-20T09:30:05Z</time>
      </trkpt>
      <trkpt lat="42.32055" lon="2.56024">
        <ele>1245.574</ele>
        <time>2013-04-20T09:30:14Z</time>
      </trkpt>
      <trkpt lat="42.32052" lon="2.56034">
        <ele>1244.637</ele>
        <time>2013-04-20T09:30:18Z</time>
      </trkpt>
      <trkpt lat="42.32043" lon="2.56054">
        <ele>1243.665</ele>
        <time>2013-04-20T09:30:26Z</time>
      </trkpt>
      <trkpt lat="42.3204" lon="2.56057">
        <ele>1244.168</ele>
        <time>2013-04-20T09:30:28Z</time>
      </trkpt>
      <trkpt lat="42.32038" lon="2.56063">
        <ele>1244.614</ele>
        <time>2013-04-20T09:30:31Z</time>
      </trkpt>
      <trkpt lat="42.32026" lon="2.56088">
        <ele>1248.907</ele>
        <time>2013-04-20T09:30:47Z</time>
      </trkpt>
      <trkpt lat="42.32022" lon="2.56098">
        <ele>1249.94</ele>
        <time>2013-04-20T09:30:53Z</time>
      </trkpt>
      <trkpt lat="42.32019" lon="2.561">
        <ele>1250.339</ele>
        <time>2013-04-20T09:30:56Z</time>
      </trkpt>
      <trkpt lat="42.32016" lon="2.56103">
        <ele>1251.323</ele>
        <time>2013-04-20T09:30:59Z</time>
      </trkpt>
      <trkpt lat="42.32011" lon="2.56106">
        <ele>1252.74</ele>
        <time>2013-04-20T09:31:05Z</time>
      </trkpt>
      <trkpt lat="42.32007" lon="2.5611">
        <ele>1252.391</ele>
        <time>2013-04-20T09:31:09Z</time>
      </trkpt>
      <trkpt lat="42.31991" lon="2.56122">
        <ele>1254.214</ele>
        <time>2013-04-20T09:31:23Z</time>
      </trkpt>
      <trkpt lat="42.31982" lon="2.56134">
        <ele>1257.567</ele>
        <time>2013-04-20T09:31:37Z</time>
      </trkpt>
      <trkpt lat="42.3197" lon="2.56144">
        <ele>1258.524</ele>
        <time>2013-04-20T09:31:49Z</time>
      </trkpt>
      <trkpt lat="42.31969" lon="2.56146">
        <ele>1258.504</ele>
        <time>2013-04-20T09:31:51Z</time>
      </trkpt>
      <trkpt lat="42.31962" lon="2.56161">
        <ele>1258.014</ele>
        <time>2013-04-20T09:32:05Z</time>
      </trkpt>
      <trkpt lat="42.31961" lon="2.56165">
        <ele>1258.507</ele>
        <time>2013-04-20T09:32:09Z</time>
      </trkpt>
      <trkpt lat="42.31954" lon="2.56179">
        <ele>1259.986</ele>
        <time>2013-04-20T09:32:20Z</time>
      </trkpt>
      <trkpt lat="42.31947" lon="2.56195">
        <ele>1258.025</ele>
        <time>2013-04-20T09:32:33Z</time>
      </trkpt>
      <trkpt lat="42.31947" lon="2.56203">
        <ele>1257.529</ele>
        <time>2013-04-20T09:32:38Z</time>
      </trkpt>
      <trkpt lat="42.31947" lon="2.56212">
        <ele>1257.576</ele>
        <time>2013-04-20T09:32:44Z</time>
      </trkpt>
      <trkpt lat="42.31944" lon="2.56214">
        <ele>1256.147</ele>
        <time>2013-04-20T09:32:48Z</time>
      </trkpt>
      <trkpt lat="42.31939" lon="2.56235">
        <ele>1256.13</ele>
        <time>2013-04-20T09:33:01Z</time>
      </trkpt>
      <trkpt lat="42.31941" lon="2.56233">
        <ele>1257.523</ele>
        <time>2013-04-20T09:33:17Z</time>
      </trkpt>
      <trkpt lat="42.31945" lon="2.56235">
        <ele>1257.154</ele>
        <time>2013-04-20T09:33:32Z</time>
      </trkpt>
      <trkpt lat="42.31947" lon="2.56242">
        <ele>1252.756</ele>
        <time>2013-04-20T09:33:37Z</time>
      </trkpt>
      <trkpt lat="42.31947" lon="2.56258">
        <ele>1244.611</ele>
        <time>2013-04-20T09:33:49Z</time>
      </trkpt>
      <trkpt lat="42.31951" lon="2.56268">
        <ele>1240.207</ele>
        <time>2013-04-20T09:33:58Z</time>
      </trkpt>
      <trkpt lat="42.31951" lon="2.56279">
        <ele>1237.869</ele>
        <time>2013-04-20T09:34:05Z</time>
      </trkpt>
      <trkpt lat="42.31951" lon="2.56287">
        <ele>1235.058</ele>
        <time>2013-04-20T09:34:09Z</time>
      </trkpt>
      <trkpt lat="42.31952" lon="2.5629">
        <ele>1234.092</ele>
        <time>2013-04-20T09:34:11Z</time>
      </trkpt>
      <trkpt lat="42.31952" lon="2.56304">
        <ele>1229.279</ele>
        <time>2013-04-20T09:34:18Z</time>
      </trkpt>
      <trkpt lat="42.31952" lon="2.56311">
        <ele>1227.76</ele>
        <time>2013-04-20T09:34:22Z</time>
      </trkpt>
      <trkpt lat="42.3195" lon="2.56321">
        <ele>1227.343</ele>
        <time>2013-04-20T09:34:29Z</time>
      </trkpt>
      <trkpt lat="42.31951" lon="2.56329">
        <ele>1227.316</ele>
        <time>2013-04-20T09:34:33Z</time>
      </trkpt>
      <trkpt lat="42.3195" lon="2.56344">
        <ele>1225.881</ele>
        <time>2013-04-20T09:34:43Z</time>
      </trkpt>
      <trkpt lat="42.31948" lon="2.56349">
        <ele>1223.461</ele>
        <time>2013-04-20T09:34:47Z</time>
      </trkpt>
      <trkpt lat="42.31946" lon="2.56358">
        <ele>1220.117</ele>
        <time>2013-04-20T09:34:52Z</time>
      </trkpt>
      <trkpt lat="42.31942" lon="2.56375">
        <ele>1213.307</ele>
        <time>2013-04-20T09:35:02Z</time>
      </trkpt>
      <trkpt lat="42.3194" lon="2.5639">
        <ele>1207.662</ele>
        <time>2013-04-20T09:35:12Z</time>
      </trkpt>
      <trkpt lat="42.31939" lon="2.56402">
        <ele>1206.181</ele>
        <time>2013-04-20T09:35:21Z</time>
      </trkpt>
      <trkpt lat="42.31942" lon="2.56404">
        <ele>1205.225</ele>
        <time>2013-04-20T09:35:24Z</time>
      </trkpt>
      <trkpt lat="42.31937" lon="2.56422">
        <ele>1200.322</ele>
        <time>2013-04-20T09:35:34Z</time>
      </trkpt>
      <trkpt lat="42.31939" lon="2.56436">
        <ele>1196.543</ele>
        <time>2013-04-20T09:35:44Z</time>
      </trkpt>
      <trkpt lat="42.3194" lon="2.5644">
        <ele>1195.566</ele>
        <time>2013-04-20T09:35:47Z</time>
      </trkpt>
      <trkpt lat="42.31937" lon="2.56456">
        <ele>1191.719</ele>
        <time>2013-04-20T09:35:56Z</time>
      </trkpt>
      <trkpt lat="42.31938" lon="2.5646">
        <ele>1189.835</ele>
        <time>2013-04-20T09:35:58Z</time>
      </trkpt>
      <trkpt lat="42.31946" lon="2.56466">
        <ele>1183.586</ele>
        <time>2013-04-20T09:36:10Z</time>
      </trkpt>
      <trkpt lat="42.31949" lon="2.56473">
        <ele>1182.114</ele>
        <time>2013-04-20T09:36:17Z</time>
      </trkpt>
      <trkpt lat="42.31948" lon="2.56481">
        <ele>1183.007</ele>
        <time>2013-04-20T09:36:22Z</time>
      </trkpt>
      <trkpt lat="42.31948" lon="2.56488">
        <ele>1183.017</ele>
        <time>2013-04-20T09:36:28Z</time>
      </trkpt>
      <trkpt lat="42.31944" lon="2.56498">
        <ele>1178.236</ele>
        <time>2013-04-20T09:36:36Z</time>
      </trkpt>
      <trkpt lat="42.31949" lon="2.56507">
        <ele>1176.33</ele>
        <time>2013-04-20T09:36:44Z</time>
      </trkpt>
      <trkpt lat="42.31953" lon="2.56516">
        <ele>1172.017</ele>
        <time>2013-04-20T09:36:50Z</time>
      </trkpt>
      <trkpt lat="42.3195" lon="2.56519">
        <ele>1169.678</ele>
        <time>2013-04-20T09:36:54Z</time>
      </trkpt>
      <trkpt lat="42.31942" lon="2.56532">
        <ele>1164.321</ele>
        <time>2013-04-20T09:37:05Z</time>
      </trkpt>
      <trkpt lat="42.31938" lon="2.56543">
        <ele>1160.014</ele>
        <time>2013-04-20T09:37:12Z</time>
      </trkpt>
      <trkpt lat="42.31939" lon="2.56547">
        <ele>1158.584</ele>
        <time>2013-04-20T09:37:15Z</time>
      </trkpt>
      <trkpt lat="42.31943" lon="2.56558">
        <ele>1153.207</ele>
        <time>2013-04-20T09:37:26Z</time>
      </trkpt>
      <trkpt lat="42.31949" lon="2.56566">
        <ele>1149.417</ele>
        <time>2013-04-20T09:37:37Z</time>
      </trkpt>
      <trkpt lat="42.31947" lon="2.56573">
        <ele>1144.607</ele>
        <time>2013-04-20T09:37:48Z</time>
      </trkpt>
      <trkpt lat="42.31956" lon="2.56578">
        <ele>1138.372</ele>
        <time>2013-04-20T09:38:00Z</time>
      </trkpt>
      <trkpt lat="42.31959" lon="2.56581">
        <ele>1135.931</ele>
        <time>2013-04-20T09:38:05Z</time>
      </trkpt>
      <trkpt lat="42.31958" lon="2.5659">
        <ele>1132.175</ele>
        <time>2013-04-20T09:38:15Z</time>
      </trkpt>
      <trkpt lat="42.31959" lon="2.5661">
        <ele>1129.722</ele>
        <time>2013-04-20T09:38:27Z</time>
      </trkpt>
      <trkpt lat="42.31959" lon="2.56629">
        <ele>1126.343</ele>
        <time>2013-04-20T09:38:39Z</time>
      </trkpt>
      <trkpt lat="42.31961" lon="2.56643">
        <ele>1123.036</ele>
        <time>2013-04-20T09:38:46Z</time>
      </trkpt>
      <trkpt lat="42.31962" lon="2.5666">
        <ele>1117.279</ele>
        <time>2013-04-20T09:38:56Z</time>
      </trkpt>
      <trkpt lat="42.31962" lon="2.56667">
        <ele>1114.841</ele>
        <time>2013-04-20T09:39:01Z</time>
      </trkpt>
      <trkpt lat="42.31962" lon="2.56687">
        <ele>1109.581</ele>
        <time>2013-04-20T09:39:10Z</time>
      </trkpt>
      <trkpt lat="42.31962" lon="2.56709">
        <ele>1108.109</ele>
        <time>2013-04-20T09:39:20Z</time>
      </trkpt>
      <trkpt lat="42.31957" lon="2.56717">
        <ele>1107.607</ele>
        <time>2013-04-20T09:39:36Z</time>
      </trkpt>
      <trkpt lat="42.31954" lon="2.56717">
        <ele>1104.768</ele>
        <time>2013-04-20T09:39:41Z</time>
      </trkpt>
      <trkpt lat="42.31945" lon="2.56729">
        <ele>1093.627</ele>
        <time>2013-04-20T09:39:53Z</time>
      </trkpt>
      <trkpt lat="42.31943" lon="2.56734">
        <ele>1090.371</ele>
        <time>2013-04-20T09:39:57Z</time>
      </trkpt>
      <trkpt lat="42.31942" lon="2.56747">
        <ele>1080.228</ele>
        <time>2013-04-20T09:40:09Z</time>
      </trkpt>
      <trkpt lat="42.31941" lon="2.56756">
        <ele>1073.929</ele>
        <time>2013-04-20T09:40:22Z</time>
      </trkpt>
      <trkpt lat="42.3194" lon="2.56757">
        <ele>1068.652</ele>
        <time>2013-04-20T09:40:33Z</time>
      </trkpt>
      <trkpt lat="42.31939" lon="2.5676">
        <ele>1064.865</ele>
        <time>2013-04-20T09:40:47Z</time>
      </trkpt>
      <trkpt lat="42.31937" lon="2.56767">
        <ele>1058.125</ele>
        <time>2013-04-20T09:41:00Z</time>
      </trkpt>
      <trkpt lat="42.31933" lon="2.56768">
        <ele>1053.326</ele>
        <time>2013-04-20T09:41:12Z</time>
      </trkpt>
      <trkpt lat="42.31931" lon="2.56768">
        <ele>1051.808</ele>
        <time>2013-04-20T09:41:17Z</time>
      </trkpt>
      <trkpt lat="42.31926" lon="2.56762">
        <ele>1048.007</ele>
        <time>2013-04-20T09:41:27Z</time>
      </trkpt>
      <trkpt lat="42.31921" lon="2.5676">
        <ele>1045.116</ele>
        <time>2013-04-20T09:41:33Z</time>
      </trkpt>
      <trkpt lat="42.31917" lon="2.56759">
        <ele>1043.715</ele>
        <time>2013-04-20T09:41:38Z</time>
      </trkpt>
      <trkpt lat="42.31906" lon="2.5675">
        <ele>1059.529</ele>
        <time>2013-04-20T09:41:50Z</time>
      </trkpt>
      <trkpt lat="42.31901" lon="2.56755">
        <ele>1070.176</ele>
        <time>2013-04-20T09:42:04Z</time>
      </trkpt>
      <trkpt lat="42.31902" lon="2.5676">
        <ele>1072.567</ele>
        <time>2013-04-20T09:42:33Z</time>
      </trkpt>
      <trkpt lat="42.31906" lon="2.56755">
        <ele>1076.33</ele>
        <time>2013-04-20T09:42:59Z</time>
      </trkpt>
      <trkpt lat="42.31904" lon="2.56751">
        <ele>1076.863</ele>
        <time>2013-04-20T09:43:19Z</time>
      </trkpt>
      <trkpt lat="42.31902" lon="2.56751">
        <ele>1075.418</ele>
        <time>2013-04-20T09:43:47Z</time>
      </trkpt>
      <trkpt lat="42.31902" lon="2.56749">
        <ele>1073.098</ele>
        <time>2013-04-20T09:43:55Z</time>
      </trkpt>
      <trkpt lat="42.31904" lon="2.56755">
        <ele>1077.317</ele>
        <time>2013-04-20T09:44:17Z</time>
      </trkpt>
      <trkpt lat="42.31898" lon="2.5675">
        <ele>1072.507</ele>
        <time>2013-04-20T09:44:30Z</time>
      </trkpt>
      <trkpt lat="42.31894" lon="2.56755">
        <ele>1068.255</ele>
        <time>2013-04-20T09:44:43Z</time>
      </trkpt>
      <trkpt lat="42.31892" lon="2.56757">
        <ele>1061.994</ele>
        <time>2013-04-20T09:44:55Z</time>
      </trkpt>
      <trkpt lat="42.31892" lon="2.56757">
        <ele>1061.928</ele>
        <time>2013-04-20T09:45:09Z</time>
      </trkpt>
      <trkpt lat="42.31889" lon="2.56762">
        <ele>1062.445</ele>
        <time>2013-04-20T09:45:25Z</time>
      </trkpt>
      <trkpt lat="42.31886" lon="2.56764">
        <ele>1062.996</ele>
        <time>2013-04-20T09:45:30Z</time>
      </trkpt>
      <trkpt lat="42.31881" lon="2.5677">
        <ele>1058.669</ele>
        <time>2013-04-20T09:45:42Z</time>
      </trkpt>
      <trkpt lat="42.31879" lon="2.56772">
        <ele>1052.312</ele>
        <time>2013-04-20T09:45:55Z</time>
      </trkpt>
      <trkpt lat="42.31874" lon="2.56772">
        <ele>1050.425</ele>
        <time>2013-04-20T09:46:02Z</time>
      </trkpt>
      <trkpt lat="42.31864" lon="2.56769">
        <ele>1048.526</ele>
        <time>2013-04-20T09:46:13Z</time>
      </trkpt>
      <trkpt lat="42.31865" lon="2.56779">
        <ele>1042.708</ele>
        <time>2013-04-20T09:46:25Z</time>
      </trkpt>
      <trkpt lat="42.31863" lon="2.56784">
        <ele>1044.107</ele>
        <time>2013-04-20T09:46:41Z</time>
      </trkpt>
      <trkpt lat="42.31862" lon="2.56784">
        <ele>1044.616</ele>
        <time>2013-04-20T09:46:59Z</time>
      </trkpt>
      <trkpt lat="42.31863" lon="2.56783">
        <ele>1044.135</ele>
        <time>2013-04-20T09:47:18Z</time>
      </trkpt>
      <trkpt lat="42.31864" lon="2.5679">
        <ele>1046.129</ele>
        <time>2013-04-20T09:47:35Z</time>
      </trkpt>
      <trkpt lat="42.31862" lon="2.56798">
        <ele>1044.626</ele>
        <time>2013-04-20T09:47:51Z</time>
      </trkpt>
      <trkpt lat="42.31866" lon="2.56806">
        <ele>1039.337</ele>
        <time>2013-04-20T09:48:05Z</time>
      </trkpt>
      <trkpt lat="42.31866" lon="2.56813">
        <ele>1036.08</ele>
        <time>2013-04-20T09:48:17Z</time>
      </trkpt>
      <trkpt lat="42.31866" lon="2.56816">
        <ele>1037.423</ele>
        <time>2013-04-20T09:48:38Z</time>
      </trkpt>
      <trkpt lat="42.31864" lon="2.56817">
        <ele>1038.468</ele>
        <time>2013-04-20T09:49:01Z</time>
      </trkpt>
      <trkpt lat="42.31867" lon="2.56817">
        <ele>1039.842</ele>
        <time>2013-04-20T09:49:21Z</time>
      </trkpt>
      <trkpt lat="42.31866" lon="2.56817">
        <ele>1040.326</ele>
        <time>2013-04-20T09:49:38Z</time>
      </trkpt>
      <trkpt lat="42.31864" lon="2.56817">
        <ele>1039.807</ele>
        <time>2013-04-20T09:49:54Z</time>
      </trkpt>
      <trkpt lat="42.31864" lon="2.56821">
        <ele>1038.82</ele>
        <time>2013-04-20T09:50:11Z</time>
      </trkpt>
      <trkpt lat="42.3186" lon="2.56826">
        <ele>1034.019</ele>
        <time>2013-04-20T09:50:18Z</time>
      </trkpt>
      <trkpt lat="42.31863" lon="2.56833">
        <ele>1028.353</ele>
        <time>2013-04-20T09:50:24Z</time>
      </trkpt>
      <trkpt lat="42.31863" lon="2.56846">
        <ele>1020.11</ele>
        <time>2013-04-20T09:50:35Z</time>
      </trkpt>
      <trkpt lat="42.31862" lon="2.56851">
        <ele>1018.741</ele>
        <time>2013-04-20T09:50:39Z</time>
      </trkpt>
      <trkpt lat="42.31856" lon="2.56862">
        <ele>1013.464</ele>
        <time>2013-04-20T09:50:49Z</time>
      </trkpt>
      <trkpt lat="42.31854" lon="2.56869">
        <ele>1013.457</ele>
        <time>2013-04-20T09:50:51Z</time>
      </trkpt>
      <trkpt lat="42.31863" lon="2.56876">
        <ele>1010.543</ele>
        <time>2013-04-20T09:51:01Z</time>
      </trkpt>
      <trkpt lat="42.31869" lon="2.56879">
        <ele>1008.164</ele>
        <time>2013-04-20T09:51:07Z</time>
      </trkpt>
      <trkpt lat="42.31888" lon="2.56869">
        <ele>1003.31</ele>
        <time>2013-04-20T09:51:20Z</time>
      </trkpt>
      <trkpt lat="42.31892" lon="2.56875">
        <ele>1002.807</ele>
        <time>2013-04-20T09:51:31Z</time>
      </trkpt>
      <trkpt lat="42.31894" lon="2.56879">
        <ele>1003.878</ele>
        <time>2013-04-20T09:51:43Z</time>
      </trkpt>
      <trkpt lat="42.3189" lon="2.56886">
        <ele>1003.837</ele>
        <time>2013-04-20T09:51:54Z</time>
      </trkpt>
      <trkpt lat="42.31885" lon="2.56891">
        <ele>1003.331</ele>
        <time>2013-04-20T09:52:01Z</time>
      </trkpt>
      <trkpt lat="42.31886" lon="2.56896">
        <ele>1000.478</ele>
        <time>2013-04-20T09:52:13Z</time>
      </trkpt>
      <trkpt lat="42.31883" lon="2.56895">
        <ele>999.039</ele>
        <time>2013-04-20T09:52:21Z</time>
      </trkpt>
      <trkpt lat="42.31877" lon="2.56903">
        <ele>996.152</ele>
        <time>2013-04-20T09:52:32Z</time>
      </trkpt>
      <trkpt lat="42.31874" lon="2.5691">
        <ele>995.615</ele>
        <time>2013-04-20T09:52:42Z</time>
      </trkpt>
      <trkpt lat="42.31872" lon="2.56912">
        <ele>995.665</ele>
        <time>2013-04-20T09:52:45Z</time>
      </trkpt>
      <trkpt lat="42.31866" lon="2.56917">
        <ele>992.768</ele>
        <time>2013-04-20T09:52:58Z</time>
      </trkpt>
      <trkpt lat="42.31868" lon="2.56914">
        <ele>988.414</ele>
        <time>2013-04-20T09:53:11Z</time>
      </trkpt>
      <trkpt lat="42.31868" lon="2.5692">
        <ele>988.407</ele>
        <time>2013-04-20T09:53:26Z</time>
      </trkpt>
      <trkpt lat="42.31858" lon="2.56919">
        <ele>985.56</ele>
        <time>2013-04-20T09:53:36Z</time>
      </trkpt>
      <trkpt lat="42.31856" lon="2.56919">
        <ele>984.519</ele>
        <time>2013-04-20T09:53:38Z</time>
      </trkpt>
      <trkpt lat="42.31837" lon="2.56925">
        <ele>979.273</ele>
        <time>2013-04-20T09:53:50Z</time>
      </trkpt>
      <trkpt lat="42.31832" lon="2.56917">
        <ele>975.96</ele>
        <time>2013-04-20T09:53:56Z</time>
      </trkpt>
      <trkpt lat="42.31832" lon="2.56911">
        <ele>974.421</ele>
        <time>2013-04-20T09:54:00Z</time>
      </trkpt>
      <trkpt lat="42.31829" lon="2.56902">
        <ele>972.564</ele>
        <time>2013-04-20T09:54:06Z</time>
      </trkpt>
      <trkpt lat="42.31828" lon="2.56889">
        <ele>970.677</ele>
        <time>2013-04-20T09:54:14Z</time>
      </trkpt>
      <trkpt lat="42.31827" lon="2.56883">
        <ele>969.233</ele>
        <time>2013-04-20T09:54:18Z</time>
      </trkpt>
      <trkpt lat="42.3183" lon="2.56858">
        <ele>965.823</ele>
        <time>2013-04-20T09:54:27Z</time>
      </trkpt>
      <trkpt lat="42.31831" lon="2.56845">
        <ele>961.015</ele>
        <time>2013-04-20T09:54:35Z</time>
      </trkpt>
      <trkpt lat="42.31832" lon="2.5684">
        <ele>958.107</ele>
        <time>2013-04-20T09:54:51Z</time>
      </trkpt>
      <trkpt lat="42.31835" lon="2.56829">
        <ele>959.137</ele>
        <time>2013-04-20T09:55:18Z</time>
      </trkpt>
      <trkpt lat="42.31838" lon="2.56831">
        <ele>963.456</ele>
        <time>2013-04-20T09:55:39Z</time>
      </trkpt>
      <trkpt lat="42.31832" lon="2.56833">
        <ele>971.67</ele>
        <time>2013-04-20T09:55:55Z</time>
      </trkpt>
      <trkpt lat="42.31833" lon="2.5683">
        <ele>973.027</ele>
        <time>2013-04-20T09:56:00Z</time>
      </trkpt>
      <trkpt lat="42.31833" lon="2.56852">
        <ele>974.448</ele>
        <time>2013-04-20T09:56:15Z</time>
      </trkpt>
      <trkpt lat="42.31833" lon="2.56855">
        <ele>974.081</ele>
        <time>2013-04-20T09:56:16Z</time>
      </trkpt>
      <trkpt lat="42.31826" lon="2.5689">
        <ele>974.444</ele>
        <time>2013-04-20T09:56:30Z</time>
      </trkpt>
      <trkpt lat="42.3183" lon="2.56904">
        <ele>974.441</ele>
        <time>2013-04-20T09:56:46Z</time>
      </trkpt>
      <trkpt lat="42.31831" lon="2.56905">
        <ele>974.481</ele>
        <time>2013-04-20T09:56:47Z</time>
      </trkpt>
      <trkpt lat="42.31836" lon="2.5692">
        <ele>974.909</ele>
        <time>2013-04-20T09:56:58Z</time>
      </trkpt>
      <trkpt lat="42.31841" lon="2.56917">
        <ele>975.907</ele>
        <time>2013-04-20T09:57:02Z</time>
      </trkpt>
      <trkpt lat="42.31852" lon="2.56916">
        <ele>975.418</ele>
        <time>2013-04-20T09:57:19Z</time>
      </trkpt>
      <trkpt lat="42.31864" lon="2.56918">
        <ele>973.577</ele>
        <time>2013-04-20T09:57:31Z</time>
      </trkpt>
      <trkpt lat="42.31883" lon="2.56927">
        <ele>973.551</ele>
        <time>2013-04-20T09:57:43Z</time>
      </trkpt>
      <trkpt lat="42.31888" lon="2.56932">
        <ele>975.418</ele>
        <time>2013-04-20T09:57:48Z</time>
      </trkpt>
      <trkpt lat="42.31894" lon="2.56938">
        <ele>977.379</ele>
        <time>2013-04-20T09:57:53Z</time>
      </trkpt>
      <trkpt lat="42.31899" lon="2.56941">
        <ele>977.392</ele>
        <time>2013-04-20T09:57:57Z</time>
      </trkpt>
      <trkpt lat="42.31906" lon="2.56948">
        <ele>978.325</ele>
        <time>2013-04-20T09:58:02Z</time>
      </trkpt>
      <trkpt lat="42.31918" lon="2.56972">
        <ele>980.243</ele>
        <time>2013-04-20T09:58:16Z</time>
      </trkpt>
      <trkpt lat="42.31925" lon="2.56989">
        <ele>979.264</ele>
        <time>2013-04-20T09:58:29Z</time>
      </trkpt>
      <trkpt lat="42.31925" lon="2.56991">
        <ele>977.81</ele>
        <time>2013-04-20T09:58:31Z</time>
      </trkpt>
      <trkpt lat="42.31919" lon="2.57014">
        <ele>975.907</ele>
        <time>2013-04-20T09:58:37Z</time>
      </trkpt>
      <trkpt lat="42.31918" lon="2.57031">
        <ele>973.028</ele>
        <time>2013-04-20T09:58:42Z</time>
      </trkpt>
      <trkpt lat="42.31918" lon="2.57037">
        <ele>971.677</ele>
        <time>2013-04-20T09:58:45Z</time>
      </trkpt>
      <trkpt lat="42.31924" lon="2.57052">
        <ele>969.221</ele>
        <time>2013-04-20T09:58:52Z</time>
      </trkpt>
      <trkpt lat="42.31912" lon="2.57057">
        <ele>965.878</ele>
        <time>2013-04-20T09:59:00Z</time>
      </trkpt>
      <trkpt lat="42.31902" lon="2.57046">
        <ele>959.139</ele>
        <time>2013-04-20T09:59:08Z</time>
      </trkpt>
      <trkpt lat="42.31899" lon="2.57036">
        <ele>949.442</ele>
        <time>2013-04-20T09:59:17Z</time>
      </trkpt>
      <trkpt lat="42.31905" lon="2.57053">
        <ele>948.515</ele>
        <time>2013-04-20T09:59:25Z</time>
      </trkpt>
      <trkpt lat="42.31907" lon="2.57057">
        <ele>947.588</ele>
        <time>2013-04-20T09:59:27Z</time>
      </trkpt>
      <trkpt lat="42.31921" lon="2.57077">
        <ele>946.624</ele>
        <time>2013-04-20T09:59:40Z</time>
      </trkpt>
      <trkpt lat="42.31923" lon="2.57082">
        <ele>945.626</ele>
        <time>2013-04-20T09:59:44Z</time>
      </trkpt>
      <trkpt lat="42.31928" lon="2.57088">
        <ele>945.107</ele>
        <time>2013-04-20T09:59:47Z</time>
      </trkpt>
      <trkpt lat="42.31928" lon="2.5709">
        <ele>945.172</ele>
        <time>2013-04-20T09:59:49Z</time>
      </trkpt>
      <trkpt lat="42.31932" lon="2.57094">
        <ele>944.691</ele>
        <time>2013-04-20T09:59:51Z</time>
      </trkpt>
      <trkpt lat="42.31932" lon="2.57097">
        <ele>944.695</ele>
        <time>2013-04-20T09:59:53Z</time>
      </trkpt>
      <trkpt lat="42.31935" lon="2.57104">
        <ele>944.272</ele>
        <time>2013-04-20T09:59:56Z</time>
      </trkpt>
      <trkpt lat="42.31956" lon="2.57119">
        <ele>942.763</ele>
        <time>2013-04-20T10:00:08Z</time>
      </trkpt>
      <trkpt lat="42.31958" lon="2.57119">
        <ele>942.246</ele>
        <time>2013-04-20T10:00:09Z</time>
      </trkpt>
      <trkpt lat="42.31969" lon="2.57125">
        <ele>938.489</ele>
        <time>2013-04-20T10:00:19Z</time>
      </trkpt>
      <trkpt lat="42.31969" lon="2.57135">
        <ele>934.139</ele>
        <time>2013-04-20T10:00:27Z</time>
      </trkpt>
      <trkpt lat="42.31963" lon="2.57143">
        <ele>922.001</ele>
        <time>2013-04-20T10:00:38Z</time>
      </trkpt>
      <trkpt lat="42.31961" lon="2.57144">
        <ele>921.121</ele>
        <time>2013-04-20T10:00:40Z</time>
      </trkpt>
      <trkpt lat="42.31956" lon="2.57143">
        <ele>918.207</ele>
        <time>2013-04-20T10:00:44Z</time>
      </trkpt>
      <trkpt lat="42.31945" lon="2.57136">
        <ele>913.447</ele>
        <time>2013-04-20T10:00:55Z</time>
      </trkpt>
      <trkpt lat="42.31944" lon="2.57135">
        <ele>912.966</ele>
        <time>2013-04-20T10:00:57Z</time>
      </trkpt>
      <trkpt lat="42.31941" lon="2.57131">
        <ele>914.48</ele>
        <time>2013-04-20T10:01:00Z</time>
      </trkpt>
      <trkpt lat="42.31929" lon="2.57129">
        <ele>919.667</ele>
        <time>2013-04-20T10:01:08Z</time>
      </trkpt>
      <trkpt lat="42.31927" lon="2.57127">
        <ele>920.128</ele>
        <time>2013-04-20T10:01:10Z</time>
      </trkpt>
      <trkpt lat="42.31925" lon="2.57126">
        <ele>920.121</ele>
        <time>2013-04-20T10:01:12Z</time>
      </trkpt>
      <trkpt lat="42.31918" lon="2.57126">
        <ele>920.144</ele>
        <time>2013-04-20T10:01:17Z</time>
      </trkpt>
      <trkpt lat="42.31904" lon="2.57127">
        <ele>918.296</ele>
        <time>2013-04-20T10:01:25Z</time>
      </trkpt>
      <trkpt lat="42.31891" lon="2.5713">
        <ele>917.231</ele>
        <time>2013-04-20T10:01:32Z</time>
      </trkpt>
      <trkpt lat="42.31882" lon="2.57127">
        <ele>915.324</ele>
        <time>2013-04-20T10:01:37Z</time>
      </trkpt>
      <trkpt lat="42.31876" lon="2.57122">
        <ele>912.007</ele>
        <time>2013-04-20T10:01:42Z</time>
      </trkpt>
      <trkpt lat="42.31874" lon="2.57114">
        <ele>909.533</ele>
        <time>2013-04-20T10:01:46Z</time>
      </trkpt>
      <trkpt lat="42.31868" lon="2.5711">
        <ele>907.622</ele>
        <time>2013-04-20T10:01:50Z</time>
      </trkpt>
      <trkpt lat="42.31852" lon="2.57103">
        <ele>903.816</ele>
        <time>2013-04-20T10:01:59Z</time>
      </trkpt>
      <trkpt lat="42.31846" lon="2.57105">
        <ele>902.383</ele>
        <time>2013-04-20T10:02:03Z</time>
      </trkpt>
      <trkpt lat="42.31843" lon="2.571">
        <ele>898.034</ele>
        <time>2013-04-20T10:02:08Z</time>
      </trkpt>
      <trkpt lat="42.31844" lon="2.57094">
        <ele>888.947</ele>
        <time>2013-04-20T10:02:20Z</time>
      </trkpt>
      <trkpt lat="42.31841" lon="2.57094">
        <ele>888.42</ele>
        <time>2013-04-20T10:02:24Z</time>
      </trkpt>
      <trkpt lat="42.31835" lon="2.57091">
        <ele>886.531</ele>
        <time>2013-04-20T10:02:30Z</time>
      </trkpt>
      <trkpt lat="42.31829" lon="2.57096">
        <ele>880.261</ele>
        <time>2013-04-20T10:02:41Z</time>
      </trkpt>
      <trkpt lat="42.3183" lon="2.57101">
        <ele>872.107</ele>
        <time>2013-04-20T10:02:53Z</time>
      </trkpt>
      <trkpt lat="42.31821" lon="2.57119">
        <ele>868.207</ele>
        <time>2013-04-20T10:03:05Z</time>
      </trkpt>
      <trkpt lat="42.31813" lon="2.57125">
        <ele>865.897</ele>
        <time>2013-04-20T10:03:16Z</time>
      </trkpt>
      <trkpt lat="42.31812" lon="2.57118">
        <ele>862.936</ele>
        <time>2013-04-20T10:03:20Z</time>
      </trkpt>
      <trkpt lat="42.3181" lon="2.57107">
        <ele>858.13</ele>
        <time>2013-04-20T10:03:28Z</time>
      </trkpt>
      <trkpt lat="42.31811" lon="2.57103">
        <ele>854.337</ele>
        <time>2013-04-20T10:03:33Z</time>
      </trkpt>
      <trkpt lat="42.31808" lon="2.57098">
        <ele>853.398</ele>
        <time>2013-04-20T10:03:44Z</time>
      </trkpt>
      <trkpt lat="42.31806" lon="2.57101">
        <ele>853.861</ele>
        <time>2013-04-20T10:03:55Z</time>
      </trkpt>
      <trkpt lat="42.31805" lon="2.57104">
        <ele>849.964</ele>
        <time>2013-04-20T10:04:10Z</time>
      </trkpt>
      <trkpt lat="42.31801" lon="2.57112">
        <ele>844.784</ele>
        <time>2013-04-20T10:04:21Z</time>
      </trkpt>
      <trkpt lat="42.31801" lon="2.57108">
        <ele>843.707</ele>
        <time>2013-04-20T10:04:25Z</time>
      </trkpt>
      <trkpt lat="42.318" lon="2.57102">
        <ele>842.317</ele>
        <time>2013-04-20T10:04:29Z</time>
      </trkpt>
      <trkpt lat="42.31802" lon="2.57095">
        <ele>842.307</ele>
        <time>2013-04-20T10:04:33Z</time>
      </trkpt>
      <trkpt lat="42.31803" lon="2.57091">
        <ele>841.822</ele>
        <time>2013-04-20T10:04:35Z</time>
      </trkpt>
      <trkpt lat="42.31802" lon="2.57089">
        <ele>841.871</ele>
        <time>2013-04-20T10:04:36Z</time>
      </trkpt>
      <trkpt lat="42.31804" lon="2.57085">
        <ele>841.375</ele>
        <time>2013-04-20T10:04:38Z</time>
      </trkpt>
      <trkpt lat="42.31802" lon="2.57082">
        <ele>840.862</ele>
        <time>2013-04-20T10:04:41Z</time>
      </trkpt>
      <trkpt lat="42.31791" lon="2.57073">
        <ele>841.383</ele>
        <time>2013-04-20T10:04:51Z</time>
      </trkpt>
      <trkpt lat="42.31781" lon="2.57067">
        <ele>841.386</ele>
        <time>2013-04-20T10:05:02Z</time>
      </trkpt>
      <trkpt lat="42.31779" lon="2.57065">
        <ele>841.339</ele>
        <time>2013-04-20T10:05:05Z</time>
      </trkpt>
      <trkpt lat="42.31776" lon="2.57062">
        <ele>840.853</ele>
        <time>2013-04-20T10:05:09Z</time>
      </trkpt>
      <trkpt lat="42.31774" lon="2.57053">
        <ele>839.404</ele>
        <time>2013-04-20T10:05:18Z</time>
      </trkpt>
      <trkpt lat="42.31774" lon="2.57044">
        <ele>838.914</ele>
        <time>2013-04-20T10:05:24Z</time>
      </trkpt>
      <trkpt lat="42.31773" lon="2.57043">
        <ele>838.407</ele>
        <time>2013-04-20T10:05:28Z</time>
      </trkpt>
      <trkpt lat="42.31762" lon="2.57044">
        <ele>837.099</ele>
        <time>2013-04-20T10:05:35Z</time>
      </trkpt>
      <trkpt lat="42.31758" lon="2.57047">
        <ele>833.168</ele>
        <time>2013-04-20T10:05:43Z</time>
      </trkpt>
      <trkpt lat="42.31754" lon="2.57048">
        <ele>828.892</ele>
        <time>2013-04-20T10:05:52Z</time>
      </trkpt>
      <trkpt lat="42.31743" lon="2.57051">
        <ele>827.439</ele>
        <time>2013-04-20T10:06:02Z</time>
      </trkpt>
      <trkpt lat="42.31738" lon="2.57055">
        <ele>826.48</ele>
        <time>2013-04-20T10:06:09Z</time>
      </trkpt>
      <trkpt lat="42.31739" lon="2.57062">
        <ele>826.453</ele>
        <time>2013-04-20T10:06:13Z</time>
      </trkpt>
      <trkpt lat="42.31734" lon="2.57071">
        <ele>826.416</ele>
        <time>2013-04-20T10:06:17Z</time>
      </trkpt>
      <trkpt lat="42.31734" lon="2.57073">
        <ele>826.462</ele>
        <time>2013-04-20T10:06:18Z</time>
      </trkpt>
      <trkpt lat="42.31733" lon="2.57089">
        <ele>825.983</ele>
        <time>2013-04-20T10:06:27Z</time>
      </trkpt>
      <trkpt lat="42.31731" lon="2.57095">
        <ele>825.411</ele>
        <time>2013-04-20T10:06:30Z</time>
      </trkpt>
      <trkpt lat="42.31732" lon="2.57112">
        <ele>825.007</ele>
        <time>2013-04-20T10:06:37Z</time>
      </trkpt>
      <trkpt lat="42.31736" lon="2.57116">
        <ele>824.59</ele>
        <time>2013-04-20T10:06:40Z</time>
      </trkpt>
      <trkpt lat="42.31737" lon="2.57118">
        <ele>824.069</ele>
        <time>2013-04-20T10:06:42Z</time>
      </trkpt>
      <trkpt lat="42.31739" lon="2.57127">
        <ele>823.533</ele>
        <time>2013-04-20T10:06:47Z</time>
      </trkpt>
      <trkpt lat="42.31746" lon="2.57124">
        <ele>819.25</ele>
        <time>2013-04-20T10:06:52Z</time>
      </trkpt>
      <trkpt lat="42.31749" lon="2.57149">
        <ele>816.361</ele>
        <time>2013-04-20T10:07:04Z</time>
      </trkpt>
      <trkpt lat="42.31747" lon="2.5717">
        <ele>815.334</ele>
        <time>2013-04-20T10:07:11Z</time>
      </trkpt>
      <trkpt lat="42.3174" lon="2.5719">
        <ele>814.937</ele>
        <time>2013-04-20T10:07:18Z</time>
      </trkpt>
      <trkpt lat="42.31744" lon="2.57188">
        <ele>813.479</ele>
        <time>2013-04-20T10:07:22Z</time>
      </trkpt>
      <trkpt lat="42.31745" lon="2.57192">
        <ele>813.405</ele>
        <time>2013-04-20T10:07:25Z</time>
      </trkpt>
      <trkpt lat="42.31751" lon="2.57208">
        <ele>812.925</ele>
        <time>2013-04-20T10:07:36Z</time>
      </trkpt>
      <trkpt lat="42.31757" lon="2.57223">
        <ele>812.507</ele>
        <time>2013-04-20T10:07:49Z</time>
      </trkpt>
      <trkpt lat="42.31757" lon="2.57228">
        <ele>812.521</ele>
        <time>2013-04-20T10:07:52Z</time>
      </trkpt>
      <trkpt lat="42.31757" lon="2.57232">
        <ele>812.58</ele>
        <time>2013-04-20T10:07:55Z</time>
      </trkpt>
      <trkpt lat="42.31759" lon="2.5724">
        <ele>812.554</ele>
        <time>2013-04-20T10:07:59Z</time>
      </trkpt>
      <trkpt lat="42.31756" lon="2.57248">
        <ele>812.551</ele>
        <time>2013-04-20T10:08:02Z</time>
      </trkpt>
      <trkpt lat="42.31758" lon="2.57249">
        <ele>812.562</ele>
        <time>2013-04-20T10:08:03Z</time>
      </trkpt>
      <trkpt lat="42.31765" lon="2.57255">
        <ele>812.555</ele>
        <time>2013-04-20T10:08:08Z</time>
      </trkpt>
      <trkpt lat="42.31771" lon="2.57277">
        <ele>812.068</ele>
        <time>2013-04-20T10:08:17Z</time>
      </trkpt>
      <trkpt lat="42.31777" lon="2.57283">
        <ele>811.569</ele>
        <time>2013-04-20T10:08:22Z</time>
      </trkpt>
      <trkpt lat="42.3178" lon="2.57299">
        <ele>811.504</ele>
        <time>2013-04-20T10:08:31Z</time>
      </trkpt>
      <trkpt lat="42.3178" lon="2.57301">
        <ele>811.524</ele>
        <time>2013-04-20T10:08:32Z</time>
      </trkpt>
      <trkpt lat="42.31781" lon="2.57328">
        <ele>811.007</ele>
        <time>2013-04-20T10:08:41Z</time>
      </trkpt>
      <trkpt lat="42.31783" lon="2.57352">
        <ele>811.01</ele>
        <time>2013-04-20T10:08:52Z</time>
      </trkpt>
      <trkpt lat="42.31785" lon="2.57358">
        <ele>811.049</ele>
        <time>2013-04-20T10:08:55Z</time>
      </trkpt>
      <trkpt lat="42.31786" lon="2.57379">
        <ele>810.533</ele>
        <time>2013-04-20T10:09:05Z</time>
      </trkpt>
      <trkpt lat="42.31792" lon="2.57391">
        <ele>810.56</ele>
        <time>2013-04-20T10:09:13Z</time>
      </trkpt>
      <trkpt lat="42.31797" lon="2.574">
        <ele>810.181</ele>
        <time>2013-04-20T10:09:24Z</time>
      </trkpt>
      <trkpt lat="42.31841" lon="2.57357">
        <ele>791.864</ele>
        <time>2013-04-20T10:09:36Z</time>
      </trkpt>
      <trkpt lat="42.31853" lon="2.57338">
        <ele>776.967</ele>
        <time>2013-04-20T10:09:48Z</time>
      </trkpt>
      <trkpt lat="42.31856" lon="2.57336">
        <ele>774.554</ele>
        <time>2013-04-20T10:10:02Z</time>
      </trkpt>
      <trkpt lat="42.31855" lon="2.57337">
        <ele>774.556</ele>
        <time>2013-04-20T10:10:05Z</time>
      </trkpt>
      <trkpt lat="42.31858" lon="2.57336">
        <ele>774.511</ele>
        <time>2013-04-20T10:10:07Z</time>
      </trkpt>
      <trkpt lat="42.3186" lon="2.57329">
        <ele>774.507</ele>
        <time>2013-04-20T10:10:19Z</time>
      </trkpt>
      <trkpt lat="42.31857" lon="2.57327">
        <ele>773.589</ele>
        <time>2013-04-20T10:10:25Z</time>
      </trkpt>
      <trkpt lat="42.31853" lon="2.57327">
        <ele>772.138</ele>
        <time>2013-04-20T10:10:37Z</time>
      </trkpt>
      <trkpt lat="42.31852" lon="2.57327">
        <ele>771.632</ele>
        <time>2013-04-20T10:10:38Z</time>
      </trkpt>
      <trkpt lat="42.3185" lon="2.57325">
        <ele>769.249</ele>
        <time>2013-04-20T10:10:46Z</time>
      </trkpt>
      <trkpt lat="42.31841" lon="2.57358">
        <ele>751.43</ele>
        <time>2013-04-20T10:10:56Z</time>
      </trkpt>
      <trkpt lat="42.3184" lon="2.57368">
        <ele>746.673</ele>
        <time>2013-04-20T10:11:03Z</time>
      </trkpt>
      <trkpt lat="42.31836" lon="2.57378">
        <ele>743.716</ele>
        <time>2013-04-20T10:11:07Z</time>
      </trkpt>
      <trkpt lat="42.31829" lon="2.57399">
        <ele>737.534</ele>
        <time>2013-04-20T10:11:14Z</time>
      </trkpt>
      <trkpt lat="42.31829" lon="2.57402">
        <ele>737.055</ele>
        <time>2013-04-20T10:11:16Z</time>
      </trkpt>
      <trkpt lat="42.31827" lon="2.57416">
        <ele>731.71</ele>
        <time>2013-04-20T10:11:24Z</time>
      </trkpt>
      <trkpt lat="42.31827" lon="2.57428">
        <ele>725.007</ele>
        <time>2013-04-20T10:11:35Z</time>
      </trkpt>
      <trkpt lat="42.3182" lon="2.57441">
        <ele>713.967</ele>
        <time>2013-04-20T10:11:47Z</time>
      </trkpt>
      <trkpt lat="42.3182" lon="2.57459">
        <ele>700.546</ele>
        <time>2013-04-20T10:12:02Z</time>
      </trkpt>
      <trkpt lat="42.31822" lon="2.57468">
        <ele>694.24</ele>
        <time>2013-04-20T10:12:10Z</time>
      </trkpt>
      <trkpt lat="42.31823" lon="2.57474">
        <ele>694.767</ele>
        <time>2013-04-20T10:12:13Z</time>
      </trkpt>
      <trkpt lat="42.31818" lon="2.57505">
        <ele>693.778</ele>
        <time>2013-04-20T10:12:26Z</time>
      </trkpt>
      <trkpt lat="42.31817" lon="2.5751">
        <ele>693.721</ele>
        <time>2013-04-20T10:12:28Z</time>
      </trkpt>
      <trkpt lat="42.31815" lon="2.57531">
        <ele>694.294</ele>
        <time>2013-04-20T10:12:38Z</time>
      </trkpt>
      <trkpt lat="42.31814" lon="2.57535">
        <ele>694.767</ele>
        <time>2013-04-20T10:12:40Z</time>
      </trkpt>
      <trkpt lat="42.31813" lon="2.57538">
        <ele>695.281</ele>
        <time>2013-04-20T10:12:42Z</time>
      </trkpt>
      <trkpt lat="42.31809" lon="2.57552">
        <ele>694.219</ele>
        <time>2013-04-20T10:12:50Z</time>
      </trkpt>
      <trkpt lat="42.31806" lon="2.57569">
        <ele>691.807</ele>
        <time>2013-04-20T10:13:01Z</time>
      </trkpt>
      <trkpt lat="42.31802" lon="2.57579">
        <ele>682.77</ele>
        <time>2013-04-20T10:13:14Z</time>
      </trkpt>
      <trkpt lat="42.31802" lon="2.57586">
        <ele>679.339</ele>
        <time>2013-04-20T10:13:19Z</time>
      </trkpt>
      <trkpt lat="42.318" lon="2.57604">
        <ele>673.143</ele>
        <time>2013-04-20T10:13:29Z</time>
      </trkpt>
      <trkpt lat="42.31802" lon="2.57613">
        <ele>669.22</ele>
        <time>2013-04-20T10:13:36Z</time>
      </trkpt>
      <trkpt lat="42.31802" lon="2.57615">
        <ele>669.261</ele>
        <time>2013-04-20T10:13:37Z</time>
      </trkpt>
      <trkpt lat="42.318" lon="2.57623">
        <ele>669.714</ele>
        <time>2013-04-20T10:13:40Z</time>
      </trkpt>
      <trkpt lat="42.31799" lon="2.57628">
        <ele>670.297</ele>
        <time>2013-04-20T10:13:42Z</time>
      </trkpt>
      <trkpt lat="42.31797" lon="2.57651">
        <ele>667.899</ele>
        <time>2013-04-20T10:13:54Z</time>
      </trkpt>
      <trkpt lat="42.31797" lon="2.57655">
        <ele>667.807</ele>
        <time>2013-04-20T10:13:56Z</time>
      </trkpt>
      <trkpt lat="42.31797" lon="2.57672">
        <ele>665.927</ele>
        <time>2013-04-20T10:14:08Z</time>
      </trkpt>
      <trkpt lat="42.31798" lon="2.57686">
        <ele>662.007</ele>
        <time>2013-04-20T10:14:19Z</time>
      </trkpt>
      <trkpt lat="42.31799" lon="2.57703">
        <ele>656.263</ele>
        <time>2013-04-20T10:14:31Z</time>
      </trkpt>
      <trkpt lat="42.31794" lon="2.57725">
        <ele>651.092</ele>
        <time>2013-04-20T10:14:43Z</time>
      </trkpt>
      <trkpt lat="42.3179" lon="2.57741">
        <ele>647.646</ele>
        <time>2013-04-20T10:14:53Z</time>
      </trkpt>
      <trkpt lat="42.31789" lon="2.57745">
        <ele>646.683</ele>
        <time>2013-04-20T10:14:57Z</time>
      </trkpt>
      <trkpt lat="42.31787" lon="2.57753">
        <ele>646.644</ele>
        <time>2013-04-20T10:15:00Z</time>
      </trkpt>
      <trkpt lat="42.31782" lon="2.57778">
        <ele>644.767</ele>
        <time>2013-04-20T10:15:11Z</time>
      </trkpt>
      <trkpt lat="42.31781" lon="2.57789">
        <ele>641.81</ele>
        <time>2013-04-20T10:15:17Z</time>
      </trkpt>
      <trkpt lat="42.3178" lon="2.57802">
        <ele>641.394</ele>
        <time>2013-04-20T10:15:24Z</time>
      </trkpt>
      <trkpt lat="42.31777" lon="2.57814">
        <ele>639.957</ele>
        <time>2013-04-20T10:15:34Z</time>
      </trkpt>
      <trkpt lat="42.31777" lon="2.57825">
        <ele>634.122</ele>
        <time>2013-04-20T10:15:47Z</time>
      </trkpt>
      <trkpt lat="42.31772" lon="2.5784">
        <ele>630.307</ele>
        <time>2013-04-20T10:15:59Z</time>
      </trkpt>
      <trkpt lat="42.3177" lon="2.57851">
        <ele>629.343</ele>
        <time>2013-04-20T10:16:09Z</time>
      </trkpt>
      <trkpt lat="42.31766" lon="2.57869">
        <ele>627.952</ele>
        <time>2013-04-20T10:16:20Z</time>
      </trkpt>
      <trkpt lat="42.31761" lon="2.57887">
        <ele>626.466</ele>
        <time>2013-04-20T10:16:31Z</time>
      </trkpt>
      <trkpt lat="42.31757" lon="2.57904">
        <ele>622.633</ele>
        <time>2013-04-20T10:16:39Z</time>
      </trkpt>
      <trkpt lat="42.31753" lon="2.57923">
        <ele>621.274</ele>
        <time>2013-04-20T10:16:46Z</time>
      </trkpt>
      <trkpt lat="42.31751" lon="2.5794">
        <ele>619.737</ele>
        <time>2013-04-20T10:16:55Z</time>
      </trkpt>
      <trkpt lat="42.3175" lon="2.57958">
        <ele>613.93</ele>
        <time>2013-04-20T10:17:07Z</time>
      </trkpt>
      <trkpt lat="42.31749" lon="2.57967">
        <ele>612.528</ele>
        <time>2013-04-20T10:17:13Z</time>
      </trkpt>
      <trkpt lat="42.3175" lon="2.57978">
        <ele>609.189</ele>
        <time>2013-04-20T10:17:18Z</time>
      </trkpt>
      <trkpt lat="42.31747" lon="2.57996">
        <ele>606.317</ele>
        <time>2013-04-20T10:17:28Z</time>
      </trkpt>
      <trkpt lat="42.31748" lon="2.58019">
        <ele>604.807</ele>
        <time>2013-04-20T10:17:39Z</time>
      </trkpt>
      <trkpt lat="42.31751" lon="2.58035">
        <ele>601.476</ele>
        <time>2013-04-20T10:17:48Z</time>
      </trkpt>
      <trkpt lat="42.31748" lon="2.58047">
        <ele>591.465</ele>
        <time>2013-04-20T10:18:02Z</time>
      </trkpt>
      <trkpt lat="42.31746" lon="2.58058">
        <ele>581.399</ele>
        <time>2013-04-20T10:18:14Z</time>
      </trkpt>
      <trkpt lat="42.31746" lon="2.58058">
        <ele>580.856</ele>
        <time>2013-04-20T10:18:15Z</time>
      </trkpt>
      <trkpt lat="42.31741" lon="2.58062">
        <ele>579.377</ele>
        <time>2013-04-20T10:18:19Z</time>
      </trkpt>
      <trkpt lat="42.31739" lon="2.58074">
        <ele>576.02</ele>
        <time>2013-04-20T10:18:28Z</time>
      </trkpt>
      <trkpt lat="42.31743" lon="2.58095">
        <ele>572.133</ele>
        <time>2013-04-20T10:18:42Z</time>
      </trkpt>
      <trkpt lat="42.31741" lon="2.58102">
        <ele>568.812</ele>
        <time>2013-04-20T10:18:49Z</time>
      </trkpt>
      <trkpt lat="42.31738" lon="2.58103">
        <ele>568.832</ele>
        <time>2013-04-20T10:18:51Z</time>
      </trkpt>
      <trkpt lat="42.31735" lon="2.58125">
        <ele>566.405</ele>
        <time>2013-04-20T10:19:01Z</time>
      </trkpt>
      <trkpt lat="42.3174" lon="2.58132">
        <ele>564.407</ele>
        <time>2013-04-20T10:19:08Z</time>
      </trkpt>
      <trkpt lat="42.31742" lon="2.58158">
        <ele>563.565</ele>
        <time>2013-04-20T10:19:21Z</time>
      </trkpt>
      <trkpt lat="42.31736" lon="2.58177">
        <ele>561.634</ele>
        <time>2013-04-20T10:19:31Z</time>
      </trkpt>
      <trkpt lat="42.31734" lon="2.58185">
        <ele>560.638</ele>
        <time>2013-04-20T10:19:34Z</time>
      </trkpt>
      <trkpt lat="42.31733" lon="2.58196">
        <ele>558.785</ele>
        <time>2013-04-20T10:19:38Z</time>
      </trkpt>
      <trkpt lat="42.31731" lon="2.58211">
        <ele>556.316</ele>
        <time>2013-04-20T10:19:44Z</time>
      </trkpt>
      <trkpt lat="42.31732" lon="2.58219">
        <ele>555.369</ele>
        <time>2013-04-20T10:19:48Z</time>
      </trkpt>
      <trkpt lat="42.31725" lon="2.58231">
        <ele>553.972</ele>
        <time>2013-04-20T10:19:58Z</time>
      </trkpt>
      <trkpt lat="42.31716" lon="2.58223">
        <ele>549.123</ele>
        <time>2013-04-20T10:20:05Z</time>
      </trkpt>
      <trkpt lat="42.31709" lon="2.58209">
        <ele>543.383</ele>
        <time>2013-04-20T10:20:12Z</time>
      </trkpt>
      <trkpt lat="42.31705" lon="2.58204">
        <ele>541.411</ele>
        <time>2013-04-20T10:20:15Z</time>
      </trkpt>
      <trkpt lat="42.31702" lon="2.58195">
        <ele>538.507</ele>
        <time>2013-04-20T10:20:20Z</time>
      </trkpt>
      <trkpt lat="42.31703" lon="2.58194">
        <ele>538.576</ele>
        <time>2013-04-20T10:20:21Z</time>
      </trkpt>
      <trkpt lat="42.31701" lon="2.58192">
        <ele>536.145</ele>
        <time>2013-04-20T10:20:30Z</time>
      </trkpt>
      <trkpt lat="42.31701" lon="2.58201">
        <ele>535.179</ele>
        <time>2013-04-20T10:20:35Z</time>
      </trkpt>
      <trkpt lat="42.31703" lon="2.58206">
        <ele>535.146</ele>
        <time>2013-04-20T10:20:38Z</time>
      </trkpt>
      <trkpt lat="42.31709" lon="2.58223">
        <ele>534.237</ele>
        <time>2013-04-20T10:20:52Z</time>
      </trkpt>
      <trkpt lat="42.31711" lon="2.5824">
        <ele>531.37</ele>
        <time>2013-04-20T10:21:00Z</time>
      </trkpt>
      <trkpt lat="42.31713" lon="2.58271">
        <ele>531.323</ele>
        <time>2013-04-20T10:21:12Z</time>
      </trkpt>
      <trkpt lat="42.31715" lon="2.58282">
        <ele>530.881</ele>
        <time>2013-04-20T10:21:20Z</time>
      </trkpt>
      <trkpt lat="42.31719" lon="2.58309">
        <ele>529.861</ele>
        <time>2013-04-20T10:21:32Z</time>
      </trkpt>
      <trkpt lat="42.31722" lon="2.58325">
        <ele>527.917</ele>
        <time>2013-04-20T10:21:38Z</time>
      </trkpt>
      <trkpt lat="42.31725" lon="2.58335">
        <ele>526.507</ele>
        <time>2013-04-20T10:21:43Z</time>
      </trkpt>
      <trkpt lat="42.31725" lon="2.58338">
        <ele>526.592</ele>
        <time>2013-04-20T10:21:45Z</time>
      </trkpt>
      <trkpt lat="42.31725" lon="2.58355">
        <ele>526.071</ele>
        <time>2013-04-20T10:21:56Z</time>
      </trkpt>
      <trkpt lat="42.31727" lon="2.5836">
        <ele>526.535</ele>
        <time>2013-04-20T10:22:02Z</time>
      </trkpt>
      <trkpt lat="42.3173" lon="2.58373">
        <ele>522.662</ele>
        <time>2013-04-20T10:22:13Z</time>
      </trkpt>
      <trkpt lat="42.31729" lon="2.58385">
        <ele>518.393</ele>
        <time>2013-04-20T10:22:24Z</time>
      </trkpt>
      <trkpt lat="42.31726" lon="2.58402">
        <ele>515.926</ele>
        <time>2013-04-20T10:22:35Z</time>
      </trkpt>
      <trkpt lat="42.31723" lon="2.58409">
        <ele>515.939</ele>
        <time>2013-04-20T10:22:40Z</time>
      </trkpt>
      <trkpt lat="42.3172" lon="2.58415">
        <ele>515.966</ele>
        <time>2013-04-20T10:22:44Z</time>
      </trkpt>
      <trkpt lat="42.31717" lon="2.58429">
        <ele>511.129</ele>
        <time>2013-04-20T10:22:57Z</time>
      </trkpt>
      <trkpt lat="42.31721" lon="2.58436">
        <ele>506.321</ele>
        <time>2013-04-20T10:23:03Z</time>
      </trkpt>
      <trkpt lat="42.31723" lon="2.5844">
        <ele>503.907</ele>
        <time>2013-04-20T10:23:06Z</time>
      </trkpt>
      <trkpt lat="42.31718" lon="2.58456">
        <ele>503.48</ele>
        <time>2013-04-20T10:23:16Z</time>
      </trkpt>
      <trkpt lat="42.31716" lon="2.5846">
        <ele>503.479</ele>
        <time>2013-04-20T10:23:19Z</time>
      </trkpt>
      <trkpt lat="42.31711" lon="2.58475">
        <ele>502.093</ele>
        <time>2013-04-20T10:23:30Z</time>
      </trkpt>
      <trkpt lat="42.31709" lon="2.58486">
        <ele>501.04</ele>
        <time>2013-04-20T10:23:36Z</time>
      </trkpt>
      <trkpt lat="42.31713" lon="2.58501">
        <ele>495.291</ele>
        <time>2013-04-20T10:23:47Z</time>
      </trkpt>
      <trkpt lat="42.31714" lon="2.58502">
        <ele>494.774</ele>
        <time>2013-04-20T10:23:48Z</time>
      </trkpt>
      <trkpt lat="42.31706" lon="2.58517">
        <ele>493.337</ele>
        <time>2013-04-20T10:23:56Z</time>
      </trkpt>
      <trkpt lat="42.31701" lon="2.58518">
        <ele>492.329</ele>
        <time>2013-04-20T10:24:00Z</time>
      </trkpt>
      <trkpt lat="42.31702" lon="2.58527">
        <ele>491.9</ele>
        <time>2013-04-20T10:24:06Z</time>
      </trkpt>
      <trkpt lat="42.317" lon="2.58534">
        <ele>491.42</ele>
        <time>2013-04-20T10:24:09Z</time>
      </trkpt>
      <trkpt lat="42.31693" lon="2.58545">
        <ele>489.507</ele>
        <time>2013-04-20T10:24:22Z</time>
      </trkpt>
      <trkpt lat="42.31693" lon="2.58546">
        <ele>488.556</ele>
        <time>2013-04-20T10:24:25Z</time>
      </trkpt>
      <trkpt lat="42.31694" lon="2.58548">
        <ele>487.545</ele>
        <time>2013-04-20T10:24:27Z</time>
      </trkpt>
      <trkpt lat="42.31704" lon="2.58552">
        <ele>481.869</ele>
        <time>2013-04-20T10:24:41Z</time>
      </trkpt>
      <trkpt lat="42.31708" lon="2.58553">
        <ele>480.396</ele>
        <time>2013-04-20T10:24:49Z</time>
      </trkpt>
      <trkpt lat="42.31713" lon="2.58561">
        <ele>474.677</ele>
        <time>2013-04-20T10:25:00Z</time>
      </trkpt>
      <trkpt lat="42.31716" lon="2.58569">
        <ele>473.63</ele>
        <time>2013-04-20T10:25:04Z</time>
      </trkpt>
      <trkpt lat="42.31712" lon="2.58587">
        <ele>472.133</ele>
        <time>2013-04-20T10:25:14Z</time>
      </trkpt>
      <trkpt lat="42.31704" lon="2.58618">
        <ele>471.767</ele>
        <time>2013-04-20T10:25:24Z</time>
      </trkpt>
      <trkpt lat="42.31704" lon="2.5862">
        <ele>472.181</ele>
        <time>2013-04-20T10:25:25Z</time>
      </trkpt>
      <trkpt lat="42.31704" lon="2.58634">
        <ele>471.219</ele>
        <time>2013-04-20T10:25:31Z</time>
      </trkpt>
      <trkpt lat="42.31705" lon="2.58642">
        <ele>470.707</ele>
        <time>2013-04-20T10:25:35Z</time>
      </trkpt>
      <trkpt lat="42.31707" lon="2.58649">
        <ele>468.37</ele>
        <time>2013-04-20T10:25:43Z</time>
      </trkpt>
      <trkpt lat="42.31709" lon="2.58653">
        <ele>466.949</ele>
        <time>2013-04-20T10:25:48Z</time>
      </trkpt>
      <trkpt lat="42.31709" lon="2.58669">
        <ele>464.963</ele>
        <time>2013-04-20T10:25:56Z</time>
      </trkpt>
      <trkpt lat="42.31712" lon="2.5868">
        <ele>463.08</ele>
        <time>2013-04-20T10:26:01Z</time>
      </trkpt>
      <trkpt lat="42.3171" lon="2.58693">
        <ele>462.131</ele>
        <time>2013-04-20T10:26:11Z</time>
      </trkpt>
      <trkpt lat="42.31709" lon="2.58694">
        <ele>461.664</ele>
        <time>2013-04-20T10:26:13Z</time>
      </trkpt>
      <trkpt lat="42.31704" lon="2.58704">
        <ele>459.797</ele>
        <time>2013-04-20T10:26:24Z</time>
      </trkpt>
      <trkpt lat="42.31695" lon="2.58718">
        <ele>456.852</ele>
        <time>2013-04-20T10:26:38Z</time>
      </trkpt>
      <trkpt lat="42.31695" lon="2.58724">
        <ele>456.853</ele>
        <time>2013-04-20T10:26:54Z</time>
      </trkpt>
      <trkpt lat="42.31696" lon="2.5873">
        <ele>456.308</ele>
        <time>2013-04-20T10:27:11Z</time>
      </trkpt>
      <trkpt lat="42.31691" lon="2.58738">
        <ele>458.207</ele>
        <time>2013-04-20T10:27:26Z</time>
      </trkpt>
      <trkpt lat="42.31687" lon="2.58743">
        <ele>459.769</ele>
        <time>2013-04-20T10:27:43Z</time>
      </trkpt>
      <trkpt lat="42.31689" lon="2.58737">
        <ele>459.788</ele>
        <time>2013-04-20T10:28:03Z</time>
      </trkpt>
      <trkpt lat="42.31689" lon="2.58731">
        <ele>461.632</ele>
        <time>2013-04-20T10:28:21Z</time>
      </trkpt>
      <trkpt lat="42.31688" lon="2.5873">
        <ele>463.039</ele>
        <time>2013-04-20T10:28:42Z</time>
      </trkpt>
      <trkpt lat="42.31686" lon="2.5873">
        <ele>461.61</ele>
        <time>2013-04-20T10:29:10Z</time>
      </trkpt>
      <trkpt lat="42.3169" lon="2.58729">
        <ele>464.563</ele>
        <time>2013-04-20T10:29:48Z</time>
      </trkpt>
      <trkpt lat="42.31688" lon="2.58733">
        <ele>465.436</ele>
        <time>2013-04-20T10:30:15Z</time>
      </trkpt>
      <trkpt lat="42.31684" lon="2.58736">
        <ele>465.962</ele>
        <time>2013-04-20T10:30:44Z</time>
      </trkpt>
      <trkpt lat="42.31686" lon="2.58736">
        <ele>460.183</ele>
        <time>2013-04-20T10:31:14Z</time>
      </trkpt>
      <trkpt lat="42.3168" lon="2.58743">
        <ele>465.911</ele>
        <time>2013-04-20T10:31:45Z</time>
      </trkpt>
      <trkpt lat="42.31683" lon="2.58736">
        <ele>467.307</ele>
        <time>2013-04-20T10:32:19Z</time>
      </trkpt>
      <trkpt lat="42.31684" lon="2.58729">
        <ele>467.31</ele>
        <time>2013-04-20T10:32:56Z</time>
      </trkpt>
      <trkpt lat="42.31682" lon="2.58732">
        <ele>468.859</ele>
        <time>2013-04-20T10:33:29Z</time>
      </trkpt>
      <trkpt lat="42.31685" lon="2.58732">
        <ele>464.543</ele>
        <time>2013-04-20T10:34:01Z</time>
      </trkpt>
      <trkpt lat="42.31682" lon="2.58732">
        <ele>463.55</ele>
        <time>2013-04-20T10:34:29Z</time>
      </trkpt>
      <trkpt lat="42.31684" lon="2.58733">
        <ele>463.591</ele>
        <time>2013-04-20T10:34:56Z</time>
      </trkpt>
      <trkpt lat="42.31684" lon="2.58732">
        <ele>463.574</ele>
        <time>2013-04-20T10:35:19Z</time>
      </trkpt>
      <trkpt lat="42.31685" lon="2.58733">
        <ele>461.637</ele>
        <time>2013-04-20T10:35:44Z</time>
      </trkpt>
      <trkpt lat="42.31683" lon="2.58731">
        <ele>461.666</ele>
        <time>2013-04-20T10:36:15Z</time>
      </trkpt>
      <trkpt lat="42.31683" lon="2.58732">
        <ele>465.429</ele>
        <time>2013-04-20T10:36:45Z</time>
      </trkpt>
      <trkpt lat="42.31682" lon="2.5873">
        <ele>465.421</ele>
        <time>2013-04-20T10:37:13Z</time>
      </trkpt>
      <trkpt lat="42.3168" lon="2.5874">
        <ele>464.907</ele>
        <time>2013-04-20T10:37:39Z</time>
      </trkpt>
      <trkpt lat="42.31682" lon="2.58738">
        <ele>464.55</ele>
        <time>2013-04-20T10:38:07Z</time>
      </trkpt>
      <trkpt lat="42.31686" lon="2.58738">
        <ele>464.019</ele>
        <time>2013-04-20T10:38:34Z</time>
      </trkpt>
      <trkpt lat="42.31687" lon="2.58737">
        <ele>466.953</ele>
        <time>2013-04-20T10:38:59Z</time>
      </trkpt>
      <trkpt lat="42.31686" lon="2.58736">
        <ele>466.41</ele>
        <time>2013-04-20T10:39:28Z</time>
      </trkpt>
      <trkpt lat="42.31684" lon="2.58737">
        <ele>468.811</ele>
        <time>2013-04-20T10:39:54Z</time>
      </trkpt>
      <trkpt lat="42.31686" lon="2.58739">
        <ele>467.884</ele>
        <time>2013-04-20T10:40:24Z</time>
      </trkpt>
      <trkpt lat="42.31687" lon="2.58733">
        <ele>465.967</ele>
        <time>2013-04-20T10:40:39Z</time>
      </trkpt>
      <trkpt lat="42.31689" lon="2.58725">
        <ele>464.577</ele>
        <time>2013-04-20T10:41:03Z</time>
      </trkpt>
      <trkpt lat="42.31689" lon="2.58723">
        <ele>462.161</ele>
        <time>2013-04-20T10:41:29Z</time>
      </trkpt>
      <trkpt lat="42.31694" lon="2.58723">
        <ele>457.227</ele>
        <time>2013-04-20T10:41:40Z</time>
      </trkpt>
      <trkpt lat="42.31696" lon="2.58726">
        <ele>454.807</ele>
        <time>2013-04-20T10:41:55Z</time>
      </trkpt>
      <trkpt lat="42.31696" lon="2.58738">
        <ele>453.951</ele>
        <time>2013-04-20T10:42:05Z</time>
      </trkpt>
      <trkpt lat="42.317" lon="2.58743">
        <ele>452.08</ele>
        <time>2013-04-20T10:42:11Z</time>
      </trkpt>
      <trkpt lat="42.31692" lon="2.58749">
        <ele>450.014</ele>
        <time>2013-04-20T10:42:16Z</time>
      </trkpt>
      <trkpt lat="42.31688" lon="2.58759">
        <ele>446.761</ele>
        <time>2013-04-20T10:42:24Z</time>
      </trkpt>
      <trkpt lat="42.31693" lon="2.58774">
        <ele>441.482</ele>
        <time>2013-04-20T10:42:34Z</time>
      </trkpt>
      <trkpt lat="42.31701" lon="2.58778">
        <ele>438.045</ele>
        <time>2013-04-20T10:42:41Z</time>
      </trkpt>
      <trkpt lat="42.31703" lon="2.58782">
        <ele>437.588</ele>
        <time>2013-04-20T10:42:43Z</time>
      </trkpt>
      <trkpt lat="42.31703" lon="2.58787">
        <ele>436.665</ele>
        <time>2013-04-20T10:42:46Z</time>
      </trkpt>
      <trkpt lat="42.31711" lon="2.58787">
        <ele>433.768</ele>
        <time>2013-04-20T10:42:53Z</time>
      </trkpt>
      <trkpt lat="42.31721" lon="2.58803">
        <ele>431.814</ele>
        <time>2013-04-20T10:43:05Z</time>
      </trkpt>
      <trkpt lat="42.31726" lon="2.5881">
        <ele>433.207</ele>
        <time>2013-04-20T10:43:14Z</time>
      </trkpt>
      <trkpt lat="42.31722" lon="2.58832">
        <ele>431.85</ele>
        <time>2013-04-20T10:43:30Z</time>
      </trkpt>
      <trkpt lat="42.31717" lon="2.58839">
        <ele>432.759</ele>
        <time>2013-04-20T10:43:37Z</time>
      </trkpt>
      <trkpt lat="42.31705" lon="2.58853">
        <ele>432.713</ele>
        <time>2013-04-20T10:43:54Z</time>
      </trkpt>
      <trkpt lat="42.31699" lon="2.58866">
        <ele>432.75</ele>
        <time>2013-04-20T10:44:08Z</time>
      </trkpt>
      <trkpt lat="42.31687" lon="2.58875">
        <ele>434.261</ele>
        <time>2013-04-20T10:44:23Z</time>
      </trkpt>
      <trkpt lat="42.31676" lon="2.5888">
        <ele>438.054</ele>
        <time>2013-04-20T10:44:33Z</time>
      </trkpt>
      <trkpt lat="42.31667" lon="2.58883">
        <ele>438.567</ele>
        <time>2013-04-20T10:44:39Z</time>
      </trkpt>
      <trkpt lat="42.31651" lon="2.58885">
        <ele>439.094</ele>
        <time>2013-04-20T10:44:51Z</time>
      </trkpt>
      <trkpt lat="42.31633" lon="2.58892">
        <ele>440.457</ele>
        <time>2013-04-20T10:45:05Z</time>
      </trkpt>
      <trkpt lat="42.31623" lon="2.58898">
        <ele>440.422</ele>
        <time>2013-04-20T10:45:12Z</time>
      </trkpt>
      <trkpt lat="42.31611" lon="2.589">
        <ele>439.007</ele>
        <time>2013-04-20T10:45:21Z</time>
      </trkpt>
      <trkpt lat="42.31608" lon="2.58898">
        <ele>438.533</ele>
        <time>2013-04-20T10:45:23Z</time>
      </trkpt>
      <trkpt lat="42.31602" lon="2.58892">
        <ele>438.082</ele>
        <time>2013-04-20T10:45:28Z</time>
      </trkpt>
      <trkpt lat="42.31595" lon="2.5889">
        <ele>436.686</ele>
        <time>2013-04-20T10:45:32Z</time>
      </trkpt>
      <trkpt lat="42.31578" lon="2.58887">
        <ele>435.653</ele>
        <time>2013-04-20T10:45:41Z</time>
      </trkpt>
      <trkpt lat="42.31571" lon="2.58875">
        <ele>433.724</ele>
        <time>2013-04-20T10:45:48Z</time>
      </trkpt>
      <trkpt lat="42.3157" lon="2.5887">
        <ele>433.287</ele>
        <time>2013-04-20T10:45:50Z</time>
      </trkpt>
      <trkpt lat="42.31558" lon="2.58856">
        <ele>433.25</ele>
        <time>2013-04-20T10:45:59Z</time>
      </trkpt>
      <trkpt lat="42.31534" lon="2.58846">
        <ele>432.338</ele>
        <time>2013-04-20T10:46:16Z</time>
      </trkpt>
      <trkpt lat="42.31533" lon="2.58845">
        <ele>432.37</ele>
        <time>2013-04-20T10:46:17Z</time>
      </trkpt>
      <trkpt lat="42.31521" lon="2.58839">
        <ele>429.417</ele>
        <time>2013-04-20T10:46:26Z</time>
      </trkpt>
      <trkpt lat="42.3151" lon="2.58836">
        <ele>424.107</ele>
        <time>2013-04-20T10:46:35Z</time>
      </trkpt>
      <trkpt lat="42.31494" lon="2.58827">
        <ele>412.187</ele>
        <time>2013-04-20T10:46:48Z</time>
      </trkpt>
      <trkpt lat="42.31488" lon="2.58827">
        <ele>411.116</ele>
        <time>2013-04-20T10:46:52Z</time>
      </trkpt>
      <trkpt lat="42.31475" lon="2.58816">
        <ele>417.49</ele>
        <time>2013-04-20T10:47:02Z</time>
      </trkpt>
      <trkpt lat="42.31468" lon="2.58805">
        <ele>421.227</ele>
        <time>2013-04-20T10:47:12Z</time>
      </trkpt>
      <trkpt lat="42.31463" lon="2.58801">
        <ele>416.928</ele>
        <time>2013-04-20T10:47:26Z</time>
      </trkpt>
      <trkpt lat="42.31459" lon="2.58816">
        <ele>413.581</ele>
        <time>2013-04-20T10:47:39Z</time>
      </trkpt>
      <trkpt lat="42.31457" lon="2.58821">
        <ele>414.014</ele>
        <time>2013-04-20T10:47:43Z</time>
      </trkpt>
      <trkpt lat="42.3146" lon="2.58836">
        <ele>416.922</ele>
        <time>2013-04-20T10:47:55Z</time>
      </trkpt>
      <trkpt lat="42.31465" lon="2.58854">
        <ele>418.362</ele>
        <time>2013-04-20T10:48:09Z</time>
      </trkpt>
      <trkpt lat="42.31465" lon="2.5886">
        <ele>417.808</ele>
        <time>2013-04-20T10:48:14Z</time>
      </trkpt>
      <trkpt lat="42.31464" lon="2.58871">
        <ele>417.807</ele>
        <time>2013-04-20T10:48:20Z</time>
      </trkpt>
      <trkpt lat="42.31462" lon="2.58876">
        <ele>418.866</ele>
        <time>2013-04-20T10:48:23Z</time>
      </trkpt>
      <trkpt lat="42.31461" lon="2.58886">
        <ele>419.395</ele>
        <time>2013-04-20T10:48:29Z</time>
      </trkpt>
      <trkpt lat="42.31455" lon="2.58909">
        <ele>419.389</ele>
        <time>2013-04-20T10:48:40Z</time>
      </trkpt>
      <trkpt lat="42.31448" lon="2.58931">
        <ele>417.826</ele>
        <time>2013-04-20T10:48:53Z</time>
      </trkpt>
      <trkpt lat="42.31441" lon="2.58952">
        <ele>417.887</ele>
        <time>2013-04-20T10:49:07Z</time>
      </trkpt>
      <trkpt lat="42.31437" lon="2.58971">
        <ele>417.82</ele>
        <time>2013-04-20T10:49:21Z</time>
      </trkpt>
      <trkpt lat="42.31427" lon="2.58992">
        <ele>418.343</ele>
        <time>2013-04-20T10:49:35Z</time>
      </trkpt>
      <trkpt lat="42.31423" lon="2.58999">
        <ele>417.867</ele>
        <time>2013-04-20T10:49:41Z</time>
      </trkpt>
      <trkpt lat="42.31421" lon="2.59002">
        <ele>417.881</ele>
        <time>2013-04-20T10:49:43Z</time>
      </trkpt>
      <trkpt lat="42.31418" lon="2.59006">
        <ele>417.819</ele>
        <time>2013-04-20T10:49:46Z</time>
      </trkpt>
      <trkpt lat="42.31403" lon="2.59023">
        <ele>417.807</ele>
        <time>2013-04-20T10:50:00Z</time>
      </trkpt>
      <trkpt lat="42.31399" lon="2.59026">
        <ele>418.35</ele>
        <time>2013-04-20T10:50:04Z</time>
      </trkpt>
      <trkpt lat="42.31383" lon="2.5904">
        <ele>414.069</ele>
        <time>2013-04-20T10:50:19Z</time>
      </trkpt>
      <trkpt lat="42.31381" lon="2.59041">
        <ele>413.573</ele>
        <time>2013-04-20T10:50:21Z</time>
      </trkpt>
      <trkpt lat="42.31364" lon="2.59037">
        <ele>413.56</ele>
        <time>2013-04-20T10:50:33Z</time>
      </trkpt>
      <trkpt lat="42.31352" lon="2.59039">
        <ele>414.521</ele>
        <time>2013-04-20T10:50:45Z</time>
      </trkpt>
      <trkpt lat="42.31351" lon="2.59044">
        <ele>413.524</ele>
        <time>2013-04-20T10:50:50Z</time>
      </trkpt>
      <trkpt lat="42.31342" lon="2.59039">
        <ele>414.057</ele>
        <time>2013-04-20T10:51:04Z</time>
      </trkpt>
      <trkpt lat="42.31336" lon="2.59037">
        <ele>412.574</ele>
        <time>2013-04-20T10:51:09Z</time>
      </trkpt>
      <trkpt lat="42.31325" lon="2.59025">
        <ele>408.256</ele>
        <time>2013-04-20T10:51:21Z</time>
      </trkpt>
      <trkpt lat="42.31315" lon="2.5901">
        <ele>408.221</ele>
        <time>2013-04-20T10:51:30Z</time>
      </trkpt>
      <trkpt lat="42.31308" lon="2.59008">
        <ele>407.707</ele>
        <time>2013-04-20T10:51:42Z</time>
      </trkpt>
      <trkpt lat="42.3131" lon="2.59012">
        <ele>407.731</ele>
        <time>2013-04-20T10:51:45Z</time>
      </trkpt>
      <trkpt lat="42.31317" lon="2.59027">
        <ele>403.41</ele>
        <time>2013-04-20T10:51:56Z</time>
      </trkpt>
      <trkpt lat="42.31318" lon="2.59035">
        <ele>401.054</ele>
        <time>2013-04-20T10:52:04Z</time>
      </trkpt>
      <trkpt lat="42.31317" lon="2.5904">
        <ele>401.091</ele>
        <time>2013-04-20T10:52:07Z</time>
      </trkpt>
      <trkpt lat="42.3132" lon="2.59053">
        <ele>400.572</ele>
        <time>2013-04-20T10:52:11Z</time>
      </trkpt>
      <trkpt lat="42.31324" lon="2.59063">
        <ele>400.185</ele>
        <time>2013-04-20T10:52:16Z</time>
      </trkpt>
      <trkpt lat="42.31326" lon="2.59089">
        <ele>398.638</ele>
        <time>2013-04-20T10:52:29Z</time>
      </trkpt>
      <trkpt lat="42.31321" lon="2.59107">
        <ele>399.186</ele>
        <time>2013-04-20T10:52:42Z</time>
      </trkpt>
      <trkpt lat="42.31314" lon="2.59111">
        <ele>400.16</ele>
        <time>2013-04-20T10:52:54Z</time>
      </trkpt>
      <trkpt lat="42.31308" lon="2.59112">
        <ele>399.126</ele>
        <time>2013-04-20T10:53:00Z</time>
      </trkpt>
      <trkpt lat="42.313" lon="2.59115">
        <ele>395.207</ele>
        <time>2013-04-20T10:53:14Z</time>
      </trkpt>
      <trkpt lat="42.31299" lon="2.59127">
        <ele>395.742</ele>
        <time>2013-04-20T10:53:25Z</time>
      </trkpt>
      <trkpt lat="42.31299" lon="2.5914">
        <ele>400.511</ele>
        <time>2013-04-20T10:53:37Z</time>
      </trkpt>
      <trkpt lat="42.31299" lon="2.59144">
        <ele>402.075</ele>
        <time>2013-04-20T10:53:39Z</time>
      </trkpt>
      <trkpt lat="42.31298" lon="2.59158">
        <ele>408.232</ele>
        <time>2013-04-20T10:53:53Z</time>
      </trkpt>
      <trkpt lat="42.31298" lon="2.59161">
        <ele>409.223</ele>
        <time>2013-04-20T10:53:57Z</time>
      </trkpt>
      <trkpt lat="42.31296" lon="2.59164">
        <ele>410.196</ele>
        <time>2013-04-20T10:54:00Z</time>
      </trkpt>
      <trkpt lat="42.31296" lon="2.59169">
        <ele>410.639</ele>
        <time>2013-04-20T10:54:03Z</time>
      </trkpt>
      <trkpt lat="42.31295" lon="2.59184">
        <ele>408.248</ele>
        <time>2013-04-20T10:54:16Z</time>
      </trkpt>
      <trkpt lat="42.31293" lon="2.5919">
        <ele>407.761</ele>
        <time>2013-04-20T10:54:21Z</time>
      </trkpt>
      <trkpt lat="42.31294" lon="2.59208">
        <ele>409.217</ele>
        <time>2013-04-20T10:54:33Z</time>
      </trkpt>
      <trkpt lat="42.31298" lon="2.59221">
        <ele>410.107</ele>
        <time>2013-04-20T10:54:45Z</time>
      </trkpt>
      <trkpt lat="42.31297" lon="2.59239">
        <ele>410.168</ele>
        <time>2013-04-20T10:54:55Z</time>
      </trkpt>
      <trkpt lat="42.31296" lon="2.59248">
        <ele>409.277</ele>
        <time>2013-04-20T10:55:01Z</time>
      </trkpt>
      <trkpt lat="42.31295" lon="2.59254">
        <ele>409.241</ele>
        <time>2013-04-20T10:55:05Z</time>
      </trkpt>
      <trkpt lat="42.313" lon="2.59271">
        <ele>409.278</ele>
        <time>2013-04-20T10:55:17Z</time>
      </trkpt>
      <trkpt lat="42.31301" lon="2.59282">
        <ele>410.699</ele>
        <time>2013-04-20T10:55:25Z</time>
      </trkpt>
      <trkpt lat="42.31305" lon="2.59293">
        <ele>410.192</ele>
        <time>2013-04-20T10:55:37Z</time>
      </trkpt>
      <trkpt lat="42.31301" lon="2.59298">
        <ele>410.185</ele>
        <time>2013-04-20T10:55:50Z</time>
      </trkpt>
      <trkpt lat="42.31304" lon="2.59308">
        <ele>413.022</ele>
        <time>2013-04-20T10:56:01Z</time>
      </trkpt>
      <trkpt lat="42.31301" lon="2.59314">
        <ele>419.362</ele>
        <time>2013-04-20T10:56:12Z</time>
      </trkpt>
      <trkpt lat="42.31296" lon="2.59317">
        <ele>423.608</ele>
        <time>2013-04-20T10:56:24Z</time>
      </trkpt>
      <trkpt lat="42.31292" lon="2.59321">
        <ele>425.007</ele>
        <time>2013-04-20T10:56:34Z</time>
      </trkpt>
      <trkpt lat="42.31294" lon="2.59324">
        <ele>431.866</ele>
        <time>2013-04-20T10:56:47Z</time>
      </trkpt>
      <trkpt lat="42.31287" lon="2.59327">
        <ele>436.165</ele>
        <time>2013-04-20T10:56:58Z</time>
      </trkpt>
      <trkpt lat="42.31276" lon="2.59324">
        <ele>437.559</ele>
        <time>2013-04-20T10:57:12Z</time>
      </trkpt>
      <trkpt lat="42.31268" lon="2.59323">
        <ele>436.146</ele>
        <time>2013-04-20T10:57:24Z</time>
      </trkpt>
      <trkpt lat="42.31266" lon="2.59322">
        <ele>435.687</ele>
        <time>2013-04-20T10:57:27Z</time>
      </trkpt>
      <trkpt lat="42.31259" lon="2.5932">
        <ele>437.19</ele>
        <time>2013-04-20T10:57:39Z</time>
      </trkpt>
      <trkpt lat="42.31267" lon="2.59329">
        <ele>440.953</ele>
        <time>2013-04-20T10:57:52Z</time>
      </trkpt>
      <trkpt lat="42.3127" lon="2.59333">
        <ele>444.319</ele>
        <time>2013-04-20T10:58:04Z</time>
      </trkpt>
      <trkpt lat="42.31255" lon="2.59331">
        <ele>446.209</ele>
        <time>2013-04-20T10:58:19Z</time>
      </trkpt>
      <trkpt lat="42.31254" lon="2.59336">
        <ele>446.719</ele>
        <time>2013-04-20T10:58:34Z</time>
      </trkpt>
      <trkpt lat="42.31253" lon="2.59342">
        <ele>451.007</ele>
        <time>2013-04-20T10:58:47Z</time>
      </trkpt>
      <trkpt lat="42.31257" lon="2.59351">
        <ele>455.845</ele>
        <time>2013-04-20T10:59:01Z</time>
      </trkpt>
      <trkpt lat="42.31247" lon="2.59349">
        <ele>459.794</ele>
        <time>2013-04-20T10:59:15Z</time>
      </trkpt>
      <trkpt lat="42.31252" lon="2.59359">
        <ele>462.198</ele>
        <time>2013-04-20T10:59:29Z</time>
      </trkpt>
      <trkpt lat="42.31257" lon="2.59366">
        <ele>464.985</ele>
        <time>2013-04-20T10:59:41Z</time>
      </trkpt>
      <trkpt lat="42.31258" lon="2.59377">
        <ele>467.346</ele>
        <time>2013-04-20T10:59:56Z</time>
      </trkpt>
      <trkpt lat="42.31262" lon="2.59387">
        <ele>469.349</ele>
        <time>2013-04-20T11:00:08Z</time>
      </trkpt>
      <trkpt lat="42.31266" lon="2.59397">
        <ele>469.342</ele>
        <time>2013-04-20T11:00:21Z</time>
      </trkpt>
      <trkpt lat="42.31273" lon="2.5941">
        <ele>470.235</ele>
        <time>2013-04-20T11:00:34Z</time>
      </trkpt>
      <trkpt lat="42.31278" lon="2.59424">
        <ele>471.286</ele>
        <time>2013-04-20T11:00:51Z</time>
      </trkpt>
      <trkpt lat="42.31269" lon="2.59425">
        <ele>475.014</ele>
        <time>2013-04-20T11:01:06Z</time>
      </trkpt>
      <trkpt lat="42.31274" lon="2.59433">
        <ele>477.907</ele>
        <time>2013-04-20T11:01:19Z</time>
      </trkpt>
      <trkpt lat="42.31269" lon="2.59436">
        <ele>482.237</ele>
        <time>2013-04-20T11:01:32Z</time>
      </trkpt>
      <trkpt lat="42.3127" lon="2.59443">
        <ele>485.146</ele>
        <time>2013-04-20T11:01:44Z</time>
      </trkpt>
      <trkpt lat="42.31277" lon="2.59454">
        <ele>487.53</ele>
        <time>2013-04-20T11:01:59Z</time>
      </trkpt>
      <trkpt lat="42.31282" lon="2.59465">
        <ele>486.667</ele>
        <time>2013-04-20T11:02:08Z</time>
      </trkpt>
      <trkpt lat="42.31288" lon="2.5947">
        <ele>488.518</ele>
        <time>2013-04-20T11:02:14Z</time>
      </trkpt>
      <trkpt lat="42.31297" lon="2.59482">
        <ele>494.721</ele>
        <time>2013-04-20T11:02:27Z</time>
      </trkpt>
      <trkpt lat="42.31302" lon="2.59492">
        <ele>496.784</ele>
        <time>2013-04-20T11:02:40Z</time>
      </trkpt>
      <trkpt lat="42.31305" lon="2.595">
        <ele>500.525</ele>
        <time>2013-04-20T11:02:53Z</time>
      </trkpt>
      <trkpt lat="42.31303" lon="2.59509">
        <ele>502.926</ele>
        <time>2013-04-20T11:03:06Z</time>
      </trkpt>
      <trkpt lat="42.31304" lon="2.59522">
        <ele>504.808</ele>
        <time>2013-04-20T11:03:20Z</time>
      </trkpt>
      <trkpt lat="42.31308" lon="2.59536">
        <ele>507.207</ele>
        <time>2013-04-20T11:03:37Z</time>
      </trkpt>
      <trkpt lat="42.3131" lon="2.59552">
        <ele>510.126</ele>
        <time>2013-04-20T11:03:53Z</time>
      </trkpt>
      <trkpt lat="42.31313" lon="2.59562">
        <ele>511.655</ele>
        <time>2013-04-20T11:04:06Z</time>
      </trkpt>
      <trkpt lat="42.31316" lon="2.59572">
        <ele>516.499</ele>
        <time>2013-04-20T11:04:18Z</time>
      </trkpt>
      <trkpt lat="42.3132" lon="2.59581">
        <ele>520.796</ele>
        <time>2013-04-20T11:04:30Z</time>
      </trkpt>
      <trkpt lat="42.31325" lon="2.59591">
        <ele>525.067</ele>
        <time>2013-04-20T11:04:44Z</time>
      </trkpt>
      <trkpt lat="42.3133" lon="2.59599">
        <ele>527.41</ele>
        <time>2013-04-20T11:04:56Z</time>
      </trkpt>
      <trkpt lat="42.31337" lon="2.5961">
        <ele>530.323</ele>
        <time>2013-04-20T11:05:09Z</time>
      </trkpt>
      <trkpt lat="42.31339" lon="2.59624">
        <ele>527.926</ele>
        <time>2013-04-20T11:05:23Z</time>
      </trkpt>
      <trkpt lat="42.31331" lon="2.59622">
        <ele>529.347</ele>
        <time>2013-04-20T11:05:34Z</time>
      </trkpt>
      <trkpt lat="42.31317" lon="2.59622">
        <ele>532.211</ele>
        <time>2013-04-20T11:05:50Z</time>
      </trkpt>
      <trkpt lat="42.31315" lon="2.59626">
        <ele>535.107</ele>
        <time>2013-04-20T11:06:01Z</time>
      </trkpt>
      <trkpt lat="42.31319" lon="2.59633">
        <ele>538.516</ele>
        <time>2013-04-20T11:06:13Z</time>
      </trkpt>
      <trkpt lat="42.31312" lon="2.59634">
        <ele>540.915</ele>
        <time>2013-04-20T11:06:24Z</time>
      </trkpt>
      <trkpt lat="42.31311" lon="2.59643">
        <ele>541.449</ele>
        <time>2013-04-20T11:06:36Z</time>
      </trkpt>
      <trkpt lat="42.31314" lon="2.59653">
        <ele>541.846</ele>
        <time>2013-04-20T11:06:48Z</time>
      </trkpt>
      <trkpt lat="42.31315" lon="2.59665">
        <ele>546.287</ele>
        <time>2013-04-20T11:07:01Z</time>
      </trkpt>
      <trkpt lat="42.31311" lon="2.59676">
        <ele>551.59</ele>
        <time>2013-04-20T11:07:14Z</time>
      </trkpt>
      <trkpt lat="42.31311" lon="2.5968">
        <ele>555.883</ele>
        <time>2013-04-20T11:07:31Z</time>
      </trkpt>
      <trkpt lat="42.31313" lon="2.59691">
        <ele>558.226</ele>
        <time>2013-04-20T11:07:44Z</time>
      </trkpt>
      <trkpt lat="42.31314" lon="2.59704">
        <ele>559.647</ele>
        <time>2013-04-20T11:07:56Z</time>
      </trkpt>
      <trkpt lat="42.31312" lon="2.59716">
        <ele>563.011</ele>
        <time>2013-04-20T11:08:09Z</time>
      </trkpt>
      <trkpt lat="42.31312" lon="2.59728">
        <ele>566.407</ele>
        <time>2013-04-20T11:08:22Z</time>
      </trkpt>
      <trkpt lat="42.31317" lon="2.59738">
        <ele>569.776</ele>
        <time>2013-04-20T11:08:35Z</time>
      </trkpt>
      <trkpt lat="42.31318" lon="2.59744">
        <ele>571.645</ele>
        <time>2013-04-20T11:08:43Z</time>
      </trkpt>
      <trkpt lat="42.31323" lon="2.59757">
        <ele>574.039</ele>
        <time>2013-04-20T11:08:55Z</time>
      </trkpt>
      <trkpt lat="42.31324" lon="2.59765">
        <ele>573.666</ele>
        <time>2013-04-20T11:09:04Z</time>
      </trkpt>
      <trkpt lat="42.31323" lon="2.59778">
        <ele>573.127</ele>
        <time>2013-04-20T11:09:15Z</time>
      </trkpt>
      <trkpt lat="42.31321" lon="2.5979">
        <ele>574.07</ele>
        <time>2013-04-20T11:09:27Z</time>
      </trkpt>
      <trkpt lat="42.31321" lon="2.59798">
        <ele>576.943</ele>
        <time>2013-04-20T11:09:35Z</time>
      </trkpt>
      <trkpt lat="42.31322" lon="2.59809">
        <ele>582.272</ele>
        <time>2013-04-20T11:09:47Z</time>
      </trkpt>
      <trkpt lat="42.3132" lon="2.59824">
        <ele>589.913</ele>
        <time>2013-04-20T11:10:02Z</time>
      </trkpt>
      <trkpt lat="42.31323" lon="2.59834">
        <ele>593.814</ele>
        <time>2013-04-20T11:10:13Z</time>
      </trkpt>
      <trkpt lat="42.3132" lon="2.59847">
        <ele>596.207</ele>
        <time>2013-04-20T11:10:24Z</time>
      </trkpt>
      <trkpt lat="42.31319" lon="2.59859">
        <ele>598.621</ele>
        <time>2013-04-20T11:10:36Z</time>
      </trkpt>
      <trkpt lat="42.31321" lon="2.5987">
        <ele>599.51</ele>
        <time>2013-04-20T11:10:47Z</time>
      </trkpt>
      <trkpt lat="42.31323" lon="2.59883">
        <ele>597.614</ele>
        <time>2013-04-20T11:10:59Z</time>
      </trkpt>
      <trkpt lat="42.31323" lon="2.59891">
        <ele>596.651</ele>
        <time>2013-04-20T11:11:12Z</time>
      </trkpt>
      <trkpt lat="42.3132" lon="2.59904">
        <ele>600.542</ele>
        <time>2013-04-20T11:11:25Z</time>
      </trkpt>
      <trkpt lat="42.31322" lon="2.59916">
        <ele>605.385</ele>
        <time>2013-04-20T11:11:35Z</time>
      </trkpt>
      <trkpt lat="42.31323" lon="2.5992">
        <ele>605.388</ele>
        <time>2013-04-20T11:11:39Z</time>
      </trkpt>
      <trkpt lat="42.31325" lon="2.59933">
        <ele>607.287</ele>
        <time>2013-04-20T11:11:51Z</time>
      </trkpt>
      <trkpt lat="42.31325" lon="2.59945">
        <ele>607.242</ele>
        <time>2013-04-20T11:12:01Z</time>
      </trkpt>
      <trkpt lat="42.31326" lon="2.59955">
        <ele>608.726</ele>
        <time>2013-04-20T11:12:13Z</time>
      </trkpt>
      <trkpt lat="42.31327" lon="2.59966">
        <ele>610.607</ele>
        <time>2013-04-20T11:12:24Z</time>
      </trkpt>
      <trkpt lat="42.3133" lon="2.59979">
        <ele>613.022</ele>
        <time>2013-04-20T11:12:37Z</time>
      </trkpt>
      <trkpt lat="42.31333" lon="2.59994">
        <ele>614.941</ele>
        <time>2013-04-20T11:12:49Z</time>
      </trkpt>
      <trkpt lat="42.31333" lon="2.60009">
        <ele>618.385</ele>
        <time>2013-04-20T11:13:01Z</time>
      </trkpt>
      <trkpt lat="42.31336" lon="2.60024">
        <ele>617.892</ele>
        <time>2013-04-20T11:13:13Z</time>
      </trkpt>
      <trkpt lat="42.31338" lon="2.60037">
        <ele>618.843</ele>
        <time>2013-04-20T11:13:26Z</time>
      </trkpt>
      <trkpt lat="42.31337" lon="2.60046">
        <ele>617.326</ele>
        <time>2013-04-20T11:13:38Z</time>
      </trkpt>
      <trkpt lat="42.31337" lon="2.60053">
        <ele>618.349</ele>
        <time>2013-04-20T11:13:53Z</time>
      </trkpt>
      <trkpt lat="42.31341" lon="2.60061">
        <ele>620.233</ele>
        <time>2013-04-20T11:14:03Z</time>
      </trkpt>
      <trkpt lat="42.31344" lon="2.60071">
        <ele>624.023</ele>
        <time>2013-04-20T11:14:15Z</time>
      </trkpt>
      <trkpt lat="42.31347" lon="2.60084">
        <ele>628.415</ele>
        <time>2013-04-20T11:14:30Z</time>
      </trkpt>
      <trkpt lat="42.31353" lon="2.60095">
        <ele>630.307</ele>
        <time>2013-04-20T11:14:42Z</time>
      </trkpt>
      <trkpt lat="42.31357" lon="2.60104">
        <ele>632.217</ele>
        <time>2013-04-20T11:14:54Z</time>
      </trkpt>
      <trkpt lat="42.31359" lon="2.60115">
        <ele>633.226</ele>
        <time>2013-04-20T11:15:06Z</time>
      </trkpt>
      <trkpt lat="42.31365" lon="2.60129">
        <ele>634.19</ele>
        <time>2013-04-20T11:15:20Z</time>
      </trkpt>
      <trkpt lat="42.31367" lon="2.60132">
        <ele>634.687</ele>
        <time>2013-04-20T11:15:23Z</time>
      </trkpt>
      <trkpt lat="42.31369" lon="2.60142">
        <ele>636.578</ele>
        <time>2013-04-20T11:15:37Z</time>
      </trkpt>
      <trkpt lat="42.31373" lon="2.60148">
        <ele>639.471</ele>
        <time>2013-04-20T11:15:47Z</time>
      </trkpt>
      <trkpt lat="42.31378" lon="2.60157">
        <ele>640.984</ele>
        <time>2013-04-20T11:15:59Z</time>
      </trkpt>
      <trkpt lat="42.31386" lon="2.60166">
        <ele>644.733</ele>
        <time>2013-04-20T11:16:13Z</time>
      </trkpt>
      <trkpt lat="42.31395" lon="2.60176">
        <ele>646.623</ele>
        <time>2013-04-20T11:16:28Z</time>
      </trkpt>
      <trkpt lat="42.314" lon="2.60185">
        <ele>648.115</ele>
        <time>2013-04-20T11:16:40Z</time>
      </trkpt>
      <trkpt lat="42.31395" lon="2.60192">
        <ele>649.507</ele>
        <time>2013-04-20T11:16:52Z</time>
      </trkpt>
      <trkpt lat="42.31397" lon="2.60202">
        <ele>653.447</ele>
        <time>2013-04-20T11:17:06Z</time>
      </trkpt>
      <trkpt lat="42.31402" lon="2.60213">
        <ele>656.736</ele>
        <time>2013-04-20T11:17:20Z</time>
      </trkpt>
      <trkpt lat="42.31406" lon="2.60225">
        <ele>661.05</ele>
        <time>2013-04-20T11:17:33Z</time>
      </trkpt>
      <trkpt lat="42.31409" lon="2.60235">
        <ele>664.417</ele>
        <time>2013-04-20T11:17:44Z</time>
      </trkpt>
      <trkpt lat="42.31412" lon="2.60254">
        <ele>667.318</ele>
        <time>2013-04-20T11:18:00Z</time>
      </trkpt>
      <trkpt lat="42.31413" lon="2.60273">
        <ele>671.131</ele>
        <time>2013-04-20T11:18:14Z</time>
      </trkpt>
      <trkpt lat="42.3141" lon="2.60293">
        <ele>673.114</ele>
        <time>2013-04-20T11:18:28Z</time>
      </trkpt>
      <trkpt lat="42.31409" lon="2.60294">
        <ele>673.528</ele>
        <time>2013-04-20T11:18:29Z</time>
      </trkpt>
      <trkpt lat="42.31399" lon="2.60311">
        <ele>674.589</ele>
        <time>2013-04-20T11:18:39Z</time>
      </trkpt>
      <trkpt lat="42.31395" lon="2.60314">
        <ele>674.517</ele>
        <time>2013-04-20T11:18:42Z</time>
      </trkpt>
      <trkpt lat="42.31392" lon="2.60315">
        <ele>675.007</ele>
        <time>2013-04-20T11:18:44Z</time>
      </trkpt>
      <trkpt lat="42.31381" lon="2.60334">
        <ele>675.586</ele>
        <time>2013-04-20T11:19:00Z</time>
      </trkpt>
      <trkpt lat="42.31381" lon="2.60341">
        <ele>675.995</ele>
        <time>2013-04-20T11:19:03Z</time>
      </trkpt>
      <trkpt lat="42.31383" lon="2.60359">
        <ele>676.959</ele>
        <time>2013-04-20T11:19:17Z</time>
      </trkpt>
      <trkpt lat="42.31383" lon="2.60363">
        <ele>677.466</ele>
        <time>2013-04-20T11:19:20Z</time>
      </trkpt>
      <trkpt lat="42.31384" lon="2.6038">
        <ele>676.977</ele>
        <time>2013-04-20T11:19:32Z</time>
      </trkpt>
      <trkpt lat="42.31385" lon="2.60381">
        <ele>676.92</ele>
        <time>2013-04-20T11:19:33Z</time>
      </trkpt>
      <trkpt lat="42.31386" lon="2.60398">
        <ele>676.433</ele>
        <time>2013-04-20T11:19:45Z</time>
      </trkpt>
      <trkpt lat="42.31384" lon="2.60416">
        <ele>675.916</ele>
        <time>2013-04-20T11:19:58Z</time>
      </trkpt>
      <trkpt lat="42.31374" lon="2.60448">
        <ele>676.976</ele>
        <time>2013-04-20T11:20:14Z</time>
      </trkpt>
      <trkpt lat="42.31374" lon="2.60449">
        <ele>676.913</ele>
        <time>2013-04-20T11:20:15Z</time>
      </trkpt>
      <trkpt lat="42.31376" lon="2.60459">
        <ele>676.407</ele>
        <time>2013-04-20T11:20:20Z</time>
      </trkpt>
      <trkpt lat="42.31374" lon="2.60469">
        <ele>675.065</ele>
        <time>2013-04-20T11:20:28Z</time>
      </trkpt>
      <trkpt lat="42.31374" lon="2.60485">
        <ele>675.544</ele>
        <time>2013-04-20T11:20:40Z</time>
      </trkpt>
      <trkpt lat="42.31372" lon="2.60497">
        <ele>676.478</ele>
        <time>2013-04-20T11:20:51Z</time>
      </trkpt>
      <trkpt lat="42.31378" lon="2.60505">
        <ele>676.445</ele>
        <time>2013-04-20T11:21:04Z</time>
      </trkpt>
      <trkpt lat="42.31377" lon="2.60519">
        <ele>677.436</ele>
        <time>2013-04-20T11:21:16Z</time>
      </trkpt>
      <trkpt lat="42.31377" lon="2.60522">
        <ele>677.979</ele>
        <time>2013-04-20T11:21:19Z</time>
      </trkpt>
      <trkpt lat="42.31355" lon="2.60556">
        <ele>679.842</ele>
        <time>2013-04-20T11:21:32Z</time>
      </trkpt>
      <trkpt lat="42.31346" lon="2.60576">
        <ele>683.682</ele>
        <time>2013-04-20T11:21:46Z</time>
      </trkpt>
      <trkpt lat="42.31342" lon="2.60585">
        <ele>687.043</ele>
        <time>2013-04-20T11:21:56Z</time>
      </trkpt>
      <trkpt lat="42.3134" lon="2.60593">
        <ele>688.917</ele>
        <time>2013-04-20T11:22:02Z</time>
      </trkpt>
      <trkpt lat="42.31339" lon="2.60595">
        <ele>689.407</ele>
        <time>2013-04-20T11:22:03Z</time>
      </trkpt>
      <trkpt lat="42.31332" lon="2.60608">
        <ele>691.382</ele>
        <time>2013-04-20T11:22:15Z</time>
      </trkpt>
      <trkpt lat="42.31333" lon="2.60609">
        <ele>691.831</ele>
        <time>2013-04-20T11:22:17Z</time>
      </trkpt>
      <trkpt lat="42.31334" lon="2.60612">
        <ele>692.885</ele>
        <time>2013-04-20T11:22:19Z</time>
      </trkpt>
      <trkpt lat="42.31331" lon="2.60623">
        <ele>693.792</ele>
        <time>2013-04-20T11:22:30Z</time>
      </trkpt>
      <trkpt lat="42.3133" lon="2.60632">
        <ele>693.793</ele>
        <time>2013-04-20T11:22:41Z</time>
      </trkpt>
      <trkpt lat="42.31329" lon="2.60648">
        <ele>694.226</ele>
        <time>2013-04-20T11:22:52Z</time>
      </trkpt>
      <trkpt lat="42.31329" lon="2.60665">
        <ele>695.799</ele>
        <time>2013-04-20T11:23:03Z</time>
      </trkpt>
      <trkpt lat="42.3133" lon="2.60678">
        <ele>695.724</ele>
        <time>2013-04-20T11:23:17Z</time>
      </trkpt>
      <trkpt lat="42.31328" lon="2.60691">
        <ele>699.504</ele>
        <time>2013-04-20T11:23:32Z</time>
      </trkpt>
      <trkpt lat="42.31332" lon="2.60698">
        <ele>702.414</ele>
        <time>2013-04-20T11:23:41Z</time>
      </trkpt>
      <trkpt lat="42.31333" lon="2.60707">
        <ele>702.907</ele>
        <time>2013-04-20T11:23:53Z</time>
      </trkpt>
      <trkpt lat="42.31334" lon="2.60714">
        <ele>708.676</ele>
        <time>2013-04-20T11:24:06Z</time>
      </trkpt>
      <trkpt lat="42.31337" lon="2.60722">
        <ele>710.165</ele>
        <time>2013-04-20T11:24:17Z</time>
      </trkpt>
      <trkpt lat="42.31339" lon="2.60734">
        <ele>712.549</ele>
        <time>2013-04-20T11:24:30Z</time>
      </trkpt>
      <trkpt lat="42.31343" lon="2.60743">
        <ele>714.986</ele>
        <time>2013-04-20T11:24:40Z</time>
      </trkpt>
      <trkpt lat="42.31345" lon="2.60752">
        <ele>715.487</ele>
        <time>2013-04-20T11:24:46Z</time>
      </trkpt>
      <trkpt lat="42.31349" lon="2.60756">
        <ele>715.45</ele>
        <time>2013-04-20T11:24:49Z</time>
      </trkpt>
      <trkpt lat="42.3135" lon="2.60763">
        <ele>716.333</ele>
        <time>2013-04-20T11:24:54Z</time>
      </trkpt>
      <trkpt lat="42.31356" lon="2.6077">
        <ele>716.364</ele>
        <time>2013-04-20T11:24:59Z</time>
      </trkpt>
      <trkpt lat="42.31359" lon="2.60777">
        <ele>716.806</ele>
        <time>2013-04-20T11:25:04Z</time>
      </trkpt>
      <trkpt lat="42.31359" lon="2.6078">
        <ele>716.816</ele>
        <time>2013-04-20T11:25:06Z</time>
      </trkpt>
      <trkpt lat="42.3136" lon="2.60794">
        <ele>716.807</ele>
        <time>2013-04-20T11:25:17Z</time>
      </trkpt>
      <trkpt lat="42.31366" lon="2.60806">
        <ele>717.34</ele>
        <time>2013-04-20T11:25:28Z</time>
      </trkpt>
      <trkpt lat="42.31369" lon="2.60812">
        <ele>717.329</ele>
        <time>2013-04-20T11:25:33Z</time>
      </trkpt>
      <trkpt lat="42.31371" lon="2.60823">
        <ele>718.763</ele>
        <time>2013-04-20T11:25:42Z</time>
      </trkpt>
      <trkpt lat="42.31374" lon="2.60835">
        <ele>720.22</ele>
        <time>2013-04-20T11:25:53Z</time>
      </trkpt>
      <trkpt lat="42.3138" lon="2.60847">
        <ele>721.691</ele>
        <time>2013-04-20T11:26:04Z</time>
      </trkpt>
      <trkpt lat="42.31384" lon="2.60862">
        <ele>725.554</ele>
        <time>2013-04-20T11:26:17Z</time>
      </trkpt>
      <trkpt lat="42.31386" lon="2.60874">
        <ele>726.957</ele>
        <time>2013-04-20T11:26:29Z</time>
      </trkpt>
      <trkpt lat="42.31388" lon="2.60883">
        <ele>727.972</ele>
        <time>2013-04-20T11:26:39Z</time>
      </trkpt>
      <trkpt lat="42.31392" lon="2.60894">
        <ele>728.313</ele>
        <time>2013-04-20T11:26:51Z</time>
      </trkpt>
      <trkpt lat="42.31395" lon="2.60905">
        <ele>729.814</ele>
        <time>2013-04-20T11:27:03Z</time>
      </trkpt>
      <trkpt lat="42.31398" lon="2.60917">
        <ele>730.707</ele>
        <time>2013-04-20T11:27:13Z</time>
      </trkpt>
      <trkpt lat="42.31402" lon="2.60932">
        <ele>732.281</ele>
        <time>2013-04-20T11:27:26Z</time>
      </trkpt>
      <trkpt lat="42.31407" lon="2.60946">
        <ele>733.63</ele>
        <time>2013-04-20T11:27:41Z</time>
      </trkpt>
      <trkpt lat="42.3141" lon="2.6096">
        <ele>735.684</ele>
        <time>2013-04-20T11:27:55Z</time>
      </trkpt>
      <trkpt lat="42.31414" lon="2.60972">
        <ele>736.081</ele>
        <time>2013-04-20T11:28:08Z</time>
      </trkpt>
      <trkpt lat="42.31416" lon="2.60982">
        <ele>737.022</ele>
        <time>2013-04-20T11:28:20Z</time>
      </trkpt>
      <trkpt lat="42.3142" lon="2.60989">
        <ele>736.535</ele>
        <time>2013-04-20T11:28:30Z</time>
      </trkpt>
      <trkpt lat="42.31427" lon="2.60999">
        <ele>738.088</ele>
        <time>2013-04-20T11:28:41Z</time>
      </trkpt>
      <trkpt lat="42.31435" lon="2.61009">
        <ele>739.999</ele>
        <time>2013-04-20T11:28:53Z</time>
      </trkpt>
      <trkpt lat="42.31441" lon="2.61018">
        <ele>744.207</ele>
        <time>2013-04-20T11:29:06Z</time>
      </trkpt>
      <trkpt lat="42.31448" lon="2.61027">
        <ele>750.527</ele>
        <time>2013-04-20T11:29:18Z</time>
      </trkpt>
      <trkpt lat="42.31453" lon="2.61035">
        <ele>750.007</ele>
        <time>2013-04-20T11:29:27Z</time>
      </trkpt>
      <trkpt lat="42.31457" lon="2.61034">
        <ele>750.573</ele>
        <time>2013-04-20T11:29:31Z</time>
      </trkpt>
      <trkpt lat="42.31463" lon="2.61035">
        <ele>750.922</ele>
        <time>2013-04-20T11:29:36Z</time>
      </trkpt>
      <trkpt lat="42.31471" lon="2.61026">
        <ele>752.936</ele>
        <time>2013-04-20T11:29:47Z</time>
      </trkpt>
      <trkpt lat="42.31477" lon="2.61016">
        <ele>756.213</ele>
        <time>2013-04-20T11:29:59Z</time>
      </trkpt>
      <trkpt lat="42.31482" lon="2.61009">
        <ele>759.144</ele>
        <time>2013-04-20T11:30:04Z</time>
      </trkpt>
      <trkpt lat="42.3149" lon="2.60999">
        <ele>761.067</ele>
        <time>2013-04-20T11:30:16Z</time>
      </trkpt>
      <trkpt lat="42.31499" lon="2.6099">
        <ele>762.05</ele>
        <time>2013-04-20T11:30:28Z</time>
      </trkpt>
      <trkpt lat="42.31499" lon="2.60989">
        <ele>762.544</ele>
        <time>2013-04-20T11:30:29Z</time>
      </trkpt>
      <trkpt lat="42.31503" lon="2.60983">
        <ele>763.405</ele>
        <time>2013-04-20T11:30:34Z</time>
      </trkpt>
      <trkpt lat="42.3151" lon="2.60972">
        <ele>766.815</ele>
        <time>2013-04-20T11:30:44Z</time>
      </trkpt>
      <trkpt lat="42.31516" lon="2.60961">
        <ele>769.707</ele>
        <time>2013-04-20T11:30:55Z</time>
      </trkpt>
      <trkpt lat="42.31519" lon="2.60967">
        <ele>771.668</ele>
        <time>2013-04-20T11:31:08Z</time>
      </trkpt>
      <trkpt lat="42.31519" lon="2.6098">
        <ele>773.037</ele>
        <time>2013-04-20T11:31:22Z</time>
      </trkpt>
      <trkpt lat="42.31517" lon="2.60994">
        <ele>773.581</ele>
        <time>2013-04-20T11:31:35Z</time>
      </trkpt>
      <trkpt lat="42.31516" lon="2.6101">
        <ele>775.948</ele>
        <time>2013-04-20T11:31:51Z</time>
      </trkpt>
      <trkpt lat="42.31515" lon="2.61026">
        <ele>780.769</ele>
        <time>2013-04-20T11:32:07Z</time>
      </trkpt>
      <trkpt lat="42.31513" lon="2.61039">
        <ele>782.222</ele>
        <time>2013-04-20T11:32:20Z</time>
      </trkpt>
      <trkpt lat="42.31513" lon="2.61059">
        <ele>783.185</ele>
        <time>2013-04-20T11:32:35Z</time>
      </trkpt>
      <trkpt lat="42.31511" lon="2.61077">
        <ele>784.188</ele>
        <time>2013-04-20T11:32:49Z</time>
      </trkpt>
      <trkpt lat="42.31511" lon="2.61091">
        <ele>785.124</ele>
        <time>2013-04-20T11:33:03Z</time>
      </trkpt>
      <trkpt lat="42.31511" lon="2.61107">
        <ele>784.626</ele>
        <time>2013-04-20T11:33:17Z</time>
      </trkpt>
      <trkpt lat="42.31511" lon="2.61125">
        <ele>786.007</ele>
        <time>2013-04-20T11:33:31Z</time>
      </trkpt>
      <trkpt lat="42.3151" lon="2.61139">
        <ele>785.542</ele>
        <time>2013-04-20T11:33:43Z</time>
      </trkpt>
      <trkpt lat="42.31506" lon="2.61151">
        <ele>786.031</ele>
        <time>2013-04-20T11:33:56Z</time>
      </trkpt>
      <trkpt lat="42.31495" lon="2.61163">
        <ele>788.915</ele>
        <time>2013-04-20T11:34:08Z</time>
      </trkpt>
      <trkpt lat="42.31492" lon="2.61176">
        <ele>798.582</ele>
        <time>2013-04-20T11:34:21Z</time>
      </trkpt>
      <trkpt lat="42.31493" lon="2.61191">
        <ele>806.733</ele>
        <time>2013-04-20T11:34:34Z</time>
      </trkpt>
      <trkpt lat="42.31492" lon="2.61206">
        <ele>812.966</ele>
        <time>2013-04-20T11:34:49Z</time>
      </trkpt>
      <trkpt lat="42.31491" lon="2.61212">
        <ele>819.259</ele>
        <time>2013-04-20T11:35:04Z</time>
      </trkpt>
      <trkpt lat="42.31489" lon="2.61216">
        <ele>820.164</ele>
        <time>2013-04-20T11:35:21Z</time>
      </trkpt>
      <trkpt lat="42.31486" lon="2.61213">
        <ele>823.006</ele>
        <time>2013-04-20T11:35:40Z</time>
      </trkpt>
      <trkpt lat="42.31486" lon="2.61213">
        <ele>824.516</ele>
        <time>2013-04-20T11:35:56Z</time>
      </trkpt>
      <trkpt lat="42.31488" lon="2.61215">
        <ele>825.407</ele>
        <time>2013-04-20T11:36:13Z</time>
      </trkpt>
      <trkpt lat="42.31489" lon="2.61221">
        <ele>825.47</ele>
        <time>2013-04-20T11:36:31Z</time>
      </trkpt>
      <trkpt lat="42.3149" lon="2.61223">
        <ele>825.499</ele>
        <time>2013-04-20T11:36:34Z</time>
      </trkpt>
      <trkpt lat="42.31496" lon="2.61239">
        <ele>824.563</ele>
        <time>2013-04-20T11:36:47Z</time>
      </trkpt>
      <trkpt lat="42.31505" lon="2.61256">
        <ele>823.06</ele>
        <time>2013-04-20T11:36:59Z</time>
      </trkpt>
      <trkpt lat="42.31507" lon="2.6126">
        <ele>822.661</ele>
        <time>2013-04-20T11:37:01Z</time>
      </trkpt>
      <trkpt lat="42.31518" lon="2.61274">
        <ele>817.384</ele>
        <time>2013-04-20T11:37:16Z</time>
      </trkpt>
      <trkpt lat="42.31528" lon="2.61282">
        <ele>814.977</ele>
        <time>2013-04-20T11:37:29Z</time>
      </trkpt>
      <trkpt lat="42.31537" lon="2.61291">
        <ele>814.998</ele>
        <time>2013-04-20T11:37:45Z</time>
      </trkpt>
      <trkpt lat="42.31542" lon="2.61296">
        <ele>817.315</ele>
        <time>2013-04-20T11:37:58Z</time>
      </trkpt>
      <trkpt lat="42.31549" lon="2.61305">
        <ele>820.126</ele>
        <time>2013-04-20T11:38:12Z</time>
      </trkpt>
      <trkpt lat="42.31557" lon="2.61316">
        <ele>822.607</ele>
        <time>2013-04-20T11:38:27Z</time>
      </trkpt>
      <trkpt lat="42.3156" lon="2.6133">
        <ele>827.853</ele>
        <time>2013-04-20T11:38:39Z</time>
      </trkpt>
      <trkpt lat="42.31563" lon="2.61341">
        <ele>833.122</ele>
        <time>2013-04-20T11:38:51Z</time>
      </trkpt>
      <trkpt lat="42.31567" lon="2.61358">
        <ele>835.526</ele>
        <time>2013-04-20T11:39:06Z</time>
      </trkpt>
      <trkpt lat="42.31573" lon="2.61372">
        <ele>837.533</ele>
        <time>2013-04-20T11:39:19Z</time>
      </trkpt>
      <trkpt lat="42.31575" lon="2.61376">
        <ele>839.474</ele>
        <time>2013-04-20T11:39:24Z</time>
      </trkpt>
      <trkpt lat="42.31573" lon="2.61382">
        <ele>839.927</ele>
        <time>2013-04-20T11:39:27Z</time>
      </trkpt>
      <trkpt lat="42.31575" lon="2.61386">
        <ele>840.35</ele>
        <time>2013-04-20T11:39:30Z</time>
      </trkpt>
      <trkpt lat="42.31589" lon="2.61405">
        <ele>838.976</ele>
        <time>2013-04-20T11:39:47Z</time>
      </trkpt>
      <trkpt lat="42.31596" lon="2.61412">
        <ele>839.49</ele>
        <time>2013-04-20T11:39:56Z</time>
      </trkpt>
      <trkpt lat="42.31603" lon="2.61429">
        <ele>839.919</ele>
        <time>2013-04-20T11:40:10Z</time>
      </trkpt>
      <trkpt lat="42.31604" lon="2.61433">
        <ele>839.907</ele>
        <time>2013-04-20T11:40:12Z</time>
      </trkpt>
      <trkpt lat="42.31608" lon="2.61438">
        <ele>839.471</ele>
        <time>2013-04-20T11:40:16Z</time>
      </trkpt>
      <trkpt lat="42.31618" lon="2.61444">
        <ele>837.04</ele>
        <time>2013-04-20T11:40:31Z</time>
      </trkpt>
      <trkpt lat="42.31626" lon="2.61446">
        <ele>837.944</ele>
        <time>2013-04-20T11:40:42Z</time>
      </trkpt>
      <trkpt lat="42.3164" lon="2.61449">
        <ele>843.741</ele>
        <time>2013-04-20T11:40:57Z</time>
      </trkpt>
      <trkpt lat="42.31654" lon="2.61456">
        <ele>847.132</ele>
        <time>2013-04-20T11:41:12Z</time>
      </trkpt>
      <trkpt lat="42.31664" lon="2.61471">
        <ele>850.985</ele>
        <time>2013-04-20T11:41:26Z</time>
      </trkpt>
      <trkpt lat="42.3167" lon="2.61486">
        <ele>854.898</ele>
        <time>2013-04-20T11:41:36Z</time>
      </trkpt>
      <trkpt lat="42.31673" lon="2.61499">
        <ele>858.667</ele>
        <time>2013-04-20T11:41:44Z</time>
      </trkpt>
      <trkpt lat="42.31684" lon="2.61512">
        <ele>863.981</ele>
        <time>2013-04-20T11:41:58Z</time>
      </trkpt>
      <trkpt lat="42.317" lon="2.61522">
        <ele>865.319</ele>
        <time>2013-04-20T11:42:13Z</time>
      </trkpt>
      <trkpt lat="42.31714" lon="2.6152">
        <ele>864.407</ele>
        <time>2013-04-20T11:42:28Z</time>
      </trkpt>
      <trkpt lat="42.3173" lon="2.61523">
        <ele>863.44</ele>
        <time>2013-04-20T11:42:42Z</time>
      </trkpt>
      <trkpt lat="42.31746" lon="2.61521">
        <ele>864.879</ele>
        <time>2013-04-20T11:42:55Z</time>
      </trkpt>
      <trkpt lat="42.31747" lon="2.61521">
        <ele>865.373</ele>
        <time>2013-04-20T11:42:56Z</time>
      </trkpt>
      <trkpt lat="42.3176" lon="2.61524">
        <ele>867.31</ele>
        <time>2013-04-20T11:43:07Z</time>
      </trkpt>
      <trkpt lat="42.31775" lon="2.61533">
        <ele>867.741</ele>
        <time>2013-04-20T11:43:21Z</time>
      </trkpt>
      <trkpt lat="42.31778" lon="2.61535">
        <ele>867.394</ele>
        <time>2013-04-20T11:43:23Z</time>
      </trkpt>
      <trkpt lat="42.31782" lon="2.61536">
        <ele>866.867</ele>
        <time>2013-04-20T11:43:26Z</time>
      </trkpt>
      <trkpt lat="42.31798" lon="2.61548">
        <ele>865.366</ele>
        <time>2013-04-20T11:43:39Z</time>
      </trkpt>
      <trkpt lat="42.31814" lon="2.61565">
        <ele>866.329</ele>
        <time>2013-04-20T11:43:53Z</time>
      </trkpt>
      <trkpt lat="42.31823" lon="2.6158">
        <ele>865.821</ele>
        <time>2013-04-20T11:44:06Z</time>
      </trkpt>
      <trkpt lat="42.31826" lon="2.61601">
        <ele>865.807</ele>
        <time>2013-04-20T11:44:18Z</time>
      </trkpt>
      <trkpt lat="42.31825" lon="2.61603">
        <ele>865.87</ele>
        <time>2013-04-20T11:44:19Z</time>
      </trkpt>
      <trkpt lat="42.31822" lon="2.61615">
        <ele>865.329</ele>
        <time>2013-04-20T11:44:25Z</time>
      </trkpt>
      <trkpt lat="42.31816" lon="2.61637">
        <ele>866.363</ele>
        <time>2013-04-20T11:44:38Z</time>
      </trkpt>
      <trkpt lat="42.31818" lon="2.61647">
        <ele>867.31</ele>
        <time>2013-04-20T11:44:46Z</time>
      </trkpt>
      <trkpt lat="42.31817" lon="2.61673">
        <ele>872.151</ele>
        <time>2013-04-20T11:45:00Z</time>
      </trkpt>
      <trkpt lat="42.31817" lon="2.61692">
        <ele>873.524</ele>
        <time>2013-04-20T11:45:10Z</time>
      </trkpt>
      <trkpt lat="42.31822" lon="2.61701">
        <ele>875.477</ele>
        <time>2013-04-20T11:45:18Z</time>
      </trkpt>
      <trkpt lat="42.31835" lon="2.61703">
        <ele>873.526</ele>
        <time>2013-04-20T11:45:30Z</time>
      </trkpt>
      <trkpt lat="42.31842" lon="2.61705">
        <ele>871.647</ele>
        <time>2013-04-20T11:45:36Z</time>
      </trkpt>
      <trkpt lat="42.31858" lon="2.61708">
        <ele>867.311</ele>
        <time>2013-04-20T11:45:50Z</time>
      </trkpt>
      <trkpt lat="42.31863" lon="2.61708">
        <ele>865.807</ele>
        <time>2013-04-20T11:45:54Z</time>
      </trkpt>
      <trkpt lat="42.3187" lon="2.6171">
        <ele>865.866</ele>
        <time>2013-04-20T11:45:58Z</time>
      </trkpt>
      <trkpt lat="42.31885" lon="2.6172">
        <ele>864.845</ele>
        <time>2013-04-20T11:46:11Z</time>
      </trkpt>
      <trkpt lat="42.31898" lon="2.61724">
        <ele>864.489</ele>
        <time>2013-04-20T11:46:21Z</time>
      </trkpt>
      <trkpt lat="42.31901" lon="2.61726">
        <ele>863.926</ele>
        <time>2013-04-20T11:46:23Z</time>
      </trkpt>
      <trkpt lat="42.31904" lon="2.6173">
        <ele>862.927</ele>
        <time>2013-04-20T11:46:26Z</time>
      </trkpt>
      <trkpt lat="42.31912" lon="2.6174">
        <ele>859.64</ele>
        <time>2013-04-20T11:46:35Z</time>
      </trkpt>
      <trkpt lat="42.31921" lon="2.61748">
        <ele>860.583</ele>
        <time>2013-04-20T11:46:41Z</time>
      </trkpt>
      <trkpt lat="42.31937" lon="2.61754">
        <ele>862.444</ele>
        <time>2013-04-20T11:46:55Z</time>
      </trkpt>
      <trkpt lat="42.31938" lon="2.61755">
        <ele>862.005</ele>
        <time>2013-04-20T11:46:58Z</time>
      </trkpt>
      <trkpt lat="42.31939" lon="2.6176">
        <ele>862.015</ele>
        <time>2013-04-20T11:47:01Z</time>
      </trkpt>
      <trkpt lat="42.31938" lon="2.61764">
        <ele>862.407</ele>
        <time>2013-04-20T11:47:04Z</time>
      </trkpt>
      <trkpt lat="42.31941" lon="2.61772">
        <ele>859.618</ele>
        <time>2013-04-20T11:47:10Z</time>
      </trkpt>
      <trkpt lat="42.31944" lon="2.61775">
        <ele>859.177</ele>
        <time>2013-04-20T11:47:13Z</time>
      </trkpt>
      <trkpt lat="42.31943" lon="2.61787">
        <ele>857.621</ele>
        <time>2013-04-20T11:47:27Z</time>
      </trkpt>
      <trkpt lat="42.31943" lon="2.61787">
        <ele>857.258</ele>
        <time>2013-04-20T11:47:28Z</time>
      </trkpt>
      <trkpt lat="42.31954" lon="2.618">
        <ele>856.249</ele>
        <time>2013-04-20T11:47:43Z</time>
      </trkpt>
      <trkpt lat="42.31954" lon="2.61811">
        <ele>856.242</ele>
        <time>2013-04-20T11:47:56Z</time>
      </trkpt>
      <trkpt lat="42.3195" lon="2.61816">
        <ele>855.765</ele>
        <time>2013-04-20T11:48:00Z</time>
      </trkpt>
      <trkpt lat="42.31943" lon="2.61837">
        <ele>858.118</ele>
        <time>2013-04-20T11:48:13Z</time>
      </trkpt>
      <trkpt lat="42.31943" lon="2.61838">
        <ele>858.698</ele>
        <time>2013-04-20T11:48:14Z</time>
      </trkpt>
      <trkpt lat="42.31943" lon="2.61849">
        <ele>859.617</ele>
        <time>2013-04-20T11:48:22Z</time>
      </trkpt>
      <trkpt lat="42.31937" lon="2.61866">
        <ele>863.907</ele>
        <time>2013-04-20T11:48:36Z</time>
      </trkpt>
      <trkpt lat="42.3193" lon="2.61879">
        <ele>870.655</ele>
        <time>2013-04-20T11:48:49Z</time>
      </trkpt>
      <trkpt lat="42.31922" lon="2.61892">
        <ele>874.564</ele>
        <time>2013-04-20T11:49:03Z</time>
      </trkpt>
      <trkpt lat="42.31916" lon="2.61908">
        <ele>875.428</ele>
        <time>2013-04-20T11:49:17Z</time>
      </trkpt>
      <trkpt lat="42.31909" lon="2.6192">
        <ele>877.385</ele>
        <time>2013-04-20T11:49:33Z</time>
      </trkpt>
      <trkpt lat="42.31905" lon="2.61931">
        <ele>877.336</ele>
        <time>2013-04-20T11:49:43Z</time>
      </trkpt>
      <trkpt lat="42.31903" lon="2.61935">
        <ele>877.849</ele>
        <time>2013-04-20T11:49:46Z</time>
      </trkpt>
      <trkpt lat="42.31896" lon="2.61949">
        <ele>879.322</ele>
        <time>2013-04-20T11:49:59Z</time>
      </trkpt>
      <trkpt lat="42.31885" lon="2.61948">
        <ele>879.392</ele>
        <time>2013-04-20T11:50:13Z</time>
      </trkpt>
      <trkpt lat="42.31887" lon="2.61954">
        <ele>878.873</ele>
        <time>2013-04-20T11:50:26Z</time>
      </trkpt>
      <trkpt lat="42.31879" lon="2.61965">
        <ele>880.72</ele>
        <time>2013-04-20T11:50:40Z</time>
      </trkpt>
      <trkpt lat="42.3188" lon="2.6197">
        <ele>882.607</ele>
        <time>2013-04-20T11:50:52Z</time>
      </trkpt>
      <trkpt lat="42.31876" lon="2.61978">
        <ele>884.113</ele>
        <time>2013-04-20T11:51:06Z</time>
      </trkpt>
      <trkpt lat="42.31875" lon="2.61988">
        <ele>888.962</ele>
        <time>2013-04-20T11:51:17Z</time>
      </trkpt>
      <trkpt lat="42.31874" lon="2.61991">
        <ele>890.356</ele>
        <time>2013-04-20T11:51:21Z</time>
      </trkpt>
      <trkpt lat="42.31875" lon="2.61999">
        <ele>889.873</ele>
        <time>2013-04-20T11:51:27Z</time>
      </trkpt>
      <trkpt lat="42.31879" lon="2.62002">
        <ele>888.984</ele>
        <time>2013-04-20T11:51:33Z</time>
      </trkpt>
      <trkpt lat="42.31886" lon="2.62001">
        <ele>889.897</ele>
        <time>2013-04-20T11:51:42Z</time>
      </trkpt>
      <trkpt lat="42.31892" lon="2.62006">
        <ele>891.35</ele>
        <time>2013-04-20T11:51:49Z</time>
      </trkpt>
      <trkpt lat="42.31895" lon="2.62013">
        <ele>892.266</ele>
        <time>2013-04-20T11:51:54Z</time>
      </trkpt>
      <trkpt lat="42.31907" lon="2.6203">
        <ele>893.229</ele>
        <time>2013-04-20T11:52:09Z</time>
      </trkpt>
      <trkpt lat="42.31909" lon="2.62032">
        <ele>893.221</ele>
        <time>2013-04-20T11:52:11Z</time>
      </trkpt>
      <trkpt lat="42.31923" lon="2.62039">
        <ele>895.607</ele>
        <time>2013-04-20T11:52:25Z</time>
      </trkpt>
      <trkpt lat="42.31929" lon="2.6204">
        <ele>897.16</ele>
        <time>2013-04-20T11:52:31Z</time>
      </trkpt>
      <trkpt lat="42.3193" lon="2.62041">
        <ele>897.169</ele>
        <time>2013-04-20T11:52:33Z</time>
      </trkpt>
      <trkpt lat="42.31937" lon="2.62059">
        <ele>898.523</ele>
        <time>2013-04-20T11:52:48Z</time>
      </trkpt>
      <trkpt lat="42.31938" lon="2.62064">
        <ele>898.54</ele>
        <time>2013-04-20T11:52:52Z</time>
      </trkpt>
      <trkpt lat="42.31945" lon="2.62073">
        <ele>900.471</ele>
        <time>2013-04-20T11:53:03Z</time>
      </trkpt>
      <trkpt lat="42.31949" lon="2.62076">
        <ele>901.464</ele>
        <time>2013-04-20T11:53:08Z</time>
      </trkpt>
      <trkpt lat="42.31961" lon="2.62076">
        <ele>903.357</ele>
        <time>2013-04-20T11:53:21Z</time>
      </trkpt>
      <trkpt lat="42.31964" lon="2.62076">
        <ele>903.849</ele>
        <time>2013-04-20T11:53:24Z</time>
      </trkpt>
      <trkpt lat="42.31969" lon="2.62079">
        <ele>905.202</ele>
        <time>2013-04-20T11:53:28Z</time>
      </trkpt>
      <trkpt lat="42.31976" lon="2.62088">
        <ele>907.622</ele>
        <time>2013-04-20T11:53:36Z</time>
      </trkpt>
      <trkpt lat="42.3198" lon="2.6211">
        <ele>909.107</ele>
        <time>2013-04-20T11:53:49Z</time>
      </trkpt>
      <trkpt lat="42.31986" lon="2.62126">
        <ele>904.728</ele>
        <time>2013-04-20T11:53:59Z</time>
      </trkpt>
      <trkpt lat="42.3199" lon="2.62134">
        <ele>905.277</ele>
        <time>2013-04-20T11:54:04Z</time>
      </trkpt>
      <trkpt lat="42.32004" lon="2.6216">
        <ele>902.811</ele>
        <time>2013-04-20T11:54:20Z</time>
      </trkpt>
      <trkpt lat="42.32018" lon="2.62181">
        <ele>898.518</ele>
        <time>2013-04-20T11:54:34Z</time>
      </trkpt>
      <trkpt lat="42.3202" lon="2.62184">
        <ele>897.169</ele>
        <time>2013-04-20T11:54:37Z</time>
      </trkpt>
      <trkpt lat="42.32025" lon="2.62187">
        <ele>893.732</ele>
        <time>2013-04-20T11:54:42Z</time>
      </trkpt>
      <trkpt lat="42.32038" lon="2.62208">
        <ele>894.255</ele>
        <time>2013-04-20T11:54:56Z</time>
      </trkpt>
      <trkpt lat="42.32049" lon="2.62225">
        <ele>891.827</ele>
        <time>2013-04-20T11:55:10Z</time>
      </trkpt>
      <trkpt lat="42.32051" lon="2.62231">
        <ele>890.368</ele>
        <time>2013-04-20T11:55:14Z</time>
      </trkpt>
      <trkpt lat="42.32053" lon="2.62233">
        <ele>889.814</ele>
        <time>2013-04-20T11:55:16Z</time>
      </trkpt>
      <trkpt lat="42.32057" lon="2.62239">
        <ele>888.407</ele>
        <time>2013-04-20T11:55:21Z</time>
      </trkpt>
      <trkpt lat="42.32061" lon="2.62246">
        <ele>888.466</ele>
        <time>2013-04-20T11:55:26Z</time>
      </trkpt>
      <trkpt lat="42.32069" lon="2.62255">
        <ele>888.995</ele>
        <time>2013-04-20T11:55:34Z</time>
      </trkpt>
      <trkpt lat="42.32081" lon="2.62285">
        <ele>895.119</ele>
        <time>2013-04-20T11:55:49Z</time>
      </trkpt>
      <trkpt lat="42.32086" lon="2.62306">
        <ele>898.556</ele>
        <time>2013-04-20T11:56:04Z</time>
      </trkpt>
      <trkpt lat="42.32093" lon="2.62332">
        <ele>898.597</ele>
        <time>2013-04-20T11:56:18Z</time>
      </trkpt>
      <trkpt lat="42.32098" lon="2.62349">
        <ele>899.08</ele>
        <time>2013-04-20T11:56:27Z</time>
      </trkpt>
      <trkpt lat="42.32105" lon="2.62372">
        <ele>898.583</ele>
        <time>2013-04-20T11:56:41Z</time>
      </trkpt>
      <trkpt lat="42.32116" lon="2.62389">
        <ele>897.582</ele>
        <time>2013-04-20T11:56:53Z</time>
      </trkpt>
      <trkpt lat="42.32116" lon="2.62414">
        <ele>899.043</ele>
        <time>2013-04-20T11:57:06Z</time>
      </trkpt>
      <trkpt lat="42.32115" lon="2.62422">
        <ele>899.917</ele>
        <time>2013-04-20T11:57:09Z</time>
      </trkpt>
      <trkpt lat="42.32122" lon="2.62453">
        <ele>900.407</ele>
        <time>2013-04-20T11:57:21Z</time>
      </trkpt>
      <trkpt lat="42.32121" lon="2.62459">
        <ele>901.432</ele>
        <time>2013-04-20T11:57:24Z</time>
      </trkpt>
      <trkpt lat="42.3212" lon="2.62481">
        <ele>903.351</ele>
        <time>2013-04-20T11:57:32Z</time>
      </trkpt>
      <trkpt lat="42.32121" lon="2.62506">
        <ele>903.315</ele>
        <time>2013-04-20T11:57:42Z</time>
      </trkpt>
      <trkpt lat="42.32124" lon="2.62512">
        <ele>903.392</ele>
        <time>2013-04-20T11:57:49Z</time>
      </trkpt>
      <trkpt lat="42.32123" lon="2.62526">
        <ele>903.323</ele>
        <time>2013-04-20T11:57:58Z</time>
      </trkpt>
      <trkpt lat="42.32129" lon="2.62551">
        <ele>903.856</ele>
        <time>2013-04-20T11:58:13Z</time>
      </trkpt>
      <trkpt lat="42.32131" lon="2.62563">
        <ele>903.819</ele>
        <time>2013-04-20T11:58:19Z</time>
      </trkpt>
      <trkpt lat="42.32144" lon="2.62595">
        <ele>902.855</ele>
        <time>2013-04-20T11:58:34Z</time>
      </trkpt>
      <trkpt lat="42.32147" lon="2.62603">
        <ele>899.907</ele>
        <time>2013-04-20T11:58:38Z</time>
      </trkpt>
      <trkpt lat="42.32153" lon="2.6261">
        <ele>895.117</ele>
        <time>2013-04-20T11:58:49Z</time>
      </trkpt>
      <trkpt lat="42.32156" lon="2.62615">
        <ele>892.207</ele>
        <time>2013-04-20T11:58:55Z</time>
      </trkpt>
      <trkpt lat="42.32159" lon="2.62621">
        <ele>892.259</ele>
        <time>2013-04-20T11:59:01Z</time>
      </trkpt>
      <trkpt lat="42.32165" lon="2.62636">
        <ele>890.828</ele>
        <time>2013-04-20T11:59:13Z</time>
      </trkpt>
      <trkpt lat="42.32172" lon="2.62645">
        <ele>889.432</ele>
        <time>2013-04-20T11:59:20Z</time>
      </trkpt>
      <trkpt lat="42.3219" lon="2.62654">
        <ele>888.999</ele>
        <time>2013-04-20T11:59:30Z</time>
      </trkpt>
      <trkpt lat="42.32192" lon="2.62655">
        <ele>888.95</ele>
        <time>2013-04-20T11:59:33Z</time>
      </trkpt>
      <trkpt lat="42.32197" lon="2.6267">
        <ele>886.543</ele>
        <time>2013-04-20T11:59:45Z</time>
      </trkpt>
      <trkpt lat="42.32195" lon="2.6268">
        <ele>886.516</ele>
        <time>2013-04-20T11:59:57Z</time>
      </trkpt>
      <trkpt lat="42.32186" lon="2.62682">
        <ele>889.491</ele>
        <time>2013-04-20T12:00:11Z</time>
      </trkpt>
      <trkpt lat="42.32183" lon="2.62683">
        <ele>892.281</ele>
        <time>2013-04-20T12:00:23Z</time>
      </trkpt>
      <trkpt lat="42.32181" lon="2.62691">
        <ele>892.219</ele>
        <time>2013-04-20T12:00:35Z</time>
      </trkpt>
      <trkpt lat="42.32176" lon="2.62695">
        <ele>893.707</ele>
        <time>2013-04-20T12:00:45Z</time>
      </trkpt>
      <trkpt lat="42.32173" lon="2.62706">
        <ele>897.113</ele>
        <time>2013-04-20T12:01:01Z</time>
      </trkpt>
      <trkpt lat="42.32169" lon="2.62715">
        <ele>899.972</ele>
        <time>2013-04-20T12:01:15Z</time>
      </trkpt>
      <trkpt lat="42.32163" lon="2.62722">
        <ele>899.996</ele>
        <time>2013-04-20T12:01:27Z</time>
      </trkpt>
      <trkpt lat="42.32161" lon="2.62727">
        <ele>900.913</ele>
        <time>2013-04-20T12:01:38Z</time>
      </trkpt>
      <trkpt lat="42.32156" lon="2.62732">
        <ele>901.944</ele>
        <time>2013-04-20T12:01:47Z</time>
      </trkpt>
      <trkpt lat="42.32147" lon="2.62738">
        <ele>902.857</ele>
        <time>2013-04-20T12:01:57Z</time>
      </trkpt>
      <trkpt lat="42.32137" lon="2.62742">
        <ele>903.33</ele>
        <time>2013-04-20T12:02:05Z</time>
      </trkpt>
      <trkpt lat="42.3212" lon="2.62739">
        <ele>903.369</ele>
        <time>2013-04-20T12:02:18Z</time>
      </trkpt>
      <trkpt lat="42.32113" lon="2.62737">
        <ele>903.304</ele>
        <time>2013-04-20T12:02:23Z</time>
      </trkpt>
      <trkpt lat="42.32092" lon="2.62753">
        <ele>902.324</ele>
        <time>2013-04-20T12:02:36Z</time>
      </trkpt>
      <trkpt lat="42.3208" lon="2.62764">
        <ele>901.407</ele>
        <time>2013-04-20T12:02:49Z</time>
      </trkpt>
      <trkpt lat="42.32073" lon="2.62773">
        <ele>900.97</ele>
        <time>2013-04-20T12:03:01Z</time>
      </trkpt>
      <trkpt lat="42.32068" lon="2.62779">
        <ele>900.449</ele>
        <time>2013-04-20T12:03:09Z</time>
      </trkpt>
      <trkpt lat="42.32057" lon="2.62789">
        <ele>898.573</ele>
        <time>2013-04-20T12:03:23Z</time>
      </trkpt>
      <trkpt lat="42.32054" lon="2.62798">
        <ele>898.08</ele>
        <time>2013-04-20T12:03:36Z</time>
      </trkpt>
      <trkpt lat="42.32059" lon="2.62803">
        <ele>900.451</ele>
        <time>2013-04-20T12:03:48Z</time>
      </trkpt>
      <trkpt lat="42.32061" lon="2.62811">
        <ele>903.354</ele>
        <time>2013-04-20T12:04:02Z</time>
      </trkpt>
      <trkpt lat="42.3206" lon="2.62817">
        <ele>902.867</ele>
        <time>2013-04-20T12:04:08Z</time>
      </trkpt>
      <trkpt lat="42.32062" lon="2.62828">
        <ele>901.952</ele>
        <time>2013-04-20T12:04:20Z</time>
      </trkpt>
      <trkpt lat="42.32061" lon="2.62832">
        <ele>901.453</ele>
        <time>2013-04-20T12:04:24Z</time>
      </trkpt>
      <trkpt lat="42.32058" lon="2.62849">
        <ele>900.908</ele>
        <time>2013-04-20T12:04:38Z</time>
      </trkpt>
      <trkpt lat="42.32063" lon="2.62847">
        <ele>901.907</ele>
        <time>2013-04-20T12:04:48Z</time>
      </trkpt>
      <trkpt lat="42.32069" lon="2.62838">
        <ele>903.329</ele>
        <time>2013-04-20T12:05:01Z</time>
      </trkpt>
      <trkpt lat="42.32076" lon="2.62831">
        <ele>904.398</ele>
        <time>2013-04-20T12:05:12Z</time>
      </trkpt>
      <trkpt lat="42.32079" lon="2.62822">
        <ele>905.272</ele>
        <time>2013-04-20T12:05:22Z</time>
      </trkpt>
      <trkpt lat="42.32082" lon="2.62816">
        <ele>905.739</ele>
        <time>2013-04-20T12:05:28Z</time>
      </trkpt>
      <trkpt lat="42.32094" lon="2.6281">
        <ele>908.15</ele>
        <time>2013-04-20T12:05:41Z</time>
      </trkpt>
      <trkpt lat="42.32094" lon="2.62815">
        <ele>907.633</ele>
        <time>2013-04-20T12:05:52Z</time>
      </trkpt>
      <trkpt lat="42.32091" lon="2.62818">
        <ele>907.136</ele>
        <time>2013-04-20T12:05:58Z</time>
      </trkpt>
      <trkpt lat="42.32092" lon="2.62831">
        <ele>907.623</ele>
        <time>2013-04-20T12:06:12Z</time>
      </trkpt>
      <trkpt lat="42.32094" lon="2.62838">
        <ele>907.683</ele>
        <time>2013-04-20T12:06:25Z</time>
      </trkpt>
      <trkpt lat="42.32092" lon="2.62851">
        <ele>908.111</ele>
        <time>2013-04-20T12:06:40Z</time>
      </trkpt>
      <trkpt lat="42.32093" lon="2.6286">
        <ele>908.607</ele>
        <time>2013-04-20T12:06:55Z</time>
      </trkpt>
      <trkpt lat="42.32091" lon="2.62867">
        <ele>908.616</ele>
        <time>2013-04-20T12:07:07Z</time>
      </trkpt>
      <trkpt lat="42.32091" lon="2.62874">
        <ele>909.135</ele>
        <time>2013-04-20T12:07:20Z</time>
      </trkpt>
      <trkpt lat="42.32092" lon="2.6288">
        <ele>909.159</ele>
        <time>2013-04-20T12:07:30Z</time>
      </trkpt>
      <trkpt lat="42.32092" lon="2.62893">
        <ele>909.596</ele>
        <time>2013-04-20T12:07:43Z</time>
      </trkpt>
      <trkpt lat="42.32092" lon="2.62904">
        <ele>909.527</ele>
        <time>2013-04-20T12:07:57Z</time>
      </trkpt>
      <trkpt lat="42.32092" lon="2.62912">
        <ele>909.55</ele>
        <time>2013-04-20T12:08:10Z</time>
      </trkpt>
      <trkpt lat="42.32098" lon="2.62937">
        <ele>962.463</ele>
        <time>2013-04-20T12:08:26Z</time>
      </trkpt>
      <trkpt lat="42.32098" lon="2.62952">
        <ele>985.536</ele>
        <time>2013-04-20T12:08:41Z</time>
      </trkpt>
      <trkpt lat="42.32096" lon="2.62961">
        <ele>988.917</ele>
        <time>2013-04-20T12:08:54Z</time>
      </trkpt>
      <trkpt lat="42.32092" lon="2.62967">
        <ele>993.718</ele>
        <time>2013-04-20T12:09:08Z</time>
      </trkpt>
      <trkpt lat="42.3209" lon="2.62976">
        <ele>994.107</ele>
        <time>2013-04-20T12:09:24Z</time>
      </trkpt>
      <trkpt lat="42.32085" lon="2.62989">
        <ele>993.287</ele>
        <time>2013-04-20T12:09:37Z</time>
      </trkpt>
      <trkpt lat="42.32081" lon="2.63008">
        <ele>999.916</ele>
        <time>2013-04-20T12:09:50Z</time>
      </trkpt>
      <trkpt lat="42.32082" lon="2.63021">
        <ele>1002.82</ele>
        <time>2013-04-20T12:10:03Z</time>
      </trkpt>
      <trkpt lat="42.32081" lon="2.63026">
        <ele>1002.877</ele>
        <time>2013-04-20T12:10:07Z</time>
      </trkpt>
      <trkpt lat="42.32083" lon="2.63041">
        <ele>1002.368</ele>
        <time>2013-04-20T12:10:22Z</time>
      </trkpt>
      <trkpt lat="42.32085" lon="2.63057">
        <ele>1005.271</ele>
        <time>2013-04-20T12:10:36Z</time>
      </trkpt>
      <trkpt lat="42.32085" lon="2.63066">
        <ele>1006.634</ele>
        <time>2013-04-20T12:10:48Z</time>
      </trkpt>
      <trkpt lat="42.32085" lon="2.63079">
        <ele>1010.053</ele>
        <time>2013-04-20T12:11:04Z</time>
      </trkpt>
      <trkpt lat="42.32087" lon="2.63093">
        <ele>1012.904</ele>
        <time>2013-04-20T12:11:20Z</time>
      </trkpt>
      <trkpt lat="42.32086" lon="2.63104">
        <ele>1017.214</ele>
        <time>2013-04-20T12:11:34Z</time>
      </trkpt>
      <trkpt lat="42.32085" lon="2.63117">
        <ele>1021.107</ele>
        <time>2013-04-20T12:11:49Z</time>
      </trkpt>
      <trkpt lat="42.32087" lon="2.63123">
        <ele>1023.929</ele>
        <time>2013-04-20T12:12:04Z</time>
      </trkpt>
      <trkpt lat="42.32089" lon="2.63132">
        <ele>1027.318</ele>
        <time>2013-04-20T12:12:18Z</time>
      </trkpt>
      <trkpt lat="42.3209" lon="2.63143">
        <ele>1029.792</ele>
        <time>2013-04-20T12:12:30Z</time>
      </trkpt>
      <trkpt lat="42.32093" lon="2.63137">
        <ele>1031.669</ele>
        <time>2013-04-20T12:12:45Z</time>
      </trkpt>
      <trkpt lat="42.32095" lon="2.6315">
        <ele>1035.04</ele>
        <time>2013-04-20T12:13:01Z</time>
      </trkpt>
      <trkpt lat="42.32095" lon="2.6316">
        <ele>1036.043</ele>
        <time>2013-04-20T12:13:16Z</time>
      </trkpt>
      <trkpt lat="42.32096" lon="2.6317">
        <ele>1036.936</ele>
        <time>2013-04-20T12:13:28Z</time>
      </trkpt>
      <trkpt lat="42.32096" lon="2.63183">
        <ele>1039.838</ele>
        <time>2013-04-20T12:13:43Z</time>
      </trkpt>
      <trkpt lat="42.32093" lon="2.63194">
        <ele>1041.37</ele>
        <time>2013-04-20T12:13:58Z</time>
      </trkpt>
      <trkpt lat="42.3209" lon="2.63204">
        <ele>1040.317</ele>
        <time>2013-04-20T12:14:13Z</time>
      </trkpt>
      <trkpt lat="42.32089" lon="2.6322">
        <ele>1046.107</ele>
        <time>2013-04-20T12:14:30Z</time>
      </trkpt>
      <trkpt lat="42.32087" lon="2.63238">
        <ele>1049.937</ele>
        <time>2013-04-20T12:14:45Z</time>
      </trkpt>
      <trkpt lat="42.32087" lon="2.6325">
        <ele>1052.326</ele>
        <time>2013-04-20T12:14:59Z</time>
      </trkpt>
      <trkpt lat="42.32079" lon="2.6326">
        <ele>1054.23</ele>
        <time>2013-04-20T12:15:15Z</time>
      </trkpt>
      <trkpt lat="42.3208" lon="2.63268">
        <ele>1055.247</ele>
        <time>2013-04-20T12:15:27Z</time>
      </trkpt>
      <trkpt lat="42.32081" lon="2.63277">
        <ele>1057.118</ele>
        <time>2013-04-20T12:15:40Z</time>
      </trkpt>
      <trkpt lat="42.32083" lon="2.63287">
        <ele>1060.571</ele>
        <time>2013-04-20T12:15:53Z</time>
      </trkpt>
      <trkpt lat="42.3208" lon="2.63302">
        <ele>1062.914</ele>
        <time>2013-04-20T12:16:09Z</time>
      </trkpt>
      <trkpt lat="42.32079" lon="2.63312">
        <ele>1063.427</ele>
        <time>2013-04-20T12:16:21Z</time>
      </trkpt>
      <trkpt lat="42.32078" lon="2.6332">
        <ele>1064.868</ele>
        <time>2013-04-20T12:16:35Z</time>
      </trkpt>
      <trkpt lat="42.32076" lon="2.63332">
        <ele>1067.214</ele>
        <time>2013-04-20T12:16:50Z</time>
      </trkpt>
      <trkpt lat="42.32077" lon="2.63339">
        <ele>1068.207</ele>
        <time>2013-04-20T12:17:04Z</time>
      </trkpt>
      <trkpt lat="42.32084" lon="2.63337">
        <ele>1070.646</ele>
        <time>2013-04-20T12:17:15Z</time>
      </trkpt>
      <trkpt lat="42.32083" lon="2.63343">
        <ele>1073.085</ele>
        <time>2013-04-20T12:17:26Z</time>
      </trkpt>
      <trkpt lat="42.32074" lon="2.63353">
        <ele>1074.469</ele>
        <time>2013-04-20T12:17:38Z</time>
      </trkpt>
      <trkpt lat="42.32063" lon="2.63368">
        <ele>1076.816</ele>
        <time>2013-04-20T12:17:53Z</time>
      </trkpt>
      <trkpt lat="42.32058" lon="2.63375">
        <ele>1077.327</ele>
        <time>2013-04-20T12:17:59Z</time>
      </trkpt>
      <trkpt lat="42.32043" lon="2.63383">
        <ele>1077.84</ele>
        <time>2013-04-20T12:18:15Z</time>
      </trkpt>
      <trkpt lat="42.32033" lon="2.63388">
        <ele>1077.833</ele>
        <time>2013-04-20T12:18:25Z</time>
      </trkpt>
      <trkpt lat="42.32022" lon="2.63396">
        <ele>1079.275</ele>
        <time>2013-04-20T12:18:37Z</time>
      </trkpt>
      <trkpt lat="42.32021" lon="2.63398">
        <ele>1079.728</ele>
        <time>2013-04-20T12:18:39Z</time>
      </trkpt>
      <trkpt lat="42.32013" lon="2.63427">
        <ele>1084.52</ele>
        <time>2013-04-20T12:18:52Z</time>
      </trkpt>
      <trkpt lat="42.32006" lon="2.63432">
        <ele>1086.007</ele>
        <time>2013-04-20T12:18:58Z</time>
      </trkpt>
      <trkpt lat="42.32002" lon="2.63438">
        <ele>1087.441</ele>
        <time>2013-04-20T12:19:02Z</time>
      </trkpt>
      <trkpt lat="42.31995" lon="2.63446">
        <ele>1089.34</ele>
        <time>2013-04-20T12:19:09Z</time>
      </trkpt>
      <trkpt lat="42.31988" lon="2.63452">
        <ele>1089.884</ele>
        <time>2013-04-20T12:19:14Z</time>
      </trkpt>
      <trkpt lat="42.31987" lon="2.63454">
        <ele>1089.881</ele>
        <time>2013-04-20T12:19:15Z</time>
      </trkpt>
      <trkpt lat="42.3198" lon="2.6346">
        <ele>1090.332</ele>
        <time>2013-04-20T12:19:22Z</time>
      </trkpt>
      <trkpt lat="42.3197" lon="2.63463">
        <ele>1089.825</ele>
        <time>2013-04-20T12:19:29Z</time>
      </trkpt>
      <trkpt lat="42.3196" lon="2.63472">
        <ele>1089.838</ele>
        <time>2013-04-20T12:19:37Z</time>
      </trkpt>
      <trkpt lat="42.31957" lon="2.63477">
        <ele>1090.384</ele>
        <time>2013-04-20T12:19:40Z</time>
      </trkpt>
      <trkpt lat="42.31954" lon="2.63481">
        <ele>1090.307</ele>
        <time>2013-04-20T12:19:43Z</time>
      </trkpt>
      <trkpt lat="42.3195" lon="2.63486">
        <ele>1090.817</ele>
        <time>2013-04-20T12:19:47Z</time>
      </trkpt>
      <trkpt lat="42.31934" lon="2.63504">
        <ele>1089.807</ele>
        <time>2013-04-20T12:20:01Z</time>
      </trkpt>
      <trkpt lat="42.31912" lon="2.63518">
        <ele>1092.722</ele>
        <time>2013-04-20T12:20:14Z</time>
      </trkpt>
      <trkpt lat="42.3189" lon="2.63538">
        <ele>1096.591</ele>
        <time>2013-04-20T12:20:27Z</time>
      </trkpt>
      <trkpt lat="42.31874" lon="2.63564">
        <ele>1100.485</ele>
        <time>2013-04-20T12:20:41Z</time>
      </trkpt>
      <trkpt lat="42.31872" lon="2.63567">
        <ele>1100.432</ele>
        <time>2013-04-20T12:20:43Z</time>
      </trkpt>
      <trkpt lat="42.31857" lon="2.6358">
        <ele>1110.573</ele>
        <time>2013-04-20T12:20:56Z</time>
      </trkpt>
      <trkpt lat="42.31853" lon="2.63587">
        <ele>1114.346</ele>
        <time>2013-04-20T12:21:10Z</time>
      </trkpt>
      <trkpt lat="42.31851" lon="2.63587">
        <ele>1117.289</ele>
        <time>2013-04-20T12:21:27Z</time>
      </trkpt>
      <trkpt lat="42.31847" lon="2.63592">
        <ele>1117.718</ele>
        <time>2013-04-20T12:21:41Z</time>
      </trkpt>
      <trkpt lat="42.3183" lon="2.63587">
        <ele>1114.898</ele>
        <time>2013-04-20T12:21:50Z</time>
      </trkpt>
      <trkpt lat="42.31819" lon="2.63582">
        <ele>1115.317</ele>
        <time>2013-04-20T12:22:03Z</time>
      </trkpt>
      <trkpt lat="42.31815" lon="2.63584">
        <ele>1115.807</ele>
        <time>2013-04-20T12:22:25Z</time>
      </trkpt>
      <trkpt lat="42.31813" lon="2.63582">
        <ele>1115.335</ele>
        <time>2013-04-20T12:22:44Z</time>
      </trkpt>
      <trkpt lat="42.31815" lon="2.63582">
        <ele>1115.844</ele>
        <time>2013-04-20T12:23:02Z</time>
      </trkpt>
      <trkpt lat="42.31816" lon="2.63582">
        <ele>1116.718</ele>
        <time>2013-04-20T12:23:24Z</time>
      </trkpt>
      <trkpt lat="42.31815" lon="2.63584">
        <ele>1115.825</ele>
        <time>2013-04-20T12:23:39Z</time>
      </trkpt>
      <trkpt lat="42.31815" lon="2.63583">
        <ele>1117.756</ele>
        <time>2013-04-20T12:23:53Z</time>
      </trkpt>
      <trkpt lat="42.31814" lon="2.63585">
        <ele>1117.219</ele>
        <time>2013-04-20T12:24:12Z</time>
      </trkpt>
      <trkpt lat="42.31812" lon="2.63581">
        <ele>1118.262</ele>
        <time>2013-04-20T12:24:23Z</time>
      </trkpt>
      <trkpt lat="42.31803" lon="2.63573">
        <ele>1116.272</ele>
        <time>2013-04-20T12:24:37Z</time>
      </trkpt>
      <trkpt lat="42.31792" lon="2.6357">
        <ele>1116.213</ele>
        <time>2013-04-20T12:24:47Z</time>
      </trkpt>
      <trkpt lat="42.31777" lon="2.63576">
        <ele>1118.214</ele>
        <time>2013-04-20T12:24:59Z</time>
      </trkpt>
      <trkpt lat="42.31775" lon="2.63576">
        <ele>1119.107</ele>
        <time>2013-04-20T12:25:01Z</time>
      </trkpt>
      <trkpt lat="42.31761" lon="2.63583">
        <ele>1122.051</ele>
        <time>2013-04-20T12:25:16Z</time>
      </trkpt>
      <trkpt lat="42.31747" lon="2.63589">
        <ele>1123.01</ele>
        <time>2013-04-20T12:25:30Z</time>
      </trkpt>
      <trkpt lat="42.31734" lon="2.63594">
        <ele>1123.924</ele>
        <time>2013-04-20T12:25:43Z</time>
      </trkpt>
      <trkpt lat="42.31722" lon="2.63597">
        <ele>1125.431</ele>
        <time>2013-04-20T12:25:54Z</time>
      </trkpt>
      <trkpt lat="42.31706" lon="2.63603">
        <ele>1127.332</ele>
        <time>2013-04-20T12:26:06Z</time>
      </trkpt>
      <trkpt lat="42.3169" lon="2.63609">
        <ele>1128.735</ele>
        <time>2013-04-20T12:26:20Z</time>
      </trkpt>
      <trkpt lat="42.31678" lon="2.63622">
        <ele>1130.288</ele>
        <time>2013-04-20T12:26:31Z</time>
      </trkpt>
      <trkpt lat="42.31673" lon="2.63639">
        <ele>1131.161</ele>
        <time>2013-04-20T12:26:44Z</time>
      </trkpt>
      <trkpt lat="42.31664" lon="2.63654">
        <ele>1133.521</ele>
        <time>2013-04-20T12:26:56Z</time>
      </trkpt>
      <trkpt lat="42.31657" lon="2.63668">
        <ele>1135.013</ele>
        <time>2013-04-20T12:27:07Z</time>
      </trkpt>
      <trkpt lat="42.3165" lon="2.6369">
        <ele>1137.907</ele>
        <time>2013-04-20T12:27:21Z</time>
      </trkpt>
      <trkpt lat="42.3164" lon="2.63694">
        <ele>1140.31</ele>
        <time>2013-04-20T12:27:31Z</time>
      </trkpt>
      <trkpt lat="42.31628" lon="2.63673">
        <ele>1142.779</ele>
        <time>2013-04-20T12:27:48Z</time>
      </trkpt>
      <trkpt lat="42.31626" lon="2.63662">
        <ele>1143.113</ele>
        <time>2013-04-20T12:27:56Z</time>
      </trkpt>
      <trkpt lat="42.31627" lon="2.63652">
        <ele>1143.15</ele>
        <time>2013-04-20T12:28:03Z</time>
      </trkpt>
      <trkpt lat="42.3162" lon="2.63633">
        <ele>1145.691</ele>
        <time>2013-04-20T12:28:16Z</time>
      </trkpt>
      <trkpt lat="42.31604" lon="2.63621">
        <ele>1150.884</ele>
        <time>2013-04-20T12:28:31Z</time>
      </trkpt>
      <trkpt lat="42.31595" lon="2.63616">
        <ele>1151.867</ele>
        <time>2013-04-20T12:28:38Z</time>
      </trkpt>
      <trkpt lat="42.31587" lon="2.63612">
        <ele>1152.343</ele>
        <time>2013-04-20T12:28:45Z</time>
      </trkpt>
      <trkpt lat="42.31582" lon="2.63609">
        <ele>1152.364</ele>
        <time>2013-04-20T12:28:49Z</time>
      </trkpt>
      <trkpt lat="42.31575" lon="2.63602">
        <ele>1152.31</ele>
        <time>2013-04-20T12:28:56Z</time>
      </trkpt>
      <trkpt lat="42.31576" lon="2.63596">
        <ele>1152.307</ele>
        <time>2013-04-20T12:29:01Z</time>
      </trkpt>
      <trkpt lat="42.31587" lon="2.63591">
        <ele>1152.878</ele>
        <time>2013-04-20T12:29:13Z</time>
      </trkpt>
      <trkpt lat="42.31592" lon="2.6359">
        <ele>1152.887</ele>
        <time>2013-04-20T12:29:17Z</time>
      </trkpt>
      <trkpt lat="42.31597" lon="2.63587">
        <ele>1153.741</ele>
        <time>2013-04-20T12:29:21Z</time>
      </trkpt>
      <trkpt lat="42.31617" lon="2.63581">
        <ele>1157.698</ele>
        <time>2013-04-20T12:29:36Z</time>
      </trkpt>
      <trkpt lat="42.31628" lon="2.63573">
        <ele>1158.589</ele>
        <time>2013-04-20T12:29:48Z</time>
      </trkpt>
      <trkpt lat="42.31637" lon="2.63557">
        <ele>1157.692</ele>
        <time>2013-04-20T12:30:02Z</time>
      </trkpt>
      <trkpt lat="42.3164" lon="2.63543">
        <ele>1153.225</ele>
        <time>2013-04-20T12:30:14Z</time>
      </trkpt>
      <trkpt lat="42.31627" lon="2.63526">
        <ele>1153.743</ele>
        <time>2013-04-20T12:30:29Z</time>
      </trkpt>
      <trkpt lat="42.31619" lon="2.6351">
        <ele>1161.464</ele>
        <time>2013-04-20T12:30:43Z</time>
      </trkpt>
      <trkpt lat="42.31618" lon="2.63508">
        <ele>1161.41</ele>
        <time>2013-04-20T12:30:44Z</time>
      </trkpt>
      <trkpt lat="42.31616" lon="2.63495">
        <ele>1163.807</ele>
        <time>2013-04-20T12:30:52Z</time>
      </trkpt>
      <trkpt lat="42.31609" lon="2.63475">
        <ele>1168.628</ele>
        <time>2013-04-20T12:31:06Z</time>
      </trkpt>
      <trkpt lat="42.31606" lon="2.63464">
        <ele>1169.127</ele>
        <time>2013-04-20T12:31:13Z</time>
      </trkpt>
      <trkpt lat="42.31606" lon="2.63461">
        <ele>1169.111</ele>
        <time>2013-04-20T12:31:15Z</time>
      </trkpt>
      <trkpt lat="42.316" lon="2.63434">
        <ele>1173.498</ele>
        <time>2013-04-20T12:31:32Z</time>
      </trkpt>
      <trkpt lat="42.31596" lon="2.63416">
        <ele>1175.429</ele>
        <time>2013-04-20T12:31:44Z</time>
      </trkpt>
      <trkpt lat="42.31593" lon="2.63395">
        <ele>1176.382</ele>
        <time>2013-04-20T12:31:57Z</time>
      </trkpt>
      <trkpt lat="42.31587" lon="2.6338">
        <ele>1177.375</ele>
        <time>2013-04-20T12:32:07Z</time>
      </trkpt>
      <trkpt lat="42.31584" lon="2.63376">
        <ele>1177.859</ele>
        <time>2013-04-20T12:32:10Z</time>
      </trkpt>
      <trkpt lat="42.3157" lon="2.63366">
        <ele>1180.203</ele>
        <time>2013-04-20T12:32:24Z</time>
      </trkpt>
      <trkpt lat="42.31559" lon="2.63355">
        <ele>1184.523</ele>
        <time>2013-04-20T12:32:38Z</time>
      </trkpt>
      <trkpt lat="42.31555" lon="2.63351">
        <ele>1185.907</ele>
        <time>2013-04-20T12:32:45Z</time>
      </trkpt>
      <trkpt lat="42.31546" lon="2.63344">
        <ele>1188.399</ele>
        <time>2013-04-20T12:32:58Z</time>
      </trkpt>
      <trkpt lat="42.31539" lon="2.63336">
        <ele>1190.758</ele>
        <time>2013-04-20T12:33:09Z</time>
      </trkpt>
      <trkpt lat="42.31532" lon="2.63329">
        <ele>1191.752</ele>
        <time>2013-04-20T12:33:22Z</time>
      </trkpt>
      <trkpt lat="42.31525" lon="2.63321">
        <ele>1195.589</ele>
        <time>2013-04-20T12:33:34Z</time>
      </trkpt>
      <trkpt lat="42.31519" lon="2.63318">
        <ele>1197.04</ele>
        <time>2013-04-20T12:33:46Z</time>
      </trkpt>
      <trkpt lat="42.31513" lon="2.63315">
        <ele>1198.993</ele>
        <time>2013-04-20T12:33:58Z</time>
      </trkpt>
      <trkpt lat="42.31508" lon="2.63311">
        <ele>1199.446</ele>
        <time>2013-04-20T12:34:11Z</time>
      </trkpt>
      <trkpt lat="42.31508" lon="2.63305">
        <ele>1202.334</ele>
        <time>2013-04-20T12:34:22Z</time>
      </trkpt>
      <trkpt lat="42.31504" lon="2.63297">
        <ele>1204.255</ele>
        <time>2013-04-20T12:34:36Z</time>
      </trkpt>
      <trkpt lat="42.31497" lon="2.63298">
        <ele>1207.61</ele>
        <time>2013-04-20T12:34:51Z</time>
      </trkpt>
      <trkpt lat="42.31488" lon="2.63301">
        <ele>1212.807</ele>
        <time>2013-04-20T12:35:05Z</time>
      </trkpt>
      <trkpt lat="42.31482" lon="2.63296">
        <ele>1216.727</ele>
        <time>2013-04-20T12:35:19Z</time>
      </trkpt>
      <trkpt lat="42.3148" lon="2.63289">
        <ele>1218.196</ele>
        <time>2013-04-20T12:35:33Z</time>
      </trkpt>
      <trkpt lat="42.31476" lon="2.63282">
        <ele>1222.01</ele>
        <time>2013-04-20T12:35:48Z</time>
      </trkpt>
      <trkpt lat="42.31474" lon="2.63272">
        <ele>1223.477</ele>
        <time>2013-04-20T12:36:01Z</time>
      </trkpt>
      <trkpt lat="42.31473" lon="2.63263">
        <ele>1226.378</ele>
        <time>2013-04-20T12:36:15Z</time>
      </trkpt>
      <trkpt lat="42.31472" lon="2.63252">
        <ele>1228.781</ele>
        <time>2013-04-20T12:36:27Z</time>
      </trkpt>
      <trkpt lat="42.3147" lon="2.63241">
        <ele>1232.144</ele>
        <time>2013-04-20T12:36:40Z</time>
      </trkpt>
      <trkpt lat="42.31464" lon="2.63226">
        <ele>1238.326</ele>
        <time>2013-04-20T12:36:57Z</time>
      </trkpt>
      <trkpt lat="42.31459" lon="2.63216">
        <ele>1241.747</ele>
        <time>2013-04-20T12:37:11Z</time>
      </trkpt>
      <trkpt lat="42.31458" lon="2.63211">
        <ele>1243.111</ele>
        <time>2013-04-20T12:37:21Z</time>
      </trkpt>
      <trkpt lat="42.31451" lon="2.63199">
        <ele>1244.607</ele>
        <time>2013-04-20T12:37:34Z</time>
      </trkpt>
      <trkpt lat="42.31446" lon="2.6319">
        <ele>1246.056</ele>
        <time>2013-04-20T12:37:46Z</time>
      </trkpt>
      <trkpt lat="42.31441" lon="2.63183">
        <ele>1246.575</ele>
        <time>2013-04-20T12:37:55Z</time>
      </trkpt>
      <trkpt lat="42.31436" lon="2.63174">
        <ele>1247.999</ele>
        <time>2013-04-20T12:38:07Z</time>
      </trkpt>
      <trkpt lat="42.31431" lon="2.63163">
        <ele>1248.926</ele>
        <time>2013-04-20T12:38:19Z</time>
      </trkpt>
      <trkpt lat="42.31425" lon="2.63152">
        <ele>1252.777</ele>
        <time>2013-04-20T12:38:32Z</time>
      </trkpt>
      <trkpt lat="42.31418" lon="2.63142">
        <ele>1256.14</ele>
        <time>2013-04-20T12:38:45Z</time>
      </trkpt>
      <trkpt lat="42.31411" lon="2.63139">
        <ele>1260.423</ele>
        <time>2013-04-20T12:39:00Z</time>
      </trkpt>
      <trkpt lat="42.31405" lon="2.63132">
        <ele>1266.219</ele>
        <time>2013-04-20T12:39:17Z</time>
      </trkpt>
      <trkpt lat="42.31398" lon="2.63121">
        <ele>1267.609</ele>
        <time>2013-04-20T12:39:30Z</time>
      </trkpt>
      <trkpt lat="42.31392" lon="2.63108">
        <ele>1267.219</ele>
        <time>2013-04-20T12:39:45Z</time>
      </trkpt>
      <trkpt lat="42.31385" lon="2.63098">
        <ele>1267.607</ele>
        <time>2013-04-20T12:39:59Z</time>
      </trkpt>
      <trkpt lat="42.31381" lon="2.63089">
        <ele>1271.075</ele>
        <time>2013-04-20T12:40:10Z</time>
      </trkpt>
      <trkpt lat="42.31378" lon="2.63081">
        <ele>1273.424</ele>
        <time>2013-04-20T12:40:22Z</time>
      </trkpt>
      <trkpt lat="42.31373" lon="2.63074">
        <ele>1275.878</ele>
        <time>2013-04-20T12:40:35Z</time>
      </trkpt>
      <trkpt lat="42.31369" lon="2.63068">
        <ele>1278.215</ele>
        <time>2013-04-20T12:40:47Z</time>
      </trkpt>
      <trkpt lat="42.31363" lon="2.63064">
        <ele>1283.586</ele>
        <time>2013-04-20T12:41:03Z</time>
      </trkpt>
      <trkpt lat="42.31358" lon="2.6306">
        <ele>1285.959</ele>
        <time>2013-04-20T12:41:21Z</time>
      </trkpt>
      <trkpt lat="42.31359" lon="2.63068">
        <ele>1288.372</ele>
        <time>2013-04-20T12:41:35Z</time>
      </trkpt>
      <trkpt lat="42.31357" lon="2.63075">
        <ele>1289.819</ele>
        <time>2013-04-20T12:41:47Z</time>
      </trkpt>
      <trkpt lat="42.31356" lon="2.63082">
        <ele>1292.209</ele>
        <time>2013-04-20T12:42:01Z</time>
      </trkpt>
      <trkpt lat="42.31357" lon="2.6309">
        <ele>1296.519</ele>
        <time>2013-04-20T12:42:14Z</time>
      </trkpt>
      <trkpt lat="42.31356" lon="2.63095">
        <ele>1297.407</ele>
        <time>2013-04-20T12:42:27Z</time>
      </trkpt>
      <trkpt lat="42.31353" lon="2.63102">
        <ele>1298.485</ele>
        <time>2013-04-20T12:42:40Z</time>
      </trkpt>
      <trkpt lat="42.3135" lon="2.63107">
        <ele>1301.364</ele>
        <time>2013-04-20T12:42:53Z</time>
      </trkpt>
      <trkpt lat="42.31346" lon="2.6311">
        <ele>1303.248</ele>
        <time>2013-04-20T12:43:07Z</time>
      </trkpt>
      <trkpt lat="42.31341" lon="2.6311">
        <ele>1306.125</ele>
        <time>2013-04-20T12:43:20Z</time>
      </trkpt>
      <trkpt lat="42.31341" lon="2.63116">
        <ele>1309.916</ele>
        <time>2013-04-20T12:43:34Z</time>
      </trkpt>
      <trkpt lat="42.31339" lon="2.63127">
        <ele>1311.949</ele>
        <time>2013-04-20T12:43:47Z</time>
      </trkpt>
      <trkpt lat="42.31337" lon="2.63133">
        <ele>1313.372</ele>
        <time>2013-04-20T12:43:54Z</time>
      </trkpt>
      <trkpt lat="42.31337" lon="2.63137">
        <ele>1314.356</ele>
        <time>2013-04-20T12:43:58Z</time>
      </trkpt>
      <trkpt lat="42.31333" lon="2.63152">
        <ele>1316.759</ele>
        <time>2013-04-20T12:44:12Z</time>
      </trkpt>
      <trkpt lat="42.3133" lon="2.63157">
        <ele>1318.114</ele>
        <time>2013-04-20T12:44:18Z</time>
      </trkpt>
      <trkpt lat="42.31317" lon="2.63162">
        <ele>1321.507</ele>
        <time>2013-04-20T12:44:33Z</time>
      </trkpt>
      <trkpt lat="42.31309" lon="2.6316">
        <ele>1324.869</ele>
        <time>2013-04-20T12:44:44Z</time>
      </trkpt>
      <trkpt lat="42.31302" lon="2.63152">
        <ele>1327.718</ele>
        <time>2013-04-20T12:44:57Z</time>
      </trkpt>
      <trkpt lat="42.31296" lon="2.63145">
        <ele>1331.152</ele>
        <time>2013-04-20T12:45:10Z</time>
      </trkpt>
      <trkpt lat="42.31289" lon="2.63141">
        <ele>1334.919</ele>
        <time>2013-04-20T12:45:22Z</time>
      </trkpt>
      <trkpt lat="42.31283" lon="2.63137">
        <ele>1338.31</ele>
        <time>2013-04-20T12:45:35Z</time>
      </trkpt>
      <trkpt lat="42.31281" lon="2.63131">
        <ele>1341.233</ele>
        <time>2013-04-20T12:45:49Z</time>
      </trkpt>
      <trkpt lat="42.31281" lon="2.63129">
        <ele>1343.176</ele>
        <time>2013-04-20T12:46:04Z</time>
      </trkpt>
      <trkpt lat="42.31283" lon="2.63128">
        <ele>1344.587</ele>
        <time>2013-04-20T12:46:29Z</time>
      </trkpt>
      <trkpt lat="42.31284" lon="2.63127">
        <ele>1344.142</ele>
        <time>2013-04-20T12:46:54Z</time>
      </trkpt>
      <trkpt lat="42.31285" lon="2.63126">
        <ele>1344.526</ele>
        <time>2013-04-20T12:47:15Z</time>
      </trkpt>
      <trkpt lat="42.31285" lon="2.63128">
        <ele>1346.507</ele>
        <time>2013-04-20T12:47:40Z</time>
      </trkpt>
      <trkpt lat="42.31283" lon="2.6313">
        <ele>1347.912</ele>
        <time>2013-04-20T12:48:05Z</time>
      </trkpt>
      <trkpt lat="42.31284" lon="2.63129">
        <ele>1348.951</ele>
        <time>2013-04-20T12:48:30Z</time>
      </trkpt>
      <trkpt lat="42.31284" lon="2.63128">
        <ele>1345.075</ele>
        <time>2013-04-20T12:48:59Z</time>
      </trkpt>
      <trkpt lat="42.31284" lon="2.63129">
        <ele>1344.512</ele>
        <time>2013-04-20T12:49:25Z</time>
      </trkpt>
      <trkpt lat="42.31281" lon="2.6313">
        <ele>1345.563</ele>
        <time>2013-04-20T12:49:52Z</time>
      </trkpt>
      <trkpt lat="42.31281" lon="2.63134">
        <ele>1346.996</ele>
        <time>2013-04-20T12:50:22Z</time>
      </trkpt>
      <trkpt lat="42.31282" lon="2.63135">
        <ele>1350.899</ele>
        <time>2013-04-20T12:50:54Z</time>
      </trkpt>
      <trkpt lat="42.31288" lon="2.63128">
        <ele>1348.969</ele>
        <time>2013-04-20T12:51:24Z</time>
      </trkpt>
      <trkpt lat="42.31284" lon="2.63132">
        <ele>1347.404</ele>
        <time>2013-04-20T12:51:55Z</time>
      </trkpt>
      <trkpt lat="42.31285" lon="2.6313">
        <ele>1348.424</ele>
        <time>2013-04-20T12:52:24Z</time>
      </trkpt>
      <trkpt lat="42.31284" lon="2.6313">
        <ele>1348.907</ele>
        <time>2013-04-20T12:52:45Z</time>
      </trkpt>
      <trkpt lat="42.31283" lon="2.63132">
        <ele>1349.45</ele>
        <time>2013-04-20T12:53:12Z</time>
      </trkpt>
      <trkpt lat="42.31283" lon="2.63133">
        <ele>1348.489</ele>
        <time>2013-04-20T12:53:35Z</time>
      </trkpt>
      <trkpt lat="42.31284" lon="2.63131">
        <ele>1347.953</ele>
        <time>2013-04-20T12:53:55Z</time>
      </trkpt>
      <trkpt lat="42.31283" lon="2.63132">
        <ele>1347.49</ele>
        <time>2013-04-20T12:54:16Z</time>
      </trkpt>
      <trkpt lat="42.31285" lon="2.63132">
        <ele>1346.561</ele>
        <time>2013-04-20T12:54:39Z</time>
      </trkpt>
      <trkpt lat="42.31284" lon="2.63132">
        <ele>1345.544</ele>
        <time>2013-04-20T12:55:03Z</time>
      </trkpt>
      <trkpt lat="42.31283" lon="2.63131">
        <ele>1345.557</ele>
        <time>2013-04-20T12:55:22Z</time>
      </trkpt>
      <trkpt lat="42.31283" lon="2.63129">
        <ele>1343.652</ele>
        <time>2013-04-20T12:55:47Z</time>
      </trkpt>
      <trkpt lat="42.31282" lon="2.63127">
        <ele>1342.653</ele>
        <time>2013-04-20T12:56:10Z</time>
      </trkpt>
      <trkpt lat="42.31283" lon="2.63126">
        <ele>1342.108</ele>
        <time>2013-04-20T12:56:31Z</time>
      </trkpt>
      <trkpt lat="42.31283" lon="2.63127">
        <ele>1343.107</ele>
        <time>2013-04-20T12:56:51Z</time>
      </trkpt>
      <trkpt lat="42.31282" lon="2.63128">
        <ele>1343.679</ele>
        <time>2013-04-20T12:57:20Z</time>
      </trkpt>
      <trkpt lat="42.31282" lon="2.63127">
        <ele>1342.148</ele>
        <time>2013-04-20T12:57:52Z</time>
      </trkpt>
      <trkpt lat="42.31282" lon="2.63126">
        <ele>1342.622</ele>
        <time>2013-04-20T12:58:23Z</time>
      </trkpt>
      <trkpt lat="42.31282" lon="2.63125">
        <ele>1342.199</ele>
        <time>2013-04-20T12:58:54Z</time>
      </trkpt>
      <trkpt lat="42.31283" lon="2.63125">
        <ele>1342.69</ele>
        <time>2013-04-20T12:59:21Z</time>
      </trkpt>
      <trkpt lat="42.31283" lon="2.63128">
        <ele>1342.623</ele>
        <time>2013-04-20T12:59:55Z</time>
      </trkpt>
      <trkpt lat="42.31282" lon="2.6313">
        <ele>1343.146</ele>
        <time>2013-04-20T13:00:12Z</time>
      </trkpt>
      <trkpt lat="42.31282" lon="2.63129">
        <ele>1344.543</ele>
        <time>2013-04-20T13:00:35Z</time>
      </trkpt>
      <trkpt lat="42.31283" lon="2.63128">
        <ele>1342.664</ele>
        <time>2013-04-20T13:00:55Z</time>
      </trkpt>
      <trkpt lat="42.31282" lon="2.63127">
        <ele>1341.71</ele>
        <time>2013-04-20T13:01:13Z</time>
      </trkpt>
      <trkpt lat="42.31283" lon="2.63125">
        <ele>1341.207</ele>
        <time>2013-04-20T13:01:27Z</time>
      </trkpt>
      <trkpt lat="42.31284" lon="2.63124">
        <ele>1341.768</ele>
        <time>2013-04-20T13:01:52Z</time>
      </trkpt>
      <trkpt lat="42.31283" lon="2.63129">
        <ele>1342.147</ele>
        <time>2013-04-20T13:02:07Z</time>
      </trkpt>
      <trkpt lat="42.31286" lon="2.63131">
        <ele>1340.731</ele>
        <time>2013-04-20T13:02:21Z</time>
      </trkpt>
      <trkpt lat="42.31288" lon="2.63134">
        <ele>1340.228</ele>
        <time>2013-04-20T13:02:30Z</time>
      </trkpt>
      <trkpt lat="42.31289" lon="2.63137">
        <ele>1339.769</ele>
        <time>2013-04-20T13:02:33Z</time>
      </trkpt>
      <trkpt lat="42.31293" lon="2.63139">
        <ele>1338.392</ele>
        <time>2013-04-20T13:02:37Z</time>
      </trkpt>
      <trkpt lat="42.31299" lon="2.63146">
        <ele>1333.025</ele>
        <time>2013-04-20T13:02:50Z</time>
      </trkpt>
      <trkpt lat="42.31303" lon="2.63151">
        <ele>1332.016</ele>
        <time>2013-04-20T13:02:56Z</time>
      </trkpt>
      <trkpt lat="42.31306" lon="2.63153">
        <ele>1331.176</ele>
        <time>2013-04-20T13:02:59Z</time>
      </trkpt>
      <trkpt lat="42.31312" lon="2.63162">
        <ele>1328.713</ele>
        <time>2013-04-20T13:03:06Z</time>
      </trkpt>
      <trkpt lat="42.31324" lon="2.6317">
        <ele>1324.407</ele>
        <time>2013-04-20T13:03:17Z</time>
      </trkpt>
      <trkpt lat="42.31335" lon="2.63176">
        <ele>1321.015</ele>
        <time>2013-04-20T13:03:30Z</time>
      </trkpt>
      <trkpt lat="42.3134" lon="2.63185">
        <ele>1319.644</ele>
        <time>2013-04-20T13:03:37Z</time>
      </trkpt>
      <trkpt lat="42.31348" lon="2.63196">
        <ele>1317.688</ele>
        <time>2013-04-20T13:03:49Z</time>
      </trkpt>
      <trkpt lat="42.31354" lon="2.63207">
        <ele>1313.895</ele>
        <time>2013-04-20T13:04:03Z</time>
      </trkpt>
      <trkpt lat="42.31355" lon="2.63208">
        <ele>1312.876</ele>
        <time>2013-04-20T13:04:05Z</time>
      </trkpt>
      <trkpt lat="42.31365" lon="2.63216">
        <ele>1308.589</ele>
        <time>2013-04-20T13:04:20Z</time>
      </trkpt>
      <trkpt lat="42.31371" lon="2.6322">
        <ele>1304.282</ele>
        <time>2013-04-20T13:04:28Z</time>
      </trkpt>
      <trkpt lat="42.31375" lon="2.63223">
        <ele>1302.782</ele>
        <time>2013-04-20T13:04:32Z</time>
      </trkpt>
      <trkpt lat="42.31384" lon="2.63234">
        <ele>1297.943</ele>
        <time>2013-04-20T13:04:46Z</time>
      </trkpt>
      <trkpt lat="42.31392" lon="2.63238">
        <ele>1293.617</ele>
        <time>2013-04-20T13:04:59Z</time>
      </trkpt>
      <trkpt lat="42.31398" lon="2.63242">
        <ele>1291.207</ele>
        <time>2013-04-20T13:05:12Z</time>
      </trkpt>
      <trkpt lat="42.31403" lon="2.63253">
        <ele>1286.472</ele>
        <time>2013-04-20T13:05:25Z</time>
      </trkpt>
      <trkpt lat="42.31406" lon="2.63256">
        <ele>1283.571</ele>
        <time>2013-04-20T13:05:37Z</time>
      </trkpt>
      <trkpt lat="42.31409" lon="2.63258">
        <ele>1282.125</ele>
        <time>2013-04-20T13:05:44Z</time>
      </trkpt>
      <trkpt lat="42.31414" lon="2.63264">
        <ele>1276.332</ele>
        <time>2013-04-20T13:05:56Z</time>
      </trkpt>
      <trkpt lat="42.31421" lon="2.63266">
        <ele>1272.063</ele>
        <time>2013-04-20T13:06:06Z</time>
      </trkpt>
      <trkpt lat="42.31427" lon="2.63271">
        <ele>1269.696</ele>
        <time>2013-04-20T13:06:14Z</time>
      </trkpt>
      <trkpt lat="42.31429" lon="2.63273">
        <ele>1267.669</ele>
        <time>2013-04-20T13:06:18Z</time>
      </trkpt>
      <trkpt lat="42.31429" lon="2.63275">
        <ele>1266.798</ele>
        <time>2013-04-20T13:06:20Z</time>
      </trkpt>
      <trkpt lat="42.31433" lon="2.63284">
        <ele>1265.215</ele>
        <time>2013-04-20T13:06:32Z</time>
      </trkpt>
      <trkpt lat="42.3144" lon="2.63287">
        <ele>1262.826</ele>
        <time>2013-04-20T13:06:42Z</time>
      </trkpt>
      <trkpt lat="42.31445" lon="2.63285">
        <ele>1260.407</ele>
        <time>2013-04-20T13:06:52Z</time>
      </trkpt>
      <trkpt lat="42.31455" lon="2.63276">
        <ele>1257.183</ele>
        <time>2013-04-20T13:07:08Z</time>
      </trkpt>
      <trkpt lat="42.31459" lon="2.63275">
        <ele>1254.272</ele>
        <time>2013-04-20T13:07:20Z</time>
      </trkpt>
      <trkpt lat="42.31462" lon="2.63269">
        <ele>1251.346</ele>
        <time>2013-04-20T13:07:29Z</time>
      </trkpt>
      <trkpt lat="42.31464" lon="2.63267">
        <ele>1247.073</ele>
        <time>2013-04-20T13:07:42Z</time>
      </trkpt>
      <trkpt lat="42.31465" lon="2.63267">
        <ele>1245.064</ele>
        <time>2013-04-20T13:07:46Z</time>
      </trkpt>
      <trkpt lat="42.31464" lon="2.63272">
        <ele>1242.247</ele>
        <time>2013-04-20T13:07:53Z</time>
      </trkpt>
      <trkpt lat="42.31471" lon="2.63282">
        <ele>1239.82</ele>
        <time>2013-04-20T13:08:02Z</time>
      </trkpt>
      <trkpt lat="42.31475" lon="2.63287">
        <ele>1237.479</ele>
        <time>2013-04-20T13:08:10Z</time>
      </trkpt>
      <trkpt lat="42.31479" lon="2.63295">
        <ele>1235.005</ele>
        <time>2013-04-20T13:08:20Z</time>
      </trkpt>
      <trkpt lat="42.31483" lon="2.63301">
        <ele>1231.625</ele>
        <time>2013-04-20T13:08:29Z</time>
      </trkpt>
      <trkpt lat="42.31487" lon="2.63303">
        <ele>1229.207</ele>
        <time>2013-04-20T13:08:35Z</time>
      </trkpt>
      <trkpt lat="42.31493" lon="2.63305">
        <ele>1226.881</ele>
        <time>2013-04-20T13:08:42Z</time>
      </trkpt>
      <trkpt lat="42.31499" lon="2.63304">
        <ele>1223.44</ele>
        <time>2013-04-20T13:08:48Z</time>
      </trkpt>
      <trkpt lat="42.31504" lon="2.63303">
        <ele>1222.034</ele>
        <time>2013-04-20T13:08:52Z</time>
      </trkpt>
      <trkpt lat="42.31505" lon="2.63304">
        <ele>1221.571</ele>
        <time>2013-04-20T13:08:54Z</time>
      </trkpt>
      <trkpt lat="42.31508" lon="2.6331">
        <ele>1217.792</ele>
        <time>2013-04-20T13:09:01Z</time>
      </trkpt>
      <trkpt lat="42.31513" lon="2.6332">
        <ele>1213.365</ele>
        <time>2013-04-20T13:09:11Z</time>
      </trkpt>
      <trkpt lat="42.31518" lon="2.63318">
        <ele>1212.428</ele>
        <time>2013-04-20T13:09:15Z</time>
      </trkpt>
      <trkpt lat="42.3153" lon="2.63325">
        <ele>1209.564</ele>
        <time>2013-04-20T13:09:23Z</time>
      </trkpt>
      <trkpt lat="42.31539" lon="2.63335">
        <ele>1200.806</ele>
        <time>2013-04-20T13:09:34Z</time>
      </trkpt>
      <trkpt lat="42.31544" lon="2.63341">
        <ele>1197.016</ele>
        <time>2013-04-20T13:09:41Z</time>
      </trkpt>
      <trkpt lat="42.31555" lon="2.63353">
        <ele>1187.907</ele>
        <time>2013-04-20T13:09:55Z</time>
      </trkpt>
      <trkpt lat="42.31565" lon="2.63361">
        <ele>1187.91</ele>
        <time>2013-04-20T13:10:00Z</time>
      </trkpt>
      <trkpt lat="42.31583" lon="2.6338">
        <ele>1187.999</ele>
        <time>2013-04-20T13:10:12Z</time>
      </trkpt>
      <trkpt lat="42.3159" lon="2.63397">
        <ele>1185.483</ele>
        <time>2013-04-20T13:10:18Z</time>
      </trkpt>
      <trkpt lat="42.31594" lon="2.6342">
        <ele>1185.02</ele>
        <time>2013-04-20T13:10:33Z</time>
      </trkpt>
      <trkpt lat="42.31597" lon="2.63433">
        <ele>1182.181</ele>
        <time>2013-04-20T13:10:41Z</time>
      </trkpt>
      <trkpt lat="42.31597" lon="2.63436">
        <ele>1181.684</ele>
        <time>2013-04-20T13:10:43Z</time>
      </trkpt>
      <trkpt lat="42.31601" lon="2.63448">
        <ele>1181.187</ele>
        <time>2013-04-20T13:10:50Z</time>
      </trkpt>
      <trkpt lat="42.31609" lon="2.63469">
        <ele>1178.739</ele>
        <time>2013-04-20T13:10:59Z</time>
      </trkpt>
      <trkpt lat="42.31611" lon="2.6348">
        <ele>1176.801</ele>
        <time>2013-04-20T13:11:03Z</time>
      </trkpt>
      <trkpt lat="42.31616" lon="2.63501">
        <ele>1173.921</ele>
        <time>2013-04-20T13:11:10Z</time>
      </trkpt>
      <trkpt lat="42.31627" lon="2.63529">
        <ele>1173.407</ele>
        <time>2013-04-20T13:11:20Z</time>
      </trkpt>
      <trkpt lat="42.31635" lon="2.63536">
        <ele>1173.427</ele>
        <time>2013-04-20T13:11:24Z</time>
      </trkpt>
      <trkpt lat="42.31639" lon="2.63542">
        <ele>1172.056</ele>
        <time>2013-04-20T13:11:27Z</time>
      </trkpt>
      <trkpt lat="42.31639" lon="2.63556">
        <ele>1171.09</ele>
        <time>2013-04-20T13:11:33Z</time>
      </trkpt>
      <trkpt lat="42.31634" lon="2.63568">
        <ele>1167.767</ele>
        <time>2013-04-20T13:11:39Z</time>
      </trkpt>
      <trkpt lat="42.31628" lon="2.63582">
        <ele>1164.388</ele>
        <time>2013-04-20T13:11:46Z</time>
      </trkpt>
      <trkpt lat="42.31624" lon="2.63586">
        <ele>1163.361</ele>
        <time>2013-04-20T13:11:49Z</time>
      </trkpt>
      <trkpt lat="42.31615" lon="2.63588">
        <ele>1160.964</ele>
        <time>2013-04-20T13:11:54Z</time>
      </trkpt>
      <trkpt lat="42.31598" lon="2.63592">
        <ele>1155.277</ele>
        <time>2013-04-20T13:12:03Z</time>
      </trkpt>
      <trkpt lat="42.31584" lon="2.6359">
        <ele>1151.861</ele>
        <time>2013-04-20T13:12:10Z</time>
      </trkpt>
      <trkpt lat="42.31581" lon="2.63613">
        <ele>1151.827</ele>
        <time>2013-04-20T13:12:20Z</time>
      </trkpt>
      <trkpt lat="42.31599" lon="2.6362">
        <ele>1149.907</ele>
        <time>2013-04-20T13:12:29Z</time>
      </trkpt>
      <trkpt lat="42.31603" lon="2.63622">
        <ele>1149.441</ele>
        <time>2013-04-20T13:12:31Z</time>
      </trkpt>
      <trkpt lat="42.31614" lon="2.63632">
        <ele>1148.03</ele>
        <time>2013-04-20T13:12:38Z</time>
      </trkpt>
      <trkpt lat="42.31616" lon="2.63644">
        <ele>1147.034</ele>
        <time>2013-04-20T13:12:43Z</time>
      </trkpt>
      <trkpt lat="42.31623" lon="2.63668">
        <ele>1148.071</ele>
        <time>2013-04-20T13:12:51Z</time>
      </trkpt>
      <trkpt lat="42.31638" lon="2.63697">
        <ele>1147.082</ele>
        <time>2013-04-20T13:13:03Z</time>
      </trkpt>
      <trkpt lat="42.31641" lon="2.63697">
        <ele>1147.555</ele>
        <time>2013-04-20T13:13:04Z</time>
      </trkpt>
      <trkpt lat="42.31657" lon="2.63674">
        <ele>1146.068</ele>
        <time>2013-04-20T13:13:15Z</time>
      </trkpt>
      <trkpt lat="42.3166" lon="2.63665">
        <ele>1145.176</ele>
        <time>2013-04-20T13:13:19Z</time>
      </trkpt>
      <trkpt lat="42.31675" lon="2.63636">
        <ele>1139.89</ele>
        <time>2013-04-20T13:13:31Z</time>
      </trkpt>
      <trkpt lat="42.31678" lon="2.63623">
        <ele>1138.319</ele>
        <time>2013-04-20T13:13:35Z</time>
      </trkpt>
      <trkpt lat="42.31705" lon="2.63605">
        <ele>1138.807</ele>
        <time>2013-04-20T13:13:46Z</time>
      </trkpt>
      <trkpt lat="42.31731" lon="2.63597">
        <ele>1138.371</ele>
        <time>2013-04-20T13:13:55Z</time>
      </trkpt>
      <trkpt lat="42.31747" lon="2.63588">
        <ele>1135.52</ele>
        <time>2013-04-20T13:14:02Z</time>
      </trkpt>
      <trkpt lat="42.3175" lon="2.63584">
        <ele>1134.014</ele>
        <time>2013-04-20T13:14:04Z</time>
      </trkpt>
      <trkpt lat="42.31776" lon="2.63571">
        <ele>1122.511</ele>
        <time>2013-04-20T13:14:16Z</time>
      </trkpt>
      <trkpt lat="42.31794" lon="2.63576">
        <ele>1116.262</ele>
        <time>2013-04-20T13:14:25Z</time>
      </trkpt>
      <trkpt lat="42.31799" lon="2.63579">
        <ele>1115.345</ele>
        <time>2013-04-20T13:14:27Z</time>
      </trkpt>
      <trkpt lat="42.31806" lon="2.63583">
        <ele>1114.858</ele>
        <time>2013-04-20T13:14:31Z</time>
      </trkpt>
      <trkpt lat="42.31791" lon="2.63591">
        <ele>1110.571</ele>
        <time>2013-04-20T13:14:41Z</time>
      </trkpt>
      <trkpt lat="42.31775" lon="2.63625">
        <ele>1108.541</ele>
        <time>2013-04-20T13:14:53Z</time>
      </trkpt>
      <trkpt lat="42.3177" lon="2.63647">
        <ele>1107.615</ele>
        <time>2013-04-20T13:15:00Z</time>
      </trkpt>
      <trkpt lat="42.31766" lon="2.63666">
        <ele>1107.107</ele>
        <time>2013-04-20T13:15:06Z</time>
      </trkpt>
      <trkpt lat="42.31765" lon="2.63696">
        <ele>1108.141</ele>
        <time>2013-04-20T13:15:15Z</time>
      </trkpt>
      <trkpt lat="42.3177" lon="2.63706">
        <ele>1107.62</ele>
        <time>2013-04-20T13:15:19Z</time>
      </trkpt>
      <trkpt lat="42.31772" lon="2.63717">
        <ele>1106.654</ele>
        <time>2013-04-20T13:15:23Z</time>
      </trkpt>
      <trkpt lat="42.31774" lon="2.63754">
        <ele>1100.931</ele>
        <time>2013-04-20T13:15:36Z</time>
      </trkpt>
      <trkpt lat="42.31777" lon="2.63768">
        <ele>1099.962</ele>
        <time>2013-04-20T13:15:41Z</time>
      </trkpt>
      <trkpt lat="42.31778" lon="2.6379">
        <ele>1100.485</ele>
        <time>2013-04-20T13:15:47Z</time>
      </trkpt>
      <trkpt lat="42.31776" lon="2.6383">
        <ele>1103.338</ele>
        <time>2013-04-20T13:15:57Z</time>
      </trkpt>
      <trkpt lat="42.31776" lon="2.63837">
        <ele>1103.378</ele>
        <time>2013-04-20T13:15:59Z</time>
      </trkpt>
      <trkpt lat="42.31776" lon="2.63853">
        <ele>1101.833</ele>
        <time>2013-04-20T13:16:04Z</time>
      </trkpt>
      <trkpt lat="42.31774" lon="2.63892">
        <ele>1098.926</ele>
        <time>2013-04-20T13:16:15Z</time>
      </trkpt>
      <trkpt lat="42.31768" lon="2.63928">
        <ele>1099.407</ele>
        <time>2013-04-20T13:16:25Z</time>
      </trkpt>
      <trkpt lat="42.31759" lon="2.63962">
        <ele>1098.421</ele>
        <time>2013-04-20T13:16:35Z</time>
      </trkpt>
      <trkpt lat="42.31741" lon="2.63987">
        <ele>1096.04</ele>
        <time>2013-04-20T13:16:46Z</time>
      </trkpt>
      <trkpt lat="42.31717" lon="2.64002">
        <ele>1094.624</ele>
        <time>2013-04-20T13:16:57Z</time>
      </trkpt>
      <trkpt lat="42.31699" lon="2.64024">
        <ele>1095.661</ele>
        <time>2013-04-20T13:17:06Z</time>
      </trkpt>
      <trkpt lat="42.31677" lon="2.64036">
        <ele>1095.672</ele>
        <time>2013-04-20T13:17:16Z</time>
      </trkpt>
      <trkpt lat="42.31651" lon="2.64033">
        <ele>1092.735</ele>
        <time>2013-04-20T13:17:27Z</time>
      </trkpt>
      <trkpt lat="42.31629" lon="2.64027">
        <ele>1088.818</ele>
        <time>2013-04-20T13:17:37Z</time>
      </trkpt>
      <trkpt lat="42.31615" lon="2.64005">
        <ele>1080.764</ele>
        <time>2013-04-20T13:17:48Z</time>
      </trkpt>
      <trkpt lat="42.31601" lon="2.6398">
        <ele>1073.506</ele>
        <time>2013-04-20T13:17:58Z</time>
      </trkpt>
      <trkpt lat="42.31587" lon="2.6396">
        <ele>1074.416</ele>
        <time>2013-04-20T13:18:07Z</time>
      </trkpt>
      <trkpt lat="42.31573" lon="2.63952">
        <ele>1072.007</ele>
        <time>2013-04-20T13:18:15Z</time>
      </trkpt>
      <trkpt lat="42.31569" lon="2.63948">
        <ele>1073.96</ele>
        <time>2013-04-20T13:18:29Z</time>
      </trkpt>
      <trkpt lat="42.31569" lon="2.6395">
        <ele>1076.839</ele>
        <time>2013-04-20T13:18:42Z</time>
      </trkpt>
      <trkpt lat="42.31569" lon="2.63962">
        <ele>1077.323</ele>
        <time>2013-04-20T13:18:56Z</time>
      </trkpt>
      <trkpt lat="42.31565" lon="2.63963">
        <ele>1074.41</ele>
        <time>2013-04-20T13:19:02Z</time>
      </trkpt>
      <trkpt lat="42.31563" lon="2.63963">
        <ele>1071.111</ele>
        <time>2013-04-20T13:19:07Z</time>
      </trkpt>
      <trkpt lat="42.31565" lon="2.6397">
        <ele>1067.774</ele>
        <time>2013-04-20T13:19:12Z</time>
      </trkpt>
      <trkpt lat="42.31571" lon="2.6399">
        <ele>1064.887</ele>
        <time>2013-04-20T13:19:23Z</time>
      </trkpt>
      <trkpt lat="42.31573" lon="2.64009">
        <ele>1061.072</ele>
        <time>2013-04-20T13:19:32Z</time>
      </trkpt>
      <trkpt lat="42.31572" lon="2.64017">
        <ele>1058.113</ele>
        <time>2013-04-20T13:19:37Z</time>
      </trkpt>
      <trkpt lat="42.31578" lon="2.64045">
        <ele>1055.214</ele>
        <time>2013-04-20T13:19:48Z</time>
      </trkpt>
      <trkpt lat="42.31578" lon="2.64052">
        <ele>1054.707</ele>
        <time>2013-04-20T13:19:51Z</time>
      </trkpt>
      <trkpt lat="42.31577" lon="2.64063">
        <ele>1053.751</ele>
        <time>2013-04-20T13:19:55Z</time>
      </trkpt>
      <trkpt lat="42.31576" lon="2.64079">
        <ele>1054.78</ele>
        <time>2013-04-20T13:20:02Z</time>
      </trkpt>
      <trkpt lat="42.31562" lon="2.64101">
        <ele>1053.774</ele>
        <time>2013-04-20T13:20:12Z</time>
      </trkpt>
      <trkpt lat="42.31556" lon="2.6412">
        <ele>1050.921</ele>
        <time>2013-04-20T13:20:22Z</time>
      </trkpt>
      <trkpt lat="42.3155" lon="2.64132">
        <ele>1046.552</ele>
        <time>2013-04-20T13:20:30Z</time>
      </trkpt>
      <trkpt lat="42.31546" lon="2.64153">
        <ele>1042.755</ele>
        <time>2013-04-20T13:20:42Z</time>
      </trkpt>
      <trkpt lat="42.31542" lon="2.64161">
        <ele>1039.378</ele>
        <time>2013-04-20T13:20:49Z</time>
      </trkpt>
      <trkpt lat="42.31537" lon="2.64168">
        <ele>1038.898</ele>
        <time>2013-04-20T13:20:54Z</time>
      </trkpt>
      <trkpt lat="42.31534" lon="2.64171">
        <ele>1038.815</ele>
        <time>2013-04-20T13:20:57Z</time>
      </trkpt>
      <trkpt lat="42.31528" lon="2.64161">
        <ele>1037.926</ele>
        <time>2013-04-20T13:21:08Z</time>
      </trkpt>
      <trkpt lat="42.31525" lon="2.64162">
        <ele>1036.907</ele>
        <time>2013-04-20T13:21:12Z</time>
      </trkpt>
      <trkpt lat="42.31523" lon="2.64165">
        <ele>1036.033</ele>
        <time>2013-04-20T13:21:15Z</time>
      </trkpt>
      <trkpt lat="42.31521" lon="2.6417">
        <ele>1034.012</ele>
        <time>2013-04-20T13:21:18Z</time>
      </trkpt>
      <trkpt lat="42.3152" lon="2.64183">
        <ele>1030.716</ele>
        <time>2013-04-20T13:21:24Z</time>
      </trkpt>
      <trkpt lat="42.31522" lon="2.64202">
        <ele>1027.383</ele>
        <time>2013-04-20T13:21:34Z</time>
      </trkpt>
      <trkpt lat="42.31519" lon="2.64209">
        <ele>1024.974</ele>
        <time>2013-04-20T13:21:40Z</time>
      </trkpt>
      <trkpt lat="42.31511" lon="2.64192">
        <ele>1020.147</ele>
        <time>2013-04-20T13:21:54Z</time>
      </trkpt>
      <trkpt lat="42.31507" lon="2.64189">
        <ele>1020.66</ele>
        <time>2013-04-20T13:22:01Z</time>
      </trkpt>
      <trkpt lat="42.31502" lon="2.64199">
        <ele>1019.143</ele>
        <time>2013-04-20T13:22:08Z</time>
      </trkpt>
      <trkpt lat="42.315" lon="2.6421">
        <ele>1017.264</ele>
        <time>2013-04-20T13:22:12Z</time>
      </trkpt>
      <trkpt lat="42.31502" lon="2.64231">
        <ele>1014.31</ele>
        <time>2013-04-20T13:22:21Z</time>
      </trkpt>
      <trkpt lat="42.31502" lon="2.64239">
        <ele>1013.407</ele>
        <time>2013-04-20T13:22:25Z</time>
      </trkpt>
      <trkpt lat="42.31496" lon="2.64258">
        <ele>1012.948</ele>
        <time>2013-04-20T13:22:38Z</time>
      </trkpt>
      <trkpt lat="42.31493" lon="2.64259">
        <ele>1011.487</ele>
        <time>2013-04-20T13:22:49Z</time>
      </trkpt>
      <trkpt lat="42.31492" lon="2.64256">
        <ele>1009.521</ele>
        <time>2013-04-20T13:22:54Z</time>
      </trkpt>
      <trkpt lat="42.31492" lon="2.64245">
        <ele>1002.388</ele>
        <time>2013-04-20T13:23:08Z</time>
      </trkpt>
      <trkpt lat="42.31489" lon="2.64242">
        <ele>995.689</ele>
        <time>2013-04-20T13:23:19Z</time>
      </trkpt>
      <trkpt lat="42.31487" lon="2.64241">
        <ele>994.192</ele>
        <time>2013-04-20T13:23:22Z</time>
      </trkpt>
      <trkpt lat="42.31486" lon="2.64246">
        <ele>990.815</ele>
        <time>2013-04-20T13:23:27Z</time>
      </trkpt>
      <trkpt lat="42.31483" lon="2.6425">
        <ele>990.883</ele>
        <time>2013-04-20T13:23:32Z</time>
      </trkpt>
      <trkpt lat="42.31479" lon="2.64256">
        <ele>990.825</ele>
        <time>2013-04-20T13:23:36Z</time>
      </trkpt>
      <trkpt lat="42.31476" lon="2.64261">
        <ele>990.817</ele>
        <time>2013-04-20T13:23:39Z</time>
      </trkpt>
      <trkpt lat="42.31473" lon="2.64277">
        <ele>989.807</ele>
        <time>2013-04-20T13:23:47Z</time>
      </trkpt>
      <trkpt lat="42.31469" lon="2.6428">
        <ele>991.362</ele>
        <time>2013-04-20T13:23:52Z</time>
      </trkpt>
      <trkpt lat="42.31467" lon="2.6428">
        <ele>992.251</ele>
        <time>2013-04-20T13:23:54Z</time>
      </trkpt>
      <trkpt lat="42.31469" lon="2.64271">
        <ele>990.395</ele>
        <time>2013-04-20T13:24:00Z</time>
      </trkpt>
      <trkpt lat="42.31467" lon="2.64266">
        <ele>987.912</ele>
        <time>2013-04-20T13:24:04Z</time>
      </trkpt>
      <trkpt lat="42.31465" lon="2.64264">
        <ele>987.443</ele>
        <time>2013-04-20T13:24:06Z</time>
      </trkpt>
      <trkpt lat="42.31463" lon="2.64266">
        <ele>986.976</ele>
        <time>2013-04-20T13:24:08Z</time>
      </trkpt>
      <trkpt lat="42.31459" lon="2.64278">
        <ele>980.749</ele>
        <time>2013-04-20T13:24:19Z</time>
      </trkpt>
      <trkpt lat="42.31453" lon="2.64286">
        <ele>978.335</ele>
        <time>2013-04-20T13:24:31Z</time>
      </trkpt>
      <trkpt lat="42.3145" lon="2.64299">
        <ele>973.086</ele>
        <time>2013-04-20T13:24:42Z</time>
      </trkpt>
      <trkpt lat="42.31447" lon="2.64309">
        <ele>965.814</ele>
        <time>2013-04-20T13:24:54Z</time>
      </trkpt>
      <trkpt lat="42.31438" lon="2.64317">
        <ele>963.407</ele>
        <time>2013-04-20T13:25:06Z</time>
      </trkpt>
      <trkpt lat="42.31436" lon="2.64322">
        <ele>963.477</ele>
        <time>2013-04-20T13:25:11Z</time>
      </trkpt>
      <trkpt lat="42.31427" lon="2.64339">
        <ele>962.436</ele>
        <time>2013-04-20T13:25:23Z</time>
      </trkpt>
      <trkpt lat="42.31417" lon="2.64349">
        <ele>961.93</ele>
        <time>2013-04-20T13:25:34Z</time>
      </trkpt>
      <trkpt lat="42.3141" lon="2.64363">
        <ele>958.117</ele>
        <time>2013-04-20T13:25:46Z</time>
      </trkpt>
      <trkpt lat="42.31406" lon="2.64367">
        <ele>956.798</ele>
        <time>2013-04-20T13:25:52Z</time>
      </trkpt>
      <trkpt lat="42.314" lon="2.64353">
        <ele>953.331</ele>
        <time>2013-04-20T13:26:03Z</time>
      </trkpt>
      <trkpt lat="42.31393" lon="2.64357">
        <ele>950.474</ele>
        <time>2013-04-20T13:26:18Z</time>
      </trkpt>
      <trkpt lat="42.31389" lon="2.64364">
        <ele>947.541</ele>
        <time>2013-04-20T13:26:26Z</time>
      </trkpt>
      <trkpt lat="42.31386" lon="2.64367">
        <ele>946.681</ele>
        <time>2013-04-20T13:26:29Z</time>
      </trkpt>
      <trkpt lat="42.31382" lon="2.64374">
        <ele>943.209</ele>
        <time>2013-04-20T13:26:35Z</time>
      </trkpt>
      <trkpt lat="42.31378" lon="2.64366">
        <ele>940.307</ele>
        <time>2013-04-20T13:26:41Z</time>
      </trkpt>
      <trkpt lat="42.31377" lon="2.6436">
        <ele>937.448</ele>
        <time>2013-04-20T13:26:44Z</time>
      </trkpt>
      <trkpt lat="42.31374" lon="2.64346">
        <ele>935.567</ele>
        <time>2013-04-20T13:26:55Z</time>
      </trkpt>
      <trkpt lat="42.31365" lon="2.64356">
        <ele>933.681</ele>
        <time>2013-04-20T13:27:07Z</time>
      </trkpt>
      <trkpt lat="42.31358" lon="2.64371">
        <ele>929.798</ele>
        <time>2013-04-20T13:27:20Z</time>
      </trkpt>
      <trkpt lat="42.31354" lon="2.6438">
        <ele>926.929</ele>
        <time>2013-04-20T13:27:25Z</time>
      </trkpt>
      <trkpt lat="42.31351" lon="2.64394">
        <ele>924.582</ele>
        <time>2013-04-20T13:27:34Z</time>
      </trkpt>
      <trkpt lat="42.31347" lon="2.64399">
        <ele>923.055</ele>
        <time>2013-04-20T13:27:40Z</time>
      </trkpt>
      <trkpt lat="42.31344" lon="2.64405">
        <ele>921.665</ele>
        <time>2013-04-20T13:27:45Z</time>
      </trkpt>
      <trkpt lat="42.31337" lon="2.64416">
        <ele>919.268</ele>
        <time>2013-04-20T13:27:57Z</time>
      </trkpt>
      <trkpt lat="42.31333" lon="2.64422">
        <ele>914.414</ele>
        <time>2013-04-20T13:28:07Z</time>
      </trkpt>
      <trkpt lat="42.31327" lon="2.64423">
        <ele>908.607</ele>
        <time>2013-04-20T13:28:18Z</time>
      </trkpt>
      <trkpt lat="42.31323" lon="2.64441">
        <ele>903.32</ele>
        <time>2013-04-20T13:28:29Z</time>
      </trkpt>
      <trkpt lat="42.31323" lon="2.64454">
        <ele>898.529</ele>
        <time>2013-04-20T13:28:40Z</time>
      </trkpt>
      <trkpt lat="42.31321" lon="2.64471">
        <ele>894.653</ele>
        <time>2013-04-20T13:28:53Z</time>
      </trkpt>
      <trkpt lat="42.31316" lon="2.64475">
        <ele>894.66</ele>
        <time>2013-04-20T13:29:02Z</time>
      </trkpt>
      <trkpt lat="42.31308" lon="2.6448">
        <ele>893.221</ele>
        <time>2013-04-20T13:29:12Z</time>
      </trkpt>
      <trkpt lat="42.31304" lon="2.64493">
        <ele>891.354</ele>
        <time>2013-04-20T13:29:23Z</time>
      </trkpt>
      <trkpt lat="42.31304" lon="2.64496">
        <ele>890.867</ele>
        <time>2013-04-20T13:29:26Z</time>
      </trkpt>
      <trkpt lat="42.31299" lon="2.64512">
        <ele>888.967</ele>
        <time>2013-04-20T13:29:38Z</time>
      </trkpt>
      <trkpt lat="42.31294" lon="2.64511">
        <ele>886.581</ele>
        <time>2013-04-20T13:29:50Z</time>
      </trkpt>
      <trkpt lat="42.31292" lon="2.6451">
        <ele>887.019</ele>
        <time>2013-04-20T13:29:52Z</time>
      </trkpt>
      <trkpt lat="42.31287" lon="2.64527">
        <ele>886.507</ele>
        <time>2013-04-20T13:30:03Z</time>
      </trkpt>
      <trkpt lat="42.31287" lon="2.64527">
        <ele>886.52</ele>
        <time>2013-04-20T13:30:04Z</time>
      </trkpt>
      <trkpt lat="42.31286" lon="2.64539">
        <ele>887.059</ele>
        <time>2013-04-20T13:30:15Z</time>
      </trkpt>
      <trkpt lat="42.31286" lon="2.64542">
        <ele>886.093</ele>
        <time>2013-04-20T13:30:17Z</time>
      </trkpt>
      <trkpt lat="42.31285" lon="2.64555">
        <ele>880.72</ele>
        <time>2013-04-20T13:30:28Z</time>
      </trkpt>
      <trkpt lat="42.31281" lon="2.64562">
        <ele>878.371</ele>
        <time>2013-04-20T13:30:41Z</time>
      </trkpt>
      <trkpt lat="42.31281" lon="2.64568">
        <ele>877.374</ele>
        <time>2013-04-20T13:30:46Z</time>
      </trkpt>
      <trkpt lat="42.31279" lon="2.6457">
        <ele>874.067</ele>
        <time>2013-04-20T13:30:51Z</time>
      </trkpt>
      <trkpt lat="42.31276" lon="2.64566">
        <ele>870.112</ele>
        <time>2013-04-20T13:30:56Z</time>
      </trkpt>
      <trkpt lat="42.31278" lon="2.64582">
        <ele>864.832</ele>
        <time>2013-04-20T13:31:06Z</time>
      </trkpt>
      <trkpt lat="42.31279" lon="2.64588">
        <ele>859.105</ele>
        <time>2013-04-20T13:31:18Z</time>
      </trkpt>
      <trkpt lat="42.31278" lon="2.64602">
        <ele>857.207</ele>
        <time>2013-04-20T13:31:30Z</time>
      </trkpt>
      <trkpt lat="42.31275" lon="2.64611">
        <ele>854.315</ele>
        <time>2013-04-20T13:31:38Z</time>
      </trkpt>
      <trkpt lat="42.31275" lon="2.64622">
        <ele>854.354</ele>
        <time>2013-04-20T13:31:46Z</time>
      </trkpt>
      <trkpt lat="42.31281" lon="2.64642">
        <ele>851.428</ele>
        <time>2013-04-20T13:32:01Z</time>
      </trkpt>
      <trkpt lat="42.3128" lon="2.64663">
        <ele>850.925</ele>
        <time>2013-04-20T13:32:14Z</time>
      </trkpt>
      <trkpt lat="42.3128" lon="2.64671">
        <ele>850.936</ele>
        <time>2013-04-20T13:32:19Z</time>
      </trkpt>
      <trkpt lat="42.31278" lon="2.64686">
        <ele>849.989</ele>
        <time>2013-04-20T13:32:28Z</time>
      </trkpt>
      <trkpt lat="42.31278" lon="2.64716">
        <ele>847.562</ele>
        <time>2013-04-20T13:32:41Z</time>
      </trkpt>
      <trkpt lat="42.31279" lon="2.64719">
        <ele>847.541</ele>
        <time>2013-04-20T13:32:42Z</time>
      </trkpt>
      <trkpt lat="42.31279" lon="2.64726">
        <ele>846.681</ele>
        <time>2013-04-20T13:32:45Z</time>
      </trkpt>
      <trkpt lat="42.31276" lon="2.64737">
        <ele>845.109</ele>
        <time>2013-04-20T13:32:52Z</time>
      </trkpt>
      <trkpt lat="42.31273" lon="2.64754">
        <ele>841.307</ele>
        <time>2013-04-20T13:33:04Z</time>
      </trkpt>
      <trkpt lat="42.3127" lon="2.6477">
        <ele>837.998</ele>
        <time>2013-04-20T13:33:16Z</time>
      </trkpt>
      <trkpt lat="42.31266" lon="2.64778">
        <ele>834.167</ele>
        <time>2013-04-20T13:33:28Z</time>
      </trkpt>
      <trkpt lat="42.31262" lon="2.64782">
        <ele>830.281</ele>
        <time>2013-04-20T13:33:37Z</time>
      </trkpt>
      <trkpt lat="42.3126" lon="2.64793">
        <ele>825.948</ele>
        <time>2013-04-20T13:33:48Z</time>
      </trkpt>
      <trkpt lat="42.31258" lon="2.64803">
        <ele>825.459</ele>
        <time>2013-04-20T13:33:55Z</time>
      </trkpt>
      <trkpt lat="42.31256" lon="2.64817">
        <ele>821.122</ele>
        <time>2013-04-20T13:34:06Z</time>
      </trkpt>
      <trkpt lat="42.31255" lon="2.64817">
        <ele>819.715</ele>
        <time>2013-04-20T13:34:10Z</time>
      </trkpt>
      <trkpt lat="42.31245" lon="2.64806">
        <ele>810.568</ele>
        <time>2013-04-20T13:34:21Z</time>
      </trkpt>
      <trkpt lat="42.31244" lon="2.64801">
        <ele>808.642</ele>
        <time>2013-04-20T13:34:25Z</time>
      </trkpt>
      <trkpt lat="42.31242" lon="2.64803">
        <ele>809.126</ele>
        <time>2013-04-20T13:34:27Z</time>
      </trkpt>
      <trkpt lat="42.31241" lon="2.64814">
        <ele>808.607</ele>
        <time>2013-04-20T13:34:35Z</time>
      </trkpt>
      <trkpt lat="42.31243" lon="2.6482">
        <ele>807.29</ele>
        <time>2013-04-20T13:34:39Z</time>
      </trkpt>
      <trkpt lat="42.31241" lon="2.64829">
        <ele>806.299</ele>
        <time>2013-04-20T13:34:44Z</time>
      </trkpt>
      <trkpt lat="42.31247" lon="2.64842">
        <ele>806.293</ele>
        <time>2013-04-20T13:34:53Z</time>
      </trkpt>
      <trkpt lat="42.31256" lon="2.64861">
        <ele>807.23</ele>
        <time>2013-04-20T13:35:04Z</time>
      </trkpt>
      <trkpt lat="42.31268" lon="2.64884">
        <ele>807.681</ele>
        <time>2013-04-20T13:35:14Z</time>
      </trkpt>
      <trkpt lat="42.31274" lon="2.64891">
        <ele>807.214</ele>
        <time>2013-04-20T13:35:18Z</time>
      </trkpt>
      <trkpt lat="42.31282" lon="2.64903">
        <ele>806.737</ele>
        <time>2013-04-20T13:35:24Z</time>
      </trkpt>
      <trkpt lat="42.31295" lon="2.64922">
        <ele>807.675</ele>
        <time>2013-04-20T13:35:36Z</time>
      </trkpt>
      <trkpt lat="42.31299" lon="2.64931">
        <ele>806.728</ele>
        <time>2013-04-20T13:35:40Z</time>
      </trkpt>
      <trkpt lat="42.31305" lon="2.64943">
        <ele>806.22</ele>
        <time>2013-04-20T13:35:46Z</time>
      </trkpt>
      <trkpt lat="42.31317" lon="2.64956">
        <ele>804.307</ele>
        <time>2013-04-20T13:35:54Z</time>
      </trkpt>
      <trkpt lat="42.31319" lon="2.64961">
        <ele>803.891</ele>
        <time>2013-04-20T13:35:56Z</time>
      </trkpt>
      <trkpt lat="42.31318" lon="2.64971">
        <ele>802.48</ele>
        <time>2013-04-20T13:36:01Z</time>
      </trkpt>
      <trkpt lat="42.31316" lon="2.65003">
        <ele>801.424</ele>
        <time>2013-04-20T13:36:13Z</time>
      </trkpt>
      <trkpt lat="42.31312" lon="2.65019">
        <ele>800.421</ele>
        <time>2013-04-20T13:36:20Z</time>
      </trkpt>
      <trkpt lat="42.3131" lon="2.65025">
        <ele>800.992</ele>
        <time>2013-04-20T13:36:24Z</time>
      </trkpt>
      <trkpt lat="42.31302" lon="2.65054">
        <ele>800.025</ele>
        <time>2013-04-20T13:36:36Z</time>
      </trkpt>
      <trkpt lat="42.31296" lon="2.65066">
        <ele>799.078</ele>
        <time>2013-04-20T13:36:42Z</time>
      </trkpt>
      <trkpt lat="42.3129" lon="2.65087">
        <ele>796.657</ele>
        <time>2013-04-20T13:36:55Z</time>
      </trkpt>
      <trkpt lat="42.31286" lon="2.65096">
        <ele>793.7</ele>
        <time>2013-04-20T13:37:02Z</time>
      </trkpt>
      <trkpt lat="42.31274" lon="2.65105">
        <ele>788.42</ele>
        <time>2013-04-20T13:37:12Z</time>
      </trkpt>
      <trkpt lat="42.31268" lon="2.65121">
        <ele>786.007</ele>
        <time>2013-04-20T13:37:21Z</time>
      </trkpt>
      <trkpt lat="42.31267" lon="2.6512">
        <ele>785.169</ele>
        <time>2013-04-20T13:37:23Z</time>
      </trkpt>
      <trkpt lat="42.31264" lon="2.65119">
        <ele>784.128</ele>
        <time>2013-04-20T13:37:25Z</time>
      </trkpt>
      <trkpt lat="42.31257" lon="2.65123">
        <ele>782.792</ele>
        <time>2013-04-20T13:37:31Z</time>
      </trkpt>
      <trkpt lat="42.31245" lon="2.65146">
        <ele>778.889</ele>
        <time>2013-04-20T13:37:43Z</time>
      </trkpt>
      <trkpt lat="42.31233" lon="2.65161">
        <ele>776.95</ele>
        <time>2013-04-20T13:37:51Z</time>
      </trkpt>
      <trkpt lat="42.31216" lon="2.65184">
        <ele>775.063</ele>
        <time>2013-04-20T13:38:01Z</time>
      </trkpt>
      <trkpt lat="42.31206" lon="2.65186">
        <ele>772.696</ele>
        <time>2013-04-20T13:38:08Z</time>
      </trkpt>
      <trkpt lat="42.31202" lon="2.6518">
        <ele>771.157</ele>
        <time>2013-04-20T13:38:14Z</time>
      </trkpt>
      <trkpt lat="42.31192" lon="2.65167">
        <ele>768.2</ele>
        <time>2013-04-20T13:38:22Z</time>
      </trkpt>
      <trkpt lat="42.31188" lon="2.6516">
        <ele>765.82</ele>
        <time>2013-04-20T13:38:27Z</time>
      </trkpt>
      <trkpt lat="42.31186" lon="2.65161">
        <ele>765.807</ele>
        <time>2013-04-20T13:38:28Z</time>
      </trkpt>
      <trkpt lat="42.31183" lon="2.65159">
        <ele>766.399</ele>
        <time>2013-04-20T13:38:31Z</time>
      </trkpt>
      <trkpt lat="42.31176" lon="2.65155">
        <ele>763.918</ele>
        <time>2013-04-20T13:38:36Z</time>
      </trkpt>
      <trkpt lat="42.31161" lon="2.65161">
        <ele>758.682</ele>
        <time>2013-04-20T13:38:44Z</time>
      </trkpt>
      <trkpt lat="42.31154" lon="2.65172">
        <ele>758.119</ele>
        <time>2013-04-20T13:38:51Z</time>
      </trkpt>
      <trkpt lat="42.31153" lon="2.65201">
        <ele>761.53</ele>
        <time>2013-04-20T13:39:07Z</time>
      </trkpt>
      <trkpt lat="42.31154" lon="2.65205">
        <ele>762.523</ele>
        <time>2013-04-20T13:39:23Z</time>
      </trkpt>
      <trkpt lat="42.31158" lon="2.65211">
        <ele>764.456</ele>
        <time>2013-04-20T13:39:40Z</time>
      </trkpt>
      <trkpt lat="42.31153" lon="2.6521">
        <ele>763.957</ele>
        <time>2013-04-20T13:39:54Z</time>
      </trkpt>
      <trkpt lat="42.3115" lon="2.65207">
        <ele>766.3</ele>
        <time>2013-04-20T13:40:08Z</time>
      </trkpt>
      <trkpt lat="42.31151" lon="2.65207">
        <ele>767.82</ele>
        <time>2013-04-20T13:40:31Z</time>
      </trkpt>
      <trkpt lat="42.31152" lon="2.65206">
        <ele>767.307</ele>
        <time>2013-04-20T13:40:46Z</time>
      </trkpt>
      <trkpt lat="42.31153" lon="2.65208">
        <ele>767.349</ele>
        <time>2013-04-20T13:41:08Z</time>
      </trkpt>
      <trkpt lat="42.31152" lon="2.65209">
        <ele>767.338</ele>
        <time>2013-04-20T13:41:26Z</time>
      </trkpt>
      <trkpt lat="42.31152" lon="2.65209">
        <ele>768.292</ele>
        <time>2013-04-20T13:41:44Z</time>
      </trkpt>
      <trkpt lat="42.31152" lon="2.65211">
        <ele>769.299</ele>
        <time>2013-04-20T13:42:07Z</time>
      </trkpt>
      <trkpt lat="42.31152" lon="2.65209">
        <ele>769.29</ele>
        <time>2013-04-20T13:42:25Z</time>
      </trkpt>
      <trkpt lat="42.31153" lon="2.65208">
        <ele>768.753</ele>
        <time>2013-04-20T13:42:49Z</time>
      </trkpt>
      <trkpt lat="42.31164" lon="2.65224">
        <ele>765.826</ele>
        <time>2013-04-20T13:43:05Z</time>
      </trkpt>
      <trkpt lat="42.31172" lon="2.65241">
        <ele>762.084</ele>
        <time>2013-04-20T13:43:11Z</time>
      </trkpt>
      <trkpt lat="42.31179" lon="2.65269">
        <ele>762.007</ele>
        <time>2013-04-20T13:43:20Z</time>
      </trkpt>
      <trkpt lat="42.31178" lon="2.65311">
        <ele>762.917</ele>
        <time>2013-04-20T13:43:33Z</time>
      </trkpt>
      <trkpt lat="42.31176" lon="2.65317">
        <ele>762.907</ele>
        <time>2013-04-20T13:43:35Z</time>
      </trkpt>
      <trkpt lat="42.31162" lon="2.65324">
        <ele>762.062</ele>
        <time>2013-04-20T13:43:42Z</time>
      </trkpt>
      <trkpt lat="42.31153" lon="2.65323">
        <ele>761.531</ele>
        <time>2013-04-20T13:43:46Z</time>
      </trkpt>
      <trkpt lat="42.31128" lon="2.65339">
        <ele>760.175</ele>
        <time>2013-04-20T13:43:57Z</time>
      </trkpt>
      <trkpt lat="42.31106" lon="2.65368">
        <ele>758.122</ele>
        <time>2013-04-20T13:44:10Z</time>
      </trkpt>
      <trkpt lat="42.31094" lon="2.65388">
        <ele>755.723</ele>
        <time>2013-04-20T13:44:20Z</time>
      </trkpt>
      <trkpt lat="42.31092" lon="2.6539">
        <ele>755.316</ele>
        <time>2013-04-20T13:44:22Z</time>
      </trkpt>
      <trkpt lat="42.31083" lon="2.65402">
        <ele>753.349</ele>
        <time>2013-04-20T13:44:37Z</time>
      </trkpt>
      <trkpt lat="42.31085" lon="2.65407">
        <ele>752.439</ele>
        <time>2013-04-20T13:44:56Z</time>
      </trkpt>
      <trkpt lat="42.31087" lon="2.6541">
        <ele>751.901</ele>
        <time>2013-04-20T13:45:10Z</time>
      </trkpt>
      <trkpt lat="42.31087" lon="2.65413">
        <ele>751.421</ele>
        <time>2013-04-20T13:45:26Z</time>
      </trkpt>
      <trkpt lat="42.31089" lon="2.65413">
        <ele>751.907</ele>
        <time>2013-04-20T13:45:43Z</time>
      </trkpt>
      <trkpt lat="42.31085" lon="2.65414">
        <ele>752.477</ele>
        <time>2013-04-20T13:45:58Z</time>
      </trkpt>
      <trkpt lat="42.31081" lon="2.65408">
        <ele>752.946</ele>
        <time>2013-04-20T13:46:13Z</time>
      </trkpt>
      <trkpt lat="42.3108" lon="2.65403">
        <ele>751.43</ele>
        <time>2013-04-20T13:46:25Z</time>
      </trkpt>
      <trkpt lat="42.3108" lon="2.65404">
        <ele>751.987</ele>
        <time>2013-04-20T13:46:42Z</time>
      </trkpt>
      <trkpt lat="42.31081" lon="2.65405">
        <ele>755.368</ele>
        <time>2013-04-20T13:47:00Z</time>
      </trkpt>
      <trkpt lat="42.31083" lon="2.65409">
        <ele>759.151</ele>
        <time>2013-04-20T13:47:22Z</time>
      </trkpt>
      <trkpt lat="42.31078" lon="2.65411">
        <ele>760.154</ele>
        <time>2013-04-20T13:47:38Z</time>
      </trkpt>
      <trkpt lat="42.31068" lon="2.65422">
        <ele>758.114</ele>
        <time>2013-04-20T13:47:54Z</time>
      </trkpt>
      <trkpt lat="42.31065" lon="2.65433">
        <ele>756.254</ele>
        <time>2013-04-20T13:48:00Z</time>
      </trkpt>
      <trkpt lat="42.31058" lon="2.65443">
        <ele>754.809</ele>
        <time>2013-04-20T13:48:17Z</time>
      </trkpt>
      <trkpt lat="42.31054" lon="2.65452">
        <ele>753.307</ele>
        <time>2013-04-20T13:48:28Z</time>
      </trkpt>
      <trkpt lat="42.3105" lon="2.65463">
        <ele>750.035</ele>
        <time>2013-04-20T13:48:42Z</time>
      </trkpt>
      <trkpt lat="42.31044" lon="2.65469">
        <ele>746.194</ele>
        <time>2013-04-20T13:48:58Z</time>
      </trkpt>
      <trkpt lat="42.31042" lon="2.6547">
        <ele>745.628</ele>
        <time>2013-04-20T13:49:00Z</time>
      </trkpt>
      <trkpt lat="42.31034" lon="2.65475">
        <ele>741.315</ele>
        <time>2013-04-20T13:49:09Z</time>
      </trkpt>
      <trkpt lat="42.31028" lon="2.65486">
        <ele>740.416</ele>
        <time>2013-04-20T13:49:19Z</time>
      </trkpt>
      <trkpt lat="42.31018" lon="2.65491">
        <ele>738.929</ele>
        <time>2013-04-20T13:49:30Z</time>
      </trkpt>
      <trkpt lat="42.3101" lon="2.65502">
        <ele>735.662</ele>
        <time>2013-04-20T13:49:40Z</time>
      </trkpt>
      <trkpt lat="42.31005" lon="2.65509">
        <ele>731.214</ele>
        <time>2013-04-20T13:49:53Z</time>
      </trkpt>
      <trkpt lat="42.31003" lon="2.65516">
        <ele>728.354</ele>
        <time>2013-04-20T13:50:03Z</time>
      </trkpt>
      <trkpt lat="42.30998" lon="2.6553">
        <ele>727.909</ele>
        <time>2013-04-20T13:50:15Z</time>
      </trkpt>
      <trkpt lat="42.30997" lon="2.6553">
        <ele>727.407</ele>
        <time>2013-04-20T13:50:16Z</time>
      </trkpt>
      <trkpt lat="42.30991" lon="2.65533">
        <ele>725.595</ele>
        <time>2013-04-20T13:50:23Z</time>
      </trkpt>
      <trkpt lat="42.30988" lon="2.65535">
        <ele>724.544</ele>
        <time>2013-04-20T13:50:26Z</time>
      </trkpt>
      <trkpt lat="42.30979" lon="2.65539">
        <ele>722.158</ele>
        <time>2013-04-20T13:50:34Z</time>
      </trkpt>
      <trkpt lat="42.30956" lon="2.65523">
        <ele>718.765</ele>
        <time>2013-04-20T13:50:46Z</time>
      </trkpt>
      <trkpt lat="42.30944" lon="2.65519">
        <ele>717.386</ele>
        <time>2013-04-20T13:50:51Z</time>
      </trkpt>
      <trkpt lat="42.30926" lon="2.65494">
        <ele>714.999</ele>
        <time>2013-04-20T13:51:02Z</time>
      </trkpt>
      <trkpt lat="42.30923" lon="2.65471">
        <ele>714.482</ele>
        <time>2013-04-20T13:51:10Z</time>
      </trkpt>
      <trkpt lat="42.3091" lon="2.65436">
        <ele>714.489</ele>
        <time>2013-04-20T13:51:23Z</time>
      </trkpt>
      <trkpt lat="42.30903" lon="2.6543">
        <ele>713.406</ele>
        <time>2013-04-20T13:51:27Z</time>
      </trkpt>
      <trkpt lat="42.30891" lon="2.65424">
        <ele>710.626</ele>
        <time>2013-04-20T13:51:33Z</time>
      </trkpt>
      <trkpt lat="42.30879" lon="2.65417">
        <ele>709.607</ele>
        <time>2013-04-20T13:51:38Z</time>
      </trkpt>
      <trkpt lat="42.30871" lon="2.65412">
        <ele>709.642</ele>
        <time>2013-04-20T13:51:42Z</time>
      </trkpt>
      <trkpt lat="42.30847" lon="2.65415">
        <ele>710.121</ele>
        <time>2013-04-20T13:51:53Z</time>
      </trkpt>
      <trkpt lat="42.30822" lon="2.65426">
        <ele>710.185</ele>
        <time>2013-04-20T13:52:04Z</time>
      </trkpt>
      <trkpt lat="42.30813" lon="2.6543">
        <ele>710.122</ele>
        <time>2013-04-20T13:52:08Z</time>
      </trkpt>
      <trkpt lat="42.30792" lon="2.6544">
        <ele>708.623</ele>
        <time>2013-04-20T13:52:18Z</time>
      </trkpt>
      <trkpt lat="42.30768" lon="2.6545">
        <ele>709.156</ele>
        <time>2013-04-20T13:52:28Z</time>
      </trkpt>
      <trkpt lat="42.30747" lon="2.65458">
        <ele>706.779</ele>
        <time>2013-04-20T13:52:36Z</time>
      </trkpt>
      <trkpt lat="42.30739" lon="2.65464">
        <ele>704.372</ele>
        <time>2013-04-20T13:52:40Z</time>
      </trkpt>
      <trkpt lat="42.30732" lon="2.65468">
        <ele>703.313</ele>
        <time>2013-04-20T13:52:43Z</time>
      </trkpt>
      <trkpt lat="42.30722" lon="2.65474">
        <ele>700.914</ele>
        <time>2013-04-20T13:52:47Z</time>
      </trkpt>
      <trkpt lat="42.30713" lon="2.65471">
        <ele>698.507</ele>
        <time>2013-04-20T13:52:51Z</time>
      </trkpt>
      <trkpt lat="42.30681" lon="2.65485">
        <ele>697.131</ele>
        <time>2013-04-20T13:53:02Z</time>
      </trkpt>
      <trkpt lat="42.3065" lon="2.65498">
        <ele>694.79</ele>
        <time>2013-04-20T13:53:13Z</time>
      </trkpt>
      <trkpt lat="42.30619" lon="2.65502">
        <ele>695.224</ele>
        <time>2013-04-20T13:53:24Z</time>
      </trkpt>
      <trkpt lat="42.30596" lon="2.65517">
        <ele>697.191</ele>
        <time>2013-04-20T13:53:33Z</time>
      </trkpt>
      <trkpt lat="42.30573" lon="2.65531">
        <ele>694.212</ele>
        <time>2013-04-20T13:53:43Z</time>
      </trkpt>
      <trkpt lat="42.30558" lon="2.65537">
        <ele>694.265</ele>
        <time>2013-04-20T13:53:49Z</time>
      </trkpt>
      <trkpt lat="42.30545" lon="2.65544">
        <ele>693.798</ele>
        <time>2013-04-20T13:53:54Z</time>
      </trkpt>
      <trkpt lat="42.3052" lon="2.65552">
        <ele>693.744</ele>
        <time>2013-04-20T13:54:03Z</time>
      </trkpt>
      <trkpt lat="42.30505" lon="2.65558">
        <ele>694.205</ele>
        <time>2013-04-20T13:54:08Z</time>
      </trkpt>
      <trkpt lat="42.30478" lon="2.65576">
        <ele>692.815</ele>
        <time>2013-04-20T13:54:19Z</time>
      </trkpt>
      <trkpt lat="42.30457" lon="2.65593">
        <ele>688.007</ele>
        <time>2013-04-20T13:54:28Z</time>
      </trkpt>
      <trkpt lat="42.30435" lon="2.65615">
        <ele>684.638</ele>
        <time>2013-04-20T13:54:38Z</time>
      </trkpt>
      <trkpt lat="42.30433" lon="2.65617">
        <ele>684.137</ele>
        <time>2013-04-20T13:54:39Z</time>
      </trkpt>
      <trkpt lat="42.30424" lon="2.65636">
        <ele>684.111</ele>
        <time>2013-04-20T13:54:46Z</time>
      </trkpt>
      <trkpt lat="42.30413" lon="2.65655">
        <ele>688.098</ele>
        <time>2013-04-20T13:54:58Z</time>
      </trkpt>
      <trkpt lat="42.30408" lon="2.65684">
        <ele>688.969</ele>
        <time>2013-04-20T13:55:13Z</time>
      </trkpt>
      <trkpt lat="42.30403" lon="2.6571">
        <ele>692.322</ele>
        <time>2013-04-20T13:55:27Z</time>
      </trkpt>
      <trkpt lat="42.30394" lon="2.65737">
        <ele>696.155</ele>
        <time>2013-04-20T13:55:42Z</time>
      </trkpt>
      <trkpt lat="42.30386" lon="2.65768">
        <ele>698.138</ele>
        <time>2013-04-20T13:55:58Z</time>
      </trkpt>
      <trkpt lat="42.30376" lon="2.65793">
        <ele>700.57</ele>
        <time>2013-04-20T13:56:12Z</time>
      </trkpt>
      <trkpt lat="42.3037" lon="2.65806">
        <ele>701.417</ele>
        <time>2013-04-20T13:56:20Z</time>
      </trkpt>
      <trkpt lat="42.3036" lon="2.65824">
        <ele>702.407</ele>
        <time>2013-04-20T13:56:31Z</time>
      </trkpt>
      <trkpt lat="42.30357" lon="2.65832">
        <ele>703.877</ele>
        <time>2013-04-20T13:56:35Z</time>
      </trkpt>
      <trkpt lat="42.30344" lon="2.65858">
        <ele>707.726</ele>
        <time>2013-04-20T13:56:50Z</time>
      </trkpt>
      <trkpt lat="42.30331" lon="2.65885">
        <ele>710.64</ele>
        <time>2013-04-20T13:57:04Z</time>
      </trkpt>
      <trkpt lat="42.30325" lon="2.65897">
        <ele>711.547</ele>
        <time>2013-04-20T13:57:10Z</time>
      </trkpt>
      <trkpt lat="42.30321" lon="2.65905">
        <ele>711.088</ele>
        <time>2013-04-20T13:57:15Z</time>
      </trkpt>
      <trkpt lat="42.30315" lon="2.6592">
        <ele>712.021</ele>
        <time>2013-04-20T13:57:25Z</time>
      </trkpt>
      <trkpt lat="42.30314" lon="2.65923">
        <ele>712.074</ele>
        <time>2013-04-20T13:57:27Z</time>
      </trkpt>
      <trkpt lat="42.30298" lon="2.65949">
        <ele>714.979</ele>
        <time>2013-04-20T13:57:42Z</time>
      </trkpt>
      <trkpt lat="42.30287" lon="2.65967">
        <ele>715.405</ele>
        <time>2013-04-20T13:57:52Z</time>
      </trkpt>
      <trkpt lat="42.30272" lon="2.65977">
        <ele>714.425</ele>
        <time>2013-04-20T13:58:03Z</time>
      </trkpt>
      <trkpt lat="42.30252" lon="2.65991">
        <ele>713.407</ele>
        <time>2013-04-20T13:58:17Z</time>
      </trkpt>
      <trkpt lat="42.30234" lon="2.66">
        <ele>712.011</ele>
        <time>2013-04-20T13:58:28Z</time>
      </trkpt>
      <trkpt lat="42.30218" lon="2.66011">
        <ele>715.49</ele>
        <time>2013-04-20T13:58:39Z</time>
      </trkpt>
      <trkpt lat="42.302" lon="2.66018">
        <ele>717.374</ele>
        <time>2013-04-20T13:58:50Z</time>
      </trkpt>
      <trkpt lat="42.30192" lon="2.66021">
        <ele>716.811</ele>
        <time>2013-04-20T13:58:57Z</time>
      </trkpt>
      <trkpt lat="42.30172" lon="2.66025">
        <ele>717.392</ele>
        <time>2013-04-20T13:59:09Z</time>
      </trkpt>
      <trkpt lat="42.3015" lon="2.66028">
        <ele>719.745</ele>
        <time>2013-04-20T13:59:23Z</time>
      </trkpt>
      <trkpt lat="42.30149" lon="2.66029">
        <ele>719.778</ele>
        <time>2013-04-20T13:59:24Z</time>
      </trkpt>
      <trkpt lat="42.30127" lon="2.66017">
        <ele>718.281</ele>
        <time>2013-04-20T13:59:37Z</time>
      </trkpt>
      <trkpt lat="42.30106" lon="2.66016">
        <ele>716.861</ele>
        <time>2013-04-20T13:59:46Z</time>
      </trkpt>
      <trkpt lat="42.30084" lon="2.66023">
        <ele>721.117</ele>
        <time>2013-04-20T13:59:59Z</time>
      </trkpt>
      <trkpt lat="42.30072" lon="2.6603">
        <ele>723.107</ele>
        <time>2013-04-20T14:00:08Z</time>
      </trkpt>
      <trkpt lat="42.30047" lon="2.66056">
        <ele>726.952</ele>
        <time>2013-04-20T14:00:26Z</time>
      </trkpt>
      <trkpt lat="42.30036" lon="2.66071">
        <ele>728.331</ele>
        <time>2013-04-20T14:00:36Z</time>
      </trkpt>
      <trkpt lat="42.3003" lon="2.66076">
        <ele>728.335</ele>
        <time>2013-04-20T14:00:40Z</time>
      </trkpt>
      <trkpt lat="42.30012" lon="2.66086">
        <ele>725.092</ele>
        <time>2013-04-20T14:00:52Z</time>
      </trkpt>
      <trkpt lat="42.30006" lon="2.66087">
        <ele>724.073</ele>
        <time>2013-04-20T14:00:56Z</time>
      </trkpt>
      <trkpt lat="42.29987" lon="2.66094">
        <ele>725.596</ele>
        <time>2013-04-20T14:01:08Z</time>
      </trkpt>
      <trkpt lat="42.29983" lon="2.66095">
        <ele>725.549</ele>
        <time>2013-04-20T14:01:11Z</time>
      </trkpt>
      <trkpt lat="42.29973" lon="2.66099">
        <ele>725.946</ele>
        <time>2013-04-20T14:01:17Z</time>
      </trkpt>
      <trkpt lat="42.29951" lon="2.66107">
        <ele>724.588</ele>
        <time>2013-04-20T14:01:31Z</time>
      </trkpt>
      <trkpt lat="42.29947" lon="2.6611">
        <ele>725.016</ele>
        <time>2013-04-20T14:01:33Z</time>
      </trkpt>
      <trkpt lat="42.29945" lon="2.6611">
        <ele>725.007</ele>
        <time>2013-04-20T14:01:34Z</time>
      </trkpt>
      <trkpt lat="42.29944" lon="2.66111">
        <ele>725.018</ele>
        <time>2013-04-20T14:01:35Z</time>
      </trkpt>
      <trkpt lat="42.29938" lon="2.66114">
        <ele>725.087</ele>
        <time>2013-04-20T14:01:39Z</time>
      </trkpt>
      <trkpt lat="42.2993" lon="2.66145">
        <ele>728.351</ele>
        <time>2013-04-20T14:01:51Z</time>
      </trkpt>
      <trkpt lat="42.2993" lon="2.6615">
        <ele>729.368</ele>
        <time>2013-04-20T14:01:53Z</time>
      </trkpt>
      <trkpt lat="42.29916" lon="2.66171">
        <ele>731.729</ele>
        <time>2013-04-20T14:02:05Z</time>
      </trkpt>
      <trkpt lat="42.29909" lon="2.66175">
        <ele>730.792</ele>
        <time>2013-04-20T14:02:09Z</time>
      </trkpt>
      <trkpt lat="42.29898" lon="2.66186">
        <ele>729.375</ele>
        <time>2013-04-20T14:02:15Z</time>
      </trkpt>
      <trkpt lat="42.29883" lon="2.66199">
        <ele>727.955</ele>
        <time>2013-04-20T14:02:23Z</time>
      </trkpt>
      <trkpt lat="42.29875" lon="2.66205">
        <ele>729.307</ele>
        <time>2013-04-20T14:02:27Z</time>
      </trkpt>
      <trkpt lat="42.29865" lon="2.66211">
        <ele>730.317</ele>
        <time>2013-04-20T14:02:32Z</time>
      </trkpt>
      <trkpt lat="42.29842" lon="2.66221">
        <ele>733.107</ele>
        <time>2013-04-20T14:02:43Z</time>
      </trkpt>
      <trkpt lat="42.2982" lon="2.66227">
        <ele>733.189</ele>
        <time>2013-04-20T14:02:53Z</time>
      </trkpt>
      <trkpt lat="42.29804" lon="2.66231">
        <ele>729.888</ele>
        <time>2013-04-20T14:03:01Z</time>
      </trkpt>
      <trkpt lat="42.29798" lon="2.66233">
        <ele>729.372</ele>
        <time>2013-04-20T14:03:04Z</time>
      </trkpt>
      <trkpt lat="42.2979" lon="2.66236">
        <ele>728.899</ele>
        <time>2013-04-20T14:03:08Z</time>
      </trkpt>
      <trkpt lat="42.29767" lon="2.66249">
        <ele>728.35</ele>
        <time>2013-04-20T14:03:21Z</time>
      </trkpt>
      <trkpt lat="42.29763" lon="2.66251">
        <ele>728.353</ele>
        <time>2013-04-20T14:03:23Z</time>
      </trkpt>
      <trkpt lat="42.29761" lon="2.66253">
        <ele>728.346</ele>
        <time>2013-04-20T14:03:25Z</time>
      </trkpt>
      <trkpt lat="42.29752" lon="2.66258">
        <ele>729.314</ele>
        <time>2013-04-20T14:03:29Z</time>
      </trkpt>
      <trkpt lat="42.29743" lon="2.66266">
        <ele>729.854</ele>
        <time>2013-04-20T14:03:34Z</time>
      </trkpt>
      <trkpt lat="42.29728" lon="2.66285">
        <ele>731.709</ele>
        <time>2013-04-20T14:03:44Z</time>
      </trkpt>
      <trkpt lat="42.29714" lon="2.663">
        <ele>732.707</ele>
        <time>2013-04-20T14:03:53Z</time>
      </trkpt>
      <trkpt lat="42.2971" lon="2.66304">
        <ele>733.135</ele>
        <time>2013-04-20T14:03:56Z</time>
      </trkpt>
      <trkpt lat="42.29693" lon="2.66325">
        <ele>734.694</ele>
        <time>2013-04-20T14:04:07Z</time>
      </trkpt>
      <trkpt lat="42.29681" lon="2.66348">
        <ele>736.058</ele>
        <time>2013-04-20T14:04:17Z</time>
      </trkpt>
      <trkpt lat="42.29675" lon="2.66355">
        <ele>736.565</ele>
        <time>2013-04-20T14:04:21Z</time>
      </trkpt>
      <trkpt lat="42.29658" lon="2.66368">
        <ele>739.426</ele>
        <time>2013-04-20T14:04:31Z</time>
      </trkpt>
      <trkpt lat="42.29653" lon="2.66374">
        <ele>738.989</ele>
        <time>2013-04-20T14:04:35Z</time>
      </trkpt>
      <trkpt lat="42.29639" lon="2.66385">
        <ele>739.442</ele>
        <time>2013-04-20T14:04:43Z</time>
      </trkpt>
      <trkpt lat="42.2963" lon="2.66394">
        <ele>739.449</ele>
        <time>2013-04-20T14:04:48Z</time>
      </trkpt>
      <trkpt lat="42.29615" lon="2.66409">
        <ele>737.502</ele>
        <time>2013-04-20T14:04:56Z</time>
      </trkpt>
      <trkpt lat="42.29599" lon="2.66442">
        <ele>733.622</ele>
        <time>2013-04-20T14:05:09Z</time>
      </trkpt>
      <trkpt lat="42.29594" lon="2.66465">
        <ele>733.107</ele>
        <time>2013-04-20T14:05:16Z</time>
      </trkpt>
      <trkpt lat="42.29587" lon="2.66483">
        <ele>733.658</ele>
        <time>2013-04-20T14:05:23Z</time>
      </trkpt>
      <trkpt lat="42.29585" lon="2.66501">
        <ele>735.137</ele>
        <time>2013-04-20T14:05:29Z</time>
      </trkpt>
      <trkpt lat="42.29583" lon="2.66515">
        <ele>736.511</ele>
        <time>2013-04-20T14:05:33Z</time>
      </trkpt>
      <trkpt lat="42.29583" lon="2.66518">
        <ele>737.058</ele>
        <time>2013-04-20T14:05:35Z</time>
      </trkpt>
      <trkpt lat="42.29579" lon="2.66544">
        <ele>740.439</ele>
        <time>2013-04-20T14:05:43Z</time>
      </trkpt>
      <trkpt lat="42.29576" lon="2.66573">
        <ele>739.932</ele>
        <time>2013-04-20T14:05:57Z</time>
      </trkpt>
      <trkpt lat="42.2957" lon="2.666">
        <ele>738.015</ele>
        <time>2013-04-20T14:06:12Z</time>
      </trkpt>
      <trkpt lat="42.29563" lon="2.66625">
        <ele>743.283</ele>
        <time>2013-04-20T14:06:25Z</time>
      </trkpt>
      <trkpt lat="42.2955" lon="2.66652">
        <ele>746.125</ele>
        <time>2013-04-20T14:06:40Z</time>
      </trkpt>
      <trkpt lat="42.29543" lon="2.66662">
        <ele>747.617</ele>
        <time>2013-04-20T14:06:47Z</time>
      </trkpt>
      <trkpt lat="42.29527" lon="2.66686">
        <ele>752.907</ele>
        <time>2013-04-20T14:07:03Z</time>
      </trkpt>
      <trkpt lat="42.29512" lon="2.66711">
        <ele>756.222</ele>
        <time>2013-04-20T14:07:19Z</time>
      </trkpt>
      <trkpt lat="42.29495" lon="2.66735">
        <ele>759.181</ele>
        <time>2013-04-20T14:07:34Z</time>
      </trkpt>
      <trkpt lat="42.29477" lon="2.6675">
        <ele>764.465</ele>
        <time>2013-04-20T14:07:44Z</time>
      </trkpt>
      <trkpt lat="42.29458" lon="2.66762">
        <ele>764.972</ele>
        <time>2013-04-20T14:07:56Z</time>
      </trkpt>
      <trkpt lat="42.29441" lon="2.66778">
        <ele>765.483</ele>
        <time>2013-04-20T14:08:10Z</time>
      </trkpt>
      <trkpt lat="42.29443" lon="2.66802">
        <ele>767.896</ele>
        <time>2013-04-20T14:08:25Z</time>
      </trkpt>
      <trkpt lat="42.29451" lon="2.66827">
        <ele>772.619</ele>
        <time>2013-04-20T14:08:39Z</time>
      </trkpt>
      <trkpt lat="42.29451" lon="2.66829">
        <ele>772.668</ele>
        <time>2013-04-20T14:08:40Z</time>
      </trkpt>
      <trkpt lat="42.29458" lon="2.66856">
        <ele>775.042</ele>
        <time>2013-04-20T14:08:55Z</time>
      </trkpt>
      <trkpt lat="42.29461" lon="2.66865">
        <ele>775.426</ele>
        <time>2013-04-20T14:08:59Z</time>
      </trkpt>
      <trkpt lat="42.29463" lon="2.66873">
        <ele>775.007</ele>
        <time>2013-04-20T14:09:03Z</time>
      </trkpt>
      <trkpt lat="42.29471" lon="2.66902">
        <ele>776.47</ele>
        <time>2013-04-20T14:09:18Z</time>
      </trkpt>
      <trkpt lat="42.29477" lon="2.66928">
        <ele>779.349</ele>
        <time>2013-04-20T14:09:32Z</time>
      </trkpt>
      <trkpt lat="42.29487" lon="2.66953">
        <ele>783.623</ele>
        <time>2013-04-20T14:09:45Z</time>
      </trkpt>
      <trkpt lat="42.29497" lon="2.66984">
        <ele>784.15</ele>
        <time>2013-04-20T14:10:01Z</time>
      </trkpt>
      <trkpt lat="42.29499" lon="2.67016">
        <ele>785.131</ele>
        <time>2013-04-20T14:10:15Z</time>
      </trkpt>
      <trkpt lat="42.29494" lon="2.67043">
        <ele>781.774</ele>
        <time>2013-04-20T14:10:25Z</time>
      </trkpt>
      <trkpt lat="42.29494" lon="2.6706">
        <ele>780.327</ele>
        <time>2013-04-20T14:10:31Z</time>
      </trkpt>
      <trkpt lat="42.29502" lon="2.67091">
        <ele>783.671</ele>
        <time>2013-04-20T14:10:45Z</time>
      </trkpt>
      <trkpt lat="42.29504" lon="2.67095">
        <ele>784.641</ele>
        <time>2013-04-20T14:10:47Z</time>
      </trkpt>
      <trkpt lat="42.29509" lon="2.67124">
        <ele>788.415</ele>
        <time>2013-04-20T14:11:00Z</time>
      </trkpt>
      <trkpt lat="42.29513" lon="2.67144">
        <ele>789.407</ele>
        <time>2013-04-20T14:11:10Z</time>
      </trkpt>
      <trkpt lat="42.29515" lon="2.67155">
        <ele>789.471</ele>
        <time>2013-04-20T14:11:15Z</time>
      </trkpt>
      <trkpt lat="42.29521" lon="2.67189">
        <ele>789.95</ele>
        <time>2013-04-20T14:11:31Z</time>
      </trkpt>
      <trkpt lat="42.29522" lon="2.67211">
        <ele>790.384</ele>
        <time>2013-04-20T14:11:41Z</time>
      </trkpt>
      <trkpt lat="42.29524" lon="2.67248">
        <ele>788.921</ele>
        <time>2013-04-20T14:11:58Z</time>
      </trkpt>
      <trkpt lat="42.29521" lon="2.67278">
        <ele>788.452</ele>
        <time>2013-04-20T14:12:09Z</time>
      </trkpt>
      <trkpt lat="42.29516" lon="2.67308">
        <ele>788.495</ele>
        <time>2013-04-20T14:12:19Z</time>
      </trkpt>
      <trkpt lat="42.29506" lon="2.67335">
        <ele>785.568</ele>
        <time>2013-04-20T14:12:30Z</time>
      </trkpt>
      <trkpt lat="42.29505" lon="2.6734">
        <ele>785.122</ele>
        <time>2013-04-20T14:12:32Z</time>
      </trkpt>
      <trkpt lat="42.295" lon="2.67355">
        <ele>784.162</ele>
        <time>2013-04-20T14:12:38Z</time>
      </trkpt>
      <trkpt lat="42.29491" lon="2.67387">
        <ele>782.708</ele>
        <time>2013-04-20T14:12:51Z</time>
      </trkpt>
      <trkpt lat="42.29483" lon="2.67422">
        <ele>782.207</ele>
        <time>2013-04-20T14:13:02Z</time>
      </trkpt>
      <trkpt lat="42.29476" lon="2.67457">
        <ele>777.886</ele>
        <time>2013-04-20T14:13:14Z</time>
      </trkpt>
      <trkpt lat="42.29481" lon="2.67493">
        <ele>779.875</ele>
        <time>2013-04-20T14:13:25Z</time>
      </trkpt>
      <trkpt lat="42.29485" lon="2.6753">
        <ele>787.089</ele>
        <time>2013-04-20T14:13:35Z</time>
      </trkpt>
      <trkpt lat="42.29486" lon="2.67561">
        <ele>792.326</ele>
        <time>2013-04-20T14:13:45Z</time>
      </trkpt>
      <trkpt lat="42.29488" lon="2.67583">
        <ele>791.837</ele>
        <time>2013-04-20T14:13:54Z</time>
      </trkpt>
      <trkpt lat="42.29489" lon="2.67598">
        <ele>791.89</ele>
        <time>2013-04-20T14:14:00Z</time>
      </trkpt>
      <trkpt lat="42.2949" lon="2.67632">
        <ele>795.683</ele>
        <time>2013-04-20T14:14:14Z</time>
      </trkpt>
      <trkpt lat="42.29492" lon="2.67656">
        <ele>797.641</ele>
        <time>2013-04-20T14:14:25Z</time>
      </trkpt>
      <trkpt lat="42.29494" lon="2.67671">
        <ele>799.081</ele>
        <time>2013-04-20T14:14:32Z</time>
      </trkpt>
      <trkpt lat="42.29501" lon="2.67711">
        <ele>800.009</ele>
        <time>2013-04-20T14:14:49Z</time>
      </trkpt>
      <trkpt lat="42.29507" lon="2.67745">
        <ele>801.407</ele>
        <time>2013-04-20T14:15:00Z</time>
      </trkpt>
      <trkpt lat="42.29514" lon="2.67775">
        <ele>803.888</ele>
        <time>2013-04-20T14:15:10Z</time>
      </trkpt>
      <trkpt lat="42.29524" lon="2.67805">
        <ele>805.747</ele>
        <time>2013-04-20T14:15:20Z</time>
      </trkpt>
      <trkpt lat="42.29541" lon="2.67837">
        <ele>800.931</ele>
        <time>2013-04-20T14:15:32Z</time>
      </trkpt>
      <trkpt lat="42.29559" lon="2.67867">
        <ele>795.258</ele>
        <time>2013-04-20T14:15:43Z</time>
      </trkpt>
      <trkpt lat="42.29576" lon="2.67894">
        <ele>793.779</ele>
        <time>2013-04-20T14:15:53Z</time>
      </trkpt>
      <trkpt lat="42.29594" lon="2.67913">
        <ele>794.762</ele>
        <time>2013-04-20T14:16:03Z</time>
      </trkpt>
      <trkpt lat="42.29616" lon="2.67931">
        <ele>792.375</ele>
        <time>2013-04-20T14:16:14Z</time>
      </trkpt>
      <trkpt lat="42.29631" lon="2.67969">
        <ele>787.913</ele>
        <time>2013-04-20T14:16:26Z</time>
      </trkpt>
      <trkpt lat="42.2963" lon="2.67999">
        <ele>781.743</ele>
        <time>2013-04-20T14:16:37Z</time>
      </trkpt>
      <trkpt lat="42.29632" lon="2.68003">
        <ele>780.307</ele>
        <time>2013-04-20T14:16:40Z</time>
      </trkpt>
      <trkpt lat="42.29638" lon="2.68031">
        <ele>781.707</ele>
        <time>2013-04-20T14:16:48Z</time>
      </trkpt>
      <trkpt lat="42.29649" lon="2.68047">
        <ele>783.195</ele>
        <time>2013-04-20T14:16:59Z</time>
      </trkpt>
      <trkpt lat="42.29659" lon="2.68055">
        <ele>783.184</ele>
        <time>2013-04-20T14:17:04Z</time>
      </trkpt>
      <trkpt lat="42.29672" lon="2.68081">
        <ele>784.668</ele>
        <time>2013-04-20T14:17:15Z</time>
      </trkpt>
      <trkpt lat="42.29686" lon="2.68113">
        <ele>785.535</ele>
        <time>2013-04-20T14:17:26Z</time>
      </trkpt>
      <trkpt lat="42.29698" lon="2.68142">
        <ele>787.946</ele>
        <time>2013-04-20T14:17:36Z</time>
      </trkpt>
      <trkpt lat="42.29708" lon="2.68165">
        <ele>789.969</ele>
        <time>2013-04-20T14:17:46Z</time>
      </trkpt>
      <trkpt lat="42.29712" lon="2.68177">
        <ele>789.492</ele>
        <time>2013-04-20T14:17:52Z</time>
      </trkpt>
      <trkpt lat="42.29713" lon="2.68189">
        <ele>787.932</ele>
        <time>2013-04-20T14:17:56Z</time>
      </trkpt>
      <trkpt lat="42.29713" lon="2.68195">
        <ele>787.992</ele>
        <time>2013-04-20T14:17:58Z</time>
      </trkpt>
      <trkpt lat="42.29715" lon="2.68207">
        <ele>788.911</ele>
        <time>2013-04-20T14:18:03Z</time>
      </trkpt>
      <trkpt lat="42.2972" lon="2.68238">
        <ele>790.307</ele>
        <time>2013-04-20T14:18:15Z</time>
      </trkpt>
      <trkpt lat="42.29725" lon="2.68266">
        <ele>790.387</ele>
        <time>2013-04-20T14:18:23Z</time>
      </trkpt>
      <trkpt lat="42.29723" lon="2.68301">
        <ele>789.996</ele>
        <time>2013-04-20T14:18:34Z</time>
      </trkpt>
      <trkpt lat="42.29718" lon="2.68331">
        <ele>790.32</ele>
        <time>2013-04-20T14:18:43Z</time>
      </trkpt>
      <trkpt lat="42.29716" lon="2.68343">
        <ele>790.887</ele>
        <time>2013-04-20T14:18:47Z</time>
      </trkpt>
      <trkpt lat="42.29715" lon="2.6835">
        <ele>791.398</ele>
        <time>2013-04-20T14:18:51Z</time>
      </trkpt>
      <trkpt lat="42.29707" lon="2.68362">
        <ele>792.351</ele>
        <time>2013-04-20T14:18:59Z</time>
      </trkpt>
      <trkpt lat="42.29705" lon="2.68365">
        <ele>792.384</ele>
        <time>2013-04-20T14:19:02Z</time>
      </trkpt>
      <trkpt lat="42.29692" lon="2.68386">
        <ele>792.324</ele>
        <time>2013-04-20T14:19:11Z</time>
      </trkpt>
      <trkpt lat="42.29681" lon="2.68408">
        <ele>792.304</ele>
        <time>2013-04-20T14:19:22Z</time>
      </trkpt>
      <trkpt lat="42.2967" lon="2.68432">
        <ele>791.814</ele>
        <time>2013-04-20T14:19:32Z</time>
      </trkpt>
      <trkpt lat="42.29661" lon="2.6846">
        <ele>791.807</ele>
        <time>2013-04-20T14:19:41Z</time>
      </trkpt>
      <trkpt lat="42.2965" lon="2.68488">
        <ele>791.336</ele>
        <time>2013-04-20T14:19:51Z</time>
      </trkpt>
      <trkpt lat="42.2965" lon="2.6849">
        <ele>791.355</ele>
        <time>2013-04-20T14:19:52Z</time>
      </trkpt>
      <trkpt lat="42.29647" lon="2.68496">
        <ele>791.339</ele>
        <time>2013-04-20T14:19:55Z</time>
      </trkpt>
      <trkpt lat="42.29639" lon="2.68524">
        <ele>791.886</ele>
        <time>2013-04-20T14:20:05Z</time>
      </trkpt>
      <trkpt lat="42.29638" lon="2.68529">
        <ele>791.847</ele>
        <time>2013-04-20T14:20:07Z</time>
      </trkpt>
      <trkpt lat="42.29633" lon="2.68538">
        <ele>792.33</ele>
        <time>2013-04-20T14:20:14Z</time>
      </trkpt>
      <trkpt lat="42.29622" lon="2.68575">
        <ele>791.353</ele>
        <time>2013-04-20T14:20:28Z</time>
      </trkpt>
      <trkpt lat="42.29617" lon="2.68608">
        <ele>791.872</ele>
        <time>2013-04-20T14:20:42Z</time>
      </trkpt>
      <trkpt lat="42.29615" lon="2.68646">
        <ele>798.513</ele>
        <time>2013-04-20T14:20:57Z</time>
      </trkpt>
      <trkpt lat="42.29612" lon="2.68658">
        <ele>799.514</ele>
        <time>2013-04-20T14:21:02Z</time>
      </trkpt>
      <trkpt lat="42.29606" lon="2.6868">
        <ele>799.507</ele>
        <time>2013-04-20T14:21:15Z</time>
      </trkpt>
      <trkpt lat="42.29599" lon="2.68701">
        <ele>798.051</ele>
        <time>2013-04-20T14:21:28Z</time>
      </trkpt>
      <trkpt lat="42.29599" lon="2.68704">
        <ele>798.06</ele>
        <time>2013-04-20T14:21:29Z</time>
      </trkpt>
      <trkpt lat="42.29592" lon="2.68739">
        <ele>800.064</ele>
        <time>2013-04-20T14:21:44Z</time>
      </trkpt>
      <trkpt lat="42.29578" lon="2.6876">
        <ele>800.991</ele>
        <time>2013-04-20T14:21:58Z</time>
      </trkpt>
      <trkpt lat="42.29574" lon="2.68765">
        <ele>801.912</ele>
        <time>2013-04-20T14:22:01Z</time>
      </trkpt>
      <trkpt lat="42.29571" lon="2.68767">
        <ele>802.415</ele>
        <time>2013-04-20T14:22:04Z</time>
      </trkpt>
      <trkpt lat="42.29567" lon="2.68776">
        <ele>803.888</ele>
        <time>2013-04-20T14:22:08Z</time>
      </trkpt>
      <trkpt lat="42.29564" lon="2.6878">
        <ele>804.397</ele>
        <time>2013-04-20T14:22:11Z</time>
      </trkpt>
      <trkpt lat="42.2955" lon="2.68816">
        <ele>804.323</ele>
        <time>2013-04-20T14:22:25Z</time>
      </trkpt>
      <trkpt lat="42.29538" lon="2.68839">
        <ele>801.925</ele>
        <time>2013-04-20T14:22:33Z</time>
      </trkpt>
      <trkpt lat="42.29523" lon="2.68862">
        <ele>800.007</ele>
        <time>2013-04-20T14:22:43Z</time>
      </trkpt>
      <trkpt lat="42.29515" lon="2.68891">
        <ele>801.443</ele>
        <time>2013-04-20T14:22:58Z</time>
      </trkpt>
      <trkpt lat="42.29512" lon="2.68897">
        <ele>801.932</ele>
        <time>2013-04-20T14:23:01Z</time>
      </trkpt>
      <trkpt lat="42.29504" lon="2.68912">
        <ele>801.956</ele>
        <time>2013-04-20T14:23:09Z</time>
      </trkpt>
      <trkpt lat="42.29495" lon="2.6892">
        <ele>800.053</ele>
        <time>2013-04-20T14:23:18Z</time>
      </trkpt>
      <trkpt lat="42.2949" lon="2.68924">
        <ele>800.074</ele>
        <time>2013-04-20T14:23:23Z</time>
      </trkpt>
      <trkpt lat="42.29468" lon="2.68952">
        <ele>802.457</ele>
        <time>2013-04-20T14:23:41Z</time>
      </trkpt>
      <trkpt lat="42.29463" lon="2.68963">
        <ele>803.37</ele>
        <time>2013-04-20T14:23:46Z</time>
      </trkpt>
      <trkpt lat="42.29455" lon="2.68992">
        <ele>803.839</ele>
        <time>2013-04-20T14:23:56Z</time>
      </trkpt>
      <trkpt lat="42.29443" lon="2.69022">
        <ele>803.801</ele>
        <time>2013-04-20T14:24:07Z</time>
      </trkpt>
      <trkpt lat="42.29437" lon="2.69052">
        <ele>804.321</ele>
        <time>2013-04-20T14:24:17Z</time>
      </trkpt>
      <trkpt lat="42.29433" lon="2.69076">
        <ele>806.707</ele>
        <time>2013-04-20T14:24:29Z</time>
      </trkpt>
      <trkpt lat="42.29421" lon="2.69102">
        <ele>803.877</ele>
        <time>2013-04-20T14:24:46Z</time>
      </trkpt>
      <trkpt lat="42.29412" lon="2.69112">
        <ele>804.866</ele>
        <time>2013-04-20T14:25:02Z</time>
      </trkpt>
      <trkpt lat="42.29411" lon="2.69113">
        <ele>806.26</ele>
        <time>2013-04-20T14:25:21Z</time>
      </trkpt>
      <trkpt lat="42.29412" lon="2.69113">
        <ele>804.877</ele>
        <time>2013-04-20T14:25:37Z</time>
      </trkpt>
      <trkpt lat="42.29412" lon="2.69111">
        <ele>807.248</ele>
        <time>2013-04-20T14:26:00Z</time>
      </trkpt>
      <trkpt lat="42.2941" lon="2.69113">
        <ele>807.691</ele>
        <time>2013-04-20T14:26:22Z</time>
      </trkpt>
      <trkpt lat="42.29411" lon="2.69113">
        <ele>810.114</ele>
        <time>2013-04-20T14:26:42Z</time>
      </trkpt>
      <trkpt lat="42.29411" lon="2.69109">
        <ele>807.626</ele>
        <time>2013-04-20T14:27:10Z</time>
      </trkpt>
      <trkpt lat="42.29409" lon="2.69108">
        <ele>807.647</ele>
        <time>2013-04-20T14:27:24Z</time>
      </trkpt>
      <trkpt lat="42.29411" lon="2.6911">
        <ele>807.611</ele>
        <time>2013-04-20T14:27:43Z</time>
      </trkpt>
      <trkpt lat="42.29412" lon="2.69106">
        <ele>808.107</ele>
        <time>2013-04-20T14:28:06Z</time>
      </trkpt>
      <trkpt lat="42.29411" lon="2.6911">
        <ele>805.236</ele>
        <time>2013-04-20T14:28:20Z</time>
      </trkpt>
      <trkpt lat="42.29413" lon="2.69109">
        <ele>803.865</ele>
        <time>2013-04-20T14:28:38Z</time>
      </trkpt>
      <trkpt lat="42.29408" lon="2.69106">
        <ele>804.319</ele>
        <time>2013-04-20T14:28:48Z</time>
      </trkpt>
      <trkpt lat="42.29401" lon="2.69095">
        <ele>804.856</ele>
        <time>2013-04-20T14:29:02Z</time>
      </trkpt>
      <trkpt lat="42.29387" lon="2.6907">
        <ele>802.417</ele>
        <time>2013-04-20T14:29:18Z</time>
      </trkpt>
      <trkpt lat="42.29379" lon="2.6903">
        <ele>797.13</ele>
        <time>2013-04-20T14:29:31Z</time>
      </trkpt>
      <trkpt lat="42.29383" lon="2.68992">
        <ele>796.113</ele>
        <time>2013-04-20T14:29:43Z</time>
      </trkpt>
      <trkpt lat="42.29389" lon="2.68967">
        <ele>795.241</ele>
        <time>2013-04-20T14:29:51Z</time>
      </trkpt>
      <trkpt lat="42.29389" lon="2.68939">
        <ele>793.281</ele>
        <time>2013-04-20T14:30:00Z</time>
      </trkpt>
      <trkpt lat="42.29399" lon="2.68929">
        <ele>791.809</ele>
        <time>2013-04-20T14:30:05Z</time>
      </trkpt>
      <trkpt lat="42.29409" lon="2.68924">
        <ele>790.807</ele>
        <time>2013-04-20T14:30:10Z</time>
      </trkpt>
      <trkpt lat="42.29417" lon="2.68914">
        <ele>789.938</ele>
        <time>2013-04-20T14:30:20Z</time>
      </trkpt>
      <trkpt lat="42.29417" lon="2.68916">
        <ele>790.857</ele>
        <time>2013-04-20T14:30:27Z</time>
      </trkpt>
      <trkpt lat="42.29415" lon="2.68921">
        <ele>790.391</ele>
        <time>2013-04-20T14:30:39Z</time>
      </trkpt>
      <trkpt lat="42.29417" lon="2.68918">
        <ele>789.918</ele>
        <time>2013-04-20T14:30:41Z</time>
      </trkpt>
      <trkpt lat="42.29422" lon="2.6891">
        <ele>788.489</ele>
        <time>2013-04-20T14:30:47Z</time>
      </trkpt>
      <trkpt lat="42.2943" lon="2.689">
        <ele>787.962</ele>
        <time>2013-04-20T14:31:02Z</time>
      </trkpt>
      <trkpt lat="42.29429" lon="2.68905">
        <ele>788.495</ele>
        <time>2013-04-20T14:31:13Z</time>
      </trkpt>
      <trkpt lat="42.2942" lon="2.68916">
        <ele>790.367</ele>
        <time>2013-04-20T14:31:30Z</time>
      </trkpt>
      <trkpt lat="42.29412" lon="2.68927">
        <ele>790.381</ele>
        <time>2013-04-20T14:31:44Z</time>
      </trkpt>
      <trkpt lat="42.29395" lon="2.68936">
        <ele>789.419</ele>
        <time>2013-04-20T14:31:58Z</time>
      </trkpt>
      <trkpt lat="42.2939" lon="2.68946">
        <ele>790.307</ele>
        <time>2013-04-20T14:32:05Z</time>
      </trkpt>
      <trkpt lat="42.2939" lon="2.68975">
        <ele>793.79</ele>
        <time>2013-04-20T14:32:21Z</time>
      </trkpt>
      <trkpt lat="42.29387" lon="2.68989">
        <ele>795.229</ele>
        <time>2013-04-20T14:32:29Z</time>
      </trkpt>
      <trkpt lat="42.29385" lon="2.69002">
        <ele>796.633</ele>
        <time>2013-04-20T14:32:36Z</time>
      </trkpt>
      <trkpt lat="42.29382" lon="2.69026">
        <ele>799.06</ele>
        <time>2013-04-20T14:32:49Z</time>
      </trkpt>
      <trkpt lat="42.29386" lon="2.69054">
        <ele>800.081</ele>
        <time>2013-04-20T14:33:04Z</time>
      </trkpt>
      <trkpt lat="42.2939" lon="2.69067">
        <ele>800.494</ele>
        <time>2013-04-20T14:33:12Z</time>
      </trkpt>
      <trkpt lat="42.29393" lon="2.69075">
        <ele>800.487</ele>
        <time>2013-04-20T14:33:17Z</time>
      </trkpt>
      <trkpt lat="42.29406" lon="2.6909">
        <ele>800.036</ele>
        <time>2013-04-20T14:33:30Z</time>
      </trkpt>
      <trkpt lat="42.29409" lon="2.69099">
        <ele>800.917</ele>
        <time>2013-04-20T14:33:35Z</time>
      </trkpt>
      <trkpt lat="42.29406" lon="2.69108">
        <ele>801.418</ele>
        <time>2013-04-20T14:33:40Z</time>
      </trkpt>
      <trkpt lat="42.294" lon="2.69121">
        <ele>800.907</ele>
        <time>2013-04-20T14:33:48Z</time>
      </trkpt>
      <trkpt lat="42.29384" lon="2.69138">
        <ele>800.057</ele>
        <time>2013-04-20T14:34:02Z</time>
      </trkpt>
      <trkpt lat="42.29379" lon="2.69145">
        <ele>800.016</ele>
        <time>2013-04-20T14:34:06Z</time>
      </trkpt>
      <trkpt lat="42.29378" lon="2.69148">
        <ele>800.07</ele>
        <time>2013-04-20T14:34:07Z</time>
      </trkpt>
      <trkpt lat="42.29361" lon="2.69175">
        <ele>800.087</ele>
        <time>2013-04-20T14:34:19Z</time>
      </trkpt>
      <trkpt lat="42.29353" lon="2.69185">
        <ele>800.098</ele>
        <time>2013-04-20T14:34:24Z</time>
      </trkpt>
      <trkpt lat="42.29344" lon="2.69192">
        <ele>800.031</ele>
        <time>2013-04-20T14:34:28Z</time>
      </trkpt>
      <trkpt lat="42.2934" lon="2.69195">
        <ele>800.094</ele>
        <time>2013-04-20T14:34:30Z</time>
      </trkpt>
      <trkpt lat="42.29336" lon="2.69199">
        <ele>799.598</ele>
        <time>2013-04-20T14:34:32Z</time>
      </trkpt>
      <trkpt lat="42.29333" lon="2.69219">
        <ele>798.015</ele>
        <time>2013-04-20T14:34:38Z</time>
      </trkpt>
      <trkpt lat="42.29344" lon="2.69259">
        <ele>795.626</ele>
        <time>2013-04-20T14:34:50Z</time>
      </trkpt>
      <trkpt lat="42.29328" lon="2.69276">
        <ele>791.307</ele>
        <time>2013-04-20T14:34:58Z</time>
      </trkpt>
      <trkpt lat="42.29305" lon="2.69285">
        <ele>786.053</ele>
        <time>2013-04-20T14:35:07Z</time>
      </trkpt>
      <trkpt lat="42.29277" lon="2.69291">
        <ele>779.852</ele>
        <time>2013-04-20T14:35:19Z</time>
      </trkpt>
      <trkpt lat="42.29254" lon="2.69308">
        <ele>779.866</ele>
        <time>2013-04-20T14:35:29Z</time>
      </trkpt>
      <trkpt lat="42.29231" lon="2.69331">
        <ele>779.883</ele>
        <time>2013-04-20T14:35:40Z</time>
      </trkpt>
      <trkpt lat="42.2922" lon="2.69341">
        <ele>780.794</ele>
        <time>2013-04-20T14:35:47Z</time>
      </trkpt>
      <trkpt lat="42.29215" lon="2.69345">
        <ele>779.827</ele>
        <time>2013-04-20T14:35:51Z</time>
      </trkpt>
      <trkpt lat="42.29193" lon="2.6937">
        <ele>775.42</ele>
        <time>2013-04-20T14:36:07Z</time>
      </trkpt>
      <trkpt lat="42.29175" lon="2.69397">
        <ele>771.178</ele>
        <time>2013-04-20T14:36:18Z</time>
      </trkpt>
      <trkpt lat="42.29153" lon="2.69425">
        <ele>770.633</ele>
        <time>2013-04-20T14:36:30Z</time>
      </trkpt>
      <trkpt lat="42.29151" lon="2.69426">
        <ele>770.626</ele>
        <time>2013-04-20T14:36:31Z</time>
      </trkpt>
      <trkpt lat="42.2913" lon="2.69436">
        <ele>772.607</ele>
        <time>2013-04-20T14:36:40Z</time>
      </trkpt>
      <trkpt lat="42.29122" lon="2.69434">
        <ele>774.061</ele>
        <time>2013-04-20T14:36:46Z</time>
      </trkpt>
      <trkpt lat="42.29114" lon="2.69433">
        <ele>775.92</ele>
        <time>2013-04-20T14:36:57Z</time>
      </trkpt>
      <trkpt lat="42.291" lon="2.69432">
        <ele>776.474</ele>
        <time>2013-04-20T14:37:10Z</time>
      </trkpt>
      <trkpt lat="42.29077" lon="2.69436">
        <ele>775.471</ele>
        <time>2013-04-20T14:37:23Z</time>
      </trkpt>
      <trkpt lat="42.29053" lon="2.69427">
        <ele>769.782</ele>
        <time>2013-04-20T14:37:33Z</time>
      </trkpt>
      <trkpt lat="42.29052" lon="2.69424">
        <ele>769.735</ele>
        <time>2013-04-20T14:37:34Z</time>
      </trkpt>
      <trkpt lat="42.29024" lon="2.69412">
        <ele>764.418</ele>
        <time>2013-04-20T14:37:45Z</time>
      </trkpt>
      <trkpt lat="42.29001" lon="2.69397">
        <ele>760.541</ele>
        <time>2013-04-20T14:37:54Z</time>
      </trkpt>
      <trkpt lat="42.28976" lon="2.6937">
        <ele>758.181</ele>
        <time>2013-04-20T14:38:05Z</time>
      </trkpt>
      <trkpt lat="42.2895" lon="2.69348">
        <ele>758.609</ele>
        <time>2013-04-20T14:38:17Z</time>
      </trkpt>
      <trkpt lat="42.28925" lon="2.69337">
        <ele>754.807</ele>
        <time>2013-04-20T14:38:28Z</time>
      </trkpt>
      <trkpt lat="42.28901" lon="2.69301">
        <ele>752.968</ele>
        <time>2013-04-20T14:38:42Z</time>
      </trkpt>
      <trkpt lat="42.28891" lon="2.69284">
        <ele>752.457</ele>
        <time>2013-04-20T14:38:53Z</time>
      </trkpt>
      <trkpt lat="42.28891" lon="2.69285">
        <ele>750.921</ele>
        <time>2013-04-20T14:39:08Z</time>
      </trkpt>
      <trkpt lat="42.28887" lon="2.69275">
        <ele>747.148</ele>
        <time>2013-04-20T14:39:22Z</time>
      </trkpt>
      <trkpt lat="42.28889" lon="2.69272">
        <ele>749.539</ele>
        <time>2013-04-20T14:39:32Z</time>
      </trkpt>
      <trkpt lat="42.28893" lon="2.6927">
        <ele>748.092</ele>
        <time>2013-04-20T14:39:47Z</time>
      </trkpt>
      <trkpt lat="42.28894" lon="2.69273">
        <ele>752.995</ele>
        <time>2013-04-20T14:40:07Z</time>
      </trkpt>
      <trkpt lat="42.28893" lon="2.69275">
        <ele>755.346</ele>
        <time>2013-04-20T14:40:21Z</time>
      </trkpt>
      <trkpt lat="42.28892" lon="2.69273">
        <ele>755.788</ele>
        <time>2013-04-20T14:40:39Z</time>
      </trkpt>
      <trkpt lat="42.28891" lon="2.69275">
        <ele>757.216</ele>
        <time>2013-04-20T14:40:54Z</time>
      </trkpt>
      <trkpt lat="42.28889" lon="2.69274">
        <ele>755.307</ele>
        <time>2013-04-20T14:41:10Z</time>
      </trkpt>
      <trkpt lat="42.28891" lon="2.69274">
        <ele>755.748</ele>
        <time>2013-04-20T14:41:23Z</time>
      </trkpt>
      <trkpt lat="42.28889" lon="2.69274">
        <ele>756.277</ele>
        <time>2013-04-20T14:41:37Z</time>
      </trkpt>
      <trkpt lat="42.28889" lon="2.69273">
        <ele>755.761</ele>
        <time>2013-04-20T14:41:53Z</time>
      </trkpt>
      <trkpt lat="42.28888" lon="2.69273">
        <ele>755.728</ele>
        <time>2013-04-20T14:42:11Z</time>
      </trkpt>
      <trkpt lat="42.28889" lon="2.69272">
        <ele>755.739</ele>
        <time>2013-04-20T14:42:35Z</time>
      </trkpt>
      <trkpt lat="42.28892" lon="2.6927">
        <ele>752.932</ele>
        <time>2013-04-20T14:42:50Z</time>
      </trkpt>
      <trkpt lat="42.28893" lon="2.6927">
        <ele>749.545</ele>
        <time>2013-04-20T14:43:10Z</time>
      </trkpt>
      <trkpt lat="42.28892" lon="2.69272">
        <ele>748.028</ele>
        <time>2013-04-20T14:43:21Z</time>
      </trkpt>
      <trkpt lat="42.28892" lon="2.69272">
        <ele>750.089</ele>
        <time>2013-04-20T14:43:36Z</time>
      </trkpt>
      <trkpt lat="42.28891" lon="2.69271">
        <ele>750.017</ele>
        <time>2013-04-20T14:43:48Z</time>
      </trkpt>
      <trkpt lat="42.28892" lon="2.6927">
        <ele>750.507</ele>
        <time>2013-04-20T14:44:06Z</time>
      </trkpt>
      <trkpt lat="42.28892" lon="2.6927">
        <ele>751.436</ele>
        <time>2013-04-20T14:44:24Z</time>
      </trkpt>
      <trkpt lat="42.28892" lon="2.69271">
        <ele>752.935</ele>
        <time>2013-04-20T14:44:41Z</time>
      </trkpt>
      <trkpt lat="42.28894" lon="2.69271">
        <ele>752.439</ele>
        <time>2013-04-20T14:44:55Z</time>
      </trkpt>
      <trkpt lat="42.28891" lon="2.69272">
        <ele>749.546</ele>
        <time>2013-04-20T14:45:07Z</time>
      </trkpt>
      <trkpt lat="42.28889" lon="2.69277">
        <ele>751.997</ele>
        <time>2013-04-20T14:45:19Z</time>
      </trkpt>
      <trkpt lat="42.2889" lon="2.69276">
        <ele>755.35</ele>
        <time>2013-04-20T14:45:35Z</time>
      </trkpt>
      <trkpt lat="42.2889" lon="2.69276">
        <ele>757.753</ele>
        <time>2013-04-20T14:45:55Z</time>
      </trkpt>
      <trkpt lat="42.2889" lon="2.69273">
        <ele>756.768</ele>
        <time>2013-04-20T14:46:11Z</time>
      </trkpt>
      <trkpt lat="42.28891" lon="2.69273">
        <ele>759.142</ele>
        <time>2013-04-20T14:46:28Z</time>
      </trkpt>
      <trkpt lat="42.28891" lon="2.69274">
        <ele>758.126</ele>
        <time>2013-04-20T14:46:48Z</time>
      </trkpt>
      <trkpt lat="42.28891" lon="2.69275">
        <ele>759.607</ele>
        <time>2013-04-20T14:47:13Z</time>
      </trkpt>
      <trkpt lat="42.28891" lon="2.69275">
        <ele>760.15</ele>
        <time>2013-04-20T14:47:35Z</time>
      </trkpt>
      <trkpt lat="42.2889" lon="2.69275">
        <ele>759.679</ele>
        <time>2013-04-20T14:47:56Z</time>
      </trkpt>
      <trkpt lat="42.28891" lon="2.69276">
        <ele>760.573</ele>
        <time>2013-04-20T14:48:30Z</time>
      </trkpt>
      <trkpt lat="42.28889" lon="2.69277">
        <ele>758.67</ele>
        <time>2013-04-20T14:48:45Z</time>
      </trkpt>
      <trkpt lat="42.28888" lon="2.69277">
        <ele>755.791</ele>
        <time>2013-04-20T14:49:05Z</time>
      </trkpt>
      <trkpt lat="42.28888" lon="2.69278">
        <ele>756.224</ele>
        <time>2013-04-20T14:49:26Z</time>
      </trkpt>
      <trkpt lat="42.28888" lon="2.69277">
        <ele>757.277</ele>
        <time>2013-04-20T14:49:40Z</time>
      </trkpt>
      <trkpt lat="42.28889" lon="2.69274">
        <ele>756.756</ele>
        <time>2013-04-20T14:49:57Z</time>
      </trkpt>
      <trkpt lat="42.28886" lon="2.69275">
        <ele>756.759</ele>
        <time>2013-04-20T14:50:12Z</time>
      </trkpt>
      <trkpt lat="42.28864" lon="2.69261">
        <ele>752.914</ele>
        <time>2013-04-20T14:50:27Z</time>
      </trkpt>
      <trkpt lat="42.28856" lon="2.69245">
        <ele>750.007</ele>
        <time>2013-04-20T14:50:38Z</time>
      </trkpt>
      <trkpt lat="42.28861" lon="2.69252">
        <ele>750.059</ele>
        <time>2013-04-20T14:50:47Z</time>
      </trkpt>
      <trkpt lat="42.28861" lon="2.69251">
        <ele>750.568</ele>
        <time>2013-04-20T14:50:51Z</time>
      </trkpt>
      <trkpt lat="42.28851" lon="2.69242">
        <ele>749.572</ele>
        <time>2013-04-20T14:50:57Z</time>
      </trkpt>
      <trkpt lat="42.28826" lon="2.69229">
        <ele>746.179</ele>
        <time>2013-04-20T14:51:09Z</time>
      </trkpt>
      <trkpt lat="42.28807" lon="2.69205">
        <ele>746.66</ele>
        <time>2013-04-20T14:51:21Z</time>
      </trkpt>
      <trkpt lat="42.28793" lon="2.69185">
        <ele>748.093</ele>
        <time>2013-04-20T14:51:31Z</time>
      </trkpt>
      <trkpt lat="42.28777" lon="2.69158">
        <ele>749.066</ele>
        <time>2013-04-20T14:51:45Z</time>
      </trkpt>
      <trkpt lat="42.28759" lon="2.69139">
        <ele>749.039</ele>
        <time>2013-04-20T14:52:00Z</time>
      </trkpt>
      <trkpt lat="42.28739" lon="2.69135">
        <ele>751.401</ele>
        <time>2013-04-20T14:52:13Z</time>
      </trkpt>
      <trkpt lat="42.28709" lon="2.69135">
        <ele>754.821</ele>
        <time>2013-04-20T14:52:31Z</time>
      </trkpt>
      <trkpt lat="42.28683" lon="2.69134">
        <ele>754.807</ele>
        <time>2013-04-20T14:52:44Z</time>
      </trkpt>
      <trkpt lat="42.28659" lon="2.69146">
        <ele>754.887</ele>
        <time>2013-04-20T14:52:55Z</time>
      </trkpt>
      <trkpt lat="42.28635" lon="2.69158">
        <ele>751.416</ele>
        <time>2013-04-20T14:53:06Z</time>
      </trkpt>
      <trkpt lat="42.28608" lon="2.69164">
        <ele>749.08</ele>
        <time>2013-04-20T14:53:18Z</time>
      </trkpt>
      <trkpt lat="42.28582" lon="2.69175">
        <ele>749.587</ele>
        <time>2013-04-20T14:53:28Z</time>
      </trkpt>
      <trkpt lat="42.28559" lon="2.69192">
        <ele>744.748</ele>
        <time>2013-04-20T14:53:39Z</time>
      </trkpt>
      <trkpt lat="42.28533" lon="2.69213">
        <ele>743.231</ele>
        <time>2013-04-20T14:53:50Z</time>
      </trkpt>
      <trkpt lat="42.2851" lon="2.69227">
        <ele>739.954</ele>
        <time>2013-04-20T14:54:00Z</time>
      </trkpt>
      <trkpt lat="42.28488" lon="2.69234">
        <ele>737.597</ele>
        <time>2013-04-20T14:54:10Z</time>
      </trkpt>
      <trkpt lat="42.28482" lon="2.69234">
        <ele>735.623</ele>
        <time>2013-04-20T14:54:13Z</time>
      </trkpt>
      <trkpt lat="42.28463" lon="2.69234">
        <ele>733.625</ele>
        <time>2013-04-20T14:54:24Z</time>
      </trkpt>
      <trkpt lat="42.2845" lon="2.69231">
        <ele>737.007</ele>
        <time>2013-04-20T14:54:36Z</time>
      </trkpt>
      <trkpt lat="42.2844" lon="2.6923">
        <ele>738.053</ele>
        <time>2013-04-20T14:54:41Z</time>
      </trkpt>
      <trkpt lat="42.28419" lon="2.69228">
        <ele>738.912</ele>
        <time>2013-04-20T14:54:50Z</time>
      </trkpt>
      <trkpt lat="42.28406" lon="2.69225">
        <ele>738.466</ele>
        <time>2013-04-20T14:54:55Z</time>
      </trkpt>
      <trkpt lat="42.28375" lon="2.69217">
        <ele>739.993</ele>
        <time>2013-04-20T14:55:09Z</time>
      </trkpt>
      <trkpt lat="42.28351" lon="2.69216">
        <ele>738.934</ele>
        <time>2013-04-20T14:55:19Z</time>
      </trkpt>
      <trkpt lat="42.2832" lon="2.69222">
        <ele>738.967</ele>
        <time>2013-04-20T14:55:32Z</time>
      </trkpt>
      <trkpt lat="42.283" lon="2.69221">
        <ele>738.08</ele>
        <time>2013-04-20T14:55:40Z</time>
      </trkpt>
      <trkpt lat="42.28278" lon="2.69216">
        <ele>735.198</ele>
        <time>2013-04-20T14:55:49Z</time>
      </trkpt>
      <trkpt lat="42.28246" lon="2.6921">
        <ele>727.415</ele>
        <time>2013-04-20T14:56:01Z</time>
      </trkpt>
      <trkpt lat="42.28221" lon="2.69207">
        <ele>717.826</ele>
        <time>2013-04-20T14:56:12Z</time>
      </trkpt>
      <trkpt lat="42.28215" lon="2.69205">
        <ele>714.907</ele>
        <time>2013-04-20T14:56:15Z</time>
      </trkpt>
      <trkpt lat="42.28205" lon="2.69209">
        <ele>713.063</ele>
        <time>2013-04-20T14:56:20Z</time>
      </trkpt>
      <trkpt lat="42.28201" lon="2.69218">
        <ele>712.562</ele>
        <time>2013-04-20T14:56:24Z</time>
      </trkpt>
      <trkpt lat="42.28199" lon="2.69221">
        <ele>712.516</ele>
        <time>2013-04-20T14:56:25Z</time>
      </trkpt>
      <trkpt lat="42.28198" lon="2.69222">
        <ele>713.043</ele>
        <time>2013-04-20T14:56:26Z</time>
      </trkpt>
      <trkpt lat="42.28198" lon="2.6923">
        <ele>713.414</ele>
        <time>2013-04-20T14:56:29Z</time>
      </trkpt>
      <trkpt lat="42.28198" lon="2.69238">
        <ele>713.977</ele>
        <time>2013-04-20T14:56:33Z</time>
      </trkpt>
      <trkpt lat="42.28197" lon="2.69247">
        <ele>715.86</ele>
        <time>2013-04-20T14:56:37Z</time>
      </trkpt>
      <trkpt lat="42.28198" lon="2.69273">
        <ele>724.549</ele>
        <time>2013-04-20T14:56:49Z</time>
      </trkpt>
      <trkpt lat="42.28198" lon="2.69275">
        <ele>725.502</ele>
        <time>2013-04-20T14:56:50Z</time>
      </trkpt>
      <trkpt lat="42.28202" lon="2.69281">
        <ele>727.922</ele>
        <time>2013-04-20T14:56:53Z</time>
      </trkpt>
      <trkpt lat="42.28204" lon="2.69299">
        <ele>733.107</ele>
        <time>2013-04-20T14:57:04Z</time>
      </trkpt>
      <trkpt lat="42.28207" lon="2.69318">
        <ele>738.488</ele>
        <time>2013-04-20T14:57:16Z</time>
      </trkpt>
      <trkpt lat="42.28206" lon="2.69325">
        <ele>739.977</ele>
        <time>2013-04-20T14:57:20Z</time>
      </trkpt>
      <trkpt lat="42.282" lon="2.69339">
        <ele>741.361</ele>
        <time>2013-04-20T14:57:30Z</time>
      </trkpt>
      <trkpt lat="42.28194" lon="2.69362">
        <ele>740.888</ele>
        <time>2013-04-20T14:57:44Z</time>
      </trkpt>
      <trkpt lat="42.28174" lon="2.6938">
        <ele>743.239</ele>
        <time>2013-04-20T14:57:59Z</time>
      </trkpt>
      <trkpt lat="42.28173" lon="2.69381">
        <ele>742.872</ele>
        <time>2013-04-20T14:58:00Z</time>
      </trkpt>
      <trkpt lat="42.28161" lon="2.69379">
        <ele>743.255</ele>
        <time>2013-04-20T14:58:07Z</time>
      </trkpt>
      <trkpt lat="42.28143" lon="2.69374">
        <ele>743.731</ele>
        <time>2013-04-20T14:58:20Z</time>
      </trkpt>
      <trkpt lat="42.28131" lon="2.69371">
        <ele>743.261</ele>
        <time>2013-04-20T14:58:30Z</time>
      </trkpt>
      <trkpt lat="42.2812" lon="2.69378">
        <ele>739.907</ele>
        <time>2013-04-20T14:58:41Z</time>
      </trkpt>
      <trkpt lat="42.28118" lon="2.69384">
        <ele>741.307</ele>
        <time>2013-04-20T14:58:45Z</time>
      </trkpt>
      <trkpt lat="42.28122" lon="2.69399">
        <ele>742.857</ele>
        <time>2013-04-20T14:58:54Z</time>
      </trkpt>
      <trkpt lat="42.28124" lon="2.69412">
        <ele>744.796</ele>
        <time>2013-04-20T14:58:59Z</time>
      </trkpt>
      <trkpt lat="42.28126" lon="2.6942">
        <ele>746.14</ele>
        <time>2013-04-20T14:59:03Z</time>
      </trkpt>
      <trkpt lat="42.28128" lon="2.69432">
        <ele>748.557</ele>
        <time>2013-04-20T14:59:09Z</time>
      </trkpt>
      <trkpt lat="42.28127" lon="2.69437">
        <ele>748.588</ele>
        <time>2013-04-20T14:59:11Z</time>
      </trkpt>
      <trkpt lat="42.28129" lon="2.69445">
        <ele>749.541</ele>
        <time>2013-04-20T14:59:16Z</time>
      </trkpt>
      <trkpt lat="42.28129" lon="2.69462">
        <ele>749.024</ele>
        <time>2013-04-20T14:59:26Z</time>
      </trkpt>
      <trkpt lat="42.2813" lon="2.69471">
        <ele>749.554</ele>
        <time>2013-04-20T14:59:30Z</time>
      </trkpt>
      <trkpt lat="42.2813" lon="2.69492">
        <ele>753.856</ele>
        <time>2013-04-20T14:59:39Z</time>
      </trkpt>
      <trkpt lat="42.2813" lon="2.69496">
        <ele>754.811</ele>
        <time>2013-04-20T14:59:41Z</time>
      </trkpt>
      <trkpt lat="42.2813" lon="2.695">
        <ele>755.307</ele>
        <time>2013-04-20T14:59:43Z</time>
      </trkpt>
      <trkpt lat="42.28131" lon="2.69522">
        <ele>753.369</ele>
        <time>2013-04-20T14:59:54Z</time>
      </trkpt>
      <trkpt lat="42.28133" lon="2.69541">
        <ele>755.728</ele>
        <time>2013-04-20T15:00:04Z</time>
      </trkpt>
      <trkpt lat="42.2813" lon="2.69546">
        <ele>755.322</ele>
        <time>2013-04-20T15:00:07Z</time>
      </trkpt>
      <trkpt lat="42.28128" lon="2.69556">
        <ele>754.859</ele>
        <time>2013-04-20T15:00:12Z</time>
      </trkpt>
      <trkpt lat="42.28124" lon="2.6958">
        <ele>756.22</ele>
        <time>2013-04-20T15:00:24Z</time>
      </trkpt>
      <trkpt lat="42.28122" lon="2.69588">
        <ele>756.723</ele>
        <time>2013-04-20T15:00:28Z</time>
      </trkpt>
      <trkpt lat="42.28122" lon="2.69602">
        <ele>757.286</ele>
        <time>2013-04-20T15:00:37Z</time>
      </trkpt>
      <trkpt lat="42.28122" lon="2.69604">
        <ele>757.289</ele>
        <time>2013-04-20T15:00:38Z</time>
      </trkpt>
      <trkpt lat="42.28127" lon="2.69624">
        <ele>758.106</ele>
        <time>2013-04-20T15:00:53Z</time>
      </trkpt>
      <trkpt lat="42.28129" lon="2.69638">
        <ele>760.526</ele>
        <time>2013-04-20T15:01:02Z</time>
      </trkpt>
      <trkpt lat="42.28129" lon="2.69641">
        <ele>761.007</ele>
        <time>2013-04-20T15:01:04Z</time>
      </trkpt>
      <trkpt lat="42.28132" lon="2.69652">
        <ele>763.452</ele>
        <time>2013-04-20T15:01:12Z</time>
      </trkpt>
      <trkpt lat="42.28131" lon="2.69666">
        <ele>764.921</ele>
        <time>2013-04-20T15:01:20Z</time>
      </trkpt>
      <trkpt lat="42.28129" lon="2.69676">
        <ele>764.955</ele>
        <time>2013-04-20T15:01:26Z</time>
      </trkpt>
      <trkpt lat="42.28125" lon="2.69691">
        <ele>762.552</ele>
        <time>2013-04-20T15:01:36Z</time>
      </trkpt>
      <trkpt lat="42.28122" lon="2.69697">
        <ele>762.033</ele>
        <time>2013-04-20T15:01:40Z</time>
      </trkpt>
      <trkpt lat="42.28118" lon="2.69707">
        <ele>762.556</ele>
        <time>2013-04-20T15:01:44Z</time>
      </trkpt>
      <trkpt lat="42.28118" lon="2.69715">
        <ele>763.489</ele>
        <time>2013-04-20T15:01:49Z</time>
      </trkpt>
      <trkpt lat="42.28106" lon="2.69738">
        <ele>764.971</ele>
        <time>2013-04-20T15:02:02Z</time>
      </trkpt>
      <trkpt lat="42.28094" lon="2.69756">
        <ele>762.541</ele>
        <time>2013-04-20T15:02:14Z</time>
      </trkpt>
      <trkpt lat="42.28094" lon="2.69758">
        <ele>762.915</ele>
        <time>2013-04-20T15:02:15Z</time>
      </trkpt>
      <trkpt lat="42.28087" lon="2.69783">
        <ele>767.807</ele>
        <time>2013-04-20T15:02:28Z</time>
      </trkpt>
      <trkpt lat="42.28077" lon="2.69806">
        <ele>770.221</ele>
        <time>2013-04-20T15:02:41Z</time>
      </trkpt>
      <trkpt lat="42.28064" lon="2.69828">
        <ele>770.63</ele>
        <time>2013-04-20T15:02:54Z</time>
      </trkpt>
      <trkpt lat="42.28064" lon="2.69831">
        <ele>770.624</ele>
        <time>2013-04-20T15:02:55Z</time>
      </trkpt>
      <trkpt lat="42.28059" lon="2.69843">
        <ele>770.691</ele>
        <time>2013-04-20T15:03:01Z</time>
      </trkpt>
      <trkpt lat="42.28056" lon="2.69858">
        <ele>771.132</ele>
        <time>2013-04-20T15:03:10Z</time>
      </trkpt>
      <trkpt lat="42.28052" lon="2.69872">
        <ele>773.555</ele>
        <time>2013-04-20T15:03:17Z</time>
      </trkpt>
      <trkpt lat="42.28043" lon="2.69891">
        <ele>773.528</ele>
        <time>2013-04-20T15:03:28Z</time>
      </trkpt>
      <trkpt lat="42.28037" lon="2.69914">
        <ele>775.448</ele>
        <time>2013-04-20T15:03:42Z</time>
      </trkpt>
      <trkpt lat="42.28031" lon="2.69932">
        <ele>776.461</ele>
        <time>2013-04-20T15:03:55Z</time>
      </trkpt>
      <trkpt lat="42.28023" lon="2.69946">
        <ele>779.317</ele>
        <time>2013-04-20T15:04:05Z</time>
      </trkpt>
      <trkpt lat="42.28014" lon="2.69963">
        <ele>780.707</ele>
        <time>2013-04-20T15:04:18Z</time>
      </trkpt>
      <trkpt lat="42.28001" lon="2.69974">
        <ele>778.818</ele>
        <time>2013-04-20T15:04:31Z</time>
      </trkpt>
      <trkpt lat="42.27989" lon="2.6998">
        <ele>779.847</ele>
        <time>2013-04-20T15:04:45Z</time>
      </trkpt>
      <trkpt lat="42.27981" lon="2.69989">
        <ele>781.751</ele>
        <time>2013-04-20T15:04:57Z</time>
      </trkpt>
      <trkpt lat="42.27972" lon="2.70007">
        <ele>786.068</ele>
        <time>2013-04-20T15:05:11Z</time>
      </trkpt>
      <trkpt lat="42.27971" lon="2.70008">
        <ele>786.519</ele>
        <time>2013-04-20T15:05:12Z</time>
      </trkpt>
      <trkpt lat="42.27959" lon="2.70024">
        <ele>789.932</ele>
        <time>2013-04-20T15:05:27Z</time>
      </trkpt>
      <trkpt lat="42.27952" lon="2.70029">
        <ele>789.925</ele>
        <time>2013-04-20T15:05:33Z</time>
      </trkpt>
      <trkpt lat="42.27943" lon="2.7004">
        <ele>789.426</ele>
        <time>2013-04-20T15:05:44Z</time>
      </trkpt>
      <trkpt lat="42.27929" lon="2.70052">
        <ele>788.447</ele>
        <time>2013-04-20T15:05:59Z</time>
      </trkpt>
      <trkpt lat="42.27914" lon="2.70061">
        <ele>790.311</ele>
        <time>2013-04-20T15:06:12Z</time>
      </trkpt>
      <trkpt lat="42.279" lon="2.70072">
        <ele>791.807</ele>
        <time>2013-04-20T15:06:25Z</time>
      </trkpt>
      <trkpt lat="42.27897" lon="2.70078">
        <ele>792.796</ele>
        <time>2013-04-20T15:06:29Z</time>
      </trkpt>
      <trkpt lat="42.2788" lon="2.70102">
        <ele>794.715</ele>
        <time>2013-04-20T15:06:46Z</time>
      </trkpt>
      <trkpt lat="42.27866" lon="2.70111">
        <ele>793.799</ele>
        <time>2013-04-20T15:06:58Z</time>
      </trkpt>
      <trkpt lat="42.27852" lon="2.70114">
        <ele>799.586</ele>
        <time>2013-04-20T15:07:10Z</time>
      </trkpt>
      <trkpt lat="42.27842" lon="2.70115">
        <ele>809.177</ele>
        <time>2013-04-20T15:07:25Z</time>
      </trkpt>
      <trkpt lat="42.27839" lon="2.70119">
        <ele>812.59</ele>
        <time>2013-04-20T15:07:37Z</time>
      </trkpt>
      <trkpt lat="42.27831" lon="2.70123">
        <ele>814.943</ele>
        <time>2013-04-20T15:07:47Z</time>
      </trkpt>
      <trkpt lat="42.27829" lon="2.70126">
        <ele>815.344</ele>
        <time>2013-04-20T15:07:50Z</time>
      </trkpt>
      <trkpt lat="42.27812" lon="2.70131">
        <ele>817.705</ele>
        <time>2013-04-20T15:08:05Z</time>
      </trkpt>
      <trkpt lat="42.27804" lon="2.7012">
        <ele>820.115</ele>
        <time>2013-04-20T15:08:18Z</time>
      </trkpt>
      <trkpt lat="42.27795" lon="2.70114">
        <ele>826.907</ele>
        <time>2013-04-20T15:08:36Z</time>
      </trkpt>
      <trkpt lat="42.2779" lon="2.70109">
        <ele>829.878</ele>
        <time>2013-04-20T15:08:49Z</time>
      </trkpt>
      <trkpt lat="42.27787" lon="2.70098">
        <ele>835.037</ele>
        <time>2013-04-20T15:09:05Z</time>
      </trkpt>
      <trkpt lat="42.2778" lon="2.70096">
        <ele>839.941</ele>
        <time>2013-04-20T15:09:18Z</time>
      </trkpt>
      <trkpt lat="42.27772" lon="2.70103">
        <ele>844.718</ele>
        <time>2013-04-20T15:09:30Z</time>
      </trkpt>
      <trkpt lat="42.27771" lon="2.70105">
        <ele>845.159</ele>
        <time>2013-04-20T15:09:32Z</time>
      </trkpt>
      <trkpt lat="42.27759" lon="2.70112">
        <ele>846.642</ele>
        <time>2013-04-20T15:09:46Z</time>
      </trkpt>
      <trkpt lat="42.2775" lon="2.70123">
        <ele>846.175</ele>
        <time>2013-04-20T15:10:01Z</time>
      </trkpt>
      <trkpt lat="42.27741" lon="2.7013">
        <ele>846.127</ele>
        <time>2013-04-20T15:10:14Z</time>
      </trkpt>
      <trkpt lat="42.27728" lon="2.70137">
        <ele>844.768</ele>
        <time>2013-04-20T15:10:27Z</time>
      </trkpt>
      <trkpt lat="42.2772" lon="2.70144">
        <ele>844.214</ele>
        <time>2013-04-20T15:10:40Z</time>
      </trkpt>
      <trkpt lat="42.27709" lon="2.70155">
        <ele>846.107</ele>
        <time>2013-04-20T15:10:55Z</time>
      </trkpt>
      <trkpt lat="42.27699" lon="2.70161">
        <ele>847.556</ele>
        <time>2013-04-20T15:11:08Z</time>
      </trkpt>
      <trkpt lat="42.27688" lon="2.7017">
        <ele>849.995</ele>
        <time>2013-04-20T15:11:22Z</time>
      </trkpt>
      <trkpt lat="42.27676" lon="2.70181">
        <ele>851.489</ele>
        <time>2013-04-20T15:11:35Z</time>
      </trkpt>
      <trkpt lat="42.2767" lon="2.70187">
        <ele>850.926</ele>
        <time>2013-04-20T15:11:42Z</time>
      </trkpt>
      <trkpt lat="42.27668" lon="2.70188">
        <ele>850.937</ele>
        <time>2013-04-20T15:11:44Z</time>
      </trkpt>
      <trkpt lat="42.2766" lon="2.70203">
        <ele>853.31</ele>
        <time>2013-04-20T15:11:54Z</time>
      </trkpt>
      <trkpt lat="42.27652" lon="2.70223">
        <ele>858.113</ele>
        <time>2013-04-20T15:12:06Z</time>
      </trkpt>
      <trkpt lat="42.27646" lon="2.70231">
        <ele>860.089</ele>
        <time>2013-04-20T15:12:13Z</time>
      </trkpt>
      <trkpt lat="42.27643" lon="2.70234">
        <ele>859.106</ele>
        <time>2013-04-20T15:12:16Z</time>
      </trkpt>
      <trkpt lat="42.27629" lon="2.70245">
        <ele>858.626</ele>
        <time>2013-04-20T15:12:29Z</time>
      </trkpt>
      <trkpt lat="42.27618" lon="2.70254">
        <ele>857.607</ele>
        <time>2013-04-20T15:12:42Z</time>
      </trkpt>
      <trkpt lat="42.27607" lon="2.70262">
        <ele>855.712</ele>
        <time>2013-04-20T15:12:53Z</time>
      </trkpt>
      <trkpt lat="42.27601" lon="2.70264">
        <ele>853.331</ele>
        <time>2013-04-20T15:12:59Z</time>
      </trkpt>
      <trkpt lat="42.27579" lon="2.70275">
        <ele>847.585</ele>
        <time>2013-04-20T15:13:15Z</time>
      </trkpt>
      <trkpt lat="42.27575" lon="2.70276">
        <ele>847.562</ele>
        <time>2013-04-20T15:13:18Z</time>
      </trkpt>
      <trkpt lat="42.27564" lon="2.7028">
        <ele>848.583</ele>
        <time>2013-04-20T15:13:26Z</time>
      </trkpt>
      <trkpt lat="42.27562" lon="2.7028">
        <ele>849.536</ele>
        <time>2013-04-20T15:13:28Z</time>
      </trkpt>
      <trkpt lat="42.27542" lon="2.70291">
        <ele>853.819</ele>
        <time>2013-04-20T15:13:43Z</time>
      </trkpt>
      <trkpt lat="42.27539" lon="2.70292">
        <ele>854.397</ele>
        <time>2013-04-20T15:13:45Z</time>
      </trkpt>
      <trkpt lat="42.2753" lon="2.703">
        <ele>855.223</ele>
        <time>2013-04-20T15:13:53Z</time>
      </trkpt>
      <trkpt lat="42.27524" lon="2.70313">
        <ele>856.725</ele>
        <time>2013-04-20T15:14:03Z</time>
      </trkpt>
      <trkpt lat="42.27508" lon="2.70326">
        <ele>857.607</ele>
        <time>2013-04-20T15:14:17Z</time>
      </trkpt>
      <trkpt lat="42.27493" lon="2.70326">
        <ele>861.043</ele>
        <time>2013-04-20T15:14:30Z</time>
      </trkpt>
      <trkpt lat="42.27483" lon="2.70326">
        <ele>862.032</ele>
        <time>2013-04-20T15:14:38Z</time>
      </trkpt>
      <trkpt lat="42.2748" lon="2.70328">
        <ele>862.026</ele>
        <time>2013-04-20T15:14:40Z</time>
      </trkpt>
      <trkpt lat="42.27463" lon="2.70328">
        <ele>864.433</ele>
        <time>2013-04-20T15:14:54Z</time>
      </trkpt>
      <trkpt lat="42.27457" lon="2.70324">
        <ele>864.454</ele>
        <time>2013-04-20T15:14:59Z</time>
      </trkpt>
      <trkpt lat="42.27456" lon="2.70322">
        <ele>864.837</ele>
        <time>2013-04-20T15:15:01Z</time>
      </trkpt>
      <trkpt lat="42.27446" lon="2.70316">
        <ele>866.31</ele>
        <time>2013-04-20T15:15:13Z</time>
      </trkpt>
      <trkpt lat="42.27443" lon="2.70321">
        <ele>867.339</ele>
        <time>2013-04-20T15:15:19Z</time>
      </trkpt>
      <trkpt lat="42.27437" lon="2.70343">
        <ele>869.201</ele>
        <time>2013-04-20T15:15:34Z</time>
      </trkpt>
      <trkpt lat="42.27427" lon="2.70339">
        <ele>876.921</ele>
        <time>2013-04-20T15:15:46Z</time>
      </trkpt>
      <trkpt lat="42.27419" lon="2.7033">
        <ele>877.807</ele>
        <time>2013-04-20T15:15:57Z</time>
      </trkpt>
      <trkpt lat="42.27414" lon="2.70318">
        <ele>878.347</ele>
        <time>2013-04-20T15:16:11Z</time>
      </trkpt>
      <trkpt lat="42.27413" lon="2.70306">
        <ele>877.836</ele>
        <time>2013-04-20T15:16:23Z</time>
      </trkpt>
      <trkpt lat="42.2741" lon="2.70298">
        <ele>878.39</ele>
        <time>2013-04-20T15:16:34Z</time>
      </trkpt>
      <trkpt lat="42.27404" lon="2.70292">
        <ele>880.267</ele>
        <time>2013-04-20T15:16:47Z</time>
      </trkpt>
      <trkpt lat="42.27392" lon="2.70293">
        <ele>886.078</ele>
        <time>2013-04-20T15:17:02Z</time>
      </trkpt>
      <trkpt lat="42.27384" lon="2.70294">
        <ele>890.371</ele>
        <time>2013-04-20T15:17:19Z</time>
      </trkpt>
      <trkpt lat="42.27379" lon="2.70298">
        <ele>894.614</ele>
        <time>2013-04-20T15:17:31Z</time>
      </trkpt>
      <trkpt lat="42.27374" lon="2.7031">
        <ele>907.192</ele>
        <time>2013-04-20T15:17:44Z</time>
      </trkpt>
      <trkpt lat="42.27368" lon="2.7032">
        <ele>915.373</ele>
        <time>2013-04-20T15:17:57Z</time>
      </trkpt>
      <trkpt lat="42.27355" lon="2.70321">
        <ele>921.12</ele>
        <time>2013-04-20T15:18:11Z</time>
      </trkpt>
      <trkpt lat="42.27347" lon="2.70321">
        <ele>925.907</ele>
        <time>2013-04-20T15:18:24Z</time>
      </trkpt>
      <trkpt lat="42.27341" lon="2.70322">
        <ele>928.833</ele>
        <time>2013-04-20T15:18:36Z</time>
      </trkpt>
      <trkpt lat="42.27332" lon="2.70324">
        <ele>932.672</ele>
        <time>2013-04-20T15:18:50Z</time>
      </trkpt>
      <trkpt lat="42.27327" lon="2.70322">
        <ele>936.046</ele>
        <time>2013-04-20T15:19:02Z</time>
      </trkpt>
      <trkpt lat="42.27317" lon="2.70323">
        <ele>941.363</ele>
        <time>2013-04-20T15:19:15Z</time>
      </trkpt>
      <trkpt lat="42.27309" lon="2.70322">
        <ele>944.614</ele>
        <time>2013-04-20T15:19:26Z</time>
      </trkpt>
      <trkpt lat="42.27302" lon="2.70323">
        <ele>944.627</ele>
        <time>2013-04-20T15:19:38Z</time>
      </trkpt>
      <trkpt lat="42.27295" lon="2.70331">
        <ele>947.55</ele>
        <time>2013-04-20T15:19:52Z</time>
      </trkpt>
      <trkpt lat="42.27288" lon="2.7033">
        <ele>949.953</ele>
        <time>2013-04-20T15:20:06Z</time>
      </trkpt>
      <trkpt lat="42.27281" lon="2.70333">
        <ele>952.804</ele>
        <time>2013-04-20T15:20:19Z</time>
      </trkpt>
      <trkpt lat="42.27273" lon="2.70337">
        <ele>954.714</ele>
        <time>2013-04-20T15:20:31Z</time>
      </trkpt>
      <trkpt lat="42.27266" lon="2.70345">
        <ele>955.707</ele>
        <time>2013-04-20T15:20:41Z</time>
      </trkpt>
      <trkpt lat="42.27257" lon="2.70354">
        <ele>953.879</ele>
        <time>2013-04-20T15:20:53Z</time>
      </trkpt>
      <trkpt lat="42.27247" lon="2.70367">
        <ele>950.928</ele>
        <time>2013-04-20T15:21:04Z</time>
      </trkpt>
      <trkpt lat="42.27235" lon="2.70374">
        <ele>944.242</ele>
        <time>2013-04-20T15:21:17Z</time>
      </trkpt>
      <trkpt lat="42.27225" lon="2.70382">
        <ele>940.839</ele>
        <time>2013-04-20T15:21:31Z</time>
      </trkpt>
      <trkpt lat="42.27217" lon="2.70388">
        <ele>941.85</ele>
        <time>2013-04-20T15:21:45Z</time>
      </trkpt>
      <trkpt lat="42.27208" lon="2.70392">
        <ele>945.693</ele>
        <time>2013-04-20T15:21:57Z</time>
      </trkpt>
      <trkpt lat="42.272" lon="2.70403">
        <ele>952.316</ele>
        <time>2013-04-20T15:22:10Z</time>
      </trkpt>
      <trkpt lat="42.27191" lon="2.70412">
        <ele>955.275</ele>
        <time>2013-04-20T15:22:22Z</time>
      </trkpt>
      <trkpt lat="42.27184" lon="2.70423">
        <ele>957.628</ele>
        <time>2013-04-20T15:22:33Z</time>
      </trkpt>
      <trkpt lat="42.27173" lon="2.70434">
        <ele>954.72</ele>
        <time>2013-04-20T15:22:45Z</time>
      </trkpt>
      <trkpt lat="42.2716" lon="2.70443">
        <ele>958.607</ele>
        <time>2013-04-20T15:22:57Z</time>
      </trkpt>
      <trkpt lat="42.27153" lon="2.70454">
        <ele>961.971</ele>
        <time>2013-04-20T15:23:10Z</time>
      </trkpt>
      <trkpt lat="42.27146" lon="2.70469">
        <ele>967.73</ele>
        <time>2013-04-20T15:23:22Z</time>
      </trkpt>
      <trkpt lat="42.27139" lon="2.7048">
        <ele>969.644</ele>
        <time>2013-04-20T15:23:35Z</time>
      </trkpt>
      <trkpt lat="42.27134" lon="2.70491">
        <ele>975.961</ele>
        <time>2013-04-20T15:23:47Z</time>
      </trkpt>
      <trkpt lat="42.27129" lon="2.70499">
        <ele>978.342</ele>
        <time>2013-04-20T15:24:02Z</time>
      </trkpt>
      <trkpt lat="42.27118" lon="2.70512">
        <ele>982.645</ele>
        <time>2013-04-20T15:24:17Z</time>
      </trkpt>
      <trkpt lat="42.27109" lon="2.70519">
        <ele>986.558</ele>
        <time>2013-04-20T15:24:30Z</time>
      </trkpt>
      <trkpt lat="42.27101" lon="2.70525">
        <ele>988.447</ele>
        <time>2013-04-20T15:24:47Z</time>
      </trkpt>
      <trkpt lat="42.27097" lon="2.70532">
        <ele>988.429</ele>
        <time>2013-04-20T15:25:01Z</time>
      </trkpt>
      <trkpt lat="42.27089" lon="2.70539">
        <ele>988.921</ele>
        <time>2013-04-20T15:25:17Z</time>
      </trkpt>
      <trkpt lat="42.27083" lon="2.70544">
        <ele>988.907</ele>
        <time>2013-04-20T15:25:28Z</time>
      </trkpt>
      <trkpt lat="42.27076" lon="2.70554">
        <ele>986.968</ele>
        <time>2013-04-20T15:25:40Z</time>
      </trkpt>
      <trkpt lat="42.27072" lon="2.70564">
        <ele>984.167</ele>
        <time>2013-04-20T15:25:51Z</time>
      </trkpt>
      <trkpt lat="42.27067" lon="2.70571">
        <ele>983.151</ele>
        <time>2013-04-20T15:26:03Z</time>
      </trkpt>
      <trkpt lat="42.27058" lon="2.7058">
        <ele>987.498</ele>
        <time>2013-04-20T15:26:16Z</time>
      </trkpt>
      <trkpt lat="42.27052" lon="2.70588">
        <ele>992.219</ele>
        <time>2013-04-20T15:26:29Z</time>
      </trkpt>
      <trkpt lat="42.27043" lon="2.70594">
        <ele>992.232</ele>
        <time>2013-04-20T15:26:41Z</time>
      </trkpt>
      <trkpt lat="42.27033" lon="2.70598">
        <ele>992.745</ele>
        <time>2013-04-20T15:26:53Z</time>
      </trkpt>
      <trkpt lat="42.27022" lon="2.70611">
        <ele>998.018</ele>
        <time>2013-04-20T15:27:06Z</time>
      </trkpt>
      <trkpt lat="42.27022" lon="2.70614">
        <ele>998.098</ele>
        <time>2013-04-20T15:27:08Z</time>
      </trkpt>
      <trkpt lat="42.27017" lon="2.70633">
        <ele>1001.417</ele>
        <time>2013-04-20T15:27:22Z</time>
      </trkpt>
      <trkpt lat="42.27011" lon="2.70644">
        <ele>1003.307</ele>
        <time>2013-04-20T15:27:35Z</time>
      </trkpt>
      <trkpt lat="42.27003" lon="2.70649">
        <ele>1003.365</ele>
        <time>2013-04-20T15:27:46Z</time>
      </trkpt>
      <trkpt lat="42.2699" lon="2.70657">
        <ele>1005.284</ele>
        <time>2013-04-20T15:27:59Z</time>
      </trkpt>
      <trkpt lat="42.26976" lon="2.70667">
        <ele>1009.078</ele>
        <time>2013-04-20T15:28:13Z</time>
      </trkpt>
      <trkpt lat="42.26962" lon="2.70676">
        <ele>1016.725</ele>
        <time>2013-04-20T15:28:32Z</time>
      </trkpt>
      <trkpt lat="42.2695" lon="2.7068">
        <ele>1022.076</ele>
        <time>2013-04-20T15:28:42Z</time>
      </trkpt>
      <trkpt lat="42.26937" lon="2.70693">
        <ele>1021.589</ele>
        <time>2013-04-20T15:28:56Z</time>
      </trkpt>
      <trkpt lat="42.26933" lon="2.70695">
        <ele>1019.142</ele>
        <time>2013-04-20T15:29:01Z</time>
      </trkpt>
      <trkpt lat="42.26928" lon="2.70695">
        <ele>1016.762</ele>
        <time>2013-04-20T15:29:04Z</time>
      </trkpt>
      <trkpt lat="42.2692" lon="2.70699">
        <ele>1013.483</ele>
        <time>2013-04-20T15:29:08Z</time>
      </trkpt>
      <trkpt lat="42.26905" lon="2.70714">
        <ele>1004.211</ele>
        <time>2013-04-20T15:29:19Z</time>
      </trkpt>
      <trkpt lat="42.26903" lon="2.70722">
        <ele>999.907</ele>
        <time>2013-04-20T15:29:28Z</time>
      </trkpt>
      <trkpt lat="42.269" lon="2.70723">
        <ele>1006.28</ele>
        <time>2013-04-20T15:29:35Z</time>
      </trkpt>
      <trkpt lat="42.26893" lon="2.70719">
        <ele>1007.199</ele>
        <time>2013-04-20T15:29:42Z</time>
      </trkpt>
      <trkpt lat="42.26887" lon="2.70712">
        <ele>1011.413</ele>
        <time>2013-04-20T15:29:53Z</time>
      </trkpt>
      <trkpt lat="42.26877" lon="2.70701">
        <ele>1015.39</ele>
        <time>2013-04-20T15:30:05Z</time>
      </trkpt>
      <trkpt lat="42.26867" lon="2.70699">
        <ele>1017.761</ele>
        <time>2013-04-20T15:30:14Z</time>
      </trkpt>
      <trkpt lat="42.26857" lon="2.70697">
        <ele>1024.434</ele>
        <time>2013-04-20T15:30:21Z</time>
      </trkpt>
      <trkpt lat="42.26839" lon="2.70702">
        <ele>1028.867</ele>
        <time>2013-04-20T15:30:34Z</time>
      </trkpt>
      <trkpt lat="42.26836" lon="2.70702">
        <ele>1030.223</ele>
        <time>2013-04-20T15:30:37Z</time>
      </trkpt>
      <trkpt lat="42.26828" lon="2.70698">
        <ele>1031.283</ele>
        <time>2013-04-20T15:30:43Z</time>
      </trkpt>
      <trkpt lat="42.26815" lon="2.70697">
        <ele>1032.111</ele>
        <time>2013-04-20T15:30:51Z</time>
      </trkpt>
      <trkpt lat="42.26809" lon="2.70682">
        <ele>1028.807</ele>
        <time>2013-04-20T15:31:04Z</time>
      </trkpt>
      <trkpt lat="42.26805" lon="2.70686">
        <ele>1026.326</ele>
        <time>2013-04-20T15:31:18Z</time>
      </trkpt>
      <trkpt lat="42.26797" lon="2.70689">
        <ele>1024.945</ele>
        <time>2013-04-20T15:31:33Z</time>
      </trkpt>
      <trkpt lat="42.26793" lon="2.70679">
        <ele>1018.769</ele>
        <time>2013-04-20T15:31:45Z</time>
      </trkpt>
      <trkpt lat="42.26787" lon="2.7067">
        <ele>1016.726</ele>
        <time>2013-04-20T15:31:53Z</time>
      </trkpt>
      <trkpt lat="42.26775" lon="2.70678">
        <ele>1010.537</ele>
        <time>2013-04-20T15:32:07Z</time>
      </trkpt>
      <trkpt lat="42.26768" lon="2.70692">
        <ele>1006.21</ele>
        <time>2013-04-20T15:32:22Z</time>
      </trkpt>
      <trkpt lat="42.26767" lon="2.70696">
        <ele>1005.283</ele>
        <time>2013-04-20T15:32:26Z</time>
      </trkpt>
      <trkpt lat="42.26748" lon="2.70704">
        <ele>1002.394</ele>
        <time>2013-04-20T15:32:40Z</time>
      </trkpt>
      <trkpt lat="42.26738" lon="2.70714">
        <ele>997.557</ele>
        <time>2013-04-20T15:32:54Z</time>
      </trkpt>
      <trkpt lat="42.26731" lon="2.70714">
        <ele>994.122</ele>
        <time>2013-04-20T15:33:06Z</time>
      </trkpt>
      <trkpt lat="42.26729" lon="2.70714">
        <ele>993.707</ele>
        <time>2013-04-20T15:33:09Z</time>
      </trkpt>
      <trkpt lat="42.26727" lon="2.70713">
        <ele>992.723</ele>
        <time>2013-04-20T15:33:12Z</time>
      </trkpt>
      <trkpt lat="42.26718" lon="2.70722">
        <ele>986.092</ele>
        <time>2013-04-20T15:33:23Z</time>
      </trkpt>
      <trkpt lat="42.26707" lon="2.70736">
        <ele>980.286</ele>
        <time>2013-04-20T15:33:37Z</time>
      </trkpt>
      <trkpt lat="42.26699" lon="2.70743">
        <ele>979.223</ele>
        <time>2013-04-20T15:33:48Z</time>
      </trkpt>
      <trkpt lat="42.26696" lon="2.70742">
        <ele>979.294</ele>
        <time>2013-04-20T15:33:50Z</time>
      </trkpt>
      <trkpt lat="42.26684" lon="2.70753">
        <ele>976.887</ele>
        <time>2013-04-20T15:34:03Z</time>
      </trkpt>
      <trkpt lat="42.26675" lon="2.70761">
        <ele>974.07</ele>
        <time>2013-04-20T15:34:15Z</time>
      </trkpt>
      <trkpt lat="42.2667" lon="2.70767">
        <ele>972.576</ele>
        <time>2013-04-20T15:34:29Z</time>
      </trkpt>
      <trkpt lat="42.26665" lon="2.70762">
        <ele>971.69</ele>
        <time>2013-04-20T15:34:42Z</time>
      </trkpt>
      <trkpt lat="42.2666" lon="2.7077">
        <ele>967.219</ele>
        <time>2013-04-20T15:34:54Z</time>
      </trkpt>
      <trkpt lat="42.26647" lon="2.70774">
        <ele>960.007</ele>
        <time>2013-04-20T15:35:04Z</time>
      </trkpt>
      <trkpt lat="42.26646" lon="2.70774">
        <ele>959.571</ele>
        <time>2013-04-20T15:35:05Z</time>
      </trkpt>
      <trkpt lat="42.26638" lon="2.70778">
        <ele>955.21</ele>
        <time>2013-04-20T15:35:14Z</time>
      </trkpt>
      <trkpt lat="42.26631" lon="2.70782">
        <ele>953.344</ele>
        <time>2013-04-20T15:35:19Z</time>
      </trkpt>
      <trkpt lat="42.26616" lon="2.70787">
        <ele>954.711</ele>
        <time>2013-04-20T15:35:31Z</time>
      </trkpt>
      <trkpt lat="42.26607" lon="2.70795">
        <ele>955.222</ele>
        <time>2013-04-20T15:35:42Z</time>
      </trkpt>
      <trkpt lat="42.26595" lon="2.708">
        <ele>952.365</ele>
        <time>2013-04-20T15:35:56Z</time>
      </trkpt>
      <trkpt lat="42.2659" lon="2.70794">
        <ele>948.088</ele>
        <time>2013-04-20T15:36:05Z</time>
      </trkpt>
      <trkpt lat="42.26581" lon="2.70797">
        <ele>941.352</ele>
        <time>2013-04-20T15:36:17Z</time>
      </trkpt>
      <trkpt lat="42.26558" lon="2.70795">
        <ele>938.953</ele>
        <time>2013-04-20T15:36:33Z</time>
      </trkpt>
      <trkpt lat="42.26539" lon="2.7079">
        <ele>940.308</ele>
        <time>2013-04-20T15:36:45Z</time>
      </trkpt>
      <trkpt lat="42.26534" lon="2.70787">
        <ele>940.307</ele>
        <time>2013-04-20T15:36:48Z</time>
      </trkpt>
      <trkpt lat="42.26531" lon="2.70781">
        <ele>939.439</ele>
        <time>2013-04-20T15:36:52Z</time>
      </trkpt>
      <trkpt lat="42.26511" lon="2.70776">
        <ele>936.518</ele>
        <time>2013-04-20T15:37:07Z</time>
      </trkpt>
      <trkpt lat="42.26499" lon="2.70787">
        <ele>933.662</ele>
        <time>2013-04-20T15:37:22Z</time>
      </trkpt>
      <trkpt lat="42.2649" lon="2.70787">
        <ele>933.139</ele>
        <time>2013-04-20T15:37:36Z</time>
      </trkpt>
      <trkpt lat="42.26481" lon="2.70782">
        <ele>930.28</ele>
        <time>2013-04-20T15:37:50Z</time>
      </trkpt>
      <trkpt lat="42.26466" lon="2.70783">
        <ele>925.943</ele>
        <time>2013-04-20T15:38:02Z</time>
      </trkpt>
      <trkpt lat="42.26454" lon="2.70787">
        <ele>921.686</ele>
        <time>2013-04-20T15:38:13Z</time>
      </trkpt>
      <trkpt lat="42.26448" lon="2.70787">
        <ele>919.256</ele>
        <time>2013-04-20T15:38:17Z</time>
      </trkpt>
      <trkpt lat="42.26445" lon="2.70787">
        <ele>918.259</ele>
        <time>2013-04-20T15:38:19Z</time>
      </trkpt>
      <trkpt lat="42.26419" lon="2.70792">
        <ele>911.514</ele>
        <time>2013-04-20T15:38:35Z</time>
      </trkpt>
      <trkpt lat="42.26418" lon="2.70792">
        <ele>911.007</ele>
        <time>2013-04-20T15:38:36Z</time>
      </trkpt>
      <trkpt lat="42.26415" lon="2.70792">
        <ele>911.059</ele>
        <time>2013-04-20T15:38:38Z</time>
      </trkpt>
      <trkpt lat="42.26407" lon="2.70794">
        <ele>911.078</ele>
        <time>2013-04-20T15:38:44Z</time>
      </trkpt>
      <trkpt lat="42.26386" lon="2.70798">
        <ele>913.982</ele>
        <time>2013-04-20T15:38:58Z</time>
      </trkpt>
      <trkpt lat="42.26376" lon="2.70799">
        <ele>913.429</ele>
        <time>2013-04-20T15:39:05Z</time>
      </trkpt>
      <trkpt lat="42.2637" lon="2.70799">
        <ele>913.42</ele>
        <time>2013-04-20T15:39:12Z</time>
      </trkpt>
      <trkpt lat="42.26357" lon="2.70783">
        <ele>912.463</ele>
        <time>2013-04-20T15:39:28Z</time>
      </trkpt>
      <trkpt lat="42.26351" lon="2.70774">
        <ele>913.456</ele>
        <time>2013-04-20T15:39:41Z</time>
      </trkpt>
      <trkpt lat="42.26339" lon="2.70755">
        <ele>916.863</ele>
        <time>2013-04-20T15:39:57Z</time>
      </trkpt>
      <trkpt lat="42.26329" lon="2.70741">
        <ele>919.244</ele>
        <time>2013-04-20T15:40:09Z</time>
      </trkpt>
      <trkpt lat="42.26321" lon="2.70733">
        <ele>923.018</ele>
        <time>2013-04-20T15:40:23Z</time>
      </trkpt>
      <trkpt lat="42.2631" lon="2.70725">
        <ele>926.407</ele>
        <time>2013-04-20T15:40:40Z</time>
      </trkpt>
      <trkpt lat="42.26302" lon="2.70726">
        <ele>929.75</ele>
        <time>2013-04-20T15:40:55Z</time>
      </trkpt>
      <trkpt lat="42.26294" lon="2.70722">
        <ele>931.759</ele>
        <time>2013-04-20T15:41:07Z</time>
      </trkpt>
      <trkpt lat="42.26281" lon="2.70722">
        <ele>934.553</ele>
        <time>2013-04-20T15:41:21Z</time>
      </trkpt>
      <trkpt lat="42.26274" lon="2.7073">
        <ele>935.01</ele>
        <time>2013-04-20T15:41:35Z</time>
      </trkpt>
      <trkpt lat="42.26267" lon="2.70731">
        <ele>936.081</ele>
        <time>2013-04-20T15:41:46Z</time>
      </trkpt>
      <trkpt lat="42.26258" lon="2.70736">
        <ele>939.894</ele>
        <time>2013-04-20T15:42:03Z</time>
      </trkpt>
      <trkpt lat="42.26251" lon="2.70735">
        <ele>945.677</ele>
        <time>2013-04-20T15:42:17Z</time>
      </trkpt>
      <trkpt lat="42.26241" lon="2.70735">
        <ele>949.995</ele>
        <time>2013-04-20T15:42:32Z</time>
      </trkpt>
      <trkpt lat="42.26234" lon="2.70729">
        <ele>951.849</ele>
        <time>2013-04-20T15:42:47Z</time>
      </trkpt>
      <trkpt lat="42.26231" lon="2.70715">
        <ele>954.323</ele>
        <time>2013-04-20T15:43:01Z</time>
      </trkpt>
      <trkpt lat="42.26229" lon="2.70708">
        <ele>954.707</ele>
        <time>2013-04-20T15:43:13Z</time>
      </trkpt>
      <trkpt lat="42.26222" lon="2.70697">
        <ele>954.773</ele>
        <time>2013-04-20T15:43:27Z</time>
      </trkpt>
      <trkpt lat="42.26216" lon="2.70693">
        <ele>955.792</ele>
        <time>2013-04-20T15:43:39Z</time>
      </trkpt>
      <trkpt lat="42.26209" lon="2.70697">
        <ele>958.636</ele>
        <time>2013-04-20T15:43:53Z</time>
      </trkpt>
      <trkpt lat="42.26204" lon="2.70702">
        <ele>960.083</ele>
        <time>2013-04-20T15:44:08Z</time>
      </trkpt>
      <trkpt lat="42.26202" lon="2.70711">
        <ele>961.934</ele>
        <time>2013-04-20T15:44:19Z</time>
      </trkpt>
      <trkpt lat="42.26195" lon="2.70716">
        <ele>964.347</ele>
        <time>2013-04-20T15:44:32Z</time>
      </trkpt>
      <trkpt lat="42.26186" lon="2.70723">
        <ele>967.27</ele>
        <time>2013-04-20T15:44:45Z</time>
      </trkpt>
      <trkpt lat="42.26181" lon="2.70724">
        <ele>969.683</ele>
        <time>2013-04-20T15:44:59Z</time>
      </trkpt>
      <trkpt lat="42.26168" lon="2.70729">
        <ele>974.425</ele>
        <time>2013-04-20T15:45:15Z</time>
      </trkpt>
      <trkpt lat="42.26156" lon="2.70731">
        <ele>979.217</ele>
        <time>2013-04-20T15:45:31Z</time>
      </trkpt>
      <trkpt lat="42.26148" lon="2.70735">
        <ele>979.707</ele>
        <time>2013-04-20T15:45:46Z</time>
      </trkpt>
      <trkpt lat="42.26141" lon="2.70732">
        <ele>981.692</ele>
        <time>2013-04-20T15:46:02Z</time>
      </trkpt>
      <trkpt lat="42.26141" lon="2.70718">
        <ele>984.131</ele>
        <time>2013-04-20T15:46:14Z</time>
      </trkpt>
      <trkpt lat="42.2614" lon="2.70707">
        <ele>990.355</ele>
        <time>2013-04-20T15:46:28Z</time>
      </trkpt>
      <trkpt lat="42.26138" lon="2.70696">
        <ele>993.232</ele>
        <time>2013-04-20T15:46:42Z</time>
      </trkpt>
      <trkpt lat="42.26134" lon="2.70693">
        <ele>994.613</ele>
        <time>2013-04-20T15:46:56Z</time>
      </trkpt>
      <trkpt lat="42.26132" lon="2.70702">
        <ele>995.196</ele>
        <time>2013-04-20T15:47:04Z</time>
      </trkpt>
      <trkpt lat="42.26126" lon="2.70716">
        <ele>993.739</ele>
        <time>2013-04-20T15:47:17Z</time>
      </trkpt>
      <trkpt lat="42.26119" lon="2.7072">
        <ele>992.754</ele>
        <time>2013-04-20T15:47:29Z</time>
      </trkpt>
      <trkpt lat="42.26109" lon="2.70728">
        <ele>990.356</ele>
        <time>2013-04-20T15:47:42Z</time>
      </trkpt>
      <trkpt lat="42.26098" lon="2.70737">
        <ele>987.911</ele>
        <time>2013-04-20T15:47:55Z</time>
      </trkpt>
      <trkpt lat="42.26087" lon="2.70741">
        <ele>989.807</ele>
        <time>2013-04-20T15:48:08Z</time>
      </trkpt>
      <trkpt lat="42.26086" lon="2.70736">
        <ele>994.669</ele>
        <time>2013-04-20T15:48:21Z</time>
      </trkpt>
      <trkpt lat="42.26086" lon="2.70722">
        <ele>1002.878</ele>
        <time>2013-04-20T15:48:37Z</time>
      </trkpt>
      <trkpt lat="42.26087" lon="2.70719">
        <ele>1003.862</ele>
        <time>2013-04-20T15:48:41Z</time>
      </trkpt>
      <trkpt lat="42.26088" lon="2.70703">
        <ele>1005.239</ele>
        <time>2013-04-20T15:48:57Z</time>
      </trkpt>
      <trkpt lat="42.26085" lon="2.70693">
        <ele>1009.58</ele>
        <time>2013-04-20T15:49:13Z</time>
      </trkpt>
      <trkpt lat="42.26075" lon="2.70696">
        <ele>1008.173</ele>
        <time>2013-04-20T15:49:27Z</time>
      </trkpt>
      <trkpt lat="42.2607" lon="2.707">
        <ele>1007.626</ele>
        <time>2013-04-20T15:49:35Z</time>
      </trkpt>
      <trkpt lat="42.26059" lon="2.70704">
        <ele>1002.356</ele>
        <time>2013-04-20T15:49:49Z</time>
      </trkpt>
      <trkpt lat="42.26048" lon="2.7071">
        <ele>1000.959</ele>
        <time>2013-04-20T15:50:03Z</time>
      </trkpt>
      <trkpt lat="42.26038" lon="2.70713">
        <ele>1000.914</ele>
        <time>2013-04-20T15:50:15Z</time>
      </trkpt>
      <trkpt lat="42.26034" lon="2.70715">
        <ele>1007.107</ele>
        <time>2013-04-20T15:50:28Z</time>
      </trkpt>
      <trkpt lat="42.26027" lon="2.70722">
        <ele>1010.529</ele>
        <time>2013-04-20T15:50:42Z</time>
      </trkpt>
      <trkpt lat="42.26024" lon="2.70721">
        <ele>1012.998</ele>
        <time>2013-04-20T15:50:53Z</time>
      </trkpt>
      <trkpt lat="42.26023" lon="2.70713">
        <ele>1018.732</ele>
        <time>2013-04-20T15:51:06Z</time>
      </trkpt>
      <trkpt lat="42.2602" lon="2.70703">
        <ele>1023.969</ele>
        <time>2013-04-20T15:51:19Z</time>
      </trkpt>
      <trkpt lat="42.26019" lon="2.70692">
        <ele>1028.81</ele>
        <time>2013-04-20T15:51:32Z</time>
      </trkpt>
      <trkpt lat="42.26016" lon="2.70684">
        <ele>1032.193</ele>
        <time>2013-04-20T15:51:46Z</time>
      </trkpt>
      <trkpt lat="42.26007" lon="2.70685">
        <ele>1034.066</ele>
        <time>2013-04-20T15:52:00Z</time>
      </trkpt>
      <trkpt lat="42.25995" lon="2.70686">
        <ele>1033.621</ele>
        <time>2013-04-20T15:52:16Z</time>
      </trkpt>
      <trkpt lat="42.25986" lon="2.70689">
        <ele>1033.641</ele>
        <time>2013-04-20T15:52:29Z</time>
      </trkpt>
      <trkpt lat="42.25977" lon="2.70698">
        <ele>1035.005</ele>
        <time>2013-04-20T15:52:42Z</time>
      </trkpt>
      <trkpt lat="42.25966" lon="2.70708">
        <ele>1037.407</ele>
        <time>2013-04-20T15:52:56Z</time>
      </trkpt>
      <trkpt lat="42.25955" lon="2.70715">
        <ele>1040.846</ele>
        <time>2013-04-20T15:53:10Z</time>
      </trkpt>
      <trkpt lat="42.25946" lon="2.70722">
        <ele>1042.795</ele>
        <time>2013-04-20T15:53:22Z</time>
      </trkpt>
      <trkpt lat="42.25937" lon="2.70728">
        <ele>1043.769</ele>
        <time>2013-04-20T15:53:35Z</time>
      </trkpt>
      <trkpt lat="42.25925" lon="2.70733">
        <ele>1045.676</ele>
        <time>2013-04-20T15:53:50Z</time>
      </trkpt>
      <trkpt lat="42.25915" lon="2.70738">
        <ele>1046.177</ele>
        <time>2013-04-20T15:54:05Z</time>
      </trkpt>
      <trkpt lat="42.25911" lon="2.70745">
        <ele>1048.99</ele>
        <time>2013-04-20T15:54:18Z</time>
      </trkpt>
      <trkpt lat="42.25902" lon="2.70755">
        <ele>1053.363</ele>
        <time>2013-04-20T15:54:31Z</time>
      </trkpt>
      <trkpt lat="42.25894" lon="2.70758">
        <ele>1057.136</ele>
        <time>2013-04-20T15:54:45Z</time>
      </trkpt>
      <trkpt lat="42.25887" lon="2.70763">
        <ele>1061.917</ele>
        <time>2013-04-20T15:55:01Z</time>
      </trkpt>
      <trkpt lat="42.25882" lon="2.70764">
        <ele>1075.418</ele>
        <time>2013-04-20T15:55:16Z</time>
      </trkpt>
      <trkpt lat="42.25877" lon="2.70756">
        <ele>1080.707</ele>
        <time>2013-04-20T15:55:31Z</time>
      </trkpt>
      <trkpt lat="42.25873" lon="2.70764">
        <ele>1083.587</ele>
        <time>2013-04-20T15:55:45Z</time>
      </trkpt>
      <trkpt lat="42.2587" lon="2.70777">
        <ele>1087.946</ele>
        <time>2013-04-20T15:56:00Z</time>
      </trkpt>
      <trkpt lat="42.25867" lon="2.70782">
        <ele>1088.83</ele>
        <time>2013-04-20T15:56:06Z</time>
      </trkpt>
      <trkpt lat="42.25859" lon="2.70786">
        <ele>1089.317</ele>
        <time>2013-04-20T15:56:20Z</time>
      </trkpt>
      <trkpt lat="42.25857" lon="2.70776">
        <ele>1090.838</ele>
        <time>2013-04-20T15:56:33Z</time>
      </trkpt>
      <trkpt lat="42.25855" lon="2.70765">
        <ele>1093.261</ele>
        <time>2013-04-20T15:56:43Z</time>
      </trkpt>
      <trkpt lat="42.2586" lon="2.7075">
        <ele>1095.194</ele>
        <time>2013-04-20T15:56:54Z</time>
      </trkpt>
      <trkpt lat="42.25863" lon="2.70735">
        <ele>1096.598</ele>
        <time>2013-04-20T15:57:07Z</time>
      </trkpt>
      <trkpt lat="42.25862" lon="2.70735">
        <ele>1097.515</ele>
        <time>2013-04-20T15:57:09Z</time>
      </trkpt>
      <trkpt lat="42.25858" lon="2.70741">
        <ele>1099.426</ele>
        <time>2013-04-20T15:57:14Z</time>
      </trkpt>
      <trkpt lat="42.2585" lon="2.70759">
        <ele>1102.807</ele>
        <time>2013-04-20T15:57:28Z</time>
      </trkpt>
      <trkpt lat="42.2585" lon="2.70762">
        <ele>1102.893</ele>
        <time>2013-04-20T15:57:30Z</time>
      </trkpt>
      <trkpt lat="42.25841" lon="2.70782">
        <ele>1103.392</ele>
        <time>2013-04-20T15:57:47Z</time>
      </trkpt>
      <trkpt lat="42.25836" lon="2.70786">
        <ele>1105.776</ele>
        <time>2013-04-20T15:58:02Z</time>
      </trkpt>
      <trkpt lat="42.25836" lon="2.70783">
        <ele>1106.113</ele>
        <time>2013-04-20T15:58:19Z</time>
      </trkpt>
      <trkpt lat="42.25835" lon="2.70783">
        <ele>1107.164</ele>
        <time>2013-04-20T15:58:26Z</time>
      </trkpt>
      <trkpt lat="42.25842" lon="2.7077">
        <ele>1106.687</ele>
        <time>2013-04-20T15:58:34Z</time>
      </trkpt>
      <trkpt lat="42.25846" lon="2.70755">
        <ele>1108.16</ele>
        <time>2013-04-20T15:58:44Z</time>
      </trkpt>
      <trkpt lat="42.25854" lon="2.70737">
        <ele>1109.535</ele>
        <time>2013-04-20T15:58:58Z</time>
      </trkpt>
      <trkpt lat="42.25857" lon="2.70726">
        <ele>1110.086</ele>
        <time>2013-04-20T15:59:05Z</time>
      </trkpt>
      <trkpt lat="42.25858" lon="2.70717">
        <ele>1109.514</ele>
        <time>2013-04-20T15:59:11Z</time>
      </trkpt>
      <trkpt lat="42.25865" lon="2.70695">
        <ele>1110.507</ele>
        <time>2013-04-20T15:59:26Z</time>
      </trkpt>
      <trkpt lat="42.2587" lon="2.70679">
        <ele>1112.417</ele>
        <time>2013-04-20T15:59:37Z</time>
      </trkpt>
      <trkpt lat="42.2587" lon="2.70675">
        <ele>1112.986</ele>
        <time>2013-04-20T15:59:39Z</time>
      </trkpt>
      <trkpt lat="42.25869" lon="2.70672">
        <ele>1113.34</ele>
        <time>2013-04-20T15:59:42Z</time>
      </trkpt>
      <trkpt lat="42.25872" lon="2.70664">
        <ele>1116.737</ele>
        <time>2013-04-20T15:59:50Z</time>
      </trkpt>
      <trkpt lat="42.25876" lon="2.70652">
        <ele>1121.078</ele>
        <time>2013-04-20T16:00:02Z</time>
      </trkpt>
      <trkpt lat="42.25877" lon="2.70645">
        <ele>1121.511</ele>
        <time>2013-04-20T16:00:10Z</time>
      </trkpt>
      <trkpt lat="42.25879" lon="2.7063">
        <ele>1121.044</ele>
        <time>2013-04-20T16:00:25Z</time>
      </trkpt>
      <trkpt lat="42.25881" lon="2.70629">
        <ele>1120.666</ele>
        <time>2013-04-20T16:00:42Z</time>
      </trkpt>
      <trkpt lat="42.2588" lon="2.7063">
        <ele>1121.529</ele>
        <time>2013-04-20T16:00:57Z</time>
      </trkpt>
      <trkpt lat="42.2588" lon="2.70631">
        <ele>1120.121</ele>
        <time>2013-04-20T16:01:10Z</time>
      </trkpt>
      <trkpt lat="42.2588" lon="2.7063">
        <ele>1119.607</ele>
        <time>2013-04-20T16:01:27Z</time>
      </trkpt>
      <trkpt lat="42.2588" lon="2.70631">
        <ele>1120.66</ele>
        <time>2013-04-20T16:01:51Z</time>
      </trkpt>
      <trkpt lat="42.2588" lon="2.70634">
        <ele>1120.189</ele>
        <time>2013-04-20T16:02:05Z</time>
      </trkpt>
      <trkpt lat="42.2588" lon="2.70642">
        <ele>1120.133</ele>
        <time>2013-04-20T16:02:10Z</time>
      </trkpt>
      <trkpt lat="42.25873" lon="2.70667">
        <ele>1116.21</ele>
        <time>2013-04-20T16:02:27Z</time>
      </trkpt>
      <trkpt lat="42.25872" lon="2.70671">
        <ele>1115.321</ele>
        <time>2013-04-20T16:02:29Z</time>
      </trkpt>
      <trkpt lat="42.25864" lon="2.70704">
        <ele>1111.974</ele>
        <time>2013-04-20T16:02:40Z</time>
      </trkpt>
      <trkpt lat="42.25854" lon="2.70735">
        <ele>1109.057</ele>
        <time>2013-04-20T16:02:51Z</time>
      </trkpt>
      <trkpt lat="42.25845" lon="2.7076">
        <ele>1107.196</ele>
        <time>2013-04-20T16:03:00Z</time>
      </trkpt>
      <trkpt lat="42.25833" lon="2.70781">
        <ele>1105.731</ele>
        <time>2013-04-20T16:03:12Z</time>
      </trkpt>
      <trkpt lat="42.25827" lon="2.70786">
        <ele>1107.124</ele>
        <time>2013-04-20T16:03:27Z</time>
      </trkpt>
      <trkpt lat="42.25825" lon="2.70789">
        <ele>1109.007</ele>
        <time>2013-04-20T16:03:43Z</time>
      </trkpt>
      <trkpt lat="42.25822" lon="2.70788">
        <ele>1109.043</ele>
        <time>2013-04-20T16:03:54Z</time>
      </trkpt>
      <trkpt lat="42.25823" lon="2.70782">
        <ele>1107.142</ele>
        <time>2013-04-20T16:04:13Z</time>
      </trkpt>
      <trkpt lat="42.25822" lon="2.70776">
        <ele>1105.296</ele>
        <time>2013-04-20T16:04:28Z</time>
      </trkpt>
      <trkpt lat="42.2582" lon="2.70774">
        <ele>1102.383</ele>
        <time>2013-04-20T16:04:44Z</time>
      </trkpt>
      <trkpt lat="42.25818" lon="2.70775">
        <ele>1099.944</ele>
        <time>2013-04-20T16:04:57Z</time>
      </trkpt>
      <trkpt lat="42.25817" lon="2.70771">
        <ele>1097.067</ele>
        <time>2013-04-20T16:05:08Z</time>
      </trkpt>
      <trkpt lat="42.25812" lon="2.7077">
        <ele>1093.65</ele>
        <time>2013-04-20T16:05:23Z</time>
      </trkpt>
      <trkpt lat="42.25812" lon="2.70765">
        <ele>1090.815</ele>
        <time>2013-04-20T16:05:35Z</time>
      </trkpt>
      <trkpt lat="42.2581" lon="2.70762">
        <ele>1088.865</ele>
        <time>2013-04-20T16:05:46Z</time>
      </trkpt>
      <trkpt lat="42.25805" lon="2.70767">
        <ele>1086.011</ele>
        <time>2013-04-20T16:05:59Z</time>
      </trkpt>
      <trkpt lat="42.258" lon="2.70774">
        <ele>1082.607</ele>
        <time>2013-04-20T16:06:11Z</time>
      </trkpt>
      <trkpt lat="42.25799" lon="2.70784">
        <ele>1076.355</ele>
        <time>2013-04-20T16:06:25Z</time>
      </trkpt>
      <trkpt lat="42.25797" lon="2.70794">
        <ele>1072.034</ele>
        <time>2013-04-20T16:06:39Z</time>
      </trkpt>
      <trkpt lat="42.25795" lon="2.70806">
        <ele>1069.638</ele>
        <time>2013-04-20T16:06:54Z</time>
      </trkpt>
      <trkpt lat="42.25793" lon="2.70819">
        <ele>1066.725</ele>
        <time>2013-04-20T16:07:07Z</time>
      </trkpt>
      <trkpt lat="42.25789" lon="2.70829">
        <ele>1067.796</ele>
        <time>2013-04-20T16:07:17Z</time>
      </trkpt>
      <trkpt lat="42.25788" lon="2.70836">
        <ele>1067.269</ele>
        <time>2013-04-20T16:07:23Z</time>
      </trkpt>
      <trkpt lat="42.25783" lon="2.70848">
        <ele>1063.822</ele>
        <time>2013-04-20T16:07:37Z</time>
      </trkpt>
      <trkpt lat="42.25779" lon="2.70859">
        <ele>1062.495</ele>
        <time>2013-04-20T16:07:51Z</time>
      </trkpt>
      <trkpt lat="42.25776" lon="2.70869">
        <ele>1059.049</ele>
        <time>2013-04-20T16:08:04Z</time>
      </trkpt>
      <trkpt lat="42.25772" lon="2.70878">
        <ele>1054.723</ele>
        <time>2013-04-20T16:08:17Z</time>
      </trkpt>
      <trkpt lat="42.25768" lon="2.70885">
        <ele>1053.307</ele>
        <time>2013-04-20T16:08:27Z</time>
      </trkpt>
      <trkpt lat="42.25764" lon="2.70884">
        <ele>1055.713</ele>
        <time>2013-04-20T16:08:39Z</time>
      </trkpt>
      <trkpt lat="42.25761" lon="2.7089">
        <ele>1053.722</ele>
        <time>2013-04-20T16:08:49Z</time>
      </trkpt>
      <trkpt lat="42.25759" lon="2.70899">
        <ele>1049.416</ele>
        <time>2013-04-20T16:09:04Z</time>
      </trkpt>
      <trkpt lat="42.25757" lon="2.70905">
        <ele>1048.073</ele>
        <time>2013-04-20T16:09:11Z</time>
      </trkpt>
      <trkpt lat="42.25756" lon="2.70918">
        <ele>1044.664</ele>
        <time>2013-04-20T16:09:23Z</time>
      </trkpt>
      <trkpt lat="42.25754" lon="2.70929">
        <ele>1041.387</ele>
        <time>2013-04-20T16:09:35Z</time>
      </trkpt>
      <trkpt lat="42.25753" lon="2.70932">
        <ele>1040.85</ele>
        <time>2013-04-20T16:09:38Z</time>
      </trkpt>
      <trkpt lat="42.25751" lon="2.7094">
        <ele>1035.042</ele>
        <time>2013-04-20T16:09:50Z</time>
      </trkpt>
      <trkpt lat="42.25749" lon="2.70951">
        <ele>1028.822</ele>
        <time>2013-04-20T16:10:02Z</time>
      </trkpt>
      <trkpt lat="42.25748" lon="2.70964">
        <ele>1023.514</ele>
        <time>2013-04-20T16:10:14Z</time>
      </trkpt>
      <trkpt lat="42.25746" lon="2.70974">
        <ele>1020.107</ele>
        <time>2013-04-20T16:10:28Z</time>
      </trkpt>
      <trkpt lat="42.25745" lon="2.70983">
        <ele>1017.798</ele>
        <time>2013-04-20T16:10:40Z</time>
      </trkpt>
      <trkpt lat="42.25741" lon="2.70985">
        <ele>1017.227</ele>
        <time>2013-04-20T16:10:47Z</time>
      </trkpt>
      <trkpt lat="42.25739" lon="2.71001">
        <ele>1020.611</ele>
        <time>2013-04-20T16:10:54Z</time>
      </trkpt>
      <trkpt lat="42.2574" lon="2.71017">
        <ele>1023.588</ele>
        <time>2013-04-20T16:10:59Z</time>
      </trkpt>
      <trkpt lat="42.25747" lon="2.71046">
        <ele>1023.929</ele>
        <time>2013-04-20T16:11:08Z</time>
      </trkpt>
      <trkpt lat="42.25732" lon="2.71047">
        <ele>1024.442</ele>
        <time>2013-04-20T16:11:17Z</time>
      </trkpt>
      <trkpt lat="42.25719" lon="2.71014">
        <ele>1022.565</ele>
        <time>2013-04-20T16:11:30Z</time>
      </trkpt>
      <trkpt lat="42.25709" lon="2.70987">
        <ele>1021.145</ele>
        <time>2013-04-20T16:11:41Z</time>
      </trkpt>
      <trkpt lat="42.25707" lon="2.70988">
        <ele>1020.147</ele>
        <time>2013-04-20T16:11:55Z</time>
      </trkpt>
      <trkpt lat="42.25707" lon="2.70991">
        <ele>1018.711</ele>
        <time>2013-04-20T16:12:01Z</time>
      </trkpt>
      <trkpt lat="42.25709" lon="2.71004">
        <ele>1017.207</ele>
        <time>2013-04-20T16:12:08Z</time>
      </trkpt>
      <trkpt lat="42.25713" lon="2.71015">
        <ele>1016.728</ele>
        <time>2013-04-20T16:12:17Z</time>
      </trkpt>
      <trkpt lat="42.25712" lon="2.71022">
        <ele>1011.957</ele>
        <time>2013-04-20T16:12:27Z</time>
      </trkpt>
      <trkpt lat="42.25714" lon="2.71024">
        <ele>1008.651</ele>
        <time>2013-04-20T16:12:33Z</time>
      </trkpt>
      <trkpt lat="42.25712" lon="2.71038">
        <ele>1003.898</ele>
        <time>2013-04-20T16:12:47Z</time>
      </trkpt>
      <trkpt lat="42.25708" lon="2.71037">
        <ele>1004.259</ele>
        <time>2013-04-20T16:12:51Z</time>
      </trkpt>
      <trkpt lat="42.25706" lon="2.71033">
        <ele>1005.712</ele>
        <time>2013-04-20T16:12:55Z</time>
      </trkpt>
      <trkpt lat="42.257" lon="2.71026">
        <ele>1005.795</ele>
        <time>2013-04-20T16:13:05Z</time>
      </trkpt>
      <trkpt lat="42.25695" lon="2.71017">
        <ele>1001.825</ele>
        <time>2013-04-20T16:13:17Z</time>
      </trkpt>
      <trkpt lat="42.25694" lon="2.71015">
        <ele>1000.926</ele>
        <time>2013-04-20T16:13:20Z</time>
      </trkpt>
      <trkpt lat="42.25692" lon="2.71013">
        <ele>999.908</ele>
        <time>2013-04-20T16:13:23Z</time>
      </trkpt>
      <trkpt lat="42.25688" lon="2.71008">
        <ele>998.007</ele>
        <time>2013-04-20T16:13:33Z</time>
      </trkpt>
      <trkpt lat="42.25682" lon="2.7101">
        <ele>993.736</ele>
        <time>2013-04-20T16:13:46Z</time>
      </trkpt>
      <trkpt lat="42.25678" lon="2.71017">
        <ele>987.945</ele>
        <time>2013-04-20T16:13:57Z</time>
      </trkpt>
      <trkpt lat="42.25677" lon="2.71017">
        <ele>987.429</ele>
        <time>2013-04-20T16:13:59Z</time>
      </trkpt>
      <trkpt lat="42.2567" lon="2.71014">
        <ele>984.186</ele>
        <time>2013-04-20T16:14:10Z</time>
      </trkpt>
      <trkpt lat="42.25669" lon="2.71016">
        <ele>983.187</ele>
        <time>2013-04-20T16:14:13Z</time>
      </trkpt>
      <trkpt lat="42.25661" lon="2.71021">
        <ele>979.74</ele>
        <time>2013-04-20T16:14:23Z</time>
      </trkpt>
      <trkpt lat="42.25661" lon="2.71018">
        <ele>977.853</ele>
        <time>2013-04-20T16:14:28Z</time>
      </trkpt>
      <trkpt lat="42.25658" lon="2.71013">
        <ele>970.623</ele>
        <time>2013-04-20T16:14:39Z</time>
      </trkpt>
      <trkpt lat="42.25653" lon="2.71015">
        <ele>968.283</ele>
        <time>2013-04-20T16:14:44Z</time>
      </trkpt>
      <trkpt lat="42.25648" lon="2.71039">
        <ele>963.411</ele>
        <time>2013-04-20T16:14:56Z</time>
      </trkpt>
      <trkpt lat="42.25645" lon="2.71052">
        <ele>961.507</ele>
        <time>2013-04-20T16:15:01Z</time>
      </trkpt>
      <trkpt lat="42.25637" lon="2.71058">
        <ele>957.136</ele>
        <time>2013-04-20T16:15:10Z</time>
      </trkpt>
      <trkpt lat="42.25631" lon="2.71067">
        <ele>956.785</ele>
        <time>2013-04-20T16:15:15Z</time>
      </trkpt>
      <trkpt lat="42.25627" lon="2.71084">
        <ele>956.719</ele>
        <time>2013-04-20T16:15:26Z</time>
      </trkpt>
      <trkpt lat="42.25626" lon="2.7109">
        <ele>955.726</ele>
        <time>2013-04-20T16:15:32Z</time>
      </trkpt>
      <trkpt lat="42.25621" lon="2.71105">
        <ele>954.317</ele>
        <time>2013-04-20T16:15:43Z</time>
      </trkpt>
      <trkpt lat="42.25619" lon="2.7112">
        <ele>949.44</ele>
        <time>2013-04-20T16:15:54Z</time>
      </trkpt>
      <trkpt lat="42.25618" lon="2.71125">
        <ele>948.023</ele>
        <time>2013-04-20T16:15:57Z</time>
      </trkpt>
      <trkpt lat="42.25616" lon="2.71131">
        <ele>945.665</ele>
        <time>2013-04-20T16:16:03Z</time>
      </trkpt>
      <trkpt lat="42.25614" lon="2.71148">
        <ele>945.668</ele>
        <time>2013-04-20T16:16:11Z</time>
      </trkpt>
      <trkpt lat="42.25608" lon="2.7117">
        <ele>940.314</ele>
        <time>2013-04-20T16:16:25Z</time>
      </trkpt>
      <trkpt lat="42.25608" lon="2.71181">
        <ele>938.407</ele>
        <time>2013-04-20T16:16:37Z</time>
      </trkpt>
      <trkpt lat="42.25607" lon="2.71193">
        <ele>938.94</ele>
        <time>2013-04-20T16:16:48Z</time>
      </trkpt>
      <trkpt lat="42.25605" lon="2.71194">
        <ele>937.429</ele>
        <time>2013-04-20T16:16:52Z</time>
      </trkpt>
      <trkpt lat="42.25599" lon="2.712">
        <ele>935.063</ele>
        <time>2013-04-20T16:16:58Z</time>
      </trkpt>
      <trkpt lat="42.25593" lon="2.71212">
        <ele>933.14</ele>
        <time>2013-04-20T16:17:09Z</time>
      </trkpt>
      <trkpt lat="42.25592" lon="2.71215">
        <ele>933.111</ele>
        <time>2013-04-20T16:17:11Z</time>
      </trkpt>
      <trkpt lat="42.25592" lon="2.7122">
        <ele>933.114</ele>
        <time>2013-04-20T16:17:14Z</time>
      </trkpt>
      <trkpt lat="42.25589" lon="2.71233">
        <ele>929.387</ele>
        <time>2013-04-20T16:17:23Z</time>
      </trkpt>
      <trkpt lat="42.25582" lon="2.71245">
        <ele>926.929</ele>
        <time>2013-04-20T16:17:35Z</time>
      </trkpt>
      <trkpt lat="42.25581" lon="2.71257">
        <ele>924.9</ele>
        <time>2013-04-20T16:17:48Z</time>
      </trkpt>
      <trkpt lat="42.25578" lon="2.71271">
        <ele>921.62</ele>
        <time>2013-04-20T16:18:01Z</time>
      </trkpt>
      <trkpt lat="42.25574" lon="2.71284">
        <ele>915.307</ele>
        <time>2013-04-20T16:18:14Z</time>
      </trkpt>
      <trkpt lat="42.25572" lon="2.71296">
        <ele>910.556</ele>
        <time>2013-04-20T16:18:28Z</time>
      </trkpt>
      <trkpt lat="42.25568" lon="2.71311">
        <ele>906.745</ele>
        <time>2013-04-20T16:18:40Z</time>
      </trkpt>
      <trkpt lat="42.25567" lon="2.71313">
        <ele>905.289</ele>
        <time>2013-04-20T16:18:43Z</time>
      </trkpt>
      <trkpt lat="42.25563" lon="2.71324">
        <ele>899.086</ele>
        <time>2013-04-20T16:18:56Z</time>
      </trkpt>
      <trkpt lat="42.25557" lon="2.71341">
        <ele>898.077</ele>
        <time>2013-04-20T16:19:10Z</time>
      </trkpt>
      <trkpt lat="42.25555" lon="2.71347">
        <ele>895.67</ele>
        <time>2013-04-20T16:19:15Z</time>
      </trkpt>
      <trkpt lat="42.25549" lon="2.71354">
        <ele>887.983</ele>
        <time>2013-04-20T16:19:27Z</time>
      </trkpt>
      <trkpt lat="42.25546" lon="2.71359">
        <ele>885.596</ele>
        <time>2013-04-20T16:19:32Z</time>
      </trkpt>
      <trkpt lat="42.25539" lon="2.71371">
        <ele>883.131</ele>
        <time>2013-04-20T16:19:41Z</time>
      </trkpt>
      <trkpt lat="42.25538" lon="2.71372">
        <ele>883.124</ele>
        <time>2013-04-20T16:19:42Z</time>
      </trkpt>
      <trkpt lat="42.25536" lon="2.71378">
        <ele>883.107</ele>
        <time>2013-04-20T16:19:45Z</time>
      </trkpt>
      <trkpt lat="42.25532" lon="2.7138">
        <ele>883.143</ele>
        <time>2013-04-20T16:19:48Z</time>
      </trkpt>
      <trkpt lat="42.25522" lon="2.71398">
        <ele>882.642</ele>
        <time>2013-04-20T16:20:00Z</time>
      </trkpt>
      <trkpt lat="42.25515" lon="2.71406">
        <ele>878.316</ele>
        <time>2013-04-20T16:20:12Z</time>
      </trkpt>
      <trkpt lat="42.25509" lon="2.7141">
        <ele>873.043</ele>
        <time>2013-04-20T16:20:24Z</time>
      </trkpt>
      <trkpt lat="42.25511" lon="2.71414">
        <ele>871.644</ele>
        <time>2013-04-20T16:20:31Z</time>
      </trkpt>
      <trkpt lat="42.25512" lon="2.71419">
        <ele>871.147</ele>
        <time>2013-04-20T16:20:34Z</time>
      </trkpt>
      <trkpt lat="42.25513" lon="2.71431">
        <ele>871.62</ele>
        <time>2013-04-20T16:20:38Z</time>
      </trkpt>
      <trkpt lat="42.25522" lon="2.71452">
        <ele>875.981</ele>
        <time>2013-04-20T16:20:46Z</time>
      </trkpt>
      <trkpt lat="42.25526" lon="2.7149">
        <ele>878.861</ele>
        <time>2013-04-20T16:20:57Z</time>
      </trkpt>
      <trkpt lat="42.25519" lon="2.71498">
        <ele>876.917</ele>
        <time>2013-04-20T16:21:07Z</time>
      </trkpt>
      <trkpt lat="42.25515" lon="2.71499">
        <ele>876.407</ele>
        <time>2013-04-20T16:21:11Z</time>
      </trkpt>
      <trkpt lat="42.25499" lon="2.71489">
        <ele>874.552</ele>
        <time>2013-04-20T16:21:27Z</time>
      </trkpt>
      <trkpt lat="42.25485" lon="2.71474">
        <ele>874.011</ele>
        <time>2013-04-20T16:21:41Z</time>
      </trkpt>
      <trkpt lat="42.25469" lon="2.71464">
        <ele>875.445</ele>
        <time>2013-04-20T16:21:54Z</time>
      </trkpt>
      <trkpt lat="42.25455" lon="2.71459">
        <ele>874.572</ele>
        <time>2013-04-20T16:22:05Z</time>
      </trkpt>
      <trkpt lat="42.25453" lon="2.71459">
        <ele>874.013</ele>
        <time>2013-04-20T16:22:08Z</time>
      </trkpt>
      <trkpt lat="42.25449" lon="2.71458">
        <ele>873.566</ele>
        <time>2013-04-20T16:22:11Z</time>
      </trkpt>
      <trkpt lat="42.25434" lon="2.71448">
        <ele>874.579</ele>
        <time>2013-04-20T16:22:25Z</time>
      </trkpt>
      <trkpt lat="42.25433" lon="2.71447">
        <ele>874.596</ele>
        <time>2013-04-20T16:22:26Z</time>
      </trkpt>
      <trkpt lat="42.25424" lon="2.71446">
        <ele>873.531</ele>
        <time>2013-04-20T16:22:34Z</time>
      </trkpt>
      <trkpt lat="42.2542" lon="2.71444">
        <ele>873.024</ele>
        <time>2013-04-20T16:22:38Z</time>
      </trkpt>
      <trkpt lat="42.25416" lon="2.71443">
        <ele>872.107</ele>
        <time>2013-04-20T16:22:42Z</time>
      </trkpt>
      <trkpt lat="42.25398" lon="2.71441">
        <ele>867.383</ele>
        <time>2013-04-20T16:22:56Z</time>
      </trkpt>
      <trkpt lat="42.25394" lon="2.71441">
        <ele>866.312</ele>
        <time>2013-04-20T16:22:59Z</time>
      </trkpt>
      <trkpt lat="42.25382" lon="2.71443">
        <ele>857.696</ele>
        <time>2013-04-20T16:23:13Z</time>
      </trkpt>
      <trkpt lat="42.25375" lon="2.71454">
        <ele>853.353</ele>
        <time>2013-04-20T16:23:25Z</time>
      </trkpt>
      <trkpt lat="42.25369" lon="2.71464">
        <ele>848.034</ele>
        <time>2013-04-20T16:23:38Z</time>
      </trkpt>
      <trkpt lat="42.25359" lon="2.71462">
        <ele>841.827</ele>
        <time>2013-04-20T16:23:50Z</time>
      </trkpt>
      <trkpt lat="42.25357" lon="2.7146">
        <ele>839.92</ele>
        <time>2013-04-20T16:23:53Z</time>
      </trkpt>
      <trkpt lat="42.25352" lon="2.71464">
        <ele>834.616</ele>
        <time>2013-04-20T16:24:03Z</time>
      </trkpt>
      <trkpt lat="42.25343" lon="2.7147">
        <ele>833.676</ele>
        <time>2013-04-20T16:24:15Z</time>
      </trkpt>
      <trkpt lat="42.25333" lon="2.7148">
        <ele>833.113</ele>
        <time>2013-04-20T16:24:27Z</time>
      </trkpt>
      <trkpt lat="42.25326" lon="2.71494">
        <ele>833.107</ele>
        <time>2013-04-20T16:24:39Z</time>
      </trkpt>
      <trkpt lat="42.25326" lon="2.71496">
        <ele>833.175</ele>
        <time>2013-04-20T16:24:40Z</time>
      </trkpt>
      <trkpt lat="42.25324" lon="2.71498">
        <ele>833.644</ele>
        <time>2013-04-20T16:24:42Z</time>
      </trkpt>
      <trkpt lat="42.2532" lon="2.71499">
        <ele>833.698</ele>
        <time>2013-04-20T16:24:47Z</time>
      </trkpt>
      <trkpt lat="42.2531" lon="2.71495">
        <ele>830.785</ele>
        <time>2013-04-20T16:24:59Z</time>
      </trkpt>
      <trkpt lat="42.25304" lon="2.71499">
        <ele>826.916</ele>
        <time>2013-04-20T16:25:11Z</time>
      </trkpt>
      <trkpt lat="42.25296" lon="2.71502">
        <ele>822.659</ele>
        <time>2013-04-20T16:25:24Z</time>
      </trkpt>
      <trkpt lat="42.2529" lon="2.71501">
        <ele>818.772</ele>
        <time>2013-04-20T16:25:36Z</time>
      </trkpt>
      <trkpt lat="42.25291" lon="2.71494">
        <ele>813.481</ele>
        <time>2013-04-20T16:25:47Z</time>
      </trkpt>
      <trkpt lat="42.25287" lon="2.71491">
        <ele>807.261</ele>
        <time>2013-04-20T16:25:59Z</time>
      </trkpt>
      <trkpt lat="42.25282" lon="2.71491">
        <ele>801.917</ele>
        <time>2013-04-20T16:26:13Z</time>
      </trkpt>
      <trkpt lat="42.25278" lon="2.71492">
        <ele>799.007</ele>
        <time>2013-04-20T16:26:23Z</time>
      </trkpt>
      <trkpt lat="42.25277" lon="2.71489">
        <ele>791.892</ele>
        <time>2013-04-20T16:26:38Z</time>
      </trkpt>
      <trkpt lat="42.25274" lon="2.71488">
        <ele>789.951</ele>
        <time>2013-04-20T16:26:52Z</time>
      </trkpt>
      <trkpt lat="42.25268" lon="2.71485">
        <ele>790.835</ele>
        <time>2013-04-20T16:27:05Z</time>
      </trkpt>
      <trkpt lat="42.25261" lon="2.71488">
        <ele>791.882</ele>
        <time>2013-04-20T16:27:21Z</time>
      </trkpt>
      <trkpt lat="42.25257" lon="2.71488">
        <ele>790.393</ele>
        <time>2013-04-20T16:27:33Z</time>
      </trkpt>
      <trkpt lat="42.25253" lon="2.71484">
        <ele>787.586</ele>
        <time>2013-04-20T16:27:45Z</time>
      </trkpt>
      <trkpt lat="42.25249" lon="2.71488">
        <ele>784.639</ele>
        <time>2013-04-20T16:27:59Z</time>
      </trkpt>
      <trkpt lat="42.25244" lon="2.71486">
        <ele>783.172</ele>
        <time>2013-04-20T16:28:11Z</time>
      </trkpt>
      <trkpt lat="42.2524" lon="2.71489">
        <ele>780.313</ele>
        <time>2013-04-20T16:28:25Z</time>
      </trkpt>
      <trkpt lat="42.25236" lon="2.71492">
        <ele>777.414</ele>
        <time>2013-04-20T16:28:37Z</time>
      </trkpt>
      <trkpt lat="42.25228" lon="2.71491">
        <ele>776.907</ele>
        <time>2013-04-20T16:28:50Z</time>
      </trkpt>
      <trkpt lat="42.25222" lon="2.71492">
        <ele>777.891</ele>
        <time>2013-04-20T16:29:04Z</time>
      </trkpt>
      <trkpt lat="42.25219" lon="2.71498">
        <ele>776.93</ele>
        <time>2013-04-20T16:29:16Z</time>
      </trkpt>
      <trkpt lat="42.25212" lon="2.71503">
        <ele>775.934</ele>
        <time>2013-04-20T16:29:28Z</time>
      </trkpt>
      <trkpt lat="42.25208" lon="2.71501">
        <ele>771.681</ele>
        <time>2013-04-20T16:29:42Z</time>
      </trkpt>
      <trkpt lat="42.25205" lon="2.71503">
        <ele>767.872</ele>
        <time>2013-04-20T16:29:48Z</time>
      </trkpt>
      <trkpt lat="42.25201" lon="2.71501">
        <ele>766.355</ele>
        <time>2013-04-20T16:29:51Z</time>
      </trkpt>
      <trkpt lat="42.252" lon="2.71501">
        <ele>766.338</ele>
        <time>2013-04-20T16:29:52Z</time>
      </trkpt>
      <trkpt lat="42.2519" lon="2.71502">
        <ele>765.465</ele>
        <time>2013-04-20T16:30:01Z</time>
      </trkpt>
      <trkpt lat="42.25187" lon="2.71504">
        <ele>765.468</ele>
        <time>2013-04-20T16:30:04Z</time>
      </trkpt>
      <trkpt lat="42.25182" lon="2.71506">
        <ele>765.814</ele>
        <time>2013-04-20T16:30:08Z</time>
      </trkpt>
      <trkpt lat="42.2518" lon="2.71507">
        <ele>766.307</ele>
        <time>2013-04-20T16:30:10Z</time>
      </trkpt>
      <trkpt lat="42.25166" lon="2.7151">
        <ele>765.46</ele>
        <time>2013-04-20T16:30:22Z</time>
      </trkpt>
      <trkpt lat="42.2516" lon="2.71509">
        <ele>764.949</ele>
        <time>2013-04-20T16:30:29Z</time>
      </trkpt>
      <trkpt lat="42.25156" lon="2.71513">
        <ele>763.963</ele>
        <time>2013-04-20T16:30:33Z</time>
      </trkpt>
      <trkpt lat="42.25146" lon="2.71519">
        <ele>762.01</ele>
        <time>2013-04-20T16:30:47Z</time>
      </trkpt>
      <trkpt lat="42.25141" lon="2.71517">
        <ele>760.551</ele>
        <time>2013-04-20T16:30:51Z</time>
      </trkpt>
      <trkpt lat="42.25136" lon="2.71513">
        <ele>759.674</ele>
        <time>2013-04-20T16:30:59Z</time>
      </trkpt>
      <trkpt lat="42.25125" lon="2.71507">
        <ele>757.297</ele>
        <time>2013-04-20T16:31:09Z</time>
      </trkpt>
      <trkpt lat="42.25115" lon="2.71501">
        <ele>754.352</ele>
        <time>2013-04-20T16:31:18Z</time>
      </trkpt>
      <trkpt lat="42.25112" lon="2.71499">
        <ele>752.953</ele>
        <time>2013-04-20T16:31:21Z</time>
      </trkpt>
      <trkpt lat="42.25107" lon="2.71485">
        <ele>748.508</ele>
        <time>2013-04-20T16:31:31Z</time>
      </trkpt>
      <trkpt lat="42.25105" lon="2.71473">
        <ele>744.207</ele>
        <time>2013-04-20T16:31:39Z</time>
      </trkpt>
      <trkpt lat="42.25101" lon="2.71467">
        <ele>742.879</ele>
        <time>2013-04-20T16:31:43Z</time>
      </trkpt>
      <trkpt lat="42.251" lon="2.7146">
        <ele>741.848</ele>
        <time>2013-04-20T16:31:47Z</time>
      </trkpt>
      <trkpt lat="42.25092" lon="2.71444">
        <ele>739.972</ele>
        <time>2013-04-20T16:32:00Z</time>
      </trkpt>
      <trkpt lat="42.25091" lon="2.71442">
        <ele>739.499</ele>
        <time>2013-04-20T16:32:02Z</time>
      </trkpt>
      <trkpt lat="42.2509" lon="2.71436">
        <ele>737.51</ele>
        <time>2013-04-20T16:32:06Z</time>
      </trkpt>
      <trkpt lat="42.2508" lon="2.71429">
        <ele>730.793</ele>
        <time>2013-04-20T16:32:19Z</time>
      </trkpt>
      <trkpt lat="42.25078" lon="2.71433">
        <ele>728.386</ele>
        <time>2013-04-20T16:32:22Z</time>
      </trkpt>
      <trkpt lat="42.25071" lon="2.71442">
        <ele>724.543</ele>
        <time>2013-04-20T16:32:32Z</time>
      </trkpt>
      <trkpt lat="42.25068" lon="2.71444">
        <ele>724.064</ele>
        <time>2013-04-20T16:32:35Z</time>
      </trkpt>
      <trkpt lat="42.25065" lon="2.7146">
        <ele>719.71</ele>
        <time>2013-04-20T16:32:47Z</time>
      </trkpt>
      <trkpt lat="42.25065" lon="2.71479">
        <ele>719.707</ele>
        <time>2013-04-20T16:32:58Z</time>
      </trkpt>
      <trkpt lat="42.25061" lon="2.71486">
        <ele>720.268</ele>
        <time>2013-04-20T16:33:10Z</time>
      </trkpt>
      <trkpt lat="42.25055" lon="2.71486">
        <ele>719.267</ele>
        <time>2013-04-20T16:33:18Z</time>
      </trkpt>
      <trkpt lat="42.25048" lon="2.71491">
        <ele>714.441</ele>
        <time>2013-04-20T16:33:30Z</time>
      </trkpt>
      <trkpt lat="42.25047" lon="2.71492">
        <ele>712.578</ele>
        <time>2013-04-20T16:33:32Z</time>
      </trkpt>
      <trkpt lat="42.25039" lon="2.71499">
        <ele>705.399</ele>
        <time>2013-04-20T16:33:44Z</time>
      </trkpt>
      <trkpt lat="42.25032" lon="2.71505">
        <ele>697.612</ele>
        <time>2013-04-20T16:33:56Z</time>
      </trkpt>
      <trkpt lat="42.2503" lon="2.71512">
        <ele>695.285</ele>
        <time>2013-04-20T16:34:00Z</time>
      </trkpt>
      <trkpt lat="42.25026" lon="2.71533">
        <ele>692.358</ele>
        <time>2013-04-20T16:34:14Z</time>
      </trkpt>
      <trkpt lat="42.25021" lon="2.71536">
        <ele>690.852</ele>
        <time>2013-04-20T16:34:18Z</time>
      </trkpt>
      <trkpt lat="42.25015" lon="2.71535">
        <ele>690.817</ele>
        <time>2013-04-20T16:34:24Z</time>
      </trkpt>
      <trkpt lat="42.25005" lon="2.71533">
        <ele>691.307</ele>
        <time>2013-04-20T16:34:35Z</time>
      </trkpt>
      <trkpt lat="42.25002" lon="2.71528">
        <ele>689.479</ele>
        <time>2013-04-20T16:34:42Z</time>
      </trkpt>
      <trkpt lat="42.24994" lon="2.71511">
        <ele>685.628</ele>
        <time>2013-04-20T16:34:53Z</time>
      </trkpt>
      <trkpt lat="42.24988" lon="2.71491">
        <ele>683.642</ele>
        <time>2013-04-20T16:35:08Z</time>
      </trkpt>
      <trkpt lat="42.24983" lon="2.71483">
        <ele>684.139</ele>
        <time>2013-04-20T16:35:14Z</time>
      </trkpt>
      <trkpt lat="42.24977" lon="2.71459">
        <ele>681.77</ele>
        <time>2013-04-20T16:35:28Z</time>
      </trkpt>
      <trkpt lat="42.24976" lon="2.71457">
        <ele>681.743</ele>
        <time>2013-04-20T16:35:29Z</time>
      </trkpt>
      <trkpt lat="42.24973" lon="2.71446">
        <ele>679.816</ele>
        <time>2013-04-20T16:35:41Z</time>
      </trkpt>
      <trkpt lat="42.24971" lon="2.71441">
        <ele>678.472</ele>
        <time>2013-04-20T16:35:46Z</time>
      </trkpt>
      <trkpt lat="42.24964" lon="2.71418">
        <ele>676.413</ele>
        <time>2013-04-20T16:36:01Z</time>
      </trkpt>
      <trkpt lat="42.24957" lon="2.71412">
        <ele>675.014</ele>
        <time>2013-04-20T16:36:14Z</time>
      </trkpt>
      <trkpt lat="42.24953" lon="2.7142">
        <ele>670.207</ele>
        <time>2013-04-20T16:36:26Z</time>
      </trkpt>
      <trkpt lat="42.24948" lon="2.71423">
        <ele>668.791</ele>
        <time>2013-04-20T16:36:37Z</time>
      </trkpt>
      <trkpt lat="42.24943" lon="2.71421">
        <ele>665.49</ele>
        <time>2013-04-20T16:36:48Z</time>
      </trkpt>
      <trkpt lat="42.24941" lon="2.71419">
        <ele>664.474</ele>
        <time>2013-04-20T16:36:52Z</time>
      </trkpt>
      <trkpt lat="42.24931" lon="2.71418">
        <ele>663.571</ele>
        <time>2013-04-20T16:37:05Z</time>
      </trkpt>
      <trkpt lat="42.24922" lon="2.71417">
        <ele>661.572</ele>
        <time>2013-04-20T16:37:19Z</time>
      </trkpt>
      <trkpt lat="42.24916" lon="2.71414">
        <ele>658.635</ele>
        <time>2013-04-20T16:37:26Z</time>
      </trkpt>
      <trkpt lat="42.24902" lon="2.71408">
        <ele>655.818</ele>
        <time>2013-04-20T16:37:41Z</time>
      </trkpt>
      <trkpt lat="42.24899" lon="2.71408">
        <ele>655.325</ele>
        <time>2013-04-20T16:37:44Z</time>
      </trkpt>
      <trkpt lat="42.24891" lon="2.71402">
        <ele>653.426</ele>
        <time>2013-04-20T16:37:53Z</time>
      </trkpt>
      <trkpt lat="42.24882" lon="2.71401">
        <ele>652.408</ele>
        <time>2013-04-20T16:38:02Z</time>
      </trkpt>
      <trkpt lat="42.24879" lon="2.71398">
        <ele>652.407</ele>
        <time>2013-04-20T16:38:05Z</time>
      </trkpt>
      <trkpt lat="42.24873" lon="2.714">
        <ele>649.576</ele>
        <time>2013-04-20T16:38:18Z</time>
      </trkpt>
      <trkpt lat="42.24874" lon="2.71408">
        <ele>646.675</ele>
        <time>2013-04-20T16:38:30Z</time>
      </trkpt>
      <trkpt lat="42.24865" lon="2.71414">
        <ele>643.719</ele>
        <time>2013-04-20T16:38:44Z</time>
      </trkpt>
      <trkpt lat="42.24861" lon="2.71415">
        <ele>641.886</ele>
        <time>2013-04-20T16:38:51Z</time>
      </trkpt>
      <trkpt lat="42.2485" lon="2.71418">
        <ele>638.947</ele>
        <time>2013-04-20T16:39:06Z</time>
      </trkpt>
      <trkpt lat="42.2485" lon="2.7142">
        <ele>638.56</ele>
        <time>2013-04-20T16:39:08Z</time>
      </trkpt>
      <trkpt lat="42.24849" lon="2.71422">
        <ele>638.043</ele>
        <time>2013-04-20T16:39:10Z</time>
      </trkpt>
      <trkpt lat="42.24847" lon="2.71423">
        <ele>637.076</ele>
        <time>2013-04-20T16:39:12Z</time>
      </trkpt>
      <trkpt lat="42.24842" lon="2.71422">
        <ele>635.19</ele>
        <time>2013-04-20T16:39:16Z</time>
      </trkpt>
      <trkpt lat="42.24839" lon="2.71424">
        <ele>633.719</ele>
        <time>2013-04-20T16:39:18Z</time>
      </trkpt>
      <trkpt lat="42.24822" lon="2.71422">
        <ele>626.907</ele>
        <time>2013-04-20T16:39:33Z</time>
      </trkpt>
      <trkpt lat="42.2481" lon="2.71426">
        <ele>622.131</ele>
        <time>2013-04-20T16:39:46Z</time>
      </trkpt>
      <trkpt lat="42.24796" lon="2.71425">
        <ele>619.25</ele>
        <time>2013-04-20T16:40:00Z</time>
      </trkpt>
      <trkpt lat="42.24793" lon="2.71425">
        <ele>618.354</ele>
        <time>2013-04-20T16:40:05Z</time>
      </trkpt>
      <trkpt lat="42.24787" lon="2.71437">
        <ele>615.931</ele>
        <time>2013-04-20T16:40:17Z</time>
      </trkpt>
      <trkpt lat="42.24785" lon="2.71444">
        <ele>614.992</ele>
        <time>2013-04-20T16:40:28Z</time>
      </trkpt>
      <trkpt lat="42.24778" lon="2.71451">
        <ele>613.545</ele>
        <time>2013-04-20T16:40:39Z</time>
      </trkpt>
      <trkpt lat="42.24772" lon="2.71449">
        <ele>611.588</ele>
        <time>2013-04-20T16:40:46Z</time>
      </trkpt>
      <trkpt lat="42.2476" lon="2.71449">
        <ele>613.031</ele>
        <time>2013-04-20T16:40:59Z</time>
      </trkpt>
      <trkpt lat="42.24753" lon="2.71443">
        <ele>609.661</ele>
        <time>2013-04-20T16:41:08Z</time>
      </trkpt>
      <trkpt lat="42.24746" lon="2.71444">
        <ele>607.707</ele>
        <time>2013-04-20T16:41:20Z</time>
      </trkpt>
      <trkpt lat="42.24754" lon="2.71457">
        <ele>604.307</ele>
        <time>2013-04-20T16:41:34Z</time>
      </trkpt>
      <trkpt lat="42.24755" lon="2.71473">
        <ele>599.567</ele>
        <time>2013-04-20T16:41:48Z</time>
      </trkpt>
      <trkpt lat="42.24756" lon="2.71489">
        <ele>600.586</ele>
        <time>2013-04-20T16:42:00Z</time>
      </trkpt>
      <trkpt lat="42.2475" lon="2.71489">
        <ele>599.57</ele>
        <time>2013-04-20T16:42:08Z</time>
      </trkpt>
      <trkpt lat="42.24743" lon="2.7149">
        <ele>597.147</ele>
        <time>2013-04-20T16:42:19Z</time>
      </trkpt>
      <trkpt lat="42.24742" lon="2.71497">
        <ele>594.298</ele>
        <time>2013-04-20T16:42:26Z</time>
      </trkpt>
      <trkpt lat="42.24742" lon="2.71519">
        <ele>589.921</ele>
        <time>2013-04-20T16:42:41Z</time>
      </trkpt>
      <trkpt lat="42.24741" lon="2.71522">
        <ele>589.094</ele>
        <time>2013-04-20T16:42:45Z</time>
      </trkpt>
      <trkpt lat="42.24735" lon="2.71519">
        <ele>587.026</ele>
        <time>2013-04-20T16:42:51Z</time>
      </trkpt>
      <trkpt lat="42.24731" lon="2.71512">
        <ele>585.147</ele>
        <time>2013-04-20T16:42:57Z</time>
      </trkpt>
      <trkpt lat="42.24729" lon="2.71506">
        <ele>582.711</ele>
        <time>2013-04-20T16:43:02Z</time>
      </trkpt>
      <trkpt lat="42.24718" lon="2.71508">
        <ele>579.307</ele>
        <time>2013-04-20T16:43:15Z</time>
      </trkpt>
      <trkpt lat="42.24717" lon="2.71508">
        <ele>578.926</ele>
        <time>2013-04-20T16:43:16Z</time>
      </trkpt>
      <trkpt lat="42.24707" lon="2.71513">
        <ele>578.495</ele>
        <time>2013-04-20T16:43:27Z</time>
      </trkpt>
      <trkpt lat="42.247" lon="2.71511">
        <ele>577.979</ele>
        <time>2013-04-20T16:43:34Z</time>
      </trkpt>
      <trkpt lat="42.24697" lon="2.71512">
        <ele>577.496</ele>
        <time>2013-04-20T16:43:37Z</time>
      </trkpt>
      <trkpt lat="42.24695" lon="2.71517">
        <ele>576.977</ele>
        <time>2013-04-20T16:43:40Z</time>
      </trkpt>
      <trkpt lat="42.24699" lon="2.7153">
        <ele>572.64</ele>
        <time>2013-04-20T16:43:54Z</time>
      </trkpt>
      <trkpt lat="42.24699" lon="2.71533">
        <ele>572.653</ele>
        <time>2013-04-20T16:43:56Z</time>
      </trkpt>
      <trkpt lat="42.24696" lon="2.71536">
        <ele>572.121</ele>
        <time>2013-04-20T16:44:01Z</time>
      </trkpt>
      <trkpt lat="42.247" lon="2.71548">
        <ele>570.741</ele>
        <time>2013-04-20T16:44:13Z</time>
      </trkpt>
      <trkpt lat="42.24708" lon="2.7157">
        <ele>568.805</ele>
        <time>2013-04-20T16:44:28Z</time>
      </trkpt>
      <trkpt lat="42.24714" lon="2.71581">
        <ele>568.807</ele>
        <time>2013-04-20T16:44:37Z</time>
      </trkpt>
      <trkpt lat="42.24712" lon="2.71583">
        <ele>568.896</ele>
        <time>2013-04-20T16:44:39Z</time>
      </trkpt>
      <trkpt lat="42.24705" lon="2.71582">
        <ele>567.885</ele>
        <time>2013-04-20T16:44:44Z</time>
      </trkpt>
      <trkpt lat="42.24703" lon="2.71578">
        <ele>566.839</ele>
        <time>2013-04-20T16:44:48Z</time>
      </trkpt>
      <trkpt lat="42.24695" lon="2.71583">
        <ele>562.086</ele>
        <time>2013-04-20T16:45:00Z</time>
      </trkpt>
      <trkpt lat="42.24683" lon="2.71585">
        <ele>559.127</ele>
        <time>2013-04-20T16:45:12Z</time>
      </trkpt>
      <trkpt lat="42.24673" lon="2.71575">
        <ele>555.86</ele>
        <time>2013-04-20T16:45:27Z</time>
      </trkpt>
      <trkpt lat="42.2467" lon="2.71573">
        <ele>554.813</ele>
        <time>2013-04-20T16:45:30Z</time>
      </trkpt>
      <trkpt lat="42.24665" lon="2.71561">
        <ele>548.699</ele>
        <time>2013-04-20T16:45:44Z</time>
      </trkpt>
      <trkpt lat="42.24659" lon="2.71553">
        <ele>544.207</ele>
        <time>2013-04-20T16:45:56Z</time>
      </trkpt>
      <trkpt lat="42.24653" lon="2.71546">
        <ele>540.927</ele>
        <time>2013-04-20T16:46:07Z</time>
      </trkpt>
      <trkpt lat="42.24644" lon="2.71543">
        <ele>539.007</ele>
        <time>2013-04-20T16:46:20Z</time>
      </trkpt>
      <trkpt lat="42.24635" lon="2.71541">
        <ele>535.643</ele>
        <time>2013-04-20T16:46:32Z</time>
      </trkpt>
      <trkpt lat="42.24627" lon="2.71545">
        <ele>531.852</ele>
        <time>2013-04-20T16:46:44Z</time>
      </trkpt>
      <trkpt lat="42.2463" lon="2.7155">
        <ele>524.516</ele>
        <time>2013-04-20T16:46:55Z</time>
      </trkpt>
      <trkpt lat="42.24637" lon="2.7156">
        <ele>519.743</ele>
        <time>2013-04-20T16:47:08Z</time>
      </trkpt>
      <trkpt lat="42.24632" lon="2.71567">
        <ele>521.264</ele>
        <time>2013-04-20T16:47:21Z</time>
      </trkpt>
      <trkpt lat="42.24625" lon="2.71572">
        <ele>520.727</ele>
        <time>2013-04-20T16:47:34Z</time>
      </trkpt>
      <trkpt lat="42.24619" lon="2.71579">
        <ele>518.87</ele>
        <time>2013-04-20T16:47:46Z</time>
      </trkpt>
      <trkpt lat="42.24617" lon="2.7158">
        <ele>515.444</ele>
        <time>2013-04-20T16:48:00Z</time>
      </trkpt>
      <trkpt lat="42.24613" lon="2.71583">
        <ele>512.005</ele>
        <time>2013-04-20T16:48:14Z</time>
      </trkpt>
      <trkpt lat="42.24602" lon="2.71579">
        <ele>512.015</ele>
        <time>2013-04-20T16:48:27Z</time>
      </trkpt>
      <trkpt lat="42.24593" lon="2.71579">
        <ele>511.607</ele>
        <time>2013-04-20T16:48:37Z</time>
      </trkpt>
      <trkpt lat="42.24585" lon="2.71578">
        <ele>511.678</ele>
        <time>2013-04-20T16:48:45Z</time>
      </trkpt>
      <trkpt lat="42.24572" lon="2.71569">
        <ele>511.147</ele>
        <time>2013-04-20T16:48:57Z</time>
      </trkpt>
      <trkpt lat="42.24569" lon="2.71566">
        <ele>511.161</ele>
        <time>2013-04-20T16:49:00Z</time>
      </trkpt>
      <trkpt lat="42.24567" lon="2.71564">
        <ele>511.168</ele>
        <time>2013-04-20T16:49:02Z</time>
      </trkpt>
      <trkpt lat="42.24563" lon="2.71554">
        <ele>511.169</ele>
        <time>2013-04-20T16:49:10Z</time>
      </trkpt>
      <trkpt lat="42.24556" lon="2.7154">
        <ele>510.682</ele>
        <time>2013-04-20T16:49:22Z</time>
      </trkpt>
      <trkpt lat="42.24552" lon="2.71539">
        <ele>510.145</ele>
        <time>2013-04-20T16:49:30Z</time>
      </trkpt>
      <trkpt lat="42.2455" lon="2.7155">
        <ele>509.212</ele>
        <time>2013-04-20T16:49:41Z</time>
      </trkpt>
      <trkpt lat="42.24549" lon="2.7155">
        <ele>509.232</ele>
        <time>2013-04-20T16:49:42Z</time>
      </trkpt>
      <trkpt lat="42.24545" lon="2.71542">
        <ele>507.205</ele>
        <time>2013-04-20T16:49:49Z</time>
      </trkpt>
      <trkpt lat="42.24543" lon="2.71542">
        <ele>506.307</ele>
        <time>2013-04-20T16:49:54Z</time>
      </trkpt>
      <trkpt lat="42.24543" lon="2.71553">
        <ele>504.465</ele>
        <time>2013-04-20T16:50:05Z</time>
      </trkpt>
      <trkpt lat="42.24543" lon="2.71562">
        <ele>502.434</ele>
        <time>2013-04-20T16:50:17Z</time>
      </trkpt>
      <trkpt lat="42.24541" lon="2.71563">
        <ele>502.048</ele>
        <time>2013-04-20T16:50:19Z</time>
      </trkpt>
      <trkpt lat="42.24538" lon="2.71558">
        <ele>501.555</ele>
        <time>2013-04-20T16:50:24Z</time>
      </trkpt>
      <trkpt lat="42.24533" lon="2.71549">
        <ele>502.026</ele>
        <time>2013-04-20T16:50:31Z</time>
      </trkpt>
      <trkpt lat="42.24533" lon="2.71533">
        <ele>494.799</ele>
        <time>2013-04-20T16:50:44Z</time>
      </trkpt>
      <trkpt lat="42.24531" lon="2.71537">
        <ele>490.952</ele>
        <time>2013-04-20T16:50:54Z</time>
      </trkpt>
      <trkpt lat="42.2453" lon="2.71549">
        <ele>482.747</ele>
        <time>2013-04-20T16:51:08Z</time>
      </trkpt>
      <trkpt lat="42.2453" lon="2.7155">
        <ele>482.229</ele>
        <time>2013-04-20T16:51:09Z</time>
      </trkpt>
      <trkpt lat="42.24533" lon="2.71565">
        <ele>475.521</ele>
        <time>2013-04-20T16:51:21Z</time>
      </trkpt>
      <trkpt lat="42.24528" lon="2.71574">
        <ele>472.607</ele>
        <time>2013-04-20T16:51:32Z</time>
      </trkpt>
      <trkpt lat="42.24522" lon="2.71573">
        <ele>472.178</ele>
        <time>2013-04-20T16:51:39Z</time>
      </trkpt>
      <trkpt lat="42.24518" lon="2.71571">
        <ele>471.717</ele>
        <time>2013-04-20T16:51:43Z</time>
      </trkpt>
      <trkpt lat="42.24513" lon="2.71564">
        <ele>472.681</ele>
        <time>2013-04-20T16:51:49Z</time>
      </trkpt>
      <trkpt lat="42.24503" lon="2.71554">
        <ele>472.648</ele>
        <time>2013-04-20T16:52:01Z</time>
      </trkpt>
      <trkpt lat="42.24498" lon="2.71541">
        <ele>473.179</ele>
        <time>2013-04-20T16:52:11Z</time>
      </trkpt>
      <trkpt lat="42.24491" lon="2.71542">
        <ele>472.662</ele>
        <time>2013-04-20T16:52:23Z</time>
      </trkpt>
      <trkpt lat="42.24494" lon="2.71555">
        <ele>470.765</ele>
        <time>2013-04-20T16:52:36Z</time>
      </trkpt>
      <trkpt lat="42.24499" lon="2.71565">
        <ele>469.728</ele>
        <time>2013-04-20T16:52:50Z</time>
      </trkpt>
      <trkpt lat="42.24499" lon="2.71571">
        <ele>469.389</ele>
        <time>2013-04-20T16:52:57Z</time>
      </trkpt>
      <trkpt lat="42.245" lon="2.71583">
        <ele>468.817</ele>
        <time>2013-04-20T16:53:09Z</time>
      </trkpt>
      <trkpt lat="42.24507" lon="2.71596">
        <ele>468.307</ele>
        <time>2013-04-20T16:53:22Z</time>
      </trkpt>
      <trkpt lat="42.2451" lon="2.71602">
        <ele>468.386</ele>
        <time>2013-04-20T16:53:34Z</time>
      </trkpt>
      <trkpt lat="42.24509" lon="2.71603">
        <ele>468.335</ele>
        <time>2013-04-20T16:53:38Z</time>
      </trkpt>
      <trkpt lat="42.24507" lon="2.71603">
        <ele>467.829</ele>
        <time>2013-04-20T16:53:40Z</time>
      </trkpt>
      <trkpt lat="42.24499" lon="2.71601">
        <ele>467.316</ele>
        <time>2013-04-20T16:53:52Z</time>
      </trkpt>
      <trkpt lat="42.24495" lon="2.71593">
        <ele>466.467</ele>
        <time>2013-04-20T16:54:04Z</time>
      </trkpt>
      <trkpt lat="42.24489" lon="2.71589">
        <ele>465.95</ele>
        <time>2013-04-20T16:54:10Z</time>
      </trkpt>
      <trkpt lat="42.2449" lon="2.71578">
        <ele>464.993</ele>
        <time>2013-04-20T16:54:21Z</time>
      </trkpt>
      <trkpt lat="42.24489" lon="2.71575">
        <ele>464.988</ele>
        <time>2013-04-20T16:54:25Z</time>
      </trkpt>
      <trkpt lat="42.24479" lon="2.71573">
        <ele>464.024</ele>
        <time>2013-04-20T16:54:40Z</time>
      </trkpt>
      <trkpt lat="42.24475" lon="2.71569">
        <ele>464.026</ele>
        <time>2013-04-20T16:54:45Z</time>
      </trkpt>
      <trkpt lat="42.24465" lon="2.7155">
        <ele>461.107</ele>
        <time>2013-04-20T16:54:59Z</time>
      </trkpt>
      <trkpt lat="42.24463" lon="2.71543">
        <ele>460.182</ele>
        <time>2013-04-20T16:55:06Z</time>
      </trkpt>
      <trkpt lat="42.24446" lon="2.71522">
        <ele>449.661</ele>
        <time>2013-04-20T16:55:20Z</time>
      </trkpt>
      <trkpt lat="42.24438" lon="2.71517">
        <ele>445.265</ele>
        <time>2013-04-20T16:55:26Z</time>
      </trkpt>
      <trkpt lat="42.24424" lon="2.71515">
        <ele>442.382</ele>
        <time>2013-04-20T16:55:34Z</time>
      </trkpt>
      <trkpt lat="42.24415" lon="2.7151">
        <ele>441.443</ele>
        <time>2013-04-20T16:55:40Z</time>
      </trkpt>
      <trkpt lat="42.24407" lon="2.71508">
        <ele>440.496</ele>
        <time>2013-04-20T16:55:45Z</time>
      </trkpt>
      <trkpt lat="42.24386" lon="2.71515">
        <ele>438.049</ele>
        <time>2013-04-20T16:55:56Z</time>
      </trkpt>
      <trkpt lat="42.24377" lon="2.71519">
        <ele>437.149</ele>
        <time>2013-04-20T16:56:03Z</time>
      </trkpt>
      <trkpt lat="42.24373" lon="2.71523">
        <ele>436.102</ele>
        <time>2013-04-20T16:56:06Z</time>
      </trkpt>
      <trkpt lat="42.24371" lon="2.71525">
        <ele>436.122</ele>
        <time>2013-04-20T16:56:07Z</time>
      </trkpt>
      <trkpt lat="42.24366" lon="2.71527">
        <ele>436.107</ele>
        <time>2013-04-20T16:56:10Z</time>
      </trkpt>
      <trkpt lat="42.24351" lon="2.71533">
        <ele>435.668</ele>
        <time>2013-04-20T16:56:20Z</time>
      </trkpt>
      <trkpt lat="42.24339" lon="2.7153">
        <ele>434.227</ele>
        <time>2013-04-20T16:56:30Z</time>
      </trkpt>
      <trkpt lat="42.24331" lon="2.71524">
        <ele>433.731</ele>
        <time>2013-04-20T16:56:35Z</time>
      </trkpt>
      <trkpt lat="42.24327" lon="2.71524">
        <ele>432.718</ele>
        <time>2013-04-20T16:56:38Z</time>
      </trkpt>
      <trkpt lat="42.24324" lon="2.71526">
        <ele>431.829</ele>
        <time>2013-04-20T16:56:41Z</time>
      </trkpt>
      <trkpt lat="42.24319" lon="2.71526">
        <ele>431.332</ele>
        <time>2013-04-20T16:56:44Z</time>
      </trkpt>
      <trkpt lat="42.24307" lon="2.71525">
        <ele>429.915</ele>
        <time>2013-04-20T16:56:52Z</time>
      </trkpt>
      <trkpt lat="42.24291" lon="2.71531">
        <ele>427.946</ele>
        <time>2013-04-20T16:57:03Z</time>
      </trkpt>
      <trkpt lat="42.24282" lon="2.71537">
        <ele>424.688</ele>
        <time>2013-04-20T16:57:15Z</time>
      </trkpt>
      <trkpt lat="42.24281" lon="2.71537">
        <ele>424.616</ele>
        <time>2013-04-20T16:57:16Z</time>
      </trkpt>
      <trkpt lat="42.24274" lon="2.71536">
        <ele>423.107</ele>
        <time>2013-04-20T16:57:22Z</time>
      </trkpt>
      <trkpt lat="42.24272" lon="2.71536">
        <ele>423.148</ele>
        <time>2013-04-20T16:57:24Z</time>
      </trkpt>
      <trkpt lat="42.24257" lon="2.71533">
        <ele>419.817</ele>
        <time>2013-04-20T16:57:36Z</time>
      </trkpt>
      <trkpt lat="42.24252" lon="2.71536">
        <ele>417.451</ele>
        <time>2013-04-20T16:57:42Z</time>
      </trkpt>
      <trkpt lat="42.24243" lon="2.71539">
        <ele>413.578</ele>
        <time>2013-04-20T16:57:51Z</time>
      </trkpt>
      <trkpt lat="42.24241" lon="2.7154">
        <ele>413.079</ele>
        <time>2013-04-20T16:57:53Z</time>
      </trkpt>
      <trkpt lat="42.24236" lon="2.71541">
        <ele>412.152</ele>
        <time>2013-04-20T16:58:00Z</time>
      </trkpt>
      <trkpt lat="42.24233" lon="2.71543">
        <ele>412.135</ele>
        <time>2013-04-20T16:58:02Z</time>
      </trkpt>
      <trkpt lat="42.24232" lon="2.71543">
        <ele>412.195</ele>
        <time>2013-04-20T16:58:03Z</time>
      </trkpt>
      <trkpt lat="42.24223" lon="2.71546">
        <ele>411.149</ele>
        <time>2013-04-20T16:58:08Z</time>
      </trkpt>
      <trkpt lat="42.2422" lon="2.71546">
        <ele>411.123</ele>
        <time>2013-04-20T16:58:10Z</time>
      </trkpt>
      <trkpt lat="42.24195" lon="2.71531">
        <ele>407.307</ele>
        <time>2013-04-20T16:58:22Z</time>
      </trkpt>
      <trkpt lat="42.24171" lon="2.7153">
        <ele>400.523</ele>
        <time>2013-04-20T16:58:34Z</time>
      </trkpt>
      <trkpt lat="42.24159" lon="2.71501">
        <ele>392.852</ele>
        <time>2013-04-20T16:58:45Z</time>
      </trkpt>
      <trkpt lat="42.24145" lon="2.7147">
        <ele>390.436</ele>
        <time>2013-04-20T16:58:56Z</time>
      </trkpt>
      <trkpt lat="42.24133" lon="2.71454">
        <ele>390.023</ele>
        <time>2013-04-20T16:59:03Z</time>
      </trkpt>
      <trkpt lat="42.24123" lon="2.71456">
        <ele>387.164</ele>
        <time>2013-04-20T16:59:08Z</time>
      </trkpt>
      <trkpt lat="42.24103" lon="2.71482">
        <ele>384.757</ele>
        <time>2013-04-20T16:59:19Z</time>
      </trkpt>
      <trkpt lat="42.24079" lon="2.715">
        <ele>380.34</ele>
        <time>2013-04-20T16:59:30Z</time>
      </trkpt>
      <trkpt lat="42.2405" lon="2.71493">
        <ele>373.165</ele>
        <time>2013-04-20T16:59:42Z</time>
      </trkpt>
      <trkpt lat="42.24028" lon="2.71501">
        <ele>368.368</ele>
        <time>2013-04-20T16:59:53Z</time>
      </trkpt>
      <trkpt lat="42.24004" lon="2.71506">
        <ele>359.714</ele>
        <time>2013-04-20T17:00:04Z</time>
      </trkpt>
      <trkpt lat="42.23984" lon="2.71486">
        <ele>357.807</ele>
        <time>2013-04-20T17:00:14Z</time>
      </trkpt>
      <trkpt lat="42.23983" lon="2.71481">
        <ele>357.87</ele>
        <time>2013-04-20T17:00:16Z</time>
      </trkpt>
      <trkpt lat="42.23992" lon="2.71459">
        <ele>355.889</ele>
        <time>2013-04-20T17:00:26Z</time>
      </trkpt>
      <trkpt lat="42.24015" lon="2.71433">
        <ele>351.083</ele>
        <time>2013-04-20T17:00:38Z</time>
      </trkpt>
      <trkpt lat="42.24016" lon="2.71431">
        <ele>351.02</ele>
        <time>2013-04-20T17:00:39Z</time>
      </trkpt>
      <trkpt lat="42.24023" lon="2.71414">
        <ele>350.111</ele>
        <time>2013-04-20T17:00:45Z</time>
      </trkpt>
      <trkpt lat="42.24015" lon="2.71382">
        <ele>352.044</ele>
        <time>2013-04-20T17:00:57Z</time>
      </trkpt>
      <trkpt lat="42.24005" lon="2.71355">
        <ele>357.397</ele>
        <time>2013-04-20T17:01:10Z</time>
      </trkpt>
      <trkpt lat="42.23998" lon="2.71334">
        <ele>363.061</ele>
        <time>2013-04-20T17:01:23Z</time>
      </trkpt>
      <trkpt lat="42.23978" lon="2.71315">
        <ele>369.321</ele>
        <time>2013-04-20T17:01:39Z</time>
      </trkpt>
      <trkpt lat="42.23964" lon="2.71312">
        <ele>368.813</ele>
        <time>2013-04-20T17:01:48Z</time>
      </trkpt>
      <trkpt lat="42.2394" lon="2.71292">
        <ele>362.607</ele>
        <time>2013-04-20T17:02:02Z</time>
      </trkpt>
      <trkpt lat="42.2392" lon="2.71282">
        <ele>357.34</ele>
        <time>2013-04-20T17:02:13Z</time>
      </trkpt>
      <trkpt lat="42.23891" lon="2.71276">
        <ele>356.349</ele>
        <time>2013-04-20T17:02:23Z</time>
      </trkpt>
      <trkpt lat="42.23876" lon="2.71256">
        <ele>354.463</ele>
        <time>2013-04-20T17:02:32Z</time>
      </trkpt>
      <trkpt lat="42.23876" lon="2.71248">
        <ele>353.96</ele>
        <time>2013-04-20T17:02:36Z</time>
      </trkpt>
      <trkpt lat="42.23878" lon="2.71237">
        <ele>351.541</ele>
        <time>2013-04-20T17:02:43Z</time>
      </trkpt>
      <trkpt lat="42.23875" lon="2.71232">
        <ele>350.124</ele>
        <time>2013-04-20T17:02:47Z</time>
      </trkpt>
      <trkpt lat="42.23873" lon="2.71226">
        <ele>347.297</ele>
        <time>2013-04-20T17:02:52Z</time>
      </trkpt>
      <trkpt lat="42.23876" lon="2.71227">
        <ele>345.314</ele>
        <time>2013-04-20T17:02:55Z</time>
      </trkpt>
      <trkpt lat="42.23885" lon="2.71224">
        <ele>340.054</ele>
        <time>2013-04-20T17:03:03Z</time>
      </trkpt>
      <trkpt lat="42.23887" lon="2.71221">
        <ele>338.509</ele>
        <time>2013-04-20T17:03:05Z</time>
      </trkpt>
      <trkpt lat="42.23894" lon="2.71215">
        <ele>335.607</ele>
        <time>2013-04-20T17:03:09Z</time>
      </trkpt>
      <trkpt lat="42.23905" lon="2.71207">
        <ele>333.735</ele>
        <time>2013-04-20T17:03:20Z</time>
      </trkpt>
      <trkpt lat="42.23902" lon="2.712">
        <ele>333.224</ele>
        <time>2013-04-20T17:03:29Z</time>
      </trkpt>
      <trkpt lat="42.23889" lon="2.71178">
        <ele>334.748</ele>
        <time>2013-04-20T17:03:40Z</time>
      </trkpt>
      <trkpt lat="42.23873" lon="2.7116">
        <ele>339.045</ele>
        <time>2013-04-20T17:03:49Z</time>
      </trkpt>
      <trkpt lat="42.23858" lon="2.71136">
        <ele>340.456</ele>
        <time>2013-04-20T17:04:01Z</time>
      </trkpt>
      <trkpt lat="42.23832" lon="2.71116">
        <ele>340.919</ele>
        <time>2013-04-20T17:04:14Z</time>
      </trkpt>
      <trkpt lat="42.23814" lon="2.71094">
        <ele>337.172</ele>
        <time>2013-04-20T17:04:24Z</time>
      </trkpt>
      <trkpt lat="42.23791" lon="2.71064">
        <ele>335.676</ele>
        <time>2013-04-20T17:04:36Z</time>
      </trkpt>
      <trkpt lat="42.2377" lon="2.71037">
        <ele>336.19</ele>
        <time>2013-04-20T17:04:47Z</time>
      </trkpt>
      <trkpt lat="42.23752" lon="2.71007">
        <ele>339.019</ele>
        <time>2013-04-20T17:04:59Z</time>
      </trkpt>
      <trkpt lat="42.23761" lon="2.70969">
        <ele>342.407</ele>
        <time>2013-04-20T17:05:12Z</time>
      </trkpt>
      <trkpt lat="42.23758" lon="2.70937">
        <ele>341.971</ele>
        <time>2013-04-20T17:05:23Z</time>
      </trkpt>
      <trkpt lat="42.23741" lon="2.7091">
        <ele>339.57</ele>
        <time>2013-04-20T17:05:35Z</time>
      </trkpt>
      <trkpt lat="42.2374" lon="2.70908">
        <ele>339.094</ele>
        <time>2013-04-20T17:05:36Z</time>
      </trkpt>
      <trkpt lat="42.23719" lon="2.70897">
        <ele>338.051</ele>
        <time>2013-04-20T17:05:53Z</time>
      </trkpt>
      <trkpt lat="42.23713" lon="2.70897">
        <ele>338.562</ele>
        <time>2013-04-20T17:05:59Z</time>
      </trkpt>
      <trkpt lat="42.23711" lon="2.70896">
        <ele>339.525</ele>
        <time>2013-04-20T17:06:11Z</time>
      </trkpt>
      <trkpt lat="42.23712" lon="2.70894">
        <ele>340.078</ele>
        <time>2013-04-20T17:06:27Z</time>
      </trkpt>
      <trkpt lat="42.23711" lon="2.70892">
        <ele>341.447</ele>
        <time>2013-04-20T17:06:45Z</time>
      </trkpt>
      <trkpt lat="42.23711" lon="2.70896">
        <ele>340.929</ele>
        <time>2013-04-20T17:07:05Z</time>
      </trkpt>
      <trkpt lat="42.23712" lon="2.70895">
        <ele>340.921</ele>
        <time>2013-04-20T17:07:24Z</time>
      </trkpt>
      <trkpt lat="42.23711" lon="2.70892">
        <ele>340.907</ele>
        <time>2013-04-20T17:07:39Z</time>
      </trkpt>
      <trkpt lat="42.23713" lon="2.70892">
        <ele>339.538</ele>
        <time>2013-04-20T17:07:52Z</time>
      </trkpt>
      <trkpt lat="42.23711" lon="2.7089">
        <ele>338.087</ele>
        <time>2013-04-20T17:08:17Z</time>
      </trkpt>
      <trkpt lat="42.2371" lon="2.70889">
        <ele>340.441</ele>
        <time>2013-04-20T17:08:39Z</time>
      </trkpt>
      <trkpt lat="42.23711" lon="2.7089">
        <ele>340.088</ele>
        <time>2013-04-20T17:09:00Z</time>
      </trkpt>
      <trkpt lat="42.23717" lon="2.70891">
        <ele>340.939</ele>
        <time>2013-04-20T17:09:24Z</time>
      </trkpt>
      <trkpt lat="42.23715" lon="2.7089">
        <ele>342.982</ele>
        <time>2013-04-20T17:09:46Z</time>
      </trkpt>
      <trkpt lat="42.23711" lon="2.7089">
        <ele>340.425</ele>
        <time>2013-04-20T17:10:10Z</time>
      </trkpt>
      <trkpt lat="42.2371" lon="2.70891">
        <ele>340.084</ele>
        <time>2013-04-20T17:10:30Z</time>
      </trkpt>
      <trkpt lat="42.2371" lon="2.70893">
        <ele>340.407</ele>
        <time>2013-04-20T17:10:56Z</time>
      </trkpt>
      <trkpt lat="42.23714" lon="2.70892">
        <ele>337.617</ele>
        <time>2013-04-20T17:11:23Z</time>
      </trkpt>
      <trkpt lat="42.23714" lon="2.70892">
        <ele>341.407</ele>
        <time>2013-04-20T17:11:45Z</time>
      </trkpt>
      <trkpt lat="42.23714" lon="2.70892">
        <ele>342.462</ele>
        <time>2013-04-20T17:12:16Z</time>
      </trkpt>
      <trkpt lat="42.23712" lon="2.7089">
        <ele>342.961</ele>
        <time>2013-04-20T17:12:41Z</time>
      </trkpt>
      <trkpt lat="42.23712" lon="2.70888">
        <ele>343.845</ele>
        <time>2013-04-20T17:13:05Z</time>
      </trkpt>
      <trkpt lat="42.23711" lon="2.70892">
        <ele>341.412</ele>
        <time>2013-04-20T17:13:35Z</time>
      </trkpt>
      <trkpt lat="42.2371" lon="2.70891">
        <ele>340.943</ele>
        <time>2013-04-20T17:13:58Z</time>
      </trkpt>
      <trkpt lat="42.23712" lon="2.70892">
        <ele>340.946</ele>
        <time>2013-04-20T17:14:26Z</time>
      </trkpt>
      <trkpt lat="42.23714" lon="2.70891">
        <ele>341.439</ele>
        <time>2013-04-20T17:14:41Z</time>
      </trkpt>
      <trkpt lat="42.23717" lon="2.70892">
        <ele>341.423</ele>
        <time>2013-04-20T17:14:43Z</time>
      </trkpt>
      <trkpt lat="42.23727" lon="2.70892">
        <ele>340.983</ele>
        <time>2013-04-20T17:14:47Z</time>
      </trkpt>
      <trkpt lat="42.23733" lon="2.70893">
        <ele>339.511</ele>
        <time>2013-04-20T17:14:58Z</time>
      </trkpt>
      <trkpt lat="42.23734" lon="2.70897">
        <ele>340.407</ele>
        <time>2013-04-20T17:15:23Z</time>
      </trkpt>
      <trkpt lat="42.23734" lon="2.70898">
        <ele>340.476</ele>
        <time>2013-04-20T17:15:24Z</time>
      </trkpt>
      <trkpt lat="42.2373" lon="2.70897">
        <ele>339.555</ele>
        <time>2013-04-20T17:15:27Z</time>
      </trkpt>
      <trkpt lat="42.23713" lon="2.70896">
        <ele>339.599</ele>
        <time>2013-04-20T17:15:43Z</time>
      </trkpt>
      <trkpt lat="42.23712" lon="2.70895">
        <ele>339.566</ele>
        <time>2013-04-20T17:16:00Z</time>
      </trkpt>
      <trkpt lat="42.23711" lon="2.70894">
        <ele>340.437</ele>
        <time>2013-04-20T17:16:13Z</time>
      </trkpt>
      <trkpt lat="42.23711" lon="2.70894">
        <ele>340.97</ele>
        <time>2013-04-20T17:16:30Z</time>
      </trkpt>
      <trkpt lat="42.23709" lon="2.70894">
        <ele>342.483</ele>
        <time>2013-04-20T17:16:45Z</time>
      </trkpt>
      <trkpt lat="42.23706" lon="2.70894">
        <ele>341.989</ele>
        <time>2013-04-20T17:16:51Z</time>
      </trkpt>
      <trkpt lat="42.23699" lon="2.70887">
        <ele>340.406</ele>
        <time>2013-04-20T17:16:58Z</time>
      </trkpt>
      <trkpt lat="42.23691" lon="2.7088">
        <ele>335.626</ele>
        <time>2013-04-20T17:17:05Z</time>
      </trkpt>
      <trkpt lat="42.23687" lon="2.70881">
        <ele>335.207</ele>
        <time>2013-04-20T17:17:09Z</time>
      </trkpt>
      <trkpt lat="42.23686" lon="2.70874">
        <ele>334.232</ele>
        <time>2013-04-20T17:17:13Z</time>
      </trkpt>
      <trkpt lat="42.23685" lon="2.70842">
        <ele>330.461</ele>
        <time>2013-04-20T17:17:25Z</time>
      </trkpt>
      <trkpt lat="42.23683" lon="2.70818">
        <ele>324.635</ele>
        <time>2013-04-20T17:17:35Z</time>
      </trkpt>
      <trkpt lat="42.23681" lon="2.70815">
        <ele>323.192</ele>
        <time>2013-04-20T17:17:38Z</time>
      </trkpt>
      <trkpt lat="42.23677" lon="2.70811">
        <ele>322.283</ele>
        <time>2013-04-20T17:17:42Z</time>
      </trkpt>
      <trkpt lat="42.23675" lon="2.70809">
        <ele>321.786</ele>
        <time>2013-04-20T17:17:44Z</time>
      </trkpt>
      <trkpt lat="42.23668" lon="2.70803">
        <ele>321.279</ele>
        <time>2013-04-20T17:17:50Z</time>
      </trkpt>
      <trkpt lat="42.23659" lon="2.70793">
        <ele>319.818</ele>
        <time>2013-04-20T17:18:01Z</time>
      </trkpt>
      <trkpt lat="42.23648" lon="2.70777">
        <ele>315.598</ele>
        <time>2013-04-20T17:18:09Z</time>
      </trkpt>
      <trkpt lat="42.2362" lon="2.70761">
        <ele>310.617</ele>
        <time>2013-04-20T17:18:21Z</time>
      </trkpt>
      <trkpt lat="42.23593" lon="2.7075">
        <ele>307.307</ele>
        <time>2013-04-20T17:18:32Z</time>
      </trkpt>
      <trkpt lat="42.23562" lon="2.70734">
        <ele>306.395</ele>
        <time>2013-04-20T17:18:45Z</time>
      </trkpt>
      <trkpt lat="42.23543" lon="2.70699">
        <ele>303.994</ele>
        <time>2013-04-20T17:18:57Z</time>
      </trkpt>
      <trkpt lat="42.23528" lon="2.70676">
        <ele>301.518</ele>
        <time>2013-04-20T17:19:06Z</time>
      </trkpt>
      <trkpt lat="42.23509" lon="2.7065">
        <ele>297.725</ele>
        <time>2013-04-20T17:19:17Z</time>
      </trkpt>
      <trkpt lat="42.2349" lon="2.70622">
        <ele>298.286</ele>
        <time>2013-04-20T17:19:28Z</time>
      </trkpt>
      <trkpt lat="42.23472" lon="2.70604">
        <ele>300.199</ele>
        <time>2013-04-20T17:19:37Z</time>
      </trkpt>
      <trkpt lat="42.23448" lon="2.70578">
        <ele>299.192</ele>
        <time>2013-04-20T17:19:49Z</time>
      </trkpt>
      <trkpt lat="42.23439" lon="2.70574">
        <ele>298.669</ele>
        <time>2013-04-20T17:19:53Z</time>
      </trkpt>
      <trkpt lat="42.23408" lon="2.70584">
        <ele>295.704</ele>
        <time>2013-04-20T17:20:06Z</time>
      </trkpt>
      <trkpt lat="42.23379" lon="2.70592">
        <ele>291.924</ele>
        <time>2013-04-20T17:20:18Z</time>
      </trkpt>
      <trkpt lat="42.23351" lon="2.70594">
        <ele>290.507</ele>
        <time>2013-04-20T17:20:29Z</time>
      </trkpt>
      <trkpt lat="42.2332" lon="2.70596">
        <ele>289.52</ele>
        <time>2013-04-20T17:20:41Z</time>
      </trkpt>
      <trkpt lat="42.23292" lon="2.70597">
        <ele>288.129</ele>
        <time>2013-04-20T17:20:52Z</time>
      </trkpt>
      <trkpt lat="42.23261" lon="2.70587">
        <ele>286.693</ele>
        <time>2013-04-20T17:21:04Z</time>
      </trkpt>
      <trkpt lat="42.23231" lon="2.70584">
        <ele>284.72</ele>
        <time>2013-04-20T17:21:16Z</time>
      </trkpt>
      <trkpt lat="42.23205" lon="2.70591">
        <ele>283.771</ele>
        <time>2013-04-20T17:21:26Z</time>
      </trkpt>
      <trkpt lat="42.23178" lon="2.706">
        <ele>280.474</ele>
        <time>2013-04-20T17:21:37Z</time>
      </trkpt>
      <trkpt lat="42.23153" lon="2.70606">
        <ele>280.867</ele>
        <time>2013-04-20T17:21:46Z</time>
      </trkpt>
      <trkpt lat="42.23125" lon="2.70612">
        <ele>279.929</ele>
        <time>2013-04-20T17:21:57Z</time>
      </trkpt>
      <trkpt lat="42.23097" lon="2.7061">
        <ele>278</ele>
        <time>2013-04-20T17:22:09Z</time>
      </trkpt>
      <trkpt lat="42.23071" lon="2.706">
        <ele>278.02</ele>
        <time>2013-04-20T17:22:20Z</time>
      </trkpt>
      <trkpt lat="42.23061" lon="2.70596">
        <ele>278.007</ele>
        <time>2013-04-20T17:22:25Z</time>
      </trkpt>
      <trkpt lat="42.23048" lon="2.70586">
        <ele>278.916</ele>
        <time>2013-04-20T17:22:39Z</time>
      </trkpt>
      <trkpt lat="42.23045" lon="2.70586">
        <ele>279.935</ele>
        <time>2013-04-20T17:22:43Z</time>
      </trkpt>
      <trkpt lat="42.2304" lon="2.70584">
        <ele>280.889</ele>
        <time>2013-04-20T17:22:47Z</time>
      </trkpt>
      <trkpt lat="42.2303" lon="2.70573">
        <ele>278.926</ele>
        <time>2013-04-20T17:23:00Z</time>
      </trkpt>
      <trkpt lat="42.2302" lon="2.70566">
        <ele>279.447</ele>
        <time>2013-04-20T17:23:12Z</time>
      </trkpt>
      <trkpt lat="42.23015" lon="2.70564">
        <ele>279.42</ele>
        <time>2013-04-20T17:23:17Z</time>
      </trkpt>
      <trkpt lat="42.23011" lon="2.70563">
        <ele>279.923</ele>
        <time>2013-04-20T17:23:20Z</time>
      </trkpt>
      <trkpt lat="42.23" lon="2.70562">
        <ele>282.315</ele>
        <time>2013-04-20T17:23:32Z</time>
      </trkpt>
      <trkpt lat="42.22983" lon="2.70561">
        <ele>285.765</ele>
        <time>2013-04-20T17:23:45Z</time>
      </trkpt>
      <trkpt lat="42.2298" lon="2.70561">
        <ele>286.111</ele>
        <time>2013-04-20T17:23:47Z</time>
      </trkpt>
      <trkpt lat="42.22959" lon="2.70562">
        <ele>288.507</ele>
        <time>2013-04-20T17:24:01Z</time>
      </trkpt>
      <trkpt lat="42.22958" lon="2.70563">
        <ele>289.065</ele>
        <time>2013-04-20T17:24:02Z</time>
      </trkpt>
      <trkpt lat="42.22942" lon="2.70564">
        <ele>290.524</ele>
        <time>2013-04-20T17:24:16Z</time>
      </trkpt>
      <trkpt lat="42.2293" lon="2.70555">
        <ele>291.438</ele>
        <time>2013-04-20T17:24:25Z</time>
      </trkpt>
      <trkpt lat="42.22914" lon="2.70541">
        <ele>291.485</ele>
        <time>2013-04-20T17:24:40Z</time>
      </trkpt>
      <trkpt lat="42.22911" lon="2.70535">
        <ele>290.056</ele>
        <time>2013-04-20T17:24:45Z</time>
      </trkpt>
      <trkpt lat="42.22903" lon="2.70524">
        <ele>289.019</ele>
        <time>2013-04-20T17:24:52Z</time>
      </trkpt>
      <trkpt lat="42.22898" lon="2.7052">
        <ele>288.182</ele>
        <time>2013-04-20T17:24:55Z</time>
      </trkpt>
      <trkpt lat="42.22891" lon="2.70518">
        <ele>288.192</ele>
        <time>2013-04-20T17:25:00Z</time>
      </trkpt>
      <trkpt lat="42.22888" lon="2.70516">
        <ele>288.173</ele>
        <time>2013-04-20T17:25:02Z</time>
      </trkpt>
      <trkpt lat="42.2288" lon="2.70506">
        <ele>287.62</ele>
        <time>2013-04-20T17:25:10Z</time>
      </trkpt>
      <trkpt lat="42.22868" lon="2.70495">
        <ele>287.607</ele>
        <time>2013-04-20T17:25:19Z</time>
      </trkpt>
      <trkpt lat="42.2286" lon="2.70485">
        <ele>287.113</ele>
        <time>2013-04-20T17:25:27Z</time>
      </trkpt>
      <trkpt lat="42.22856" lon="2.70476">
        <ele>287.682</ele>
        <time>2013-04-20T17:25:33Z</time>
      </trkpt>
      <trkpt lat="42.22846" lon="2.70469">
        <ele>288.576</ele>
        <time>2013-04-20T17:25:39Z</time>
      </trkpt>
      <trkpt lat="42.22839" lon="2.70462">
        <ele>289.093</ele>
        <time>2013-04-20T17:25:44Z</time>
      </trkpt>
      <trkpt lat="42.22831" lon="2.7044">
        <ele>290.944</ele>
        <time>2013-04-20T17:25:59Z</time>
      </trkpt>
      <trkpt lat="42.22828" lon="2.70433">
        <ele>292.427</ele>
        <time>2013-04-20T17:26:04Z</time>
      </trkpt>
      <trkpt lat="42.22825" lon="2.70428">
        <ele>292.41</ele>
        <time>2013-04-20T17:26:08Z</time>
      </trkpt>
      <trkpt lat="42.22815" lon="2.70407">
        <ele>294.376</ele>
        <time>2013-04-20T17:26:23Z</time>
      </trkpt>
      <trkpt lat="42.22807" lon="2.70386">
        <ele>293.89</ele>
        <time>2013-04-20T17:26:36Z</time>
      </trkpt>
      <trkpt lat="42.22803" lon="2.70368">
        <ele>291.919</ele>
        <time>2013-04-20T17:26:43Z</time>
      </trkpt>
      <trkpt lat="42.22801" lon="2.70364">
        <ele>291.407</ele>
        <time>2013-04-20T17:26:45Z</time>
      </trkpt>
      <trkpt lat="42.22799" lon="2.70363">
        <ele>291.471</ele>
        <time>2013-04-20T17:26:47Z</time>
      </trkpt>
      <trkpt lat="42.22793" lon="2.70344">
        <ele>291.93</ele>
        <time>2013-04-20T17:26:53Z</time>
      </trkpt>
      <trkpt lat="42.22793" lon="2.70339">
        <ele>291.954</ele>
        <time>2013-04-20T17:26:56Z</time>
      </trkpt>
      <trkpt lat="42.22785" lon="2.70311">
        <ele>294.821</ele>
        <time>2013-04-20T17:27:06Z</time>
      </trkpt>
      <trkpt lat="42.22775" lon="2.70307">
        <ele>297.262</ele>
        <time>2013-04-20T17:27:13Z</time>
      </trkpt>
      <trkpt lat="42.22762" lon="2.70303">
        <ele>299.135</ele>
        <time>2013-04-20T17:27:21Z</time>
      </trkpt>
      <trkpt lat="42.22741" lon="2.70298">
        <ele>302.058</ele>
        <time>2013-04-20T17:27:38Z</time>
      </trkpt>
      <trkpt lat="42.22732" lon="2.70293">
        <ele>303.931</ele>
        <time>2013-04-20T17:27:46Z</time>
      </trkpt>
      <trkpt lat="42.22711" lon="2.7028">
        <ele>305.861</ele>
        <time>2013-04-20T17:28:01Z</time>
      </trkpt>
      <trkpt lat="42.22699" lon="2.70285">
        <ele>305.807</ele>
        <time>2013-04-20T17:28:10Z</time>
      </trkpt>
      <trkpt lat="42.22687" lon="2.70277">
        <ele>306.807</ele>
        <time>2013-04-20T17:28:22Z</time>
      </trkpt>
      <trkpt lat="42.22675" lon="2.70278">
        <ele>310.217</ele>
        <time>2013-04-20T17:28:34Z</time>
      </trkpt>
      <trkpt lat="42.22665" lon="2.70275">
        <ele>314.556</ele>
        <time>2013-04-20T17:28:47Z</time>
      </trkpt>
      <trkpt lat="42.22655" lon="2.70266">
        <ele>320.39</ele>
        <time>2013-04-20T17:29:01Z</time>
      </trkpt>
      <trkpt lat="42.22646" lon="2.70253">
        <ele>321.287</ele>
        <time>2013-04-20T17:29:14Z</time>
      </trkpt>
      <trkpt lat="42.22635" lon="2.70247">
        <ele>321.728</ele>
        <time>2013-04-20T17:29:27Z</time>
      </trkpt>
      <trkpt lat="42.22626" lon="2.70238">
        <ele>323.641</ele>
        <time>2013-04-20T17:29:39Z</time>
      </trkpt>
      <trkpt lat="42.22616" lon="2.70224">
        <ele>324.684</ele>
        <time>2013-04-20T17:29:51Z</time>
      </trkpt>
      <trkpt lat="42.22608" lon="2.70216">
        <ele>324.612</ele>
        <time>2013-04-20T17:29:57Z</time>
      </trkpt>
      <trkpt lat="42.22604" lon="2.70206">
        <ele>323.632</ele>
        <time>2013-04-20T17:30:02Z</time>
      </trkpt>
      <trkpt lat="42.22602" lon="2.70201">
        <ele>323.105</ele>
        <time>2013-04-20T17:30:04Z</time>
      </trkpt>
      <trkpt lat="42.22601" lon="2.70198">
        <ele>322.707</ele>
        <time>2013-04-20T17:30:06Z</time>
      </trkpt>
      <trkpt lat="42.22596" lon="2.7018">
        <ele>320.385</ele>
        <time>2013-04-20T17:30:19Z</time>
      </trkpt>
      <trkpt lat="42.22593" lon="2.70171">
        <ele>319.894</ele>
        <time>2013-04-20T17:30:27Z</time>
      </trkpt>
      <trkpt lat="42.22587" lon="2.70165">
        <ele>317.918</ele>
        <time>2013-04-20T17:30:31Z</time>
      </trkpt>
      <trkpt lat="42.22578" lon="2.70144">
        <ele>312.165</ele>
        <time>2013-04-20T17:30:43Z</time>
      </trkpt>
      <trkpt lat="42.22575" lon="2.70134">
        <ele>312.116</ele>
        <time>2013-04-20T17:30:48Z</time>
      </trkpt>
      <trkpt lat="42.2257" lon="2.70121">
        <ele>310.699</ele>
        <time>2013-04-20T17:30:54Z</time>
      </trkpt>
      <trkpt lat="42.22569" lon="2.70118">
        <ele>310.262</ele>
        <time>2013-04-20T17:30:55Z</time>
      </trkpt>
      <trkpt lat="42.22569" lon="2.70103">
        <ele>308.783</ele>
        <time>2013-04-20T17:31:01Z</time>
      </trkpt>
      <trkpt lat="42.22561" lon="2.70076">
        <ele>305.825</ele>
        <time>2013-04-20T17:31:11Z</time>
      </trkpt>
      <trkpt lat="42.22558" lon="2.70071">
        <ele>305.817</ele>
        <time>2013-04-20T17:31:13Z</time>
      </trkpt>
      <trkpt lat="42.2255" lon="2.70054">
        <ele>304.907</ele>
        <time>2013-04-20T17:31:20Z</time>
      </trkpt>
      <trkpt lat="42.22536" lon="2.70034">
        <ele>306.892</ele>
        <time>2013-04-20T17:31:28Z</time>
      </trkpt>
      <trkpt lat="42.22534" lon="2.70033">
        <ele>306.331</ele>
        <time>2013-04-20T17:31:30Z</time>
      </trkpt>
      <trkpt lat="42.22515" lon="2.70011">
        <ele>304.455</ele>
        <time>2013-04-20T17:31:41Z</time>
      </trkpt>
      <trkpt lat="42.22498" lon="2.69992">
        <ele>302.552</ele>
        <time>2013-04-20T17:31:51Z</time>
      </trkpt>
      <trkpt lat="42.22497" lon="2.69991">
        <ele>302.573</ele>
        <time>2013-04-20T17:31:52Z</time>
      </trkpt>
      <trkpt lat="42.22482" lon="2.69967">
        <ele>300.616</ele>
        <time>2013-04-20T17:32:02Z</time>
      </trkpt>
      <trkpt lat="42.22481" lon="2.69952">
        <ele>300.169</ele>
        <time>2013-04-20T17:32:06Z</time>
      </trkpt>
      <trkpt lat="42.22464" lon="2.69925">
        <ele>297.233</ele>
        <time>2013-04-20T17:32:16Z</time>
      </trkpt>
      <trkpt lat="42.22449" lon="2.69899">
        <ele>292.923</ele>
        <time>2013-04-20T17:32:27Z</time>
      </trkpt>
      <trkpt lat="42.22436" lon="2.6987">
        <ele>292.415</ele>
        <time>2013-04-20T17:32:36Z</time>
      </trkpt>
      <trkpt lat="42.2242" lon="2.69848">
        <ele>294.307</ele>
        <time>2013-04-20T17:32:46Z</time>
      </trkpt>
      <trkpt lat="42.22403" lon="2.69838">
        <ele>297.727</ele>
        <time>2013-04-20T17:32:58Z</time>
      </trkpt>
      <trkpt lat="42.22397" lon="2.69837">
        <ele>298.626</ele>
        <time>2013-04-20T17:33:02Z</time>
      </trkpt>
      <trkpt lat="42.22372" lon="2.69844">
        <ele>300.18</ele>
        <time>2013-04-20T17:33:18Z</time>
      </trkpt>
      <trkpt lat="42.22359" lon="2.69842">
        <ele>300.637</ele>
        <time>2013-04-20T17:33:27Z</time>
      </trkpt>
      <trkpt lat="42.22357" lon="2.69824">
        <ele>299.638</ele>
        <time>2013-04-20T17:33:37Z</time>
      </trkpt>
      <trkpt lat="42.22356" lon="2.69805">
        <ele>297.281</ele>
        <time>2013-04-20T17:33:48Z</time>
      </trkpt>
      <trkpt lat="42.22353" lon="2.69788">
        <ele>294.824</ele>
        <time>2013-04-20T17:33:56Z</time>
      </trkpt>
      <trkpt lat="42.22348" lon="2.69776">
        <ele>292.999</ele>
        <time>2013-04-20T17:34:05Z</time>
      </trkpt>
      <trkpt lat="42.22344" lon="2.69763">
        <ele>290.907</ele>
        <time>2013-04-20T17:34:13Z</time>
      </trkpt>
      <trkpt lat="42.2234" lon="2.69754">
        <ele>289.527</ele>
        <time>2013-04-20T17:34:20Z</time>
      </trkpt>
      <trkpt lat="42.22339" lon="2.69751">
        <ele>288.507</ele>
        <time>2013-04-20T17:34:22Z</time>
      </trkpt>
      <trkpt lat="42.22331" lon="2.69746">
        <ele>286.673</ele>
        <time>2013-04-20T17:34:28Z</time>
      </trkpt>
      <trkpt lat="42.2232" lon="2.69743">
        <ele>285.752</ele>
        <time>2013-04-20T17:34:36Z</time>
      </trkpt>
      <trkpt lat="42.22314" lon="2.69746">
        <ele>284.246</ele>
        <time>2013-04-20T17:34:40Z</time>
      </trkpt>
      <trkpt lat="42.22308" lon="2.69746">
        <ele>283.383</ele>
        <time>2013-04-20T17:34:44Z</time>
      </trkpt>
      <trkpt lat="42.22301" lon="2.69743">
        <ele>281.894</ele>
        <time>2013-04-20T17:34:50Z</time>
      </trkpt>
      <trkpt lat="42.22298" lon="2.69743">
        <ele>281.337</ele>
        <time>2013-04-20T17:34:52Z</time>
      </trkpt>
      <trkpt lat="42.22292" lon="2.69745">
        <ele>280.89</ele>
        <time>2013-04-20T17:34:57Z</time>
      </trkpt>
      <trkpt lat="42.22281" lon="2.69741">
        <ele>280.475</ele>
        <time>2013-04-20T17:35:02Z</time>
      </trkpt>
      <trkpt lat="42.22265" lon="2.69748">
        <ele>278.028</ele>
        <time>2013-04-20T17:35:09Z</time>
      </trkpt>
      <trkpt lat="42.22247" lon="2.69776">
        <ele>277.52</ele>
        <time>2013-04-20T17:35:21Z</time>
      </trkpt>
      <trkpt lat="42.22243" lon="2.69784">
        <ele>277.507</ele>
        <time>2013-04-20T17:35:24Z</time>
      </trkpt>
      <trkpt lat="42.22225" lon="2.69801">
        <ele>274.681</ele>
        <time>2013-04-20T17:35:34Z</time>
      </trkpt>
      <trkpt lat="42.22205" lon="2.698">
        <ele>270.81</ele>
        <time>2013-04-20T17:35:43Z</time>
      </trkpt>
      <trkpt lat="42.22192" lon="2.69804">
        <ele>267.954</ele>
        <time>2013-04-20T17:35:49Z</time>
      </trkpt>
      <trkpt lat="42.22189" lon="2.69799">
        <ele>266.411</ele>
        <time>2013-04-20T17:36:02Z</time>
      </trkpt>
      <trkpt lat="42.22189" lon="2.69799">
        <ele>266.992</ele>
        <time>2013-04-20T17:36:09Z</time>
      </trkpt>
      <trkpt lat="42.22185" lon="2.69772">
        <ele>266.475</ele>
        <time>2013-04-20T17:36:18Z</time>
      </trkpt>
      <trkpt lat="42.2216" lon="2.69769">
        <ele>263.568</ele>
        <time>2013-04-20T17:36:29Z</time>
      </trkpt>
      <trkpt lat="42.2214" lon="2.69759">
        <ele>259.764</ele>
        <time>2013-04-20T17:36:39Z</time>
      </trkpt>
      <trkpt lat="42.22115" lon="2.69735">
        <ele>255.906</ele>
        <time>2013-04-20T17:36:53Z</time>
      </trkpt>
      <trkpt lat="42.22103" lon="2.69716">
        <ele>253.416</ele>
        <time>2013-04-20T17:37:02Z</time>
      </trkpt>
      <trkpt lat="42.22101" lon="2.69703">
        <ele>253.407</ele>
        <time>2013-04-20T17:37:08Z</time>
      </trkpt>
      <trkpt lat="42.22095" lon="2.69701">
        <ele>252.51</ele>
        <time>2013-04-20T17:37:10Z</time>
      </trkpt>
      <trkpt lat="42.22085" lon="2.69699">
        <ele>251.519</ele>
        <time>2013-04-20T17:37:15Z</time>
      </trkpt>
      <trkpt lat="42.22077" lon="2.69699">
        <ele>249.663</ele>
        <time>2013-04-20T17:37:20Z</time>
      </trkpt>
      <trkpt lat="42.22072" lon="2.69696">
        <ele>247.72</ele>
        <time>2013-04-20T17:37:23Z</time>
      </trkpt>
      <trkpt lat="42.22066" lon="2.69698">
        <ele>245.371</ele>
        <time>2013-04-20T17:37:27Z</time>
      </trkpt>
      <trkpt lat="42.22066" lon="2.6972">
        <ele>241.984</ele>
        <time>2013-04-20T17:37:36Z</time>
      </trkpt>
      <trkpt lat="42.22057" lon="2.69735">
        <ele>240.047</ele>
        <time>2013-04-20T17:37:43Z</time>
      </trkpt>
      <trkpt lat="42.2205" lon="2.69736">
        <ele>239.044</ele>
        <time>2013-04-20T17:37:47Z</time>
      </trkpt>
      <trkpt lat="42.22036" lon="2.69728">
        <ele>235.705</ele>
        <time>2013-04-20T17:37:55Z</time>
      </trkpt>
      <trkpt lat="42.22031" lon="2.69723">
        <ele>234.215</ele>
        <time>2013-04-20T17:37:59Z</time>
      </trkpt>
      <trkpt lat="42.2203" lon="2.6972">
        <ele>234.207</ele>
        <time>2013-04-20T17:38:00Z</time>
      </trkpt>
      <trkpt lat="42.22023" lon="2.6971">
        <ele>232.828</ele>
        <time>2013-04-20T17:38:05Z</time>
      </trkpt>
      <trkpt lat="42.22003" lon="2.69694">
        <ele>231.347</ele>
        <time>2013-04-20T17:38:16Z</time>
      </trkpt>
      <trkpt lat="42.21997" lon="2.69689">
        <ele>230.411</ele>
        <time>2013-04-20T17:38:19Z</time>
      </trkpt>
      <trkpt lat="42.21976" lon="2.6967">
        <ele>228.568</ele>
        <time>2013-04-20T17:38:29Z</time>
      </trkpt>
      <trkpt lat="42.2196" lon="2.69655">
        <ele>227.599</ele>
        <time>2013-04-20T17:38:38Z</time>
      </trkpt>
      <trkpt lat="42.21957" lon="2.6965">
        <ele>227.052</ele>
        <time>2013-04-20T17:38:40Z</time>
      </trkpt>
      <trkpt lat="42.21947" lon="2.69629">
        <ele>224.695</ele>
        <time>2013-04-20T17:38:48Z</time>
      </trkpt>
      <trkpt lat="42.21941" lon="2.69602">
        <ele>222.786</ele>
        <time>2013-04-20T17:38:57Z</time>
      </trkpt>
      <trkpt lat="42.21942" lon="2.69587">
        <ele>221.26</ele>
        <time>2013-04-20T17:39:01Z</time>
      </trkpt>
      <trkpt lat="42.21933" lon="2.69569">
        <ele>219.326</ele>
        <time>2013-04-20T17:39:09Z</time>
      </trkpt>
      <trkpt lat="42.21933" lon="2.69564">
        <ele>218.807</ele>
        <time>2013-04-20T17:39:11Z</time>
      </trkpt>
      <trkpt lat="42.21931" lon="2.69561">
        <ele>218.462</ele>
        <time>2013-04-20T17:39:13Z</time>
      </trkpt>
      <trkpt lat="42.21913" lon="2.6955">
        <ele>215.061</ele>
        <time>2013-04-20T17:39:27Z</time>
      </trkpt>
      <trkpt lat="42.2191" lon="2.69546">
        <ele>215.085</ele>
        <time>2013-04-20T17:39:30Z</time>
      </trkpt>
      <trkpt lat="42.21908" lon="2.6954">
        <ele>215.592</ele>
        <time>2013-04-20T17:39:33Z</time>
      </trkpt>
      <trkpt lat="42.21917" lon="2.69527">
        <ele>221.243</ele>
        <time>2013-04-20T17:39:46Z</time>
      </trkpt>
      <trkpt lat="42.21921" lon="2.69526">
        <ele>222.736</ele>
        <time>2013-04-20T17:39:49Z</time>
      </trkpt>
      <trkpt lat="42.2194" lon="2.69523">
        <ele>226.549</ele>
        <time>2013-04-20T17:40:02Z</time>
      </trkpt>
      <trkpt lat="42.21941" lon="2.69521">
        <ele>227.054</ele>
        <time>2013-04-20T17:40:04Z</time>
      </trkpt>
      <trkpt lat="42.21933" lon="2.69517">
        <ele>227.056</ele>
        <time>2013-04-20T17:40:11Z</time>
      </trkpt>
      <trkpt lat="42.21928" lon="2.69516">
        <ele>226.511</ele>
        <time>2013-04-20T17:40:15Z</time>
      </trkpt>
      <trkpt lat="42.21911" lon="2.69509">
        <ele>224.107</ele>
        <time>2013-04-20T17:40:28Z</time>
      </trkpt>
      <trkpt lat="42.21893" lon="2.695">
        <ele>227.029</ele>
        <time>2013-04-20T17:40:40Z</time>
      </trkpt>
      <trkpt lat="42.21888" lon="2.69495">
        <ele>228.078</ele>
        <time>2013-04-20T17:40:44Z</time>
      </trkpt>
      <trkpt lat="42.21885" lon="2.69494">
        <ele>228.952</ele>
        <time>2013-04-20T17:40:46Z</time>
      </trkpt>
      <trkpt lat="42.21862" lon="2.69487">
        <ele>231.879</ele>
        <time>2013-04-20T17:41:00Z</time>
      </trkpt>
      <trkpt lat="42.2184" lon="2.69473">
        <ele>230.96</ele>
        <time>2013-04-20T17:41:13Z</time>
      </trkpt>
      <trkpt lat="42.21833" lon="2.69453">
        <ele>230.463</ele>
        <time>2013-04-20T17:41:21Z</time>
      </trkpt>
      <trkpt lat="42.21822" lon="2.6943">
        <ele>229.476</ele>
        <time>2013-04-20T17:41:30Z</time>
      </trkpt>
      <trkpt lat="42.21803" lon="2.69402">
        <ele>228.018</ele>
        <time>2013-04-20T17:41:41Z</time>
      </trkpt>
      <trkpt lat="42.21786" lon="2.69375">
        <ele>225.198</ele>
        <time>2013-04-20T17:41:51Z</time>
      </trkpt>
      <trkpt lat="42.21772" lon="2.69351">
        <ele>218.417</ele>
        <time>2013-04-20T17:42:02Z</time>
      </trkpt>
      <trkpt lat="42.21756" lon="2.69334">
        <ele>219.307</ele>
        <time>2013-04-20T17:42:12Z</time>
      </trkpt>
      <trkpt lat="42.21738" lon="2.6932">
        <ele>218.415</ele>
        <time>2013-04-20T17:42:23Z</time>
      </trkpt>
      <trkpt lat="42.21717" lon="2.69295">
        <ele>219.894</ele>
        <time>2013-04-20T17:42:38Z</time>
      </trkpt>
      <trkpt lat="42.2171" lon="2.69281">
        <ele>218.888</ele>
        <time>2013-04-20T17:42:45Z</time>
      </trkpt>
      <trkpt lat="42.21691" lon="2.69273">
        <ele>219.325</ele>
        <time>2013-04-20T17:42:55Z</time>
      </trkpt>
      <trkpt lat="42.21682" lon="2.69274">
        <ele>222.256</ele>
        <time>2013-04-20T17:43:08Z</time>
      </trkpt>
      <trkpt lat="42.21665" lon="2.69266">
        <ele>221.729</ele>
        <time>2013-04-20T17:43:22Z</time>
      </trkpt>
      <trkpt lat="42.21656" lon="2.69264">
        <ele>222.292</ele>
        <time>2013-04-20T17:43:29Z</time>
      </trkpt>
      <trkpt lat="42.21635" lon="2.69255">
        <ele>217.982</ele>
        <time>2013-04-20T17:43:39Z</time>
      </trkpt>
      <trkpt lat="42.21631" lon="2.69253">
        <ele>216.943</ele>
        <time>2013-04-20T17:43:41Z</time>
      </trkpt>
      <trkpt lat="42.2161" lon="2.69237">
        <ele>212.117</ele>
        <time>2013-04-20T17:43:52Z</time>
      </trkpt>
      <trkpt lat="42.21589" lon="2.69216">
        <ele>212.607</ele>
        <time>2013-04-20T17:44:04Z</time>
      </trkpt>
      <trkpt lat="42.21576" lon="2.69198">
        <ele>213.122</ele>
        <time>2013-04-20T17:44:14Z</time>
      </trkpt>
      <trkpt lat="42.21557" lon="2.69173">
        <ele>217.971</ele>
        <time>2013-04-20T17:44:30Z</time>
      </trkpt>
      <trkpt lat="42.21552" lon="2.69167">
        <ele>220.835</ele>
        <time>2013-04-20T17:44:34Z</time>
      </trkpt>
      <trkpt lat="42.21546" lon="2.69163">
        <ele>222.252</ele>
        <time>2013-04-20T17:44:38Z</time>
      </trkpt>
      <trkpt lat="42.21543" lon="2.69159">
        <ele>224.193</ele>
        <time>2013-04-20T17:44:41Z</time>
      </trkpt>
      <trkpt lat="42.21534" lon="2.69154">
        <ele>225.156</ele>
        <time>2013-04-20T17:44:49Z</time>
      </trkpt>
      <trkpt lat="42.21511" lon="2.69145">
        <ele>222.229</ele>
        <time>2013-04-20T17:45:00Z</time>
      </trkpt>
      <trkpt lat="42.21506" lon="2.69144">
        <ele>221.286</ele>
        <time>2013-04-20T17:45:03Z</time>
      </trkpt>
      <trkpt lat="42.21481" lon="2.69125">
        <ele>219.86</ele>
        <time>2013-04-20T17:45:15Z</time>
      </trkpt>
      <trkpt lat="42.21478" lon="2.69111">
        <ele>217.926</ele>
        <time>2013-04-20T17:45:19Z</time>
      </trkpt>
      <trkpt lat="42.21478" lon="2.69094">
        <ele>211.207</ele>
        <time>2013-04-20T17:45:25Z</time>
      </trkpt>
      <trkpt lat="42.2145" lon="2.69088">
        <ele>210.742</ele>
        <time>2013-04-20T17:45:35Z</time>
      </trkpt>
      <trkpt lat="42.2142" lon="2.69079">
        <ele>205.911</ele>
        <time>2013-04-20T17:45:45Z</time>
      </trkpt>
      <trkpt lat="42.21397" lon="2.69061">
        <ele>205.485</ele>
        <time>2013-04-20T17:45:54Z</time>
      </trkpt>
      <trkpt lat="42.21379" lon="2.69034">
        <ele>203.082</ele>
        <time>2013-04-20T17:46:04Z</time>
      </trkpt>
      <trkpt lat="42.21355" lon="2.69011">
        <ele>203.983</ele>
        <time>2013-04-20T17:46:14Z</time>
      </trkpt>
      <trkpt lat="42.2133" lon="2.68978">
        <ele>199.186</ele>
        <time>2013-04-20T17:46:26Z</time>
      </trkpt>
      <trkpt lat="42.21308" lon="2.68953">
        <ele>196.779</ele>
        <time>2013-04-20T17:46:36Z</time>
      </trkpt>
      <trkpt lat="42.21284" lon="2.68935">
        <ele>193.417</ele>
        <time>2013-04-20T17:46:46Z</time>
      </trkpt>
      <trkpt lat="42.21259" lon="2.68924">
        <ele>195.887</ele>
        <time>2013-04-20T17:46:58Z</time>
      </trkpt>
      <trkpt lat="42.21236" lon="2.68925">
        <ele>195.815</ele>
        <time>2013-04-20T17:47:12Z</time>
      </trkpt>
      <trkpt lat="42.21228" lon="2.68919">
        <ele>197.707</ele>
        <time>2013-04-20T17:47:19Z</time>
      </trkpt>
      <trkpt lat="42.21205" lon="2.68895">
        <ele>204.415</ele>
        <time>2013-04-20T17:47:37Z</time>
      </trkpt>
      <trkpt lat="42.2119" lon="2.68881">
        <ele>207.314</ele>
        <time>2013-04-20T17:47:49Z</time>
      </trkpt>
      <trkpt lat="42.21167" lon="2.68861">
        <ele>210.288</ele>
        <time>2013-04-20T17:48:07Z</time>
      </trkpt>
      <trkpt lat="42.21148" lon="2.6885">
        <ele>211.695</ele>
        <time>2013-04-20T17:48:21Z</time>
      </trkpt>
      <trkpt lat="42.21127" lon="2.68833">
        <ele>208.336</ele>
        <time>2013-04-20T17:48:37Z</time>
      </trkpt>
      <trkpt lat="42.21106" lon="2.68824">
        <ele>206.389</ele>
        <time>2013-04-20T17:48:51Z</time>
      </trkpt>
      <trkpt lat="42.21085" lon="2.68818">
        <ele>206.312</ele>
        <time>2013-04-20T17:49:05Z</time>
      </trkpt>
      <trkpt lat="42.21076" lon="2.68822">
        <ele>206.868</ele>
        <time>2013-04-20T17:49:11Z</time>
      </trkpt>
      <trkpt lat="42.21068" lon="2.68836">
        <ele>207.842</ele>
        <time>2013-04-20T17:49:17Z</time>
      </trkpt>
      <trkpt lat="42.21045" lon="2.68851">
        <ele>202.026</ele>
        <time>2013-04-20T17:49:28Z</time>
      </trkpt>
      <trkpt lat="42.21023" lon="2.68843">
        <ele>197.707</ele>
        <time>2013-04-20T17:49:38Z</time>
      </trkpt>
      <trkpt lat="42.21014" lon="2.68838">
        <ele>195.37</ele>
        <time>2013-04-20T17:49:44Z</time>
      </trkpt>
      <trkpt lat="42.20997" lon="2.68842">
        <ele>196.789</ele>
        <time>2013-04-20T17:49:55Z</time>
      </trkpt>
      <trkpt lat="42.20999" lon="2.6888">
        <ele>192.963</ele>
        <time>2013-04-20T17:50:07Z</time>
      </trkpt>
      <trkpt lat="42.20992" lon="2.68915">
        <ele>187.67</ele>
        <time>2013-04-20T17:50:17Z</time>
      </trkpt>
      <trkpt lat="42.20976" lon="2.68936">
        <ele>182.821</ele>
        <time>2013-04-20T17:50:26Z</time>
      </trkpt>
      <trkpt lat="42.20954" lon="2.68954">
        <ele>181.894</ele>
        <time>2013-04-20T17:50:36Z</time>
      </trkpt>
      <trkpt lat="42.20929" lon="2.6897">
        <ele>184.247</ele>
        <time>2013-04-20T17:50:46Z</time>
      </trkpt>
      <trkpt lat="42.20907" lon="2.6898">
        <ele>185.739</ele>
        <time>2013-04-20T17:50:55Z</time>
      </trkpt>
      <trkpt lat="42.2088" lon="2.6898">
        <ele>186.201</ele>
        <time>2013-04-20T17:51:06Z</time>
      </trkpt>
      <trkpt lat="42.20854" lon="2.68975">
        <ele>186.621</ele>
        <time>2013-04-20T17:51:16Z</time>
      </trkpt>
      <trkpt lat="42.20831" lon="2.68978">
        <ele>185.207</ele>
        <time>2013-04-20T17:51:25Z</time>
      </trkpt>
      <trkpt lat="42.20809" lon="2.68984">
        <ele>185.257</ele>
        <time>2013-04-20T17:51:34Z</time>
      </trkpt>
      <trkpt lat="42.20805" lon="2.68987">
        <ele>185.246</ele>
        <time>2013-04-20T17:51:36Z</time>
      </trkpt>
      <trkpt lat="42.20781" lon="2.69">
        <ele>184.75</ele>
        <time>2013-04-20T17:51:47Z</time>
      </trkpt>
      <trkpt lat="42.20777" lon="2.69003">
        <ele>185.247</ele>
        <time>2013-04-20T17:51:49Z</time>
      </trkpt>
      <trkpt lat="42.20766" lon="2.69009">
        <ele>185.258</ele>
        <time>2013-04-20T17:51:54Z</time>
      </trkpt>
      <trkpt lat="42.20741" lon="2.69023">
        <ele>184.761</ele>
        <time>2013-04-20T17:52:05Z</time>
      </trkpt>
      <trkpt lat="42.20722" lon="2.69037">
        <ele>186.664</ele>
        <time>2013-04-20T17:52:13Z</time>
      </trkpt>
      <trkpt lat="42.20707" lon="2.69049">
        <ele>186.697</ele>
        <time>2013-04-20T17:52:22Z</time>
      </trkpt>
      <trkpt lat="42.20689" lon="2.69065">
        <ele>184.723</ele>
        <time>2013-04-20T17:52:31Z</time>
      </trkpt>
      <trkpt lat="42.20681" lon="2.69074">
        <ele>184.225</ele>
        <time>2013-04-20T17:52:36Z</time>
      </trkpt>
      <trkpt lat="42.2068" lon="2.69105">
        <ele>182.807</ele>
        <time>2013-04-20T17:52:46Z</time>
      </trkpt>
      <trkpt lat="42.20683" lon="2.69136">
        <ele>181.413</ele>
        <time>2013-04-20T17:52:55Z</time>
      </trkpt>
      <trkpt lat="42.20684" lon="2.69173">
        <ele>176.112</ele>
        <time>2013-04-20T17:53:06Z</time>
      </trkpt>
      <trkpt lat="42.20686" lon="2.69209">
        <ele>173.276</ele>
        <time>2013-04-20T17:53:16Z</time>
      </trkpt>
      <trkpt lat="42.20687" lon="2.69253">
        <ele>167.933</ele>
        <time>2013-04-20T17:53:28Z</time>
      </trkpt>
      <trkpt lat="42.20695" lon="2.69291">
        <ele>165.064</ele>
        <time>2013-04-20T17:53:38Z</time>
      </trkpt>
      <trkpt lat="42.20702" lon="2.6933">
        <ele>162.657</ele>
        <time>2013-04-20T17:53:48Z</time>
      </trkpt>
      <trkpt lat="42.20706" lon="2.69378">
        <ele>160.22</ele>
        <time>2013-04-20T17:54:00Z</time>
      </trkpt>
      <trkpt lat="42.20711" lon="2.69417">
        <ele>158.397</ele>
        <time>2013-04-20T17:54:10Z</time>
      </trkpt>
      <trkpt lat="42.20714" lon="2.69458">
        <ele>157.323</ele>
        <time>2013-04-20T17:54:21Z</time>
      </trkpt>
      <trkpt lat="42.2071" lon="2.69491">
        <ele>156.425</ele>
        <time>2013-04-20T17:54:30Z</time>
      </trkpt>
      <trkpt lat="42.20707" lon="2.69499">
        <ele>156.807</ele>
        <time>2013-04-20T17:54:33Z</time>
      </trkpt>
      <trkpt lat="42.20708" lon="2.6951">
        <ele>157.343</ele>
        <time>2013-04-20T17:54:37Z</time>
      </trkpt>
      <trkpt lat="42.20691" lon="2.69532">
        <ele>157.842</ele>
        <time>2013-04-20T17:54:45Z</time>
      </trkpt>
      <trkpt lat="42.20681" lon="2.69551">
        <ele>157.886</ele>
        <time>2013-04-20T17:54:53Z</time>
      </trkpt>
      <trkpt lat="42.2068" lon="2.6956">
        <ele>157.873</ele>
        <time>2013-04-20T17:54:57Z</time>
      </trkpt>
      <trkpt lat="42.20693" lon="2.69593">
        <ele>156.854</ele>
        <time>2013-04-20T17:55:13Z</time>
      </trkpt>
      <trkpt lat="42.20697" lon="2.69625">
        <ele>155.417</ele>
        <time>2013-04-20T17:55:26Z</time>
      </trkpt>
      <trkpt lat="42.20701" lon="2.69666">
        <ele>153.06</ele>
        <time>2013-04-20T17:55:43Z</time>
      </trkpt>
      <trkpt lat="42.20706" lon="2.69704">
        <ele>151.581</ele>
        <time>2013-04-20T17:55:55Z</time>
      </trkpt>
      <trkpt lat="42.20701" lon="2.69742">
        <ele>150.661</ele>
        <time>2013-04-20T17:56:05Z</time>
      </trkpt>
      <trkpt lat="42.20695" lon="2.69748">
        <ele>150.117</ele>
        <time>2013-04-20T17:56:07Z</time>
      </trkpt>
      <trkpt lat="42.20666" lon="2.69752">
        <ele>153.507</ele>
        <time>2013-04-20T17:56:18Z</time>
      </trkpt>
      <trkpt lat="42.20646" lon="2.69756">
        <ele>153.042</ele>
        <time>2013-04-20T17:56:27Z</time>
      </trkpt>
      <trkpt lat="42.2064" lon="2.69758">
        <ele>153.551</ele>
        <time>2013-04-20T17:56:30Z</time>
      </trkpt>
      <trkpt lat="42.20616" lon="2.69743">
        <ele>152.565</ele>
        <time>2013-04-20T17:56:41Z</time>
      </trkpt>
      <trkpt lat="42.20592" lon="2.69733">
        <ele>153.072</ele>
        <time>2013-04-20T17:56:50Z</time>
      </trkpt>
      <trkpt lat="42.20571" lon="2.69724">
        <ele>153.013</ele>
        <time>2013-04-20T17:56:59Z</time>
      </trkpt>
      <trkpt lat="42.20566" lon="2.69724">
        <ele>153.066</ele>
        <time>2013-04-20T17:57:01Z</time>
      </trkpt>
      <trkpt lat="42.2054" lon="2.69713">
        <ele>154.429</ele>
        <time>2013-04-20T17:57:13Z</time>
      </trkpt>
      <trkpt lat="42.20538" lon="2.69714">
        <ele>154.493</ele>
        <time>2013-04-20T17:57:14Z</time>
      </trkpt>
      <trkpt lat="42.20518" lon="2.69738">
        <ele>154.465</ele>
        <time>2013-04-20T17:57:25Z</time>
      </trkpt>
      <trkpt lat="42.20498" lon="2.69751">
        <ele>154.921</ele>
        <time>2013-04-20T17:57:34Z</time>
      </trkpt>
      <trkpt lat="42.20475" lon="2.69754">
        <ele>151.107</ele>
        <time>2013-04-20T17:57:44Z</time>
      </trkpt>
      <trkpt lat="42.20462" lon="2.69747">
        <ele>149.613</ele>
        <time>2013-04-20T17:57:59Z</time>
      </trkpt>
      <trkpt lat="42.20446" lon="2.6974">
        <ele>150.182</ele>
        <time>2013-04-20T17:58:06Z</time>
      </trkpt>
      <trkpt lat="42.20438" lon="2.69719">
        <ele>148.756</ele>
        <time>2013-04-20T17:58:14Z</time>
      </trkpt>
      <trkpt lat="42.2043" lon="2.69706">
        <ele>147.773</ele>
        <time>2013-04-20T17:58:19Z</time>
      </trkpt>
      <trkpt lat="42.20406" lon="2.69697">
        <ele>145.894</ele>
        <time>2013-04-20T17:58:30Z</time>
      </trkpt>
      <trkpt lat="42.20384" lon="2.69705">
        <ele>146.777</ele>
        <time>2013-04-20T17:58:39Z</time>
      </trkpt>
      <trkpt lat="42.2038" lon="2.69707">
        <ele>146.73</ele>
        <time>2013-04-20T17:58:41Z</time>
      </trkpt>
      <trkpt lat="42.20366" lon="2.69682">
        <ele>144.811</ele>
        <time>2013-04-20T17:58:51Z</time>
      </trkpt>
      <trkpt lat="42.20357" lon="2.6966">
        <ele>143.421</ele>
        <time>2013-04-20T17:58:59Z</time>
      </trkpt>
      <trkpt lat="42.20361" lon="2.69627">
        <ele>141.503</ele>
        <time>2013-04-20T17:59:15Z</time>
      </trkpt>
      <trkpt lat="42.20363" lon="2.69618">
        <ele>141.507</ele>
        <time>2013-04-20T17:59:18Z</time>
      </trkpt>
      <trkpt lat="42.20367" lon="2.69598">
        <ele>141.085</ele>
        <time>2013-04-20T17:59:25Z</time>
      </trkpt>
      <trkpt lat="42.20365" lon="2.69591">
        <ele>141.014</ele>
        <time>2013-04-20T17:59:28Z</time>
      </trkpt>
      <trkpt lat="42.20362" lon="2.69588">
        <ele>141.538</ele>
        <time>2013-04-20T17:59:29Z</time>
      </trkpt>
      <trkpt lat="42.20338" lon="2.69591">
        <ele>145.355</ele>
        <time>2013-04-20T17:59:40Z</time>
      </trkpt>
      <trkpt lat="42.20334" lon="2.69591">
        <ele>146.376</ele>
        <time>2013-04-20T17:59:42Z</time>
      </trkpt>
      <trkpt lat="42.20327" lon="2.69593">
        <ele>147.799</ele>
        <time>2013-04-20T17:59:47Z</time>
      </trkpt>
      <trkpt lat="42.2032" lon="2.69591">
        <ele>148.712</ele>
        <time>2013-04-20T17:59:51Z</time>
      </trkpt>
      <trkpt lat="42.20316" lon="2.6959">
        <ele>149.119</ele>
        <time>2013-04-20T17:59:54Z</time>
      </trkpt>
      <trkpt lat="42.20314" lon="2.69588">
        <ele>149.609</ele>
        <time>2013-04-20T17:59:56Z</time>
      </trkpt>
      <trkpt lat="42.20308" lon="2.69583">
        <ele>151.519</ele>
        <time>2013-04-20T18:00:01Z</time>
      </trkpt>
      <trkpt lat="42.20291" lon="2.6957">
        <ele>152.007</ele>
        <time>2013-04-20T18:00:16Z</time>
      </trkpt>
      <trkpt lat="42.20285" lon="2.69566">
        <ele>154.045</ele>
        <time>2013-04-20T18:00:22Z</time>
      </trkpt>
      <trkpt lat="42.20268" lon="2.69557">
        <ele>156.844</ele>
        <time>2013-04-20T18:00:37Z</time>
      </trkpt>
      <trkpt lat="42.20257" lon="2.69552">
        <ele>161.248</ele>
        <time>2013-04-20T18:00:49Z</time>
      </trkpt>
      <trkpt lat="42.20246" lon="2.69552">
        <ele>165.545</ele>
        <time>2013-04-20T18:01:01Z</time>
      </trkpt>
      <trkpt lat="42.20243" lon="2.69551">
        <ele>166.086</ele>
        <time>2013-04-20T18:01:04Z</time>
      </trkpt>
      <trkpt lat="42.20236" lon="2.69549">
        <ele>167.429</ele>
        <time>2013-04-20T18:01:09Z</time>
      </trkpt>
      <trkpt lat="42.2021" lon="2.69552">
        <ele>169.392</ele>
        <time>2013-04-20T18:01:25Z</time>
      </trkpt>
      <trkpt lat="42.20184" lon="2.6956">
        <ele>171.366</ele>
        <time>2013-04-20T18:01:41Z</time>
      </trkpt>
      <trkpt lat="42.20161" lon="2.69578">
        <ele>173.729</ele>
        <time>2013-04-20T18:01:54Z</time>
      </trkpt>
      <trkpt lat="42.20145" lon="2.6959">
        <ele>170.821</ele>
        <time>2013-04-20T18:02:02Z</time>
      </trkpt>
      <trkpt lat="42.20124" lon="2.69608">
        <ele>168.407</ele>
        <time>2013-04-20T18:02:13Z</time>
      </trkpt>
      <trkpt lat="42.20107" lon="2.69623">
        <ele>168.45</ele>
        <time>2013-04-20T18:02:22Z</time>
      </trkpt>
      <trkpt lat="42.20093" lon="2.6964">
        <ele>168.499</ele>
        <time>2013-04-20T18:02:36Z</time>
      </trkpt>
      <trkpt lat="42.20079" lon="2.69647">
        <ele>170.333</ele>
        <time>2013-04-20T18:02:50Z</time>
      </trkpt>
      <trkpt lat="42.20069" lon="2.69657">
        <ele>171.79</ele>
        <time>2013-04-20T18:03:05Z</time>
      </trkpt>
      <trkpt lat="42.20062" lon="2.69665">
        <ele>172.721</ele>
        <time>2013-04-20T18:03:20Z</time>
      </trkpt>
      <trkpt lat="42.20062" lon="2.69665">
        <ele>172.764</ele>
        <time>2013-04-20T18:03:21Z</time>
      </trkpt>
      <trkpt lat="42.20058" lon="2.69687">
        <ele>171.377</ele>
        <time>2013-04-20T18:03:36Z</time>
      </trkpt>
      <trkpt lat="42.20053" lon="2.69715">
        <ele>170.394</ele>
        <time>2013-04-20T18:03:51Z</time>
      </trkpt>
      <trkpt lat="42.20052" lon="2.69746">
        <ele>167.457</ele>
        <time>2013-04-20T18:04:07Z</time>
      </trkpt>
      <trkpt lat="42.20053" lon="2.69754">
        <ele>167.422</ele>
        <time>2013-04-20T18:04:11Z</time>
      </trkpt>
      <trkpt lat="42.20054" lon="2.69757">
        <ele>166.507</ele>
        <time>2013-04-20T18:04:14Z</time>
      </trkpt>
      <trkpt lat="42.20061" lon="2.69775">
        <ele>160.223</ele>
        <time>2013-04-20T18:04:29Z</time>
      </trkpt>
      <trkpt lat="42.20059" lon="2.69778">
        <ele>160.242</ele>
        <time>2013-04-20T18:04:33Z</time>
      </trkpt>
    </trkseg>
  </trk>
</gpx>